GFSCGP_prec_precacc_027.txt.gz
Total_Precipitation_Accumulation
0.00 0.00 0.00 0.00 0.00 0.00 0.00 0.00 0.00 0.00 0.00 0.00 0.00 0.00 0.00 0.00 0.00 0.00 0.00 0.00 0.00 0.00 0.00 0.02 0.04 0.06 0.08 0.16 0.38 0.61 0.87 0.67 0.23 0.07 0.05 0.04 0.02 0.02 0.03 0.02 0.00 0.00 0.00 0.00
0.00 0.00 0.00 0.00 0.00 0.00 0.00 0.00 0.00 0.00 0.00 0.00 0.00 0.00 0.00 0.00 0.00 0.00 0.00 0.00 0.00 0.00 0.00 0.01 0.04 0.10 0.28 0.43 0.41 0.29 0.09 0.01 0.01 0.01 0.02 0.03 0.02 0.01 0.00 0.00 0.00 0.00 0.00 0.00
0.00 0.00 0.00 0.00 0.00 0.00 0.00 0.00 0.00 0.00 0.00 0.00 0.00 0.00 0.00 0.00 0.00 0.00 0.00 0.00 0.00 0.00 0.01 0.04 0.08 0.13 0.10 0.05 0.00 0.00 0.00 0.00 0.00 0.01 0.01 0.00 0.00 0.00 0.00 0.00 0.00 0.00 0.00 0.00
0.00 0.00 0.00 0.00 0.00 0.00 0.00 0.00 0.00 0.00 0.00 0.00 0.00 0.00 0.00 0.00 0.00 0.00 0.00 0.00 0.00 0.01 0.02 0.02 0.00 0.00 0.00 0.00 0.00 0.00 0.00 0.00 0.00 0.00 0.00 0.00 0.00 0.00 0.00 0.00 0.00 0.00 0.00 0.00
0.00 0.00 0.00 0.00 0.00 0.00 0.00 0.00 0.00 0.00 0.00 0.00 0.00 0.00 0.00 0.00 0.00 0.00 0.00 0.00 0.00 0.00 0.00 0.00 0.00 0.00 0.00 0.00 0.00 0.00 0.00 0.00 0.00 0.00 0.00 0.00 0.00 0.00 0.00 0.00 0.00 0.00 0.00 0.00
0.00 0.00 0.00 0.00 0.00 0.00 0.00 0.00 0.00 0.00 0.00 0.00 0.00 0.01 0.01 0.01 0.00 0.00 0.00 0.00 0.00 0.00 0.00 0.00 0.00 0.00 0.00 0.00 0.00 0.00 0.00 0.00 0.00 0.00 0.00 0.00 0.00 0.00 0.00 0.00 0.00 0.00 0.00 0.01
0.00 0.00 0.00 0.00 0.00 0.00 0.00 0.00 0.00 0.01 0.00 0.01 0.03 0.02 0.00 0.00 0.00 0.00 0.00 0.00 0.00 0.00 0.00 0.01 0.00 0.00 0.00 0.00 0.00 0.00 0.00 0.00 0.00 0.00 0.00 0.00 0.00 0.00 0.00 0.00 0.00 0.00 0.00 0.00
0.00 0.00 0.00 0.00 0.00 0.00 0.00 0.00 0.00 0.01 0.01 0.02 0.00 0.00 0.00 0.00 0.00 0.00 0.00 0.00 0.00 0.00 0.00 0.00 0.00 0.00 0.00 0.00 0.00 0.00 0.00 0.00 0.00 0.00 0.00 0.00 0.00 0.00 0.00 0.00 0.00 0.00 0.00 0.00
0.00 0.00 0.00 0.00 0.00 0.00 0.00 0.00 0.00 0.00 0.00 0.00 0.00 0.00 0.00 0.00 0.00 0.00 0.00 0.00 0.00 0.00 0.00 0.00 0.00 0.00 0.00 0.00 0.00 0.00 0.00 0.00 0.00 0.00 0.00 0.00 0.00 0.00 0.00 0.00 0.00 0.00 0.00 0.00
0.00 0.00 0.00 0.00 0.00 0.00 0.00 0.00 0.00 0.00 0.00 0.00 0.00 0.00 0.00 0.00 0.00 0.00 0.00 0.00 0.00 0.00 0.00 0.00 0.00 0.00 0.00 0.00 0.00 0.00 0.00 0.00 0.00 0.00 0.00 0.00 0.00 0.00 0.00 0.00 0.00 0.00 0.00 0.00
0.00 0.00 0.00 0.00 0.00 0.00 0.00 0.00 0.00 0.00 0.00 0.00 0.00 0.00 0.00 0.00 0.00 0.00 0.00 0.00 0.00 0.00 0.00 0.00 0.00 0.00 0.00 0.00 0.00 0.00 0.00 0.00 0.00 0.00 0.00 0.00 0.00 0.00 0.00 0.00 0.00 0.00 0.00 0.00
0.00 0.00 0.00 0.00 0.00 0.00 0.00 0.00 0.00 0.00 0.00 0.00 0.00 0.00 0.00 0.00 0.00 0.00 0.00 0.00 0.00 0.00 0.00 0.00 0.00 0.00 0.00 0.00 0.00 0.00 0.00 0.00 0.00 0.00 0.00 0.00 0.00 0.00 0.00 0.00 0.00 0.00 0.01 0.01
0.00 0.00 0.00 0.00 0.00 0.00 0.00 0.00 0.00 0.00 0.00 0.00 0.01 0.00 0.00 0.00 0.00 0.00 0.00 0.00 0.00 0.00 0.00 0.00 0.00 0.00 0.00 0.00 0.00 0.00 0.00 0.00 0.00 0.00 0.00 0.00 0.00 0.00 0.00 0.00 0.01 0.01 0.02 0.02
0.00 0.00 0.00 0.00 0.00 0.00 0.00 0.00 0.00 0.00 0.00 0.00 0.00 0.00 0.00 0.00 0.00 0.00 0.00 0.00 0.00 0.00 0.00 0.00 0.00 0.00 0.00 0.00 0.00 0.00 0.00 0.00 0.00 0.00 0.00 0.00 0.01 0.01 0.01 0.00 0.02 0.02 0.03 0.02
0.00 0.00 0.00 0.00 0.00 0.00 0.00 0.00 0.00 0.00 0.00 0.00 0.00 0.00 0.00 0.00 0.00 0.00 0.00 0.00 0.00 0.00 0.00 0.00 0.00 0.00 0.00 0.00 0.00 0.00 0.00 0.00 0.00 0.00 0.00 0.00 0.00 0.01 0.02 0.02 0.03 0.06 0.02 0.01
0.00 0.00 0.00 0.00 0.00 0.00 0.00 0.00 0.00 0.00 0.00 0.00 0.00 0.00 0.00 0.00 0.00 0.00 0.00 0.00 0.00 0.00 0.00 0.00 0.00 0.00 0.00 0.00 0.00 0.00 0.00 0.00 0.00 0.01 0.01 0.00 0.01 0.02 0.03 0.04 0.05 0.01 0.01 0.01
0.00 0.00 0.00 0.00 0.00 0.00 0.00 0.00 0.00 0.00 0.00 0.00 0.00 0.00 0.00 0.00 0.00 0.00 0.00 0.00 0.00 0.00 0.00 0.00 0.00 0.00 0.00 0.00 0.00 0.00 0.00 0.00 0.00 0.00 0.01 0.01 0.02 0.02 0.02 0.02 0.03 0.03 0.03 0.01
0.00 0.00 0.00 0.00 0.00 0.00 0.00 0.00 0.00 0.00 0.00 0.00 0.00 0.00 0.00 0.00 0.00 0.00 0.00 0.00 0.00 0.00 0.00 0.00 0.00 0.00 0.00 0.00 0.00 0.00 0.00 0.00 0.00 0.00 0.01 0.03 0.02 0.01 0.02 0.05 0.04 0.02 0.00 0.00
0.00 0.00 0.00 0.00 0.00 0.00 0.00 0.00 0.00 0.00 0.00 0.00 0.00 0.00 0.00 0.00 0.00 0.00 0.00 0.02 0.02 0.02 0.01 0.00 0.00 0.00 0.00 0.00 0.00 0.00 0.00 0.00 0.00 0.00 0.01 0.01 0.02 0.02 0.02 0.02 0.05 0.02 0.00 0.00
0.00 0.00 0.00 0.00 0.02 0.01 0.00 0.00 0.00 0.00 0.00 0.00 0.00 0.01 0.00 0.00 0.01 0.03 0.05 0.06 0.06 0.01 0.00 0.00 0.00 0.00 0.00 0.00 0.00 0.00 0.00 0.00 0.00 0.01 0.01 0.01 0.02 0.03 0.08 0.10 0.02 0.00 0.00 0.00
0.00 0.00 0.00 0.00 0.02 0.00 0.00 0.00 0.00 0.06 0.06 0.01 0.02 0.01 0.01 0.01 0.06 0.09 0.05 0.05 0.01 0.00 0.00 0.00 0.00 0.00 0.00 0.00 0.00 0.00 0.00 0.00 0.00 0.00 0.01 0.04 0.09 0.07 0.03 0.00 0.00 0.00 0.00 0.00
0.00 0.00 0.00 0.01 0.01 0.01 0.00 0.00 0.02 0.03 0.02 0.02 0.01 0.00 0.02 0.07 0.08 0.02 0.00 0.00 0.00 0.00 0.00 0.00 0.00 0.00 0.00 0.00 0.00 0.00 0.00 0.00 0.00 0.01 0.02 0.02 0.01 0.00 0.00 0.00 0.00 0.00 0.00 0.00
0.00 0.00 0.00 0.02 0.01 0.00 0.00 0.01 0.02 0.01 0.04 0.03 0.01 0.03 0.08 0.04 0.00 0.00 0.00 0.00 0.00 0.00 0.00 0.00 0.00 0.00 0.00 0.00 0.00 0.00 0.00 0.01 0.01 0.00 0.01 0.00 0.00 0.00 0.00 0.00 0.00 0.00 0.00 0.00
0.00 0.00 0.00 0.01 0.00 0.00 0.01 0.00 0.01 0.01 0.00 0.00 0.01 0.03 0.01 0.00 0.01 0.02 0.01 0.01 0.01 0.01 0.00 0.00 0.00 0.00 0.00 0.00 0.01 0.02 0.01 0.01 0.01 0.01 0.00 0.00 0.00 0.00 0.00 0.00 0.00 0.00 0.00 0.00
0.00 0.00 0.00 0.01 0.00 0.01 0.02 0.04 0.03 0.01 0.01 0.00 0.00 0.00 0.00 0.01 0.01 0.00 0.00 0.01 0.01 0.00 0.00 0.00 0.00 0.00 0.00 0.01 0.01 0.01 0.00 0.00 0.00 0.00 0.00 0.00 0.00 0.00 0.00 0.00 0.00 0.00 0.00 0.00
0.00 0.00 0.02 0.02 0.02 0.04 0.08 0.04 0.03 0.02 0.01 0.00 0.00 0.00 0.00 0.00 0.00 0.01 0.02 0.02 0.00 0.00 0.00 0.00 0.00 0.00 0.00 0.00 0.00 0.00 0.00 0.00 0.00 0.00 0.00 0.00 0.01 0.01 0.01 0.00 0.00 0.00 0.00 0.00

GFSCGP_prec_precacc_030.txt.gz
Total_Precipitation_Accumulation
0.00 0.00 0.00 0.00 0.00 0.00 0.00 0.00 0.00 0.00 0.00 0.00 0.00 0.00 0.00 0.00 0.00 0.00 0.00 0.00 0.00 0.00 0.00 0.02 0.05 0.06 0.08 0.16 0.38 0.62 0.94 0.82 0.27 0.09 0.05 0.04 0.02 0.02 0.03 0.02 0.00 0.00 0.00 0.00
0.00 0.00 0.00 0.00 0.00 0.00 0.00 0.00 0.00 0.00 0.00 0.00 0.00 0.00 0.00 0.00 0.00 0.00 0.00 0.00 0.00 0.00 0.00 0.01 0.04 0.10 0.28 0.43 0.42 0.30 0.11 0.02 0.01 0.01 0.02 0.03 0.02 0.01 0.00 0.00 0.00 0.00 0.00 0.00
0.00 0.00 0.00 0.00 0.00 0.00 0.00 0.00 0.00 0.00 0.00 0.00 0.00 0.00 0.00 0.00 0.00 0.00 0.00 0.00 0.00 0.00 0.01 0.04 0.08 0.13 0.10 0.05 0.00 0.00 0.00 0.00 0.00 0.01 0.01 0.00 0.00 0.00 0.00 0.00 0.00 0.00 0.00 0.00
0.00 0.00 0.00 0.00 0.00 0.00 0.00 0.00 0.00 0.00 0.00 0.00 0.00 0.00 0.00 0.00 0.00 0.00 0.00 0.00 0.00 0.01 0.02 0.02 0.00 0.00 0.00 0.00 0.00 0.00 0.00 0.00 0.00 0.00 0.00 0.00 0.00 0.00 0.00 0.00 0.00 0.00 0.00 0.00
0.00 0.00 0.00 0.00 0.00 0.00 0.00 0.00 0.00 0.00 0.00 0.00 0.00 0.00 0.00 0.00 0.00 0.00 0.00 0.00 0.00 0.00 0.00 0.00 0.00 0.00 0.00 0.00 0.00 0.00 0.00 0.00 0.00 0.00 0.00 0.00 0.00 0.00 0.00 0.00 0.00 0.00 0.00 0.00
0.00 0.00 0.00 0.00 0.00 0.00 0.00 0.00 0.00 0.00 0.00 0.00 0.00 0.01 0.01 0.01 0.00 0.00 0.00 0.00 0.00 0.00 0.00 0.00 0.00 0.00 0.00 0.00 0.00 0.00 0.00 0.00 0.00 0.00 0.00 0.00 0.00 0.00 0.00 0.00 0.00 0.00 0.00 0.01
0.00 0.00 0.00 0.00 0.00 0.00 0.00 0.00 0.00 0.01 0.00 0.01 0.03 0.02 0.00 0.00 0.00 0.00 0.00 0.00 0.00 0.00 0.00 0.01 0.00 0.00 0.00 0.00 0.00 0.00 0.00 0.00 0.00 0.00 0.00 0.00 0.00 0.00 0.00 0.00 0.00 0.00 0.00 0.00
0.00 0.00 0.00 0.00 0.00 0.00 0.00 0.00 0.00 0.01 0.01 0.02 0.00 0.00 0.00 0.00 0.00 0.00 0.00 0.00 0.00 0.00 0.00 0.00 0.00 0.00 0.00 0.00 0.00 0.00 0.00 0.00 0.00 0.00 0.00 0.00 0.00 0.00 0.00 0.00 0.00 0.00 0.00 0.00
0.00 0.00 0.00 0.00 0.00 0.00 0.00 0.00 0.00 0.00 0.00 0.00 0.00 0.00 0.00 0.00 0.00 0.00 0.00 0.00 0.00 0.00 0.00 0.00 0.00 0.00 0.00 0.00 0.00 0.00 0.00 0.00 0.00 0.00 0.00 0.00 0.00 0.00 0.00 0.00 0.00 0.00 0.00 0.00
0.00 0.00 0.00 0.00 0.00 0.00 0.00 0.00 0.00 0.00 0.00 0.00 0.00 0.00 0.00 0.00 0.00 0.00 0.00 0.00 0.00 0.00 0.00 0.00 0.00 0.00 0.00 0.00 0.00 0.00 0.00 0.00 0.00 0.00 0.00 0.00 0.00 0.00 0.00 0.00 0.00 0.00 0.00 0.00
0.00 0.00 0.00 0.00 0.00 0.00 0.00 0.00 0.00 0.00 0.00 0.00 0.00 0.00 0.00 0.00 0.00 0.00 0.00 0.00 0.00 0.00 0.00 0.00 0.00 0.00 0.00 0.00 0.00 0.00 0.00 0.00 0.00 0.00 0.00 0.00 0.00 0.00 0.00 0.00 0.00 0.00 0.00 0.00
0.00 0.00 0.00 0.00 0.00 0.00 0.00 0.00 0.00 0.00 0.00 0.00 0.00 0.00 0.00 0.00 0.00 0.00 0.00 0.00 0.00 0.00 0.00 0.00 0.00 0.00 0.00 0.00 0.00 0.00 0.00 0.00 0.00 0.00 0.00 0.00 0.00 0.00 0.00 0.00 0.00 0.00 0.01 0.01
0.00 0.00 0.00 0.00 0.00 0.00 0.00 0.00 0.00 0.00 0.00 0.00 0.01 0.00 0.00 0.00 0.00 0.00 0.00 0.00 0.00 0.00 0.00 0.00 0.00 0.00 0.00 0.00 0.00 0.00 0.00 0.00 0.00 0.00 0.00 0.00 0.00 0.00 0.00 0.00 0.01 0.01 0.02 0.02
0.00 0.00 0.00 0.00 0.00 0.00 0.00 0.00 0.00 0.00 0.00 0.00 0.00 0.00 0.00 0.00 0.00 0.00 0.00 0.00 0.00 0.00 0.00 0.00 0.00 0.00 0.00 0.00 0.00 0.00 0.00 0.00 0.00 0.00 0.00 0.00 0.01 0.01 0.01 0.00 0.02 0.02 0.03 0.02
0.00 0.00 0.00 0.00 0.00 0.00 0.00 0.00 0.00 0.00 0.00 0.00 0.00 0.00 0.00 0.00 0.00 0.00 0.00 0.00 0.00 0.00 0.00 0.00 0.00 0.00 0.00 0.00 0.00 0.00 0.00 0.00 0.00 0.00 0.00 0.00 0.00 0.01 0.02 0.02 0.03 0.06 0.02 0.01
0.00 0.00 0.00 0.00 0.00 0.00 0.00 0.00 0.00 0.00 0.00 0.00 0.00 0.00 0.00 0.00 0.00 0.00 0.00 0.00 0.00 0.00 0.00 0.00 0.00 0.00 0.00 0.00 0.00 0.00 0.00 0.00 0.00 0.01 0.01 0.00 0.01 0.02 0.03 0.04 0.05 0.01 0.01 0.01
0.00 0.00 0.00 0.00 0.00 0.00 0.00 0.00 0.00 0.00 0.00 0.00 0.00 0.00 0.00 0.00 0.00 0.00 0.00 0.00 0.00 0.00 0.00 0.00 0.00 0.00 0.00 0.00 0.00 0.00 0.00 0.00 0.00 0.00 0.01 0.01 0.02 0.02 0.02 0.02 0.03 0.03 0.03 0.01
0.00 0.00 0.00 0.00 0.00 0.00 0.00 0.00 0.00 0.00 0.00 0.00 0.00 0.00 0.00 0.00 0.00 0.00 0.00 0.00 0.00 0.00 0.00 0.00 0.00 0.00 0.00 0.00 0.00 0.00 0.00 0.00 0.00 0.00 0.01 0.03 0.02 0.01 0.02 0.05 0.04 0.02 0.00 0.00
0.00 0.00 0.00 0.00 0.00 0.00 0.00 0.00 0.00 0.00 0.00 0.00 0.00 0.00 0.00 0.00 0.00 0.00 0.00 0.02 0.02 0.02 0.01 0.00 0.00 0.00 0.00 0.00 0.00 0.00 0.00 0.00 0.00 0.00 0.01 0.01 0.02 0.02 0.02 0.02 0.05 0.02 0.00 0.00
0.00 0.00 0.00 0.00 0.02 0.01 0.00 0.00 0.00 0.00 0.00 0.00 0.00 0.01 0.00 0.00 0.01 0.03 0.05 0.06 0.06 0.01 0.00 0.00 0.00 0.00 0.00 0.00 0.00 0.00 0.00 0.00 0.00 0.01 0.01 0.01 0.02 0.03 0.08 0.10 0.02 0.00 0.00 0.00
0.00 0.00 0.00 0.00 0.02 0.00 0.00 0.00 0.00 0.06 0.06 0.01 0.02 0.01 0.01 0.01 0.06 0.09 0.05 0.05 0.01 0.00 0.00 0.00 0.00 0.00 0.00 0.00 0.00 0.00 0.00 0.00 0.00 0.00 0.01 0.04 0.09 0.07 0.03 0.00 0.00 0.00 0.00 0.00
0.00 0.00 0.00 0.01 0.01 0.01 0.00 0.00 0.02 0.03 0.02 0.02 0.01 0.00 0.02 0.07 0.08 0.02 0.00 0.00 0.00 0.00 0.00 0.00 0.00 0.00 0.00 0.00 0.00 0.00 0.00 0.00 0.00 0.01 0.02 0.02 0.01 0.00 0.00 0.00 0.00 0.00 0.00 0.00
0.00 0.00 0.00 0.02 0.01 0.00 0.00 0.01 0.02 0.01 0.04 0.03 0.01 0.03 0.08 0.04 0.00 0.00 0.00 0.00 0.00 0.00 0.00 0.00 0.01 0.01 0.00 0.00 0.00 0.00 0.00 0.01 0.01 0.00 0.01 0.00 0.00 0.00 0.00 0.00 0.00 0.00 0.00 0.00
0.00 0.00 0.00 0.01 0.00 0.00 0.01 0.00 0.01 0.01 0.00 0.00 0.01 0.03 0.01 0.00 0.01 0.02 0.01 0.01 0.01 0.01 0.02 0.02 0.00 0.00 0.00 0.00 0.01 0.02 0.01 0.01 0.01 0.01 0.00 0.00 0.00 0.00 0.00 0.00 0.00 0.00 0.00 0.00
0.00 0.00 0.00 0.01 0.00 0.01 0.02 0.04 0.03 0.01 0.01 0.00 0.00 0.00 0.00 0.01 0.01 0.00 0.00 0.01 0.01 0.00 0.00 0.00 0.00 0.00 0.00 0.01 0.01 0.01 0.00 0.00 0.00 0.00 0.00 0.00 0.00 0.00 0.00 0.00 0.00 0.00 0.00 0.00
0.00 0.00 0.02 0.02 0.02 0.04 0.08 0.04 0.03 0.02 0.01 0.00 0.00 0.00 0.00 0.00 0.00 0.01 0.02 0.02 0.01 0.01 0.00 0.00 0.00 0.00 0.00 0.00 0.00 0.00 0.00 0.00 0.00 0.00 0.00 0.00 0.01 0.01 0.01 0.00 0.00 0.00 0.00 0.00

GFSCGP_prec_precacc_033.txt.gz
Total_Precipitation_Accumulation
0.00 0.00 0.00 0.00 0.00 0.00 0.00 0.00 0.00 0.00 0.00 0.00 0.00 0.00 0.00 0.00 0.00 0.00 0.00 0.00 0.00 0.00 0.00 0.02 0.05 0.06 0.08 0.16 0.38 0.62 0.94 0.85 0.30 0.09 0.05 0.04 0.02 0.02 0.03 0.02 0.00 0.00 0.00 0.00
0.00 0.00 0.00 0.00 0.00 0.00 0.00 0.00 0.00 0.00 0.00 0.00 0.00 0.00 0.00 0.00 0.00 0.00 0.00 0.00 0.00 0.00 0.00 0.01 0.04 0.10 0.28 0.43 0.42 0.30 0.11 0.02 0.01 0.01 0.02 0.03 0.02 0.01 0.00 0.00 0.00 0.00 0.00 0.00
0.00 0.00 0.00 0.00 0.00 0.00 0.00 0.00 0.00 0.00 0.00 0.00 0.00 0.00 0.00 0.00 0.00 0.00 0.00 0.00 0.00 0.00 0.01 0.04 0.08 0.13 0.10 0.05 0.01 0.03 0.02 0.01 0.00 0.01 0.01 0.00 0.00 0.00 0.00 0.00 0.00 0.00 0.00 0.00
0.00 0.00 0.00 0.00 0.00 0.00 0.00 0.00 0.00 0.00 0.00 0.00 0.00 0.00 0.00 0.00 0.00 0.00 0.00 0.00 0.00 0.01 0.02 0.02 0.00 0.00 0.00 0.00 0.00 0.00 0.00 0.00 0.00 0.00 0.00 0.00 0.00 0.00 0.00 0.00 0.00 0.00 0.00 0.00
0.00 0.00 0.00 0.00 0.00 0.00 0.00 0.00 0.00 0.00 0.00 0.00 0.00 0.00 0.01 0.00 0.00 0.00 0.00 0.00 0.00 0.00 0.00 0.00 0.00 0.00 0.00 0.00 0.00 0.00 0.00 0.00 0.00 0.00 0.00 0.00 0.00 0.00 0.00 0.00 0.00 0.00 0.00 0.00
0.00 0.00 0.00 0.00 0.00 0.00 0.00 0.00 0.00 0.00 0.00 0.00 0.00 0.01 0.01 0.01 0.00 0.00 0.00 0.00 0.00 0.00 0.00 0.00 0.00 0.00 0.00 0.00 0.00 0.00 0.00 0.00 0.00 0.00 0.00 0.00 0.00 0.00 0.00 0.00 0.00 0.00 0.00 0.01
0.00 0.00 0.00 0.00 0.00 0.00 0.00 0.00 0.00 0.01 0.00 0.01 0.03 0.02 0.00 0.00 0.00 0.00 0.00 0.00 0.00 0.00 0.00 0.01 0.00 0.00 0.00 0.00 0.00 0.00 0.00 0.00 0.00 0.00 0.00 0.00 0.00 0.00 0.00 0.00 0.00 0.00 0.00 0.00
0.00 0.00 0.00 0.00 0.00 0.00 0.00 0.00 0.00 0.01 0.01 0.02 0.00 0.00 0.00 0.00 0.00 0.00 0.00 0.00 0.00 0.00 0.00 0.00 0.00 0.00 0.00 0.00 0.00 0.00 0.00 0.00 0.00 0.00 0.00 0.00 0.00 0.00 0.00 0.00 0.00 0.00 0.00 0.00
0.00 0.00 0.00 0.00 0.00 0.00 0.00 0.00 0.00 0.00 0.00 0.00 0.00 0.00 0.00 0.00 0.00 0.00 0.00 0.00 0.00 0.00 0.00 0.00 0.00 0.00 0.00 0.00 0.00 0.00 0.00 0.00 0.00 0.00 0.00 0.00 0.00 0.00 0.00 0.00 0.00 0.00 0.00 0.00
0.00 0.00 0.00 0.00 0.00 0.00 0.00 0.00 0.00 0.00 0.00 0.00 0.00 0.00 0.00 0.00 0.00 0.00 0.00 0.00 0.00 0.00 0.00 0.00 0.00 0.00 0.00 0.00 0.00 0.00 0.00 0.00 0.00 0.00 0.00 0.00 0.00 0.00 0.00 0.00 0.00 0.00 0.00 0.00
0.00 0.00 0.00 0.00 0.00 0.00 0.00 0.00 0.00 0.00 0.00 0.00 0.00 0.00 0.00 0.00 0.00 0.00 0.00 0.00 0.00 0.00 0.00 0.00 0.00 0.00 0.00 0.00 0.00 0.00 0.00 0.00 0.00 0.00 0.00 0.00 0.00 0.00 0.00 0.00 0.00 0.00 0.00 0.00
0.00 0.00 0.00 0.00 0.00 0.00 0.00 0.00 0.00 0.00 0.00 0.00 0.00 0.00 0.00 0.00 0.00 0.00 0.00 0.00 0.00 0.00 0.00 0.00 0.00 0.00 0.00 0.00 0.00 0.00 0.00 0.00 0.00 0.00 0.00 0.00 0.00 0.00 0.00 0.00 0.00 0.00 0.01 0.01
0.00 0.00 0.00 0.00 0.00 0.00 0.00 0.00 0.00 0.00 0.00 0.00 0.01 0.00 0.00 0.00 0.00 0.00 0.00 0.00 0.00 0.00 0.00 0.00 0.00 0.00 0.00 0.00 0.00 0.00 0.00 0.00 0.00 0.00 0.00 0.00 0.00 0.00 0.00 0.00 0.01 0.01 0.02 0.02
0.00 0.00 0.00 0.00 0.00 0.00 0.00 0.00 0.00 0.00 0.00 0.00 0.00 0.00 0.00 0.00 0.00 0.00 0.00 0.00 0.00 0.00 0.00 0.00 0.00 0.00 0.00 0.00 0.00 0.00 0.00 0.00 0.00 0.00 0.00 0.00 0.01 0.01 0.01 0.00 0.02 0.02 0.03 0.02
0.00 0.00 0.00 0.00 0.00 0.00 0.00 0.00 0.00 0.00 0.00 0.00 0.00 0.00 0.00 0.00 0.00 0.00 0.00 0.00 0.00 0.00 0.00 0.00 0.00 0.00 0.00 0.00 0.00 0.00 0.00 0.00 0.00 0.00 0.00 0.00 0.00 0.01 0.02 0.02 0.03 0.06 0.02 0.01
0.00 0.00 0.00 0.00 0.00 0.00 0.00 0.00 0.00 0.00 0.00 0.00 0.00 0.00 0.00 0.00 0.00 0.00 0.00 0.00 0.00 0.00 0.00 0.00 0.00 0.00 0.00 0.00 0.00 0.00 0.00 0.00 0.00 0.01 0.01 0.00 0.01 0.02 0.03 0.04 0.05 0.01 0.01 0.01
0.00 0.00 0.00 0.00 0.00 0.00 0.00 0.00 0.00 0.00 0.00 0.00 0.00 0.00 0.00 0.00 0.00 0.00 0.00 0.00 0.00 0.00 0.00 0.00 0.00 0.00 0.00 0.00 0.00 0.00 0.00 0.00 0.00 0.00 0.01 0.01 0.02 0.02 0.02 0.02 0.03 0.03 0.03 0.01
0.00 0.00 0.00 0.00 0.00 0.00 0.00 0.00 0.00 0.00 0.00 0.00 0.00 0.00 0.00 0.00 0.00 0.00 0.00 0.00 0.00 0.00 0.00 0.00 0.00 0.00 0.00 0.00 0.00 0.00 0.00 0.00 0.00 0.00 0.01 0.03 0.02 0.01 0.02 0.05 0.04 0.02 0.00 0.00
0.00 0.00 0.00 0.00 0.00 0.00 0.00 0.00 0.00 0.00 0.00 0.00 0.00 0.00 0.00 0.00 0.00 0.00 0.00 0.02 0.02 0.02 0.01 0.00 0.00 0.00 0.00 0.00 0.00 0.00 0.00 0.00 0.00 0.00 0.01 0.01 0.02 0.02 0.02 0.02 0.05 0.02 0.00 0.00
0.00 0.00 0.00 0.00 0.02 0.01 0.00 0.00 0.00 0.00 0.00 0.00 0.00 0.01 0.00 0.00 0.01 0.03 0.05 0.06 0.06 0.01 0.00 0.00 0.00 0.00 0.00 0.00 0.00 0.00 0.00 0.00 0.00 0.01 0.01 0.01 0.02 0.03 0.08 0.10 0.02 0.00 0.00 0.00
0.00 0.00 0.00 0.00 0.02 0.00 0.00 0.00 0.00 0.06 0.06 0.01 0.02 0.01 0.01 0.01 0.06 0.09 0.05 0.05 0.01 0.00 0.00 0.00 0.00 0.00 0.00 0.00 0.00 0.00 0.00 0.00 0.00 0.00 0.01 0.04 0.09 0.07 0.03 0.00 0.00 0.00 0.00 0.00
0.00 0.00 0.00 0.01 0.01 0.01 0.00 0.00 0.02 0.03 0.02 0.02 0.01 0.00 0.02 0.07 0.08 0.02 0.00 0.00 0.00 0.00 0.00 0.00 0.00 0.00 0.01 0.01 0.01 0.00 0.00 0.00 0.00 0.01 0.02 0.02 0.01 0.00 0.00 0.00 0.00 0.00 0.00 0.00
0.00 0.00 0.00 0.02 0.01 0.00 0.00 0.01 0.02 0.01 0.04 0.03 0.01 0.03 0.08 0.04 0.00 0.00 0.00 0.00 0.00 0.00 0.00 0.00 0.01 0.02 0.02 0.01 0.00 0.01 0.00 0.01 0.01 0.00 0.01 0.00 0.00 0.00 0.00 0.00 0.00 0.00 0.00 0.00
0.00 0.00 0.00 0.01 0.00 0.00 0.01 0.00 0.01 0.01 0.00 0.00 0.01 0.03 0.01 0.00 0.01 0.02 0.01 0.01 0.01 0.01 0.02 0.02 0.02 0.01 0.01 0.00 0.01 0.02 0.01 0.01 0.01 0.01 0.00 0.00 0.00 0.00 0.00 0.00 0.00 0.00 0.00 0.00
0.00 0.00 0.00 0.01 0.00 0.01 0.02 0.04 0.03 0.01 0.01 0.00 0.00 0.00 0.00 0.01 0.01 0.00 0.00 0.01 0.01 0.00 0.00 0.01 0.01 0.01 0.00 0.01 0.01 0.01 0.00 0.00 0.00 0.00 0.00 0.00 0.00 0.00 0.00 0.00 0.00 0.00 0.00 0.00
0.00 0.00 0.02 0.02 0.02 0.04 0.08 0.04 0.03 0.02 0.01 0.00 0.00 0.00 0.00 0.00 0.00 0.01 0.02 0.02 0.01 0.01 0.01 0.01 0.01 0.01 0.01 0.00 0.00 0.00 0.00 0.00 0.00 0.00 0.00 0.00 0.01 0.01 0.01 0.00 0.00 0.00 0.00 0.00

GFSCGP_prec_precacc_036.txt.gz
Total_Precipitation_Accumulation
0.00 0.00 0.00 0.00 0.00 0.00 0.00 0.00 0.00 0.00 0.00 0.00 0.00 0.00 0.00 0.00 0.00 0.00 0.00 0.00 0.00 0.00 0.00 0.02 0.05 0.06 0.08 0.16 0.38 0.62 0.95 0.86 0.31 0.09 0.06 0.04 0.02 0.02 0.03 0.02 0.00 0.00 0.00 0.00
0.00 0.00 0.00 0.00 0.00 0.00 0.00 0.00 0.00 0.00 0.00 0.00 0.00 0.00 0.00 0.00 0.00 0.00 0.00 0.00 0.00 0.00 0.00 0.01 0.04 0.10 0.28 0.43 0.42 0.31 0.14 0.03 0.01 0.01 0.02 0.03 0.02 0.01 0.00 0.00 0.00 0.00 0.00 0.00
0.00 0.01 0.00 0.00 0.00 0.00 0.00 0.00 0.00 0.00 0.00 0.00 0.00 0.00 0.00 0.00 0.00 0.00 0.00 0.00 0.00 0.00 0.01 0.04 0.08 0.13 0.10 0.05 0.01 0.04 0.05 0.02 0.00 0.01 0.01 0.00 0.00 0.00 0.00 0.00 0.00 0.00 0.00 0.00
0.01 0.00 0.00 0.00 0.00 0.00 0.00 0.00 0.00 0.00 0.00 0.00 0.00 0.00 0.01 0.00 0.00 0.00 0.00 0.00 0.00 0.01 0.02 0.02 0.00 0.00 0.01 0.02 0.02 0.02 0.03 0.00 0.00 0.00 0.00 0.00 0.00 0.00 0.00 0.00 0.00 0.00 0.00 0.00
0.04 0.00 0.00 0.00 0.00 0.00 0.00 0.00 0.00 0.00 0.00 0.02 0.00 0.01 0.02 0.01 0.00 0.00 0.00 0.00 0.00 0.00 0.00 0.00 0.00 0.00 0.00 0.01 0.03 0.01 0.00 0.04 0.01 0.00 0.00 0.00 0.00 0.00 0.00 0.00 0.00 0.00 0.00 0.00
0.00 0.01 0.00 0.01 0.00 0.00 0.00 0.00 0.00 0.00 0.00 0.01 0.01 0.02 0.01 0.01 0.01 0.01 0.00 0.00 0.00 0.00 0.00 0.00 0.00 0.00 0.00 0.00 0.00 0.02 0.04 0.02 0.00 0.00 0.00 0.00 0.00 0.00 0.00 0.00 0.00 0.00 0.00 0.01
0.00 0.00 0.00 0.00 0.00 0.00 0.00 0.00 0.00 0.07 0.02 0.01 0.03 0.02 0.01 0.00 0.00 0.06 0.01 0.00 0.00 0.00 0.00 0.01 0.00 0.00 0.00 0.00 0.00 0.00 0.00 0.00 0.00 0.00 0.00 0.00 0.00 0.00 0.00 0.00 0.00 0.00 0.00 0.00
0.00 0.00 0.00 0.00 0.00 0.00 0.00 0.00 0.01 0.05 0.06 0.02 0.00 0.00 0.00 0.00 0.00 0.00 0.00 0.00 0.00 0.00 0.00 0.00 0.00 0.00 0.00 0.00 0.00 0.00 0.00 0.00 0.00 0.00 0.00 0.00 0.00 0.00 0.00 0.00 0.00 0.00 0.00 0.00
0.01 0.01 0.00 0.00 0.00 0.00 0.00 0.00 0.00 0.00 0.00 0.00 0.00 0.00 0.00 0.00 0.00 0.00 0.00 0.00 0.00 0.00 0.00 0.00 0.00 0.00 0.00 0.00 0.00 0.00 0.00 0.00 0.00 0.00 0.00 0.00 0.00 0.00 0.00 0.00 0.00 0.00 0.00 0.00
0.01 0.06 0.01 0.00 0.00 0.00 0.00 0.00 0.00 0.00 0.00 0.00 0.00 0.00 0.00 0.00 0.00 0.00 0.00 0.00 0.00 0.00 0.00 0.00 0.00 0.00 0.00 0.00 0.00 0.00 0.00 0.00 0.00 0.00 0.00 0.00 0.00 0.00 0.00 0.00 0.00 0.00 0.00 0.00
0.00 0.01 0.01 0.00 0.00 0.00 0.00 0.00 0.00 0.00 0.00 0.00 0.00 0.00 0.00 0.00 0.00 0.00 0.00 0.00 0.00 0.00 0.00 0.00 0.00 0.00 0.00 0.00 0.00 0.00 0.00 0.00 0.00 0.00 0.00 0.00 0.00 0.00 0.00 0.00 0.00 0.00 0.00 0.00
0.00 0.00 0.00 0.00 0.00 0.00 0.00 0.00 0.00 0.00 0.00 0.00 0.00 0.00 0.00 0.00 0.00 0.00 0.00 0.00 0.00 0.00 0.00 0.00 0.00 0.00 0.00 0.00 0.00 0.00 0.00 0.00 0.00 0.00 0.00 0.00 0.00 0.00 0.00 0.00 0.00 0.00 0.01 0.01
0.00 0.00 0.00 0.00 0.00 0.00 0.00 0.00 0.00 0.00 0.00 0.00 0.01 0.00 0.00 0.00 0.00 0.00 0.00 0.00 0.00 0.00 0.00 0.00 0.00 0.00 0.00 0.00 0.00 0.00 0.00 0.00 0.00 0.00 0.00 0.00 0.00 0.00 0.00 0.00 0.01 0.01 0.02 0.02
0.00 0.00 0.00 0.00 0.00 0.00 0.00 0.00 0.00 0.00 0.00 0.00 0.00 0.00 0.00 0.00 0.00 0.00 0.00 0.00 0.00 0.00 0.00 0.00 0.00 0.00 0.00 0.00 0.00 0.00 0.00 0.00 0.00 0.00 0.00 0.00 0.01 0.01 0.01 0.00 0.02 0.02 0.03 0.02
0.00 0.00 0.00 0.00 0.00 0.00 0.00 0.00 0.00 0.00 0.00 0.00 0.00 0.00 0.00 0.00 0.00 0.00 0.00 0.00 0.00 0.00 0.00 0.00 0.00 0.00 0.00 0.00 0.00 0.00 0.00 0.00 0.00 0.00 0.00 0.00 0.00 0.01 0.02 0.02 0.03 0.06 0.02 0.01
0.00 0.00 0.00 0.00 0.00 0.00 0.00 0.00 0.00 0.00 0.00 0.00 0.00 0.00 0.00 0.00 0.00 0.00 0.00 0.00 0.00 0.00 0.00 0.00 0.00 0.00 0.00 0.00 0.00 0.00 0.00 0.00 0.00 0.01 0.01 0.00 0.01 0.02 0.03 0.04 0.05 0.01 0.01 0.01
0.00 0.00 0.00 0.00 0.00 0.00 0.00 0.00 0.00 0.00 0.00 0.00 0.00 0.00 0.00 0.00 0.00 0.00 0.00 0.00 0.00 0.00 0.00 0.00 0.00 0.00 0.00 0.00 0.00 0.00 0.00 0.00 0.00 0.00 0.01 0.01 0.02 0.02 0.02 0.02 0.03 0.03 0.03 0.01
0.00 0.00 0.00 0.00 0.00 0.00 0.00 0.00 0.00 0.00 0.00 0.00 0.00 0.00 0.00 0.00 0.00 0.00 0.00 0.00 0.00 0.00 0.00 0.00 0.00 0.00 0.00 0.00 0.00 0.00 0.00 0.00 0.00 0.00 0.01 0.03 0.02 0.01 0.02 0.05 0.04 0.02 0.00 0.00
0.00 0.00 0.00 0.00 0.00 0.00 0.00 0.00 0.00 0.00 0.00 0.00 0.00 0.00 0.00 0.00 0.00 0.00 0.00 0.02 0.02 0.02 0.01 0.00 0.00 0.00 0.00 0.00 0.00 0.00 0.00 0.00 0.00 0.00 0.01 0.01 0.02 0.02 0.02 0.02 0.05 0.02 0.00 0.00
0.00 0.00 0.00 0.00 0.02 0.01 0.00 0.00 0.00 0.00 0.00 0.00 0.00 0.01 0.00 0.00 0.01 0.03 0.05 0.06 0.06 0.01 0.00 0.00 0.00 0.00 0.00 0.00 0.00 0.00 0.00 0.00 0.00 0.01 0.01 0.01 0.02 0.03 0.08 0.10 0.02 0.00 0.00 0.00
0.00 0.00 0.00 0.00 0.02 0.00 0.00 0.00 0.00 0.06 0.06 0.01 0.02 0.01 0.01 0.01 0.06 0.09 0.05 0.05 0.01 0.00 0.00 0.00 0.00 0.00 0.00 0.00 0.00 0.00 0.00 0.01 0.01 0.01 0.01 0.05 0.09 0.08 0.03 0.00 0.00 0.00 0.00 0.00
0.00 0.00 0.00 0.01 0.01 0.01 0.00 0.00 0.02 0.03 0.02 0.02 0.01 0.00 0.02 0.07 0.08 0.02 0.00 0.00 0.00 0.00 0.00 0.00 0.00 0.00 0.01 0.01 0.01 0.01 0.01 0.01 0.00 0.01 0.03 0.02 0.01 0.00 0.00 0.00 0.00 0.00 0.00 0.00
0.00 0.00 0.00 0.02 0.01 0.00 0.00 0.01 0.02 0.01 0.04 0.03 0.01 0.03 0.08 0.04 0.00 0.00 0.00 0.00 0.00 0.00 0.00 0.00 0.01 0.02 0.02 0.01 0.01 0.02 0.01 0.01 0.01 0.00 0.01 0.00 0.00 0.00 0.00 0.00 0.00 0.00 0.00 0.00
0.00 0.00 0.00 0.01 0.00 0.00 0.01 0.00 0.01 0.01 0.00 0.00 0.01 0.03 0.01 0.00 0.01 0.02 0.01 0.01 0.01 0.01 0.02 0.02 0.02 0.01 0.01 0.01 0.01 0.02 0.01 0.01 0.01 0.01 0.00 0.00 0.00 0.00 0.00 0.00 0.00 0.00 0.00 0.01
0.00 0.00 0.00 0.01 0.00 0.01 0.02 0.04 0.03 0.01 0.01 0.00 0.00 0.00 0.00 0.01 0.01 0.00 0.00 0.01 0.01 0.00 0.00 0.01 0.01 0.01 0.00 0.01 0.01 0.01 0.01 0.00 0.00 0.00 0.00 0.00 0.00 0.00 0.00 0.00 0.00 0.00 0.00 0.00
0.00 0.00 0.02 0.02 0.02 0.04 0.08 0.04 0.03 0.02 0.01 0.00 0.00 0.00 0.00 0.00 0.00 0.01 0.02 0.02 0.01 0.01 0.02 0.01 0.01 0.01 0.01 0.00 0.00 0.00 0.00 0.00 0.00 0.00 0.00 0.00 0.01 0.01 0.01 0.00 0.00 0.00 0.00 0.00

GFSCGP_prec_precacc_039.txt.gz
Total_Precipitation_Accumulation
0.02 0.00 0.00 0.00 0.00 0.00 0.00 0.00 0.00 0.00 0.00 0.00 0.00 0.00 0.00 0.00 0.00 0.00 0.00 0.00 0.01 0.00 0.00 0.02 0.05 0.06 0.08 0.18 0.41 0.62 0.96 0.92 0.32 0.10 0.07 0.04 0.02 0.02 0.03 0.02 0.00 0.00 0.00 0.00
0.03 0.00 0.00 0.00 0.00 0.00 0.00 0.00 0.00 0.00 0.00 0.00 0.00 0.00 0.00 0.00 0.00 0.00 0.00 0.00 0.00 0.00 0.00 0.01 0.04 0.10 0.28 0.44 0.43 0.31 0.14 0.11 0.02 0.01 0.02 0.03 0.02 0.01 0.00 0.00 0.00 0.00 0.00 0.00
0.01 0.01 0.00 0.00 0.00 0.00 0.00 0.00 0.00 0.00 0.00 0.00 0.00 0.00 0.00 0.00 0.00 0.00 0.00 0.00 0.00 0.00 0.01 0.04 0.08 0.13 0.10 0.05 0.02 0.04 0.05 0.08 0.01 0.01 0.01 0.00 0.00 0.00 0.00 0.00 0.00 0.00 0.00 0.00
0.01 0.00 0.00 0.00 0.00 0.00 0.00 0.00 0.00 0.00 0.00 0.00 0.00 0.00 0.01 0.00 0.00 0.00 0.00 0.00 0.00 0.02 0.02 0.02 0.00 0.00 0.01 0.02 0.03 0.04 0.06 0.05 0.01 0.00 0.00 0.00 0.00 0.00 0.00 0.00 0.00 0.00 0.00 0.00
0.04 0.00 0.00 0.00 0.00 0.00 0.00 0.00 0.00 0.00 0.00 0.02 0.00 0.01 0.02 0.01 0.00 0.00 0.00 0.00 0.00 0.00 0.00 0.00 0.00 0.00 0.00 0.02 0.04 0.03 0.03 0.07 0.03 0.00 0.00 0.00 0.00 0.00 0.00 0.00 0.00 0.00 0.00 0.00
0.00 0.01 0.00 0.01 0.00 0.00 0.00 0.00 0.00 0.00 0.00 0.01 0.01 0.02 0.01 0.01 0.01 0.02 0.00 0.00 0.00 0.00 0.00 0.00 0.00 0.00 0.00 0.02 0.01 0.02 0.06 0.05 0.00 0.00 0.00 0.00 0.00 0.00 0.00 0.00 0.00 0.00 0.00 0.01
0.00 0.00 0.00 0.00 0.00 0.00 0.00 0.00 0.01 0.07 0.02 0.01 0.03 0.03 0.01 0.00 0.01 0.08 0.04 0.00 0.00 0.00 0.00 0.01 0.00 0.01 0.00 0.00 0.00 0.00 0.00 0.00 0.00 0.00 0.00 0.00 0.00 0.00 0.00 0.00 0.00 0.00 0.00 0.00
0.00 0.01 0.01 0.00 0.00 0.01 0.00 0.00 0.01 0.06 0.07 0.02 0.01 0.01 0.00 0.00 0.00 0.00 0.01 0.00 0.00 0.00 0.00 0.00 0.00 0.00 0.00 0.00 0.00 0.00 0.00 0.00 0.00 0.00 0.00 0.00 0.00 0.00 0.00 0.00 0.00 0.00 0.00 0.00
0.01 0.01 0.01 0.00 0.00 0.00 0.00 0.00 0.00 0.00 0.01 0.00 0.00 0.00 0.00 0.00 0.00 0.00 0.00 0.00 0.00 0.00 0.00 0.00 0.00 0.00 0.00 0.00 0.00 0.00 0.00 0.00 0.00 0.00 0.00 0.00 0.00 0.00 0.00 0.00 0.00 0.00 0.00 0.00
0.01 0.08 0.02 0.00 0.00 0.00 0.00 0.00 0.00 0.00 0.00 0.00 0.00 0.00 0.00 0.01 0.01 0.00 0.00 0.00 0.00 0.00 0.00 0.00 0.00 0.00 0.00 0.00 0.00 0.00 0.00 0.00 0.00 0.00 0.00 0.00 0.00 0.00 0.00 0.00 0.00 0.00 0.00 0.00
0.00 0.02 0.06 0.00 0.00 0.00 0.00 0.00 0.00 0.00 0.00 0.00 0.00 0.00 0.00 0.00 0.00 0.00 0.00 0.00 0.00 0.00 0.00 0.00 0.00 0.00 0.00 0.00 0.00 0.00 0.00 0.00 0.00 0.00 0.00 0.00 0.00 0.00 0.00 0.00 0.00 0.00 0.00 0.00
0.00 0.00 0.01 0.00 0.00 0.00 0.00 0.01 0.01 0.00 0.00 0.00 0.00 0.00 0.00 0.00 0.00 0.00 0.00 0.00 0.00 0.00 0.00 0.00 0.00 0.00 0.00 0.00 0.00 0.00 0.00 0.00 0.00 0.00 0.00 0.00 0.00 0.00 0.00 0.00 0.00 0.00 0.01 0.01
0.00 0.00 0.00 0.00 0.01 0.01 0.00 0.00 0.00 0.00 0.00 0.00 0.01 0.00 0.00 0.00 0.00 0.00 0.00 0.00 0.00 0.00 0.00 0.00 0.00 0.00 0.00 0.00 0.00 0.00 0.00 0.00 0.00 0.00 0.00 0.00 0.00 0.00 0.00 0.00 0.01 0.01 0.02 0.02
0.00 0.00 0.00 0.00 0.00 0.00 0.00 0.01 0.00 0.00 0.00 0.00 0.00 0.00 0.00 0.00 0.00 0.00 0.00 0.00 0.00 0.00 0.00 0.00 0.00 0.00 0.00 0.00 0.00 0.00 0.00 0.00 0.00 0.00 0.00 0.00 0.01 0.01 0.01 0.00 0.02 0.02 0.03 0.02
0.00 0.00 0.00 0.00 0.00 0.00 0.00 0.00 0.00 0.00 0.00 0.00 0.00 0.00 0.00 0.00 0.00 0.00 0.00 0.00 0.00 0.00 0.00 0.00 0.00 0.01 0.01 0.01 0.01 0.01 0.00 0.00 0.00 0.00 0.00 0.00 0.00 0.01 0.02 0.02 0.03 0.06 0.02 0.01
0.00 0.00 0.00 0.00 0.00 0.00 0.00 0.00 0.00 0.00 0.00 0.00 0.00 0.00 0.00 0.00 0.00 0.00 0.00 0.00 0.00 0.00 0.00 0.00 0.00 0.02 0.01 0.02 0.01 0.00 0.00 0.00 0.00 0.01 0.01 0.00 0.01 0.02 0.03 0.04 0.05 0.01 0.01 0.01
0.00 0.00 0.00 0.00 0.00 0.00 0.00 0.00 0.00 0.00 0.00 0.00 0.00 0.00 0.00 0.00 0.00 0.00 0.00 0.00 0.00 0.00 0.00 0.00 0.00 0.00 0.00 0.01 0.01 0.00 0.00 0.00 0.00 0.00 0.01 0.01 0.02 0.02 0.02 0.02 0.03 0.03 0.03 0.01
0.00 0.00 0.00 0.00 0.00 0.00 0.00 0.00 0.00 0.00 0.00 0.00 0.00 0.00 0.00 0.00 0.00 0.00 0.00 0.00 0.00 0.00 0.00 0.00 0.00 0.00 0.00 0.00 0.00 0.00 0.00 0.00 0.00 0.00 0.01 0.03 0.02 0.01 0.02 0.05 0.04 0.02 0.00 0.00
0.01 0.00 0.00 0.00 0.00 0.00 0.00 0.00 0.00 0.00 0.00 0.00 0.00 0.00 0.00 0.00 0.00 0.00 0.00 0.02 0.02 0.02 0.01 0.00 0.00 0.00 0.00 0.00 0.00 0.00 0.00 0.00 0.00 0.00 0.01 0.01 0.02 0.02 0.02 0.02 0.05 0.02 0.00 0.00
0.00 0.00 0.00 0.00 0.02 0.01 0.00 0.00 0.00 0.00 0.00 0.00 0.00 0.01 0.00 0.00 0.01 0.03 0.05 0.06 0.06 0.01 0.00 0.00 0.00 0.00 0.00 0.00 0.00 0.00 0.00 0.00 0.00 0.01 0.01 0.01 0.02 0.04 0.09 0.10 0.02 0.00 0.00 0.00
0.00 0.00 0.00 0.00 0.02 0.00 0.00 0.00 0.00 0.06 0.06 0.01 0.02 0.01 0.01 0.01 0.06 0.09 0.05 0.05 0.01 0.00 0.00 0.00 0.00 0.00 0.00 0.00 0.00 0.00 0.00 0.01 0.01 0.01 0.01 0.05 0.09 0.08 0.03 0.00 0.00 0.00 0.00 0.00
0.00 0.00 0.00 0.01 0.01 0.01 0.00 0.00 0.02 0.03 0.02 0.02 0.01 0.00 0.02 0.07 0.08 0.02 0.00 0.00 0.00 0.00 0.00 0.00 0.00 0.00 0.01 0.01 0.01 0.01 0.01 0.01 0.00 0.01 0.03 0.02 0.01 0.00 0.00 0.00 0.00 0.00 0.00 0.00
0.00 0.00 0.00 0.02 0.01 0.00 0.00 0.01 0.02 0.01 0.04 0.03 0.01 0.03 0.08 0.04 0.00 0.00 0.00 0.00 0.00 0.00 0.00 0.00 0.01 0.02 0.02 0.01 0.01 0.02 0.01 0.01 0.01 0.00 0.01 0.00 0.00 0.00 0.00 0.00 0.00 0.00 0.00 0.00
0.00 0.00 0.00 0.01 0.00 0.00 0.01 0.00 0.01 0.01 0.00 0.00 0.01 0.03 0.01 0.00 0.01 0.02 0.01 0.01 0.01 0.01 0.02 0.02 0.02 0.01 0.01 0.01 0.01 0.02 0.01 0.01 0.01 0.01 0.00 0.00 0.00 0.00 0.00 0.00 0.00 0.00 0.00 0.01
0.00 0.00 0.00 0.01 0.00 0.01 0.02 0.04 0.03 0.01 0.01 0.00 0.00 0.00 0.00 0.01 0.01 0.00 0.00 0.01 0.01 0.00 0.00 0.01 0.01 0.01 0.00 0.01 0.01 0.01 0.01 0.00 0.00 0.00 0.00 0.00 0.00 0.00 0.00 0.00 0.00 0.00 0.00 0.00
0.00 0.00 0.02 0.02 0.02 0.04 0.08 0.04 0.03 0.02 0.01 0.00 0.00 0.00 0.00 0.00 0.00 0.01 0.02 0.02 0.01 0.01 0.02 0.01 0.01 0.01 0.01 0.00 0.00 0.00 0.00 0.00 0.00 0.00 0.00 0.00 0.01 0.01 0.01 0.00 0.00 0.00 0.00 0.00

GFSCGP_prec_precacc_042.txt.gz
Total_Precipitation_Accumulation
0.02 0.00 0.00 0.00 0.00 0.00 0.00 0.00 0.00 0.00 0.00 0.00 0.00 0.00 0.00 0.00 0.00 0.01 0.00 0.00 0.01 0.00 0.00 0.02 0.05 0.06 0.08 0.18 0.41 0.62 0.96 0.92 0.32 0.10 0.07 0.04 0.02 0.02 0.03 0.02 0.00 0.00 0.00 0.00
0.04 0.01 0.01 0.00 0.00 0.00 0.00 0.00 0.00 0.00 0.00 0.00 0.00 0.00 0.00 0.00 0.00 0.00 0.00 0.00 0.00 0.00 0.00 0.01 0.04 0.10 0.28 0.44 0.43 0.31 0.14 0.12 0.02 0.01 0.03 0.03 0.02 0.01 0.00 0.00 0.00 0.00 0.00 0.00
0.01 0.01 0.00 0.00 0.00 0.00 0.00 0.00 0.00 0.00 0.00 0.00 0.00 0.00 0.00 0.00 0.00 0.00 0.00 0.00 0.00 0.00 0.01 0.04 0.08 0.13 0.10 0.05 0.02 0.05 0.07 0.13 0.04 0.01 0.01 0.00 0.00 0.00 0.00 0.00 0.00 0.00 0.00 0.00
0.01 0.00 0.00 0.00 0.00 0.00 0.00 0.00 0.00 0.00 0.00 0.00 0.00 0.00 0.01 0.00 0.00 0.00 0.00 0.00 0.01 0.02 0.03 0.03 0.00 0.00 0.01 0.02 0.03 0.06 0.10 0.14 0.04 0.01 0.00 0.00 0.00 0.00 0.00 0.00 0.00 0.00 0.00 0.00
0.04 0.00 0.00 0.00 0.00 0.00 0.00 0.00 0.00 0.00 0.00 0.02 0.00 0.01 0.02 0.01 0.00 0.00 0.00 0.00 0.00 0.00 0.00 0.00 0.01 0.00 0.00 0.03 0.07 0.08 0.06 0.09 0.05 0.00 0.00 0.00 0.00 0.00 0.00 0.00 0.00 0.00 0.00 0.00
0.00 0.01 0.00 0.01 0.00 0.00 0.00 0.00 0.00 0.00 0.00 0.01 0.01 0.02 0.01 0.01 0.01 0.02 0.00 0.00 0.00 0.00 0.00 0.01 0.00 0.00 0.00 0.04 0.06 0.06 0.07 0.05 0.01 0.00 0.00 0.00 0.00 0.00 0.00 0.00 0.00 0.00 0.00 0.01
0.00 0.00 0.00 0.00 0.00 0.00 0.00 0.00 0.01 0.07 0.02 0.01 0.03 0.03 0.01 0.00 0.01 0.08 0.04 0.00 0.00 0.00 0.00 0.01 0.01 0.01 0.00 0.01 0.04 0.03 0.01 0.00 0.00 0.00 0.00 0.00 0.00 0.00 0.00 0.00 0.00 0.00 0.00 0.00
0.00 0.01 0.01 0.00 0.00 0.01 0.00 0.00 0.01 0.06 0.07 0.02 0.02 0.01 0.00 0.00 0.00 0.00 0.01 0.00 0.00 0.00 0.00 0.00 0.00 0.02 0.01 0.02 0.05 0.01 0.01 0.00 0.00 0.00 0.00 0.00 0.00 0.00 0.00 0.00 0.00 0.00 0.00 0.00
0.01 0.01 0.01 0.00 0.00 0.00 0.00 0.00 0.00 0.00 0.01 0.00 0.00 0.00 0.00 0.00 0.00 0.00 0.00 0.00 0.00 0.00 0.00 0.00 0.00 0.02 0.02 0.00 0.01 0.01 0.01 0.00 0.02 0.02 0.01 0.00 0.00 0.00 0.00 0.00 0.00 0.00 0.00 0.00
0.01 0.08 0.02 0.00 0.00 0.00 0.00 0.00 0.00 0.00 0.00 0.00 0.00 0.00 0.00 0.01 0.01 0.00 0.00 0.00 0.00 0.00 0.00 0.00 0.00 0.00 0.00 0.00 0.00 0.00 0.00 0.02 0.02 0.01 0.01 0.01 0.01 0.00 0.01 0.01 0.00 0.00 0.00 0.00
0.00 0.02 0.06 0.00 0.00 0.00 0.00 0.00 0.00 0.00 0.00 0.00 0.00 0.00 0.00 0.00 0.00 0.00 0.00 0.00 0.00 0.00 0.00 0.00 0.00 0.00 0.00 0.00 0.00 0.00 0.00 0.01 0.00 0.00 0.00 0.01 0.01 0.00 0.00 0.00 0.00 0.00 0.00 0.00
0.00 0.00 0.02 0.00 0.00 0.00 0.00 0.01 0.02 0.00 0.00 0.00 0.00 0.00 0.00 0.00 0.00 0.00 0.00 0.00 0.00 0.00 0.00 0.00 0.00 0.00 0.00 0.00 0.00 0.00 0.00 0.00 0.00 0.00 0.00 0.00 0.00 0.00 0.00 0.00 0.00 0.00 0.01 0.01
0.00 0.00 0.00 0.00 0.01 0.02 0.00 0.00 0.00 0.00 0.00 0.00 0.01 0.00 0.00 0.00 0.00 0.00 0.00 0.00 0.00 0.00 0.00 0.00 0.00 0.00 0.00 0.00 0.00 0.00 0.00 0.00 0.00 0.00 0.00 0.00 0.00 0.00 0.00 0.01 0.01 0.01 0.02 0.02
0.00 0.00 0.00 0.00 0.00 0.00 0.01 0.01 0.01 0.00 0.00 0.00 0.00 0.00 0.00 0.00 0.00 0.00 0.00 0.00 0.00 0.00 0.00 0.00 0.00 0.00 0.00 0.00 0.00 0.00 0.01 0.01 0.01 0.00 0.00 0.01 0.01 0.01 0.01 0.00 0.02 0.02 0.03 0.02
0.00 0.00 0.00 0.00 0.00 0.00 0.00 0.00 0.00 0.00 0.00 0.00 0.00 0.00 0.00 0.00 0.00 0.00 0.00 0.00 0.00 0.00 0.00 0.00 0.01 0.02 0.01 0.01 0.02 0.02 0.02 0.02 0.02 0.01 0.01 0.01 0.00 0.01 0.02 0.02 0.03 0.06 0.02 0.01
0.00 0.00 0.00 0.00 0.00 0.00 0.00 0.00 0.00 0.00 0.00 0.00 0.00 0.00 0.00 0.00 0.00 0.00 0.00 0.00 0.00 0.00 0.00 0.00 0.01 0.02 0.02 0.04 0.04 0.02 0.02 0.02 0.01 0.01 0.01 0.01 0.01 0.02 0.03 0.04 0.05 0.01 0.01 0.01
0.00 0.00 0.00 0.00 0.00 0.00 0.00 0.00 0.00 0.00 0.00 0.00 0.00 0.00 0.00 0.00 0.00 0.00 0.00 0.00 0.00 0.00 0.00 0.00 0.00 0.00 0.00 0.01 0.03 0.03 0.02 0.01 0.01 0.00 0.01 0.01 0.02 0.02 0.02 0.02 0.03 0.03 0.03 0.01
0.00 0.00 0.00 0.00 0.00 0.00 0.00 0.00 0.00 0.00 0.00 0.00 0.00 0.00 0.00 0.00 0.00 0.00 0.00 0.00 0.00 0.00 0.00 0.00 0.00 0.00 0.00 0.00 0.01 0.01 0.01 0.00 0.00 0.00 0.01 0.03 0.02 0.01 0.03 0.06 0.05 0.03 0.00 0.00
0.02 0.00 0.00 0.00 0.00 0.00 0.00 0.00 0.00 0.00 0.00 0.00 0.00 0.00 0.00 0.00 0.00 0.00 0.00 0.02 0.02 0.02 0.01 0.00 0.00 0.00 0.00 0.00 0.00 0.01 0.00 0.00 0.00 0.00 0.01 0.01 0.02 0.03 0.06 0.07 0.07 0.02 0.00 0.00
0.00 0.01 0.00 0.00 0.02 0.01 0.00 0.00 0.00 0.00 0.00 0.00 0.00 0.01 0.00 0.00 0.01 0.03 0.05 0.06 0.06 0.01 0.00 0.00 0.00 0.00 0.00 0.00 0.00 0.00 0.00 0.00 0.00 0.01 0.01 0.02 0.05 0.08 0.11 0.11 0.02 0.00 0.00 0.00
0.00 0.00 0.00 0.00 0.02 0.00 0.00 0.00 0.00 0.06 0.06 0.01 0.02 0.01 0.01 0.01 0.06 0.09 0.05 0.05 0.01 0.00 0.00 0.00 0.00 0.00 0.00 0.00 0.00 0.00 0.00 0.01 0.01 0.01 0.05 0.11 0.12 0.08 0.03 0.00 0.00 0.00 0.00 0.00
0.00 0.00 0.00 0.01 0.01 0.01 0.00 0.00 0.02 0.03 0.02 0.02 0.01 0.00 0.02 0.07 0.08 0.02 0.00 0.00 0.00 0.00 0.00 0.00 0.00 0.00 0.01 0.01 0.01 0.01 0.01 0.02 0.01 0.03 0.04 0.02 0.01 0.00 0.00 0.00 0.00 0.00 0.00 0.00
0.00 0.00 0.00 0.02 0.01 0.00 0.00 0.01 0.02 0.01 0.04 0.03 0.01 0.03 0.08 0.04 0.00 0.00 0.00 0.00 0.00 0.00 0.00 0.00 0.01 0.02 0.02 0.01 0.01 0.02 0.01 0.02 0.01 0.00 0.01 0.00 0.00 0.00 0.00 0.00 0.00 0.00 0.00 0.00
0.00 0.00 0.00 0.01 0.00 0.00 0.01 0.00 0.01 0.01 0.00 0.00 0.01 0.03 0.01 0.00 0.01 0.02 0.01 0.01 0.01 0.01 0.02 0.02 0.02 0.01 0.01 0.01 0.01 0.02 0.01 0.01 0.01 0.01 0.00 0.00 0.00 0.00 0.00 0.00 0.00 0.00 0.00 0.01
0.00 0.00 0.00 0.01 0.00 0.01 0.02 0.04 0.03 0.01 0.01 0.00 0.00 0.00 0.00 0.01 0.01 0.00 0.00 0.01 0.01 0.00 0.00 0.01 0.01 0.01 0.00 0.01 0.01 0.01 0.01 0.00 0.00 0.00 0.00 0.00 0.00 0.00 0.00 0.00 0.00 0.00 0.00 0.00
0.00 0.00 0.02 0.02 0.02 0.04 0.08 0.04 0.03 0.02 0.01 0.00 0.00 0.00 0.00 0.00 0.00 0.01 0.02 0.02 0.01 0.01 0.02 0.01 0.01 0.01 0.01 0.00 0.00 0.00 0.00 0.00 0.00 0.00 0.00 0.00 0.01 0.01 0.01 0.00 0.00 0.00 0.00 0.00

GFSCGP_prec_precacc_045.txt.gz
Total_Precipitation_Accumulation
0.02 0.00 0.00 0.00 0.00 0.00 0.00 0.00 0.00 0.00 0.00 0.00 0.00 0.00 0.00 0.00 0.00 0.01 0.00 0.00 0.01 0.00 0.00 0.02 0.05 0.06 0.08 0.18 0.41 0.62 0.96 0.92 0.32 0.10 0.07 0.05 0.02 0.02 0.03 0.02 0.00 0.00 0.00 0.00
0.04 0.01 0.01 0.00 0.00 0.00 0.00 0.00 0.00 0.00 0.00 0.00 0.00 0.00 0.00 0.00 0.00 0.00 0.00 0.00 0.00 0.00 0.00 0.01 0.04 0.10 0.28 0.44 0.44 0.31 0.14 0.12 0.02 0.02 0.04 0.03 0.02 0.01 0.00 0.00 0.00 0.00 0.00 0.00
0.01 0.01 0.00 0.00 0.00 0.00 0.00 0.00 0.00 0.00 0.00 0.00 0.00 0.00 0.00 0.00 0.00 0.00 0.00 0.00 0.00 0.00 0.01 0.04 0.08 0.13 0.10 0.05 0.02 0.06 0.08 0.13 0.04 0.02 0.01 0.00 0.00 0.00 0.00 0.00 0.00 0.00 0.00 0.00
0.01 0.00 0.00 0.00 0.00 0.00 0.00 0.00 0.00 0.00 0.00 0.00 0.00 0.00 0.01 0.00 0.00 0.00 0.00 0.00 0.01 0.02 0.03 0.03 0.00 0.00 0.01 0.02 0.03 0.06 0.11 0.14 0.04 0.01 0.00 0.00 0.01 0.03 0.01 0.00 0.00 0.00 0.00 0.00
0.04 0.00 0.00 0.00 0.00 0.00 0.00 0.00 0.00 0.00 0.00 0.02 0.00 0.01 0.02 0.01 0.00 0.00 0.00 0.00 0.00 0.00 0.00 0.00 0.01 0.00 0.00 0.04 0.07 0.08 0.09 0.14 0.08 0.01 0.05 0.06 0.04 0.01 0.00 0.00 0.00 0.00 0.00 0.00
0.00 0.01 0.00 0.01 0.00 0.00 0.00 0.00 0.00 0.00 0.00 0.01 0.01 0.02 0.01 0.01 0.01 0.02 0.00 0.00 0.00 0.00 0.01 0.02 0.02 0.01 0.01 0.05 0.07 0.09 0.12 0.13 0.03 0.02 0.02 0.06 0.03 0.01 0.01 0.00 0.00 0.00 0.00 0.01
0.00 0.00 0.00 0.00 0.00 0.00 0.00 0.00 0.01 0.07 0.02 0.01 0.03 0.03 0.01 0.00 0.01 0.08 0.04 0.00 0.00 0.00 0.01 0.03 0.02 0.01 0.02 0.04 0.08 0.07 0.06 0.06 0.02 0.01 0.01 0.02 0.02 0.01 0.01 0.00 0.00 0.00 0.00 0.00
0.00 0.01 0.01 0.00 0.00 0.01 0.00 0.00 0.01 0.06 0.07 0.02 0.02 0.01 0.00 0.00 0.00 0.00 0.01 0.00 0.00 0.00 0.00 0.01 0.01 0.02 0.02 0.05 0.14 0.11 0.09 0.06 0.02 0.01 0.01 0.02 0.01 0.00 0.00 0.00 0.00 0.00 0.00 0.00
0.01 0.01 0.01 0.00 0.00 0.00 0.00 0.00 0.00 0.00 0.01 0.00 0.00 0.00 0.00 0.00 0.00 0.00 0.00 0.00 0.00 0.00 0.00 0.00 0.00 0.02 0.02 0.02 0.10 0.13 0.09 0.07 0.05 0.04 0.04 0.06 0.06 0.03 0.01 0.01 0.01 0.01 0.00 0.01
0.01 0.08 0.02 0.00 0.00 0.00 0.00 0.00 0.00 0.00 0.00 0.00 0.00 0.00 0.00 0.01 0.01 0.00 0.00 0.00 0.00 0.00 0.00 0.00 0.00 0.00 0.01 0.01 0.03 0.03 0.03 0.05 0.05 0.03 0.03 0.03 0.04 0.02 0.02 0.02 0.02 0.00 0.01 0.02
0.00 0.02 0.06 0.00 0.00 0.00 0.00 0.00 0.00 0.00 0.00 0.00 0.00 0.00 0.00 0.00 0.00 0.00 0.00 0.00 0.00 0.00 0.00 0.00 0.00 0.00 0.00 0.00 0.00 0.00 0.01 0.02 0.01 0.01 0.03 0.03 0.03 0.02 0.02 0.02 0.01 0.00 0.00 0.01
0.00 0.00 0.02 0.00 0.00 0.00 0.00 0.01 0.02 0.00 0.00 0.00 0.00 0.00 0.00 0.00 0.00 0.00 0.00 0.00 0.00 0.00 0.00 0.00 0.00 0.00 0.00 0.00 0.00 0.00 0.01 0.02 0.02 0.02 0.03 0.03 0.01 0.00 0.00 0.00 0.00 0.01 0.02 0.02
0.00 0.00 0.00 0.00 0.01 0.02 0.00 0.00 0.00 0.00 0.00 0.00 0.01 0.00 0.00 0.00 0.00 0.00 0.00 0.00 0.00 0.00 0.00 0.00 0.00 0.00 0.00 0.00 0.01 0.02 0.02 0.03 0.03 0.03 0.03 0.03 0.02 0.02 0.02 0.02 0.02 0.02 0.02 0.02
0.00 0.00 0.00 0.00 0.00 0.00 0.01 0.01 0.01 0.00 0.00 0.00 0.00 0.00 0.00 0.00 0.00 0.00 0.00 0.00 0.00 0.00 0.00 0.00 0.00 0.00 0.00 0.01 0.04 0.03 0.04 0.06 0.04 0.03 0.03 0.03 0.02 0.02 0.02 0.01 0.02 0.02 0.03 0.02
0.00 0.00 0.00 0.00 0.00 0.00 0.00 0.00 0.00 0.00 0.00 0.00 0.00 0.00 0.00 0.00 0.00 0.00 0.00 0.00 0.00 0.00 0.00 0.01 0.01 0.02 0.02 0.03 0.05 0.06 0.07 0.05 0.04 0.05 0.04 0.02 0.01 0.01 0.02 0.02 0.03 0.06 0.02 0.01
0.00 0.00 0.00 0.00 0.00 0.00 0.00 0.00 0.00 0.00 0.00 0.00 0.00 0.00 0.00 0.00 0.00 0.00 0.00 0.00 0.00 0.00 0.00 0.00 0.01 0.03 0.03 0.05 0.05 0.05 0.03 0.04 0.05 0.04 0.03 0.02 0.02 0.03 0.03 0.04 0.05 0.01 0.01 0.01
0.00 0.00 0.00 0.00 0.00 0.00 0.00 0.00 0.00 0.00 0.00 0.00 0.00 0.00 0.00 0.00 0.00 0.00 0.00 0.00 0.00 0.00 0.00 0.00 0.00 0.00 0.00 0.01 0.03 0.03 0.02 0.02 0.03 0.01 0.02 0.02 0.02 0.02 0.02 0.02 0.03 0.04 0.09 0.05
0.00 0.00 0.00 0.00 0.00 0.00 0.00 0.00 0.00 0.00 0.00 0.00 0.00 0.00 0.00 0.00 0.00 0.00 0.00 0.00 0.00 0.00 0.00 0.00 0.00 0.00 0.00 0.00 0.01 0.01 0.02 0.01 0.01 0.00 0.01 0.03 0.02 0.01 0.03 0.08 0.13 0.12 0.04 0.00
0.02 0.00 0.00 0.00 0.00 0.00 0.00 0.00 0.00 0.00 0.00 0.00 0.00 0.00 0.00 0.00 0.00 0.00 0.00 0.02 0.02 0.02 0.01 0.00 0.00 0.00 0.00 0.00 0.00 0.01 0.00 0.00 0.00 0.00 0.01 0.01 0.02 0.04 0.11 0.17 0.13 0.03 0.00 0.00
0.00 0.01 0.00 0.00 0.02 0.01 0.00 0.00 0.00 0.00 0.00 0.00 0.00 0.01 0.00 0.00 0.01 0.03 0.05 0.06 0.06 0.01 0.00 0.00 0.00 0.00 0.00 0.00 0.00 0.00 0.00 0.00 0.00 0.01 0.01 0.02 0.11 0.20 0.19 0.13 0.02 0.00 0.00 0.00
0.00 0.00 0.00 0.00 0.02 0.00 0.00 0.00 0.00 0.06 0.06 0.01 0.02 0.01 0.01 0.01 0.06 0.09 0.05 0.05 0.01 0.00 0.00 0.00 0.00 0.00 0.00 0.00 0.00 0.00 0.00 0.01 0.02 0.06 0.12 0.20 0.19 0.09 0.03 0.00 0.00 0.00 0.00 0.00
0.00 0.00 0.00 0.01 0.01 0.01 0.00 0.00 0.02 0.03 0.02 0.02 0.01 0.00 0.02 0.07 0.08 0.02 0.00 0.00 0.00 0.00 0.00 0.00 0.00 0.00 0.01 0.01 0.01 0.01 0.01 0.02 0.03 0.04 0.04 0.02 0.01 0.00 0.00 0.00 0.00 0.00 0.00 0.00
0.00 0.00 0.00 0.02 0.01 0.00 0.00 0.01 0.02 0.01 0.04 0.03 0.01 0.03 0.08 0.04 0.00 0.00 0.00 0.00 0.00 0.00 0.00 0.00 0.01 0.02 0.02 0.01 0.01 0.02 0.01 0.02 0.01 0.00 0.01 0.00 0.00 0.00 0.00 0.00 0.00 0.00 0.00 0.00
0.00 0.00 0.00 0.01 0.00 0.00 0.01 0.00 0.01 0.01 0.00 0.00 0.01 0.03 0.01 0.00 0.01 0.02 0.01 0.01 0.01 0.01 0.02 0.02 0.02 0.01 0.01 0.01 0.01 0.02 0.01 0.01 0.01 0.01 0.00 0.00 0.00 0.00 0.00 0.00 0.00 0.00 0.00 0.01
0.00 0.00 0.00 0.01 0.00 0.01 0.02 0.04 0.03 0.01 0.01 0.00 0.00 0.00 0.00 0.01 0.01 0.00 0.00 0.01 0.01 0.00 0.00 0.01 0.01 0.01 0.00 0.01 0.01 0.01 0.01 0.00 0.00 0.00 0.00 0.00 0.00 0.00 0.00 0.00 0.00 0.00 0.00 0.00
0.00 0.00 0.02 0.02 0.02 0.04 0.08 0.04 0.03 0.02 0.01 0.00 0.00 0.00 0.00 0.00 0.00 0.01 0.02 0.02 0.01 0.01 0.02 0.01 0.01 0.01 0.01 0.00 0.00 0.00 0.00 0.00 0.00 0.00 0.00 0.00 0.01 0.01 0.01 0.00 0.00 0.00 0.00 0.00

GFSCGP_prec_precacc_048.txt.gz
Total_Precipitation_Accumulation
0.02 0.00 0.00 0.00 0.00 0.00 0.00 0.00 0.00 0.00 0.00 0.00 0.00 0.00 0.00 0.00 0.00 0.01 0.00 0.00 0.01 0.00 0.00 0.02 0.05 0.06 0.08 0.18 0.41 0.62 0.96 0.92 0.32 0.10 0.07 0.05 0.06 0.12 0.12 0.04 0.00 0.00 0.00 0.00
0.04 0.01 0.01 0.00 0.00 0.00 0.00 0.00 0.00 0.00 0.00 0.00 0.00 0.00 0.00 0.00 0.00 0.00 0.00 0.00 0.00 0.00 0.00 0.01 0.04 0.10 0.28 0.44 0.44 0.31 0.14 0.12 0.02 0.02 0.05 0.05 0.06 0.09 0.08 0.01 0.00 0.00 0.00 0.00
0.01 0.01 0.00 0.00 0.00 0.00 0.00 0.00 0.00 0.00 0.00 0.00 0.00 0.00 0.00 0.00 0.00 0.00 0.00 0.00 0.00 0.00 0.01 0.04 0.08 0.13 0.10 0.05 0.02 0.06 0.08 0.13 0.04 0.02 0.01 0.01 0.05 0.08 0.04 0.01 0.00 0.00 0.00 0.00
0.01 0.00 0.00 0.00 0.00 0.00 0.00 0.00 0.00 0.00 0.00 0.00 0.00 0.00 0.01 0.00 0.00 0.00 0.00 0.00 0.01 0.02 0.03 0.03 0.00 0.00 0.01 0.02 0.03 0.06 0.11 0.14 0.04 0.01 0.00 0.01 0.05 0.07 0.05 0.01 0.00 0.00 0.00 0.00
0.04 0.00 0.00 0.00 0.00 0.00 0.00 0.00 0.00 0.00 0.00 0.02 0.00 0.01 0.02 0.01 0.00 0.00 0.00 0.00 0.00 0.00 0.00 0.00 0.01 0.00 0.00 0.04 0.07 0.08 0.11 0.15 0.08 0.01 0.06 0.12 0.13 0.11 0.04 0.01 0.01 0.00 0.00 0.00
0.00 0.01 0.00 0.01 0.00 0.00 0.00 0.00 0.00 0.00 0.00 0.01 0.01 0.02 0.01 0.01 0.01 0.02 0.00 0.00 0.00 0.00 0.01 0.02 0.02 0.01 0.01 0.05 0.08 0.10 0.12 0.19 0.09 0.02 0.03 0.11 0.15 0.09 0.05 0.02 0.00 0.00 0.00 0.01
0.00 0.00 0.00 0.00 0.00 0.00 0.00 0.00 0.01 0.07 0.02 0.01 0.03 0.03 0.01 0.00 0.01 0.08 0.04 0.00 0.00 0.00 0.01 0.03 0.02 0.01 0.02 0.04 0.08 0.08 0.07 0.09 0.08 0.06 0.01 0.02 0.09 0.10 0.06 0.02 0.00 0.00 0.00 0.00
0.00 0.01 0.01 0.00 0.00 0.01 0.00 0.00 0.01 0.06 0.07 0.02 0.02 0.01 0.00 0.00 0.00 0.00 0.01 0.00 0.00 0.00 0.00 0.01 0.01 0.02 0.02 0.07 0.18 0.12 0.11 0.11 0.06 0.06 0.05 0.06 0.10 0.10 0.07 0.04 0.00 0.00 0.00 0.00
0.01 0.01 0.01 0.00 0.00 0.00 0.00 0.00 0.00 0.00 0.01 0.00 0.00 0.00 0.00 0.00 0.00 0.00 0.00 0.00 0.00 0.00 0.00 0.00 0.00 0.02 0.02 0.02 0.15 0.20 0.13 0.10 0.07 0.06 0.10 0.15 0.18 0.17 0.14 0.08 0.03 0.02 0.01 0.01
0.01 0.08 0.02 0.00 0.00 0.00 0.00 0.00 0.00 0.00 0.00 0.00 0.00 0.00 0.00 0.01 0.01 0.00 0.00 0.00 0.00 0.00 0.00 0.00 0.00 0.00 0.01 0.01 0.05 0.06 0.05 0.07 0.06 0.04 0.07 0.11 0.14 0.13 0.11 0.10 0.07 0.04 0.03 0.05
0.00 0.02 0.06 0.00 0.00 0.00 0.00 0.00 0.00 0.00 0.00 0.00 0.00 0.00 0.00 0.00 0.00 0.00 0.00 0.00 0.00 0.00 0.00 0.00 0.00 0.00 0.00 0.00 0.01 0.00 0.02 0.02 0.02 0.03 0.09 0.08 0.10 0.10 0.09 0.09 0.06 0.03 0.01 0.01
0.00 0.00 0.02 0.00 0.00 0.00 0.00 0.01 0.02 0.00 0.00 0.00 0.00 0.00 0.00 0.00 0.00 0.00 0.00 0.00 0.00 0.00 0.00 0.00 0.00 0.00 0.00 0.00 0.00 0.00 0.02 0.06 0.08 0.09 0.11 0.14 0.12 0.09 0.06 0.04 0.03 0.03 0.02 0.02
0.00 0.00 0.00 0.00 0.01 0.02 0.00 0.00 0.00 0.00 0.00 0.00 0.01 0.00 0.00 0.00 0.00 0.00 0.00 0.00 0.00 0.00 0.00 0.00 0.00 0.00 0.00 0.00 0.01 0.04 0.07 0.10 0.11 0.13 0.12 0.11 0.08 0.06 0.03 0.03 0.03 0.02 0.02 0.02
0.00 0.00 0.00 0.00 0.00 0.00 0.01 0.01 0.01 0.00 0.00 0.00 0.00 0.00 0.00 0.00 0.00 0.00 0.00 0.00 0.00 0.00 0.00 0.00 0.00 0.00 0.00 0.02 0.08 0.08 0.08 0.12 0.14 0.12 0.11 0.08 0.06 0.04 0.03 0.02 0.02 0.02 0.03 0.02
0.00 0.00 0.00 0.00 0.00 0.00 0.00 0.00 0.00 0.00 0.00 0.00 0.00 0.00 0.00 0.00 0.00 0.00 0.00 0.00 0.00 0.00 0.00 0.01 0.01 0.03 0.03 0.06 0.08 0.09 0.11 0.10 0.09 0.09 0.08 0.06 0.03 0.02 0.02 0.02 0.03 0.06 0.02 0.01
0.00 0.00 0.00 0.00 0.00 0.00 0.00 0.00 0.00 0.00 0.00 0.00 0.00 0.00 0.00 0.00 0.00 0.00 0.00 0.00 0.00 0.00 0.00 0.00 0.01 0.03 0.04 0.05 0.06 0.06 0.04 0.05 0.06 0.06 0.05 0.03 0.02 0.03 0.03 0.04 0.05 0.01 0.01 0.02
0.00 0.00 0.00 0.00 0.00 0.00 0.00 0.00 0.00 0.00 0.00 0.00 0.00 0.00 0.00 0.00 0.00 0.00 0.00 0.00 0.00 0.00 0.00 0.00 0.00 0.00 0.00 0.01 0.03 0.03 0.02 0.02 0.03 0.02 0.02 0.02 0.02 0.02 0.02 0.02 0.03 0.05 0.11 0.12
0.00 0.00 0.00 0.00 0.00 0.00 0.00 0.00 0.00 0.00 0.00 0.00 0.00 0.00 0.00 0.00 0.00 0.00 0.00 0.00 0.00 0.00 0.00 0.00 0.00 0.00 0.00 0.00 0.01 0.01 0.02 0.01 0.01 0.00 0.01 0.03 0.02 0.01 0.03 0.09 0.14 0.16 0.12 0.06
0.02 0.00 0.00 0.00 0.00 0.00 0.00 0.00 0.00 0.00 0.00 0.00 0.00 0.00 0.00 0.00 0.00 0.00 0.00 0.02 0.02 0.02 0.01 0.00 0.00 0.00 0.00 0.00 0.00 0.01 0.00 0.00 0.00 0.00 0.01 0.01 0.02 0.04 0.12 0.20 0.22 0.12 0.03 0.00
0.00 0.01 0.00 0.00 0.02 0.01 0.00 0.00 0.00 0.00 0.00 0.00 0.00 0.01 0.00 0.00 0.01 0.03 0.05 0.06 0.06 0.01 0.00 0.00 0.00 0.00 0.00 0.00 0.00 0.00 0.00 0.00 0.00 0.01 0.01 0.02 0.13 0.26 0.28 0.19 0.04 0.00 0.00 0.00
0.00 0.00 0.00 0.00 0.02 0.00 0.00 0.00 0.00 0.06 0.06 0.01 0.02 0.01 0.01 0.01 0.06 0.09 0.05 0.05 0.01 0.00 0.00 0.00 0.00 0.00 0.00 0.00 0.00 0.00 0.00 0.01 0.02 0.06 0.13 0.22 0.22 0.10 0.03 0.00 0.00 0.00 0.00 0.00
0.00 0.00 0.00 0.01 0.01 0.01 0.00 0.00 0.02 0.03 0.02 0.02 0.01 0.00 0.02 0.07 0.08 0.02 0.00 0.00 0.00 0.00 0.00 0.00 0.00 0.00 0.01 0.01 0.01 0.01 0.01 0.02 0.03 0.05 0.04 0.02 0.01 0.00 0.00 0.00 0.00 0.00 0.00 0.00
0.00 0.00 0.00 0.02 0.01 0.00 0.00 0.01 0.02 0.01 0.04 0.03 0.01 0.03 0.08 0.04 0.00 0.00 0.00 0.00 0.00 0.00 0.00 0.00 0.01 0.02 0.02 0.01 0.01 0.02 0.01 0.02 0.01 0.00 0.01 0.00 0.00 0.00 0.00 0.00 0.00 0.00 0.00 0.00
0.00 0.00 0.00 0.01 0.00 0.00 0.01 0.00 0.01 0.01 0.00 0.00 0.01 0.03 0.01 0.00 0.01 0.02 0.01 0.01 0.01 0.01 0.02 0.02 0.02 0.01 0.01 0.01 0.01 0.02 0.01 0.01 0.01 0.01 0.00 0.00 0.00 0.00 0.00 0.00 0.00 0.00 0.00 0.01
0.00 0.00 0.00 0.01 0.00 0.01 0.02 0.04 0.03 0.01 0.01 0.00 0.00 0.00 0.00 0.01 0.01 0.00 0.00 0.01 0.01 0.00 0.00 0.01 0.01 0.01 0.00 0.01 0.01 0.01 0.01 0.00 0.00 0.00 0.00 0.00 0.00 0.00 0.00 0.00 0.00 0.00 0.00 0.00
0.00 0.00 0.02 0.02 0.02 0.04 0.08 0.04 0.03 0.02 0.01 0.00 0.00 0.00 0.00 0.00 0.00 0.01 0.02 0.02 0.01 0.01 0.02 0.01 0.01 0.01 0.01 0.00 0.00 0.00 0.00 0.00 0.00 0.00 0.00 0.00 0.01 0.01 0.01 0.00 0.00 0.00 0.00 0.00

GFSCGP_prec_precacc_051.txt.gz
Total_Precipitation_Accumulation
0.02 0.00 0.00 0.00 0.00 0.00 0.00 0.00 0.00 0.00 0.00 0.00 0.00 0.00 0.00 0.00 0.00 0.01 0.00 0.00 0.01 0.00 0.00 0.02 0.05 0.06 0.08 0.18 0.41 0.62 0.96 0.92 0.32 0.10 0.07 0.05 0.06 0.13 0.21 0.17 0.09 0.03 0.00 0.00
0.04 0.01 0.01 0.00 0.00 0.00 0.00 0.00 0.00 0.00 0.00 0.00 0.00 0.00 0.00 0.00 0.00 0.00 0.00 0.00 0.00 0.00 0.00 0.01 0.04 0.10 0.28 0.44 0.44 0.31 0.14 0.12 0.02 0.02 0.05 0.05 0.06 0.11 0.18 0.13 0.07 0.05 0.00 0.00
0.01 0.01 0.00 0.00 0.00 0.00 0.00 0.00 0.00 0.00 0.00 0.00 0.00 0.00 0.00 0.00 0.00 0.00 0.00 0.00 0.00 0.00 0.01 0.04 0.08 0.13 0.10 0.05 0.02 0.06 0.08 0.13 0.04 0.02 0.01 0.01 0.06 0.12 0.09 0.11 0.06 0.02 0.00 0.00
0.01 0.00 0.00 0.00 0.00 0.00 0.00 0.00 0.00 0.00 0.00 0.00 0.00 0.00 0.01 0.00 0.00 0.00 0.00 0.00 0.01 0.02 0.03 0.03 0.00 0.00 0.01 0.02 0.03 0.06 0.11 0.14 0.04 0.01 0.00 0.01 0.05 0.08 0.15 0.12 0.04 0.00 0.00 0.00
0.04 0.00 0.00 0.00 0.00 0.00 0.00 0.00 0.00 0.00 0.00 0.02 0.00 0.01 0.02 0.01 0.00 0.00 0.00 0.00 0.00 0.00 0.00 0.00 0.01 0.00 0.00 0.04 0.07 0.08 0.11 0.15 0.08 0.01 0.06 0.12 0.14 0.15 0.15 0.10 0.05 0.01 0.00 0.00
0.00 0.01 0.00 0.01 0.00 0.00 0.00 0.00 0.00 0.00 0.00 0.01 0.01 0.02 0.01 0.01 0.01 0.02 0.00 0.00 0.00 0.00 0.01 0.02 0.02 0.01 0.01 0.05 0.08 0.10 0.12 0.19 0.09 0.06 0.05 0.12 0.16 0.13 0.08 0.07 0.04 0.01 0.01 0.01
0.00 0.00 0.00 0.00 0.00 0.00 0.00 0.00 0.01 0.07 0.02 0.01 0.03 0.03 0.01 0.00 0.01 0.08 0.04 0.00 0.00 0.00 0.01 0.03 0.02 0.01 0.02 0.04 0.08 0.08 0.07 0.09 0.08 0.10 0.05 0.04 0.11 0.13 0.12 0.08 0.04 0.02 0.01 0.01
0.00 0.01 0.01 0.00 0.00 0.01 0.00 0.00 0.01 0.06 0.07 0.02 0.02 0.01 0.00 0.00 0.00 0.00 0.01 0.00 0.00 0.00 0.00 0.01 0.01 0.02 0.02 0.07 0.18 0.12 0.11 0.11 0.07 0.09 0.12 0.12 0.13 0.14 0.17 0.18 0.09 0.03 0.02 0.01
0.01 0.01 0.01 0.00 0.00 0.00 0.00 0.00 0.00 0.00 0.01 0.00 0.00 0.00 0.00 0.00 0.00 0.00 0.00 0.00 0.00 0.00 0.00 0.00 0.00 0.02 0.02 0.02 0.15 0.20 0.13 0.10 0.07 0.07 0.11 0.18 0.24 0.27 0.27 0.22 0.16 0.11 0.04 0.02
0.01 0.08 0.02 0.00 0.00 0.00 0.00 0.00 0.00 0.00 0.00 0.00 0.00 0.00 0.00 0.01 0.01 0.00 0.00 0.00 0.00 0.00 0.00 0.00 0.00 0.00 0.01 0.01 0.05 0.06 0.05 0.08 0.07 0.04 0.08 0.14 0.19 0.23 0.24 0.23 0.19 0.12 0.08 0.07
0.00 0.02 0.06 0.00 0.00 0.00 0.00 0.00 0.00 0.00 0.00 0.00 0.00 0.00 0.00 0.00 0.00 0.00 0.00 0.00 0.00 0.00 0.00 0.00 0.00 0.00 0.00 0.00 0.01 0.00 0.02 0.03 0.02 0.06 0.15 0.15 0.16 0.19 0.20 0.20 0.15 0.09 0.05 0.03
0.00 0.00 0.02 0.00 0.00 0.00 0.00 0.01 0.02 0.00 0.00 0.00 0.00 0.00 0.00 0.00 0.00 0.00 0.00 0.00 0.00 0.00 0.00 0.00 0.00 0.00 0.00 0.00 0.00 0.00 0.02 0.07 0.13 0.16 0.20 0.24 0.25 0.22 0.17 0.12 0.08 0.06 0.04 0.04
0.00 0.00 0.00 0.00 0.01 0.02 0.00 0.00 0.00 0.00 0.00 0.00 0.01 0.00 0.00 0.00 0.00 0.00 0.00 0.00 0.00 0.00 0.00 0.00 0.00 0.00 0.00 0.00 0.01 0.04 0.09 0.13 0.15 0.15 0.19 0.23 0.17 0.14 0.11 0.07 0.04 0.03 0.02 0.02
0.00 0.00 0.00 0.00 0.00 0.00 0.01 0.01 0.01 0.00 0.00 0.00 0.00 0.00 0.00 0.00 0.00 0.00 0.00 0.00 0.00 0.00 0.00 0.00 0.00 0.00 0.00 0.03 0.09 0.10 0.10 0.13 0.16 0.15 0.15 0.14 0.15 0.11 0.06 0.03 0.02 0.02 0.03 0.03
0.00 0.00 0.00 0.00 0.00 0.00 0.00 0.00 0.00 0.00 0.00 0.00 0.00 0.00 0.00 0.00 0.00 0.00 0.00 0.00 0.00 0.00 0.00 0.01 0.01 0.03 0.04 0.07 0.09 0.10 0.11 0.10 0.11 0.11 0.10 0.08 0.05 0.03 0.03 0.02 0.03 0.06 0.03 0.01
0.00 0.00 0.00 0.00 0.00 0.00 0.00 0.00 0.00 0.00 0.00 0.00 0.00 0.00 0.00 0.00 0.00 0.00 0.00 0.00 0.00 0.00 0.00 0.00 0.01 0.03 0.04 0.05 0.06 0.06 0.04 0.05 0.06 0.06 0.05 0.03 0.02 0.03 0.03 0.04 0.05 0.01 0.01 0.03
0.00 0.00 0.00 0.00 0.00 0.00 0.00 0.00 0.00 0.00 0.00 0.00 0.00 0.00 0.00 0.00 0.00 0.00 0.00 0.00 0.00 0.00 0.00 0.00 0.00 0.00 0.00 0.01 0.03 0.03 0.02 0.02 0.03 0.02 0.02 0.02 0.02 0.02 0.02 0.02 0.03 0.05 0.13 0.15
0.00 0.00 0.00 0.00 0.00 0.00 0.00 0.00 0.00 0.00 0.00 0.00 0.00 0.00 0.00 0.00 0.00 0.00 0.00 0.00 0.00 0.00 0.00 0.00 0.00 0.00 0.00 0.00 0.01 0.01 0.02 0.01 0.01 0.00 0.01 0.03 0.02 0.01 0.03 0.09 0.15 0.19 0.18 0.16
0.02 0.00 0.00 0.00 0.00 0.00 0.00 0.00 0.00 0.00 0.00 0.00 0.00 0.00 0.00 0.00 0.00 0.00 0.00 0.02 0.02 0.02 0.01 0.00 0.00 0.00 0.00 0.00 0.00 0.01 0.00 0.00 0.00 0.00 0.01 0.01 0.02 0.05 0.13 0.23 0.26 0.17 0.07 0.01
0.00 0.01 0.00 0.00 0.02 0.01 0.00 0.00 0.00 0.00 0.00 0.00 0.00 0.01 0.00 0.00 0.01 0.03 0.05 0.06 0.06 0.01 0.00 0.00 0.00 0.00 0.00 0.00 0.00 0.00 0.00 0.00 0.00 0.01 0.01 0.02 0.13 0.27 0.29 0.20 0.04 0.00 0.00 0.00
0.00 0.00 0.00 0.00 0.02 0.00 0.00 0.00 0.00 0.06 0.06 0.01 0.02 0.01 0.01 0.01 0.06 0.09 0.05 0.05 0.01 0.00 0.00 0.00 0.00 0.00 0.00 0.00 0.00 0.00 0.00 0.01 0.02 0.06 0.13 0.22 0.22 0.10 0.03 0.00 0.00 0.00 0.00 0.00
0.00 0.00 0.00 0.01 0.01 0.01 0.00 0.00 0.02 0.03 0.02 0.02 0.01 0.00 0.02 0.07 0.08 0.02 0.00 0.00 0.00 0.00 0.00 0.00 0.00 0.00 0.01 0.01 0.01 0.01 0.01 0.02 0.03 0.05 0.04 0.02 0.01 0.00 0.00 0.00 0.00 0.00 0.00 0.00
0.00 0.00 0.00 0.02 0.01 0.00 0.00 0.01 0.02 0.01 0.04 0.03 0.01 0.03 0.08 0.04 0.00 0.00 0.00 0.00 0.00 0.00 0.00 0.00 0.01 0.02 0.02 0.01 0.01 0.02 0.01 0.02 0.01 0.00 0.01 0.00 0.00 0.00 0.00 0.00 0.00 0.00 0.00 0.00
0.00 0.00 0.00 0.01 0.00 0.00 0.01 0.00 0.01 0.01 0.00 0.00 0.01 0.03 0.01 0.00 0.01 0.02 0.01 0.01 0.01 0.01 0.02 0.02 0.02 0.01 0.01 0.01 0.01 0.02 0.01 0.01 0.01 0.01 0.00 0.00 0.00 0.00 0.00 0.00 0.00 0.00 0.00 0.01
0.00 0.01 0.01 0.01 0.00 0.01 0.02 0.04 0.03 0.01 0.01 0.00 0.00 0.00 0.00 0.01 0.01 0.00 0.00 0.01 0.01 0.00 0.00 0.01 0.01 0.01 0.00 0.01 0.01 0.01 0.01 0.00 0.00 0.00 0.00 0.00 0.00 0.00 0.00 0.00 0.00 0.00 0.00 0.00
0.00 0.00 0.02 0.03 0.02 0.04 0.08 0.04 0.03 0.02 0.01 0.00 0.00 0.00 0.00 0.00 0.00 0.01 0.02 0.02 0.01 0.01 0.02 0.01 0.01 0.01 0.01 0.00 0.00 0.00 0.00 0.00 0.00 0.00 0.00 0.00 0.01 0.01 0.01 0.00 0.00 0.00 0.00 0.00

GFSCGP_prec_precacc_054.txt.gz
Total_Precipitation_Accumulation
0.02 0.00 0.00 0.00 0.00 0.00 0.00 0.00 0.00 0.00 0.00 0.00 0.00 0.00 0.00 0.00 0.00 0.01 0.00 0.00 0.01 0.00 0.00 0.02 0.05 0.06 0.08 0.18 0.41 0.62 0.96 0.92 0.32 0.10 0.07 0.05 0.06 0.13 0.21 0.17 0.14 0.12 0.03 0.02
0.04 0.01 0.01 0.00 0.00 0.00 0.00 0.00 0.00 0.00 0.00 0.00 0.00 0.00 0.00 0.00 0.00 0.00 0.00 0.00 0.00 0.00 0.00 0.01 0.04 0.10 0.28 0.44 0.44 0.31 0.14 0.12 0.02 0.02 0.05 0.05 0.06 0.11 0.18 0.14 0.11 0.17 0.10 0.02
0.01 0.01 0.00 0.00 0.00 0.00 0.00 0.00 0.00 0.00 0.00 0.00 0.00 0.00 0.00 0.00 0.00 0.00 0.00 0.00 0.00 0.00 0.01 0.04 0.08 0.13 0.10 0.05 0.02 0.06 0.08 0.13 0.04 0.02 0.01 0.01 0.06 0.12 0.10 0.17 0.17 0.15 0.09 0.04
0.01 0.00 0.00 0.00 0.00 0.00 0.00 0.00 0.00 0.00 0.00 0.00 0.00 0.00 0.01 0.00 0.00 0.00 0.00 0.00 0.01 0.02 0.03 0.03 0.00 0.00 0.01 0.02 0.03 0.06 0.11 0.14 0.04 0.01 0.00 0.01 0.06 0.08 0.16 0.17 0.13 0.09 0.04 0.02
0.04 0.00 0.00 0.00 0.00 0.00 0.00 0.00 0.00 0.00 0.00 0.02 0.00 0.01 0.02 0.01 0.00 0.00 0.00 0.00 0.00 0.00 0.00 0.00 0.01 0.00 0.00 0.04 0.07 0.08 0.11 0.15 0.08 0.01 0.06 0.12 0.14 0.15 0.16 0.13 0.10 0.07 0.05 0.02
0.00 0.01 0.00 0.01 0.00 0.00 0.00 0.00 0.00 0.00 0.00 0.01 0.01 0.02 0.01 0.01 0.01 0.02 0.00 0.00 0.00 0.00 0.01 0.02 0.02 0.01 0.01 0.05 0.08 0.10 0.12 0.19 0.09 0.06 0.07 0.13 0.17 0.13 0.09 0.07 0.06 0.05 0.05 0.03
0.00 0.00 0.00 0.00 0.00 0.00 0.00 0.00 0.01 0.07 0.02 0.01 0.03 0.03 0.01 0.00 0.01 0.08 0.04 0.00 0.00 0.00 0.01 0.03 0.02 0.01 0.02 0.04 0.08 0.08 0.07 0.09 0.09 0.12 0.06 0.04 0.12 0.15 0.12 0.09 0.06 0.06 0.05 0.03
0.00 0.01 0.01 0.00 0.00 0.01 0.00 0.00 0.01 0.06 0.07 0.02 0.02 0.01 0.00 0.00 0.00 0.00 0.01 0.00 0.00 0.00 0.00 0.01 0.01 0.02 0.02 0.07 0.18 0.12 0.11 0.11 0.07 0.11 0.16 0.18 0.16 0.17 0.18 0.19 0.13 0.08 0.08 0.10
0.01 0.01 0.01 0.00 0.00 0.00 0.00 0.00 0.00 0.00 0.01 0.00 0.00 0.00 0.00 0.00 0.00 0.00 0.00 0.00 0.00 0.00 0.00 0.00 0.00 0.02 0.02 0.02 0.15 0.20 0.13 0.12 0.08 0.10 0.16 0.21 0.30 0.33 0.29 0.25 0.20 0.16 0.10 0.08
0.01 0.08 0.02 0.00 0.00 0.00 0.00 0.00 0.00 0.00 0.00 0.00 0.00 0.00 0.00 0.01 0.01 0.00 0.00 0.00 0.00 0.00 0.00 0.00 0.00 0.00 0.01 0.01 0.05 0.06 0.05 0.10 0.10 0.07 0.09 0.15 0.21 0.26 0.26 0.26 0.24 0.18 0.14 0.11
0.00 0.02 0.06 0.00 0.00 0.00 0.00 0.00 0.00 0.00 0.00 0.00 0.00 0.00 0.00 0.00 0.00 0.00 0.00 0.00 0.00 0.00 0.00 0.00 0.00 0.00 0.00 0.00 0.01 0.00 0.02 0.03 0.02 0.06 0.15 0.16 0.19 0.23 0.24 0.25 0.21 0.15 0.09 0.06
0.00 0.00 0.02 0.00 0.00 0.00 0.00 0.01 0.02 0.00 0.00 0.00 0.00 0.00 0.00 0.00 0.00 0.00 0.00 0.00 0.00 0.00 0.00 0.00 0.00 0.00 0.00 0.00 0.00 0.00 0.02 0.07 0.13 0.16 0.20 0.25 0.27 0.27 0.22 0.17 0.13 0.09 0.06 0.04
0.00 0.00 0.00 0.00 0.01 0.02 0.00 0.00 0.00 0.00 0.00 0.00 0.01 0.00 0.00 0.00 0.00 0.00 0.00 0.00 0.00 0.00 0.00 0.00 0.00 0.00 0.00 0.00 0.01 0.04 0.09 0.13 0.15 0.15 0.19 0.23 0.19 0.18 0.16 0.11 0.07 0.04 0.02 0.02
0.00 0.00 0.00 0.00 0.00 0.00 0.01 0.01 0.01 0.00 0.00 0.00 0.00 0.00 0.00 0.00 0.00 0.00 0.00 0.00 0.00 0.00 0.00 0.00 0.00 0.00 0.00 0.03 0.09 0.10 0.10 0.13 0.16 0.15 0.15 0.15 0.16 0.13 0.08 0.04 0.03 0.03 0.04 0.03
0.00 0.00 0.00 0.00 0.00 0.00 0.00 0.00 0.00 0.00 0.00 0.00 0.00 0.00 0.00 0.00 0.00 0.00 0.00 0.00 0.00 0.00 0.00 0.01 0.01 0.03 0.04 0.07 0.10 0.11 0.12 0.11 0.12 0.14 0.11 0.09 0.05 0.03 0.03 0.02 0.03 0.06 0.03 0.02
0.00 0.00 0.00 0.00 0.00 0.00 0.00 0.00 0.00 0.00 0.00 0.00 0.00 0.00 0.00 0.00 0.00 0.00 0.00 0.00 0.00 0.00 0.00 0.00 0.01 0.03 0.04 0.06 0.07 0.07 0.05 0.06 0.06 0.06 0.05 0.03 0.02 0.03 0.03 0.04 0.05 0.02 0.01 0.03
0.00 0.00 0.00 0.00 0.00 0.00 0.00 0.00 0.00 0.00 0.00 0.00 0.00 0.00 0.00 0.00 0.00 0.00 0.00 0.00 0.00 0.00 0.00 0.00 0.00 0.00 0.00 0.01 0.03 0.03 0.02 0.02 0.03 0.02 0.02 0.02 0.02 0.02 0.02 0.02 0.03 0.06 0.13 0.16
0.00 0.00 0.00 0.00 0.00 0.00 0.00 0.00 0.00 0.00 0.00 0.00 0.00 0.00 0.00 0.00 0.00 0.00 0.00 0.00 0.00 0.00 0.00 0.00 0.00 0.00 0.00 0.00 0.01 0.01 0.02 0.01 0.01 0.00 0.01 0.03 0.02 0.01 0.03 0.09 0.16 0.22 0.19 0.17
0.02 0.00 0.00 0.00 0.00 0.00 0.00 0.00 0.00 0.00 0.00 0.00 0.00 0.00 0.00 0.00 0.00 0.00 0.00 0.02 0.02 0.02 0.01 0.00 0.00 0.00 0.00 0.00 0.00 0.01 0.00 0.00 0.00 0.00 0.01 0.01 0.02 0.05 0.13 0.23 0.26 0.17 0.07 0.01
0.00 0.01 0.00 0.00 0.02 0.01 0.00 0.00 0.00 0.00 0.00 0.00 0.00 0.01 0.00 0.00 0.01 0.03 0.05 0.06 0.06 0.01 0.00 0.00 0.00 0.00 0.00 0.00 0.00 0.00 0.00 0.00 0.00 0.01 0.01 0.02 0.13 0.27 0.29 0.20 0.04 0.00 0.00 0.00
0.00 0.00 0.00 0.00 0.02 0.00 0.00 0.00 0.00 0.06 0.06 0.01 0.02 0.01 0.01 0.01 0.06 0.09 0.05 0.05 0.01 0.00 0.00 0.00 0.00 0.00 0.00 0.00 0.00 0.00 0.00 0.01 0.02 0.06 0.13 0.22 0.22 0.10 0.03 0.00 0.00 0.00 0.00 0.00
0.00 0.00 0.00 0.01 0.01 0.01 0.00 0.00 0.02 0.03 0.02 0.02 0.01 0.00 0.02 0.07 0.08 0.02 0.00 0.00 0.00 0.00 0.00 0.00 0.00 0.00 0.01 0.01 0.01 0.01 0.01 0.02 0.03 0.05 0.04 0.02 0.01 0.00 0.00 0.00 0.00 0.00 0.00 0.00
0.00 0.00 0.00 0.02 0.01 0.00 0.00 0.01 0.02 0.01 0.04 0.03 0.01 0.03 0.08 0.04 0.00 0.00 0.00 0.00 0.00 0.00 0.00 0.00 0.01 0.02 0.02 0.01 0.01 0.02 0.01 0.02 0.01 0.00 0.01 0.00 0.00 0.00 0.00 0.00 0.00 0.00 0.00 0.00
0.01 0.00 0.00 0.01 0.00 0.00 0.01 0.00 0.01 0.01 0.00 0.00 0.01 0.03 0.01 0.00 0.01 0.02 0.01 0.01 0.01 0.01 0.02 0.02 0.02 0.01 0.01 0.01 0.01 0.02 0.01 0.01 0.01 0.01 0.00 0.00 0.00 0.00 0.00 0.00 0.00 0.00 0.00 0.01
0.01 0.02 0.01 0.01 0.00 0.01 0.02 0.04 0.03 0.01 0.01 0.00 0.00 0.00 0.00 0.01 0.01 0.00 0.00 0.01 0.01 0.00 0.00 0.01 0.01 0.01 0.00 0.01 0.01 0.01 0.01 0.00 0.00 0.00 0.00 0.00 0.00 0.00 0.00 0.00 0.00 0.00 0.00 0.00
0.00 0.00 0.03 0.03 0.02 0.05 0.08 0.04 0.03 0.02 0.01 0.00 0.00 0.00 0.00 0.00 0.00 0.01 0.02 0.02 0.01 0.01 0.02 0.01 0.01 0.01 0.01 0.00 0.00 0.00 0.00 0.00 0.00 0.00 0.00 0.00 0.01 0.01 0.01 0.00 0.00 0.00 0.00 0.00

GFSCGP_prec_precacc_057.txt.gz
Total_Precipitation_Accumulation
0.02 0.00 0.00 0.00 0.00 0.00 0.00 0.00 0.00 0.00 0.01 0.00 0.00 0.00 0.00 0.00 0.00 0.01 0.00 0.00 0.01 0.00 0.00 0.02 0.05 0.06 0.08 0.18 0.41 0.62 0.96 0.92 0.32 0.10 0.07 0.05 0.06 0.13 0.21 0.17 0.15 0.13 0.03 0.04
0.04 0.01 0.01 0.00 0.00 0.00 0.00 0.00 0.00 0.00 0.00 0.00 0.00 0.00 0.00 0.00 0.00 0.00 0.00 0.00 0.00 0.00 0.00 0.01 0.04 0.10 0.28 0.44 0.44 0.31 0.14 0.12 0.02 0.02 0.05 0.05 0.06 0.11 0.18 0.14 0.11 0.19 0.12 0.04
0.01 0.01 0.00 0.00 0.00 0.00 0.00 0.00 0.00 0.00 0.00 0.00 0.00 0.00 0.00 0.00 0.00 0.00 0.00 0.00 0.00 0.00 0.01 0.04 0.08 0.13 0.10 0.05 0.02 0.06 0.08 0.13 0.04 0.02 0.01 0.01 0.06 0.12 0.10 0.17 0.17 0.15 0.14 0.13
0.01 0.00 0.00 0.00 0.00 0.00 0.00 0.00 0.00 0.00 0.00 0.00 0.00 0.00 0.01 0.00 0.00 0.00 0.00 0.00 0.01 0.02 0.03 0.03 0.00 0.00 0.01 0.02 0.03 0.06 0.11 0.14 0.04 0.01 0.00 0.01 0.06 0.08 0.16 0.17 0.13 0.10 0.09 0.10
0.04 0.00 0.00 0.00 0.00 0.00 0.00 0.00 0.00 0.00 0.00 0.02 0.00 0.01 0.02 0.01 0.00 0.00 0.00 0.00 0.00 0.00 0.00 0.00 0.01 0.00 0.00 0.04 0.07 0.08 0.11 0.15 0.08 0.01 0.06 0.12 0.14 0.15 0.16 0.13 0.10 0.08 0.08 0.06
0.00 0.01 0.00 0.01 0.00 0.00 0.00 0.00 0.00 0.00 0.00 0.01 0.01 0.02 0.02 0.01 0.01 0.02 0.00 0.00 0.00 0.00 0.01 0.02 0.02 0.01 0.01 0.05 0.08 0.10 0.12 0.19 0.09 0.06 0.07 0.13 0.17 0.13 0.09 0.08 0.06 0.05 0.06 0.05
0.00 0.00 0.00 0.00 0.00 0.00 0.00 0.00 0.01 0.10 0.02 0.01 0.03 0.03 0.01 0.00 0.01 0.08 0.04 0.00 0.00 0.00 0.01 0.03 0.02 0.01 0.02 0.04 0.08 0.08 0.07 0.09 0.09 0.12 0.06 0.04 0.12 0.15 0.12 0.09 0.07 0.06 0.05 0.03
0.00 0.01 0.01 0.00 0.00 0.01 0.00 0.00 0.02 0.12 0.10 0.03 0.02 0.01 0.00 0.00 0.00 0.00 0.01 0.00 0.00 0.00 0.00 0.01 0.01 0.02 0.02 0.07 0.18 0.12 0.11 0.11 0.07 0.11 0.16 0.18 0.19 0.19 0.18 0.19 0.13 0.08 0.08 0.12
0.01 0.01 0.01 0.00 0.00 0.00 0.00 0.00 0.00 0.01 0.01 0.00 0.00 0.00 0.00 0.00 0.00 0.00 0.00 0.00 0.00 0.00 0.00 0.00 0.00 0.02 0.02 0.02 0.15 0.20 0.13 0.12 0.08 0.10 0.16 0.23 0.32 0.34 0.30 0.25 0.21 0.17 0.12 0.09
0.01 0.08 0.02 0.00 0.00 0.00 0.00 0.00 0.00 0.00 0.02 0.01 0.00 0.00 0.00 0.01 0.01 0.00 0.00 0.00 0.00 0.00 0.00 0.00 0.00 0.00 0.01 0.01 0.05 0.06 0.05 0.10 0.10 0.07 0.09 0.15 0.24 0.29 0.28 0.29 0.29 0.22 0.16 0.13
0.00 0.02 0.06 0.00 0.00 0.00 0.00 0.00 0.00 0.00 0.00 0.02 0.01 0.00 0.00 0.00 0.00 0.00 0.00 0.00 0.00 0.00 0.00 0.00 0.00 0.00 0.00 0.00 0.01 0.00 0.02 0.03 0.02 0.06 0.15 0.20 0.25 0.24 0.25 0.27 0.23 0.15 0.09 0.07
0.00 0.00 0.02 0.00 0.00 0.00 0.00 0.01 0.02 0.00 0.00 0.00 0.00 0.00 0.00 0.00 0.00 0.00 0.00 0.00 0.00 0.00 0.00 0.00 0.00 0.00 0.00 0.00 0.00 0.00 0.02 0.07 0.13 0.16 0.21 0.27 0.29 0.29 0.24 0.18 0.13 0.09 0.06 0.05
0.00 0.00 0.00 0.00 0.01 0.02 0.00 0.00 0.00 0.00 0.00 0.00 0.02 0.00 0.00 0.00 0.00 0.00 0.00 0.00 0.00 0.00 0.00 0.00 0.00 0.00 0.00 0.00 0.01 0.04 0.09 0.13 0.15 0.15 0.20 0.26 0.21 0.19 0.16 0.12 0.07 0.04 0.03 0.04
0.00 0.00 0.00 0.00 0.00 0.00 0.01 0.01 0.01 0.00 0.00 0.00 0.00 0.00 0.00 0.00 0.00 0.00 0.00 0.00 0.00 0.00 0.00 0.00 0.00 0.00 0.00 0.03 0.09 0.10 0.10 0.13 0.16 0.15 0.15 0.15 0.17 0.14 0.08 0.04 0.03 0.03 0.04 0.03
0.00 0.00 0.00 0.00 0.00 0.00 0.00 0.00 0.00 0.00 0.00 0.00 0.00 0.00 0.00 0.00 0.00 0.00 0.00 0.00 0.00 0.00 0.00 0.01 0.01 0.03 0.04 0.07 0.10 0.11 0.12 0.11 0.12 0.15 0.13 0.11 0.07 0.04 0.03 0.03 0.03 0.06 0.03 0.02
0.00 0.00 0.00 0.00 0.00 0.00 0.00 0.00 0.00 0.00 0.00 0.00 0.00 0.00 0.00 0.00 0.00 0.00 0.00 0.00 0.00 0.00 0.00 0.00 0.01 0.03 0.04 0.06 0.08 0.08 0.06 0.06 0.08 0.12 0.07 0.04 0.02 0.03 0.03 0.04 0.05 0.02 0.01 0.03
0.00 0.00 0.00 0.00 0.00 0.00 0.00 0.00 0.00 0.00 0.00 0.00 0.00 0.00 0.00 0.00 0.00 0.00 0.00 0.00 0.00 0.00 0.00 0.00 0.00 0.00 0.00 0.01 0.04 0.04 0.04 0.04 0.04 0.02 0.02 0.02 0.02 0.02 0.02 0.02 0.03 0.06 0.13 0.16
0.00 0.00 0.00 0.00 0.00 0.00 0.00 0.00 0.00 0.00 0.00 0.00 0.00 0.00 0.00 0.00 0.00 0.00 0.00 0.00 0.00 0.00 0.00 0.00 0.00 0.00 0.00 0.00 0.01 0.02 0.02 0.01 0.01 0.00 0.01 0.03 0.02 0.01 0.03 0.09 0.16 0.22 0.19 0.17
0.02 0.01 0.01 0.00 0.00 0.00 0.00 0.00 0.00 0.00 0.00 0.00 0.00 0.00 0.00 0.00 0.00 0.00 0.00 0.02 0.02 0.02 0.01 0.00 0.00 0.00 0.00 0.00 0.00 0.01 0.00 0.00 0.00 0.00 0.01 0.01 0.02 0.05 0.13 0.23 0.26 0.17 0.07 0.01
0.00 0.01 0.03 0.01 0.02 0.01 0.00 0.00 0.00 0.00 0.00 0.00 0.00 0.01 0.00 0.00 0.01 0.03 0.05 0.06 0.06 0.01 0.00 0.00 0.00 0.00 0.00 0.00 0.00 0.00 0.00 0.00 0.00 0.01 0.01 0.02 0.13 0.27 0.29 0.20 0.04 0.00 0.00 0.00
0.00 0.00 0.01 0.02 0.03 0.00 0.00 0.00 0.00 0.06 0.06 0.01 0.02 0.01 0.01 0.01 0.06 0.09 0.05 0.05 0.01 0.00 0.00 0.00 0.00 0.00 0.00 0.00 0.00 0.00 0.00 0.01 0.02 0.06 0.13 0.22 0.22 0.10 0.03 0.00 0.00 0.00 0.00 0.00
0.00 0.02 0.01 0.03 0.03 0.01 0.00 0.00 0.02 0.03 0.02 0.02 0.01 0.00 0.02 0.07 0.08 0.02 0.00 0.00 0.00 0.00 0.00 0.00 0.00 0.00 0.01 0.01 0.01 0.01 0.01 0.02 0.03 0.05 0.04 0.02 0.01 0.00 0.00 0.00 0.00 0.00 0.00 0.00
0.00 0.02 0.03 0.03 0.01 0.00 0.00 0.01 0.02 0.01 0.04 0.03 0.01 0.03 0.08 0.04 0.00 0.00 0.00 0.00 0.00 0.00 0.00 0.00 0.01 0.02 0.02 0.01 0.01 0.02 0.01 0.02 0.01 0.00 0.01 0.00 0.00 0.00 0.00 0.00 0.00 0.00 0.00 0.00
0.01 0.00 0.00 0.01 0.00 0.00 0.01 0.00 0.01 0.01 0.00 0.00 0.01 0.03 0.01 0.00 0.01 0.02 0.01 0.01 0.01 0.01 0.02 0.02 0.02 0.01 0.01 0.01 0.01 0.02 0.01 0.01 0.01 0.01 0.00 0.00 0.00 0.00 0.00 0.00 0.00 0.00 0.00 0.01
0.01 0.02 0.01 0.01 0.00 0.01 0.02 0.04 0.03 0.01 0.01 0.00 0.00 0.00 0.00 0.01 0.01 0.00 0.00 0.01 0.01 0.00 0.00 0.01 0.01 0.01 0.00 0.01 0.01 0.01 0.01 0.00 0.00 0.00 0.00 0.00 0.00 0.00 0.00 0.00 0.00 0.00 0.00 0.00
0.00 0.00 0.03 0.03 0.02 0.05 0.08 0.04 0.03 0.02 0.01 0.00 0.00 0.00 0.00 0.00 0.00 0.01 0.02 0.02 0.01 0.01 0.02 0.01 0.01 0.01 0.01 0.00 0.00 0.00 0.00 0.00 0.00 0.00 0.00 0.00 0.01 0.01 0.01 0.00 0.00 0.00 0.00 0.00

GFSCGP_prec_precacc_060.txt.gz
Total_Precipitation_Accumulation
0.02 0.00 0.00 0.00 0.00 0.00 0.00 0.00 0.00 0.00 0.01 0.00 0.00 0.00 0.00 0.03 0.04 0.01 0.00 0.00 0.01 0.00 0.00 0.02 0.05 0.06 0.08 0.18 0.41 0.62 0.96 0.92 0.32 0.11 0.07 0.05 0.06 0.13 0.21 0.17 0.15 0.14 0.07 0.13
0.04 0.01 0.01 0.00 0.00 0.00 0.00 0.00 0.00 0.00 0.00 0.00 0.00 0.00 0.00 0.00 0.02 0.00 0.00 0.00 0.00 0.00 0.00 0.01 0.04 0.10 0.28 0.44 0.44 0.31 0.14 0.12 0.02 0.02 0.05 0.05 0.06 0.11 0.18 0.14 0.12 0.22 0.15 0.10
0.01 0.01 0.00 0.00 0.00 0.00 0.00 0.00 0.00 0.00 0.00 0.00 0.00 0.00 0.00 0.00 0.00 0.00 0.00 0.00 0.00 0.00 0.01 0.04 0.08 0.13 0.10 0.05 0.02 0.06 0.08 0.13 0.04 0.02 0.01 0.01 0.06 0.12 0.10 0.17 0.17 0.16 0.15 0.20
0.01 0.00 0.00 0.00 0.00 0.00 0.00 0.00 0.00 0.00 0.00 0.00 0.00 0.00 0.01 0.00 0.00 0.00 0.00 0.00 0.01 0.02 0.03 0.03 0.00 0.00 0.01 0.02 0.03 0.06 0.11 0.14 0.04 0.01 0.00 0.01 0.06 0.08 0.16 0.17 0.13 0.10 0.09 0.11
0.04 0.00 0.00 0.00 0.00 0.00 0.00 0.00 0.00 0.00 0.00 0.02 0.01 0.01 0.02 0.01 0.00 0.00 0.00 0.00 0.00 0.00 0.00 0.00 0.01 0.00 0.00 0.04 0.07 0.08 0.11 0.15 0.08 0.01 0.06 0.12 0.14 0.15 0.16 0.13 0.10 0.08 0.08 0.07
0.00 0.01 0.00 0.01 0.00 0.00 0.00 0.00 0.00 0.00 0.00 0.01 0.01 0.02 0.02 0.02 0.01 0.02 0.00 0.00 0.00 0.00 0.01 0.02 0.02 0.01 0.01 0.05 0.08 0.10 0.12 0.19 0.09 0.06 0.07 0.13 0.17 0.13 0.09 0.08 0.09 0.06 0.07 0.07
0.00 0.00 0.00 0.00 0.00 0.00 0.00 0.00 0.02 0.13 0.03 0.01 0.03 0.03 0.01 0.01 0.01 0.08 0.04 0.00 0.00 0.00 0.01 0.03 0.02 0.01 0.02 0.04 0.08 0.08 0.07 0.09 0.09 0.12 0.06 0.04 0.12 0.15 0.13 0.10 0.16 0.12 0.06 0.05
0.00 0.01 0.01 0.00 0.00 0.01 0.00 0.00 0.03 0.16 0.16 0.07 0.03 0.01 0.00 0.00 0.00 0.00 0.01 0.00 0.00 0.00 0.00 0.01 0.01 0.02 0.02 0.07 0.18 0.12 0.11 0.11 0.07 0.11 0.16 0.19 0.24 0.27 0.36 0.29 0.26 0.16 0.16 0.17
0.01 0.01 0.01 0.00 0.00 0.00 0.00 0.00 0.00 0.01 0.03 0.03 0.01 0.01 0.00 0.00 0.00 0.00 0.00 0.00 0.00 0.00 0.00 0.00 0.01 0.02 0.02 0.02 0.15 0.20 0.13 0.12 0.08 0.10 0.16 0.24 0.34 0.36 0.30 0.27 0.29 0.27 0.18 0.12
0.01 0.08 0.02 0.00 0.00 0.00 0.00 0.00 0.00 0.00 0.06 0.05 0.00 0.00 0.01 0.01 0.01 0.00 0.00 0.00 0.00 0.00 0.00 0.00 0.00 0.00 0.01 0.01 0.05 0.06 0.05 0.10 0.10 0.07 0.10 0.15 0.26 0.33 0.33 0.52 0.44 0.34 0.21 0.18
0.00 0.02 0.06 0.00 0.00 0.00 0.00 0.00 0.00 0.00 0.00 0.05 0.03 0.01 0.01 0.01 0.00 0.00 0.00 0.00 0.00 0.00 0.00 0.00 0.00 0.00 0.00 0.00 0.01 0.00 0.02 0.03 0.02 0.06 0.17 0.26 0.32 0.50 0.54 0.36 0.31 0.24 0.15 0.09
0.00 0.00 0.02 0.00 0.00 0.00 0.00 0.01 0.02 0.00 0.00 0.01 0.02 0.01 0.01 0.00 0.00 0.00 0.00 0.00 0.00 0.00 0.00 0.00 0.00 0.00 0.00 0.00 0.00 0.00 0.02 0.07 0.14 0.24 0.47 0.42 0.54 0.40 0.32 0.24 0.18 0.13 0.07 0.06
0.00 0.00 0.00 0.00 0.01 0.02 0.00 0.00 0.00 0.00 0.00 0.01 0.08 0.01 0.00 0.00 0.00 0.00 0.00 0.00 0.00 0.00 0.00 0.00 0.00 0.00 0.00 0.00 0.01 0.06 0.09 0.14 0.24 0.37 0.33 0.45 0.43 0.23 0.21 0.15 0.10 0.06 0.05 0.05
0.00 0.00 0.00 0.00 0.00 0.00 0.01 0.01 0.01 0.00 0.00 0.00 0.01 0.00 0.00 0.00 0.00 0.00 0.00 0.00 0.00 0.00 0.00 0.00 0.00 0.00 0.00 0.03 0.09 0.11 0.10 0.16 0.18 0.20 0.25 0.22 0.19 0.18 0.10 0.06 0.06 0.04 0.05 0.04
0.00 0.00 0.00 0.00 0.00 0.00 0.00 0.00 0.00 0.00 0.00 0.00 0.00 0.00 0.00 0.00 0.00 0.00 0.00 0.00 0.00 0.00 0.00 0.01 0.01 0.03 0.04 0.07 0.10 0.11 0.14 0.12 0.14 0.18 0.15 0.14 0.08 0.07 0.04 0.04 0.04 0.07 0.03 0.02
0.00 0.00 0.00 0.00 0.00 0.00 0.00 0.00 0.00 0.00 0.00 0.00 0.00 0.00 0.00 0.00 0.00 0.00 0.00 0.00 0.00 0.00 0.00 0.00 0.01 0.03 0.04 0.06 0.08 0.10 0.08 0.08 0.08 0.15 0.11 0.06 0.04 0.04 0.04 0.04 0.05 0.02 0.01 0.03
0.00 0.00 0.00 0.00 0.00 0.00 0.00 0.00 0.00 0.00 0.00 0.00 0.00 0.00 0.00 0.00 0.00 0.00 0.00 0.00 0.00 0.00 0.00 0.00 0.00 0.02 0.09 0.05 0.05 0.05 0.05 0.05 0.06 0.05 0.03 0.02 0.02 0.02 0.02 0.02 0.03 0.06 0.13 0.16
0.00 0.00 0.00 0.00 0.00 0.00 0.00 0.00 0.00 0.00 0.00 0.00 0.00 0.00 0.00 0.00 0.00 0.00 0.00 0.00 0.00 0.00 0.00 0.00 0.00 0.05 0.03 0.01 0.02 0.03 0.03 0.02 0.02 0.01 0.01 0.03 0.02 0.01 0.03 0.09 0.16 0.22 0.19 0.17
0.02 0.03 0.05 0.02 0.01 0.00 0.00 0.00 0.00 0.00 0.00 0.00 0.00 0.00 0.00 0.00 0.00 0.00 0.00 0.02 0.02 0.02 0.01 0.00 0.00 0.00 0.00 0.00 0.00 0.01 0.01 0.00 0.00 0.00 0.01 0.01 0.02 0.05 0.13 0.23 0.26 0.17 0.07 0.01
0.00 0.02 0.08 0.04 0.03 0.02 0.00 0.00 0.00 0.00 0.00 0.00 0.00 0.01 0.00 0.00 0.01 0.03 0.05 0.06 0.06 0.01 0.00 0.00 0.00 0.00 0.00 0.00 0.00 0.00 0.00 0.00 0.00 0.01 0.01 0.02 0.13 0.27 0.29 0.20 0.04 0.00 0.00 0.00
0.04 0.02 0.02 0.06 0.06 0.01 0.00 0.00 0.00 0.06 0.06 0.01 0.02 0.01 0.01 0.01 0.06 0.09 0.05 0.05 0.01 0.00 0.00 0.00 0.00 0.00 0.00 0.00 0.00 0.00 0.00 0.01 0.02 0.06 0.13 0.22 0.22 0.10 0.03 0.00 0.00 0.00 0.00 0.00
0.02 0.06 0.04 0.06 0.07 0.02 0.00 0.00 0.02 0.03 0.02 0.02 0.01 0.00 0.02 0.07 0.08 0.02 0.00 0.00 0.00 0.00 0.00 0.00 0.00 0.00 0.01 0.01 0.01 0.01 0.01 0.02 0.03 0.05 0.04 0.02 0.01 0.00 0.00 0.00 0.00 0.00 0.00 0.00
0.01 0.02 0.04 0.04 0.01 0.00 0.00 0.01 0.02 0.01 0.04 0.03 0.01 0.03 0.08 0.04 0.00 0.00 0.00 0.00 0.00 0.00 0.00 0.00 0.01 0.02 0.02 0.01 0.01 0.02 0.01 0.02 0.01 0.00 0.01 0.00 0.00 0.00 0.00 0.00 0.00 0.00 0.00 0.00
0.01 0.00 0.00 0.02 0.01 0.01 0.01 0.01 0.01 0.01 0.00 0.00 0.01 0.03 0.01 0.00 0.01 0.02 0.01 0.01 0.01 0.01 0.02 0.02 0.02 0.01 0.01 0.01 0.01 0.02 0.01 0.01 0.01 0.01 0.00 0.00 0.00 0.00 0.00 0.00 0.00 0.00 0.00 0.01
0.01 0.02 0.01 0.01 0.00 0.01 0.02 0.04 0.03 0.01 0.01 0.00 0.00 0.00 0.00 0.01 0.01 0.00 0.00 0.01 0.01 0.00 0.00 0.01 0.01 0.01 0.00 0.01 0.01 0.01 0.01 0.00 0.00 0.00 0.00 0.00 0.00 0.00 0.00 0.00 0.00 0.00 0.00 0.00
0.00 0.00 0.03 0.03 0.02 0.05 0.08 0.04 0.03 0.02 0.01 0.00 0.00 0.00 0.00 0.00 0.00 0.01 0.02 0.02 0.01 0.01 0.02 0.01 0.01 0.01 0.01 0.00 0.00 0.00 0.00 0.00 0.00 0.00 0.00 0.00 0.01 0.01 0.01 0.00 0.00 0.00 0.00 0.00

GFSCGP_prec_precacc_063.txt.gz
Total_Precipitation_Accumulation
0.02 0.00 0.00 0.00 0.00 0.00 0.00 0.00 0.00 0.00 0.01 0.00 0.00 0.00 0.00 0.04 0.15 0.07 0.03 0.01 0.01 0.01 0.00 0.02 0.05 0.06 0.08 0.18 0.41 0.62 0.96 0.92 0.32 0.11 0.07 0.05 0.07 0.13 0.21 0.17 0.15 0.15 0.08 0.13
0.04 0.01 0.01 0.00 0.00 0.00 0.00 0.00 0.00 0.00 0.00 0.00 0.00 0.00 0.00 0.00 0.02 0.00 0.00 0.01 0.00 0.01 0.00 0.01 0.04 0.10 0.28 0.44 0.44 0.31 0.14 0.12 0.02 0.02 0.05 0.05 0.06 0.11 0.18 0.14 0.12 0.22 0.15 0.11
0.01 0.01 0.00 0.00 0.00 0.00 0.00 0.00 0.00 0.00 0.00 0.00 0.00 0.00 0.00 0.00 0.00 0.00 0.00 0.02 0.01 0.00 0.01 0.04 0.08 0.13 0.10 0.05 0.02 0.06 0.08 0.13 0.04 0.02 0.01 0.01 0.06 0.12 0.10 0.17 0.17 0.16 0.15 0.20
0.01 0.00 0.00 0.00 0.00 0.00 0.00 0.00 0.00 0.00 0.00 0.00 0.00 0.00 0.01 0.00 0.00 0.00 0.00 0.01 0.02 0.02 0.03 0.03 0.00 0.00 0.01 0.02 0.03 0.06 0.11 0.14 0.04 0.01 0.00 0.01 0.06 0.08 0.16 0.17 0.13 0.10 0.09 0.11
0.04 0.00 0.00 0.00 0.00 0.00 0.00 0.00 0.00 0.00 0.00 0.02 0.01 0.01 0.02 0.01 0.00 0.00 0.00 0.00 0.03 0.01 0.00 0.00 0.01 0.00 0.00 0.04 0.07 0.08 0.11 0.15 0.08 0.01 0.06 0.12 0.14 0.15 0.16 0.13 0.10 0.08 0.08 0.07
0.00 0.01 0.00 0.01 0.00 0.00 0.00 0.00 0.00 0.00 0.00 0.01 0.01 0.02 0.02 0.02 0.01 0.02 0.00 0.00 0.09 0.01 0.01 0.02 0.02 0.01 0.01 0.05 0.08 0.10 0.12 0.19 0.09 0.06 0.07 0.13 0.17 0.14 0.10 0.08 0.09 0.06 0.07 0.08
0.00 0.00 0.00 0.00 0.00 0.00 0.00 0.00 0.02 0.13 0.03 0.01 0.03 0.03 0.01 0.01 0.01 0.08 0.04 0.00 0.00 0.00 0.01 0.03 0.02 0.01 0.02 0.04 0.08 0.08 0.07 0.09 0.09 0.12 0.07 0.05 0.12 0.16 0.16 0.12 0.17 0.12 0.07 0.06
0.00 0.01 0.01 0.00 0.00 0.01 0.00 0.00 0.03 0.16 0.16 0.07 0.03 0.01 0.00 0.00 0.00 0.00 0.01 0.00 0.00 0.00 0.00 0.01 0.01 0.02 0.03 0.07 0.18 0.12 0.11 0.11 0.07 0.11 0.16 0.20 0.25 0.31 0.37 0.35 0.29 0.17 0.19 0.23
0.01 0.01 0.01 0.00 0.00 0.00 0.00 0.00 0.00 0.01 0.03 0.04 0.01 0.01 0.00 0.00 0.00 0.00 0.00 0.00 0.00 0.00 0.00 0.00 0.01 0.02 0.03 0.03 0.15 0.20 0.13 0.12 0.08 0.10 0.16 0.24 0.36 0.39 0.30 0.30 0.48 0.36 0.25 0.17
0.01 0.08 0.02 0.00 0.00 0.00 0.00 0.00 0.00 0.00 0.07 0.06 0.00 0.00 0.02 0.02 0.01 0.00 0.00 0.00 0.00 0.00 0.00 0.00 0.00 0.00 0.01 0.01 0.06 0.08 0.07 0.11 0.10 0.08 0.10 0.15 0.27 0.37 0.38 0.69 0.91 0.96 0.68 0.40
0.00 0.02 0.06 0.00 0.00 0.00 0.00 0.00 0.00 0.00 0.00 0.05 0.03 0.01 0.01 0.01 0.01 0.00 0.00 0.00 0.00 0.00 0.00 0.00 0.00 0.01 0.00 0.00 0.01 0.02 0.05 0.07 0.04 0.10 0.20 0.33 0.39 0.56 0.74 0.64 0.89 0.51 0.30 0.19
0.00 0.00 0.02 0.00 0.00 0.00 0.00 0.01 0.02 0.00 0.00 0.01 0.02 0.01 0.01 0.00 0.00 0.00 0.00 0.00 0.00 0.00 0.00 0.00 0.00 0.01 0.00 0.00 0.00 0.00 0.04 0.14 0.28 0.40 0.87 0.82 0.97 0.90 0.82 0.86 0.73 0.30 0.13 0.14
0.00 0.00 0.00 0.00 0.01 0.02 0.00 0.00 0.00 0.00 0.00 0.01 0.09 0.01 0.00 0.00 0.00 0.00 0.00 0.00 0.00 0.00 0.00 0.00 0.00 0.00 0.00 0.01 0.03 0.15 0.49 0.82 0.70 0.77 0.68 0.67 0.79 0.47 0.39 0.24 0.16 0.10 0.08 0.06
0.00 0.00 0.00 0.00 0.00 0.00 0.01 0.01 0.01 0.00 0.01 0.00 0.01 0.00 0.00 0.00 0.00 0.00 0.00 0.00 0.00 0.00 0.00 0.00 0.00 0.00 0.00 0.04 0.13 0.20 0.37 0.40 0.38 0.43 0.41 0.32 0.29 0.23 0.12 0.09 0.07 0.06 0.05 0.04
0.00 0.00 0.00 0.00 0.00 0.00 0.00 0.00 0.00 0.00 0.00 0.01 0.00 0.00 0.00 0.00 0.00 0.00 0.00 0.00 0.00 0.00 0.00 0.01 0.01 0.03 0.04 0.07 0.10 0.11 0.15 0.18 0.21 0.23 0.19 0.16 0.09 0.09 0.07 0.06 0.06 0.08 0.03 0.02
0.00 0.00 0.00 0.00 0.00 0.00 0.00 0.00 0.00 0.00 0.00 0.00 0.00 0.00 0.00 0.00 0.00 0.00 0.00 0.00 0.00 0.00 0.00 0.00 0.01 0.03 0.04 0.06 0.09 0.10 0.09 0.11 0.10 0.18 0.13 0.08 0.04 0.04 0.05 0.05 0.05 0.02 0.01 0.03
0.00 0.00 0.00 0.00 0.00 0.00 0.00 0.00 0.00 0.00 0.00 0.00 0.00 0.00 0.00 0.00 0.00 0.00 0.00 0.00 0.00 0.00 0.00 0.00 0.00 0.02 0.12 0.05 0.06 0.06 0.07 0.07 0.08 0.07 0.04 0.02 0.04 0.03 0.02 0.03 0.03 0.06 0.13 0.16
0.01 0.00 0.00 0.00 0.00 0.01 0.00 0.00 0.00 0.00 0.00 0.00 0.00 0.00 0.00 0.00 0.00 0.00 0.00 0.00 0.00 0.00 0.00 0.00 0.00 0.08 0.06 0.01 0.02 0.03 0.03 0.03 0.02 0.01 0.01 0.03 0.03 0.02 0.03 0.09 0.16 0.22 0.19 0.17
0.04 0.03 0.07 0.02 0.01 0.00 0.00 0.00 0.00 0.00 0.00 0.00 0.00 0.00 0.00 0.00 0.00 0.00 0.00 0.02 0.02 0.02 0.01 0.00 0.00 0.00 0.00 0.00 0.00 0.01 0.01 0.00 0.00 0.00 0.01 0.01 0.02 0.05 0.13 0.23 0.26 0.17 0.07 0.01
0.16 0.03 0.09 0.08 0.04 0.02 0.00 0.00 0.00 0.00 0.00 0.00 0.00 0.01 0.00 0.00 0.01 0.03 0.05 0.06 0.06 0.01 0.00 0.00 0.00 0.00 0.00 0.00 0.00 0.00 0.00 0.00 0.00 0.01 0.01 0.02 0.13 0.27 0.29 0.20 0.04 0.00 0.00 0.00
0.14 0.08 0.05 0.08 0.12 0.01 0.00 0.00 0.00 0.06 0.06 0.01 0.02 0.01 0.01 0.01 0.06 0.09 0.05 0.05 0.01 0.00 0.00 0.00 0.00 0.00 0.00 0.00 0.00 0.00 0.00 0.01 0.02 0.06 0.13 0.22 0.22 0.10 0.03 0.00 0.00 0.00 0.00 0.00
0.02 0.07 0.08 0.11 0.09 0.02 0.00 0.00 0.02 0.03 0.02 0.02 0.01 0.00 0.02 0.07 0.08 0.02 0.00 0.00 0.00 0.00 0.00 0.00 0.00 0.00 0.01 0.01 0.01 0.01 0.01 0.02 0.03 0.05 0.04 0.02 0.01 0.00 0.00 0.00 0.00 0.00 0.00 0.00
0.01 0.02 0.04 0.06 0.02 0.01 0.01 0.01 0.02 0.01 0.04 0.03 0.01 0.03 0.08 0.05 0.00 0.00 0.00 0.00 0.00 0.00 0.00 0.00 0.01 0.02 0.02 0.01 0.01 0.02 0.01 0.02 0.01 0.00 0.01 0.00 0.00 0.00 0.00 0.00 0.00 0.00 0.00 0.00
0.01 0.00 0.00 0.02 0.01 0.01 0.02 0.03 0.01 0.01 0.00 0.00 0.01 0.03 0.02 0.01 0.02 0.02 0.01 0.01 0.01 0.01 0.02 0.02 0.02 0.01 0.01 0.01 0.01 0.02 0.01 0.01 0.01 0.01 0.00 0.00 0.00 0.00 0.00 0.00 0.00 0.00 0.00 0.01
0.01 0.02 0.04 0.03 0.00 0.02 0.02 0.05 0.09 0.05 0.01 0.00 0.00 0.00 0.00 0.01 0.01 0.00 0.00 0.01 0.01 0.00 0.00 0.01 0.01 0.01 0.00 0.01 0.01 0.01 0.01 0.00 0.00 0.00 0.00 0.00 0.00 0.00 0.00 0.00 0.00 0.00 0.00 0.00
0.00 0.00 0.03 0.06 0.03 0.06 0.09 0.04 0.03 0.02 0.01 0.00 0.00 0.00 0.00 0.00 0.00 0.01 0.02 0.02 0.01 0.01 0.02 0.01 0.01 0.01 0.01 0.00 0.00 0.00 0.00 0.00 0.00 0.00 0.00 0.00 0.01 0.01 0.01 0.00 0.00 0.00 0.00 0.00

GFSCGP_prec_precacc_069.txt.gz
Total_Precipitation_Accumulation
0.02 0.00 0.00 0.00 0.00 0.00 0.00 0.00 0.00 0.00 0.01 0.00 0.00 0.00 0.00 0.04 0.15 0.07 0.03 0.01 0.01 0.01 0.00 0.02 0.05 0.06 0.08 0.18 0.41 0.63 0.99 0.92 0.32 0.11 0.08 0.06 0.07 0.13 0.21 0.17 0.15 0.15 0.08 0.13
0.04 0.01 0.01 0.00 0.00 0.00 0.00 0.00 0.00 0.00 0.00 0.00 0.00 0.00 0.00 0.00 0.02 0.00 0.00 0.01 0.00 0.01 0.00 0.01 0.04 0.10 0.28 0.44 0.44 0.31 0.14 0.12 0.02 0.02 0.05 0.05 0.06 0.11 0.18 0.14 0.12 0.22 0.15 0.11
0.01 0.01 0.00 0.00 0.00 0.00 0.00 0.00 0.00 0.00 0.00 0.00 0.00 0.00 0.00 0.00 0.00 0.00 0.01 0.03 0.01 0.01 0.01 0.04 0.08 0.13 0.10 0.05 0.02 0.06 0.08 0.13 0.04 0.02 0.01 0.01 0.06 0.12 0.10 0.17 0.17 0.16 0.15 0.20
0.01 0.00 0.00 0.00 0.00 0.00 0.00 0.00 0.00 0.00 0.00 0.00 0.00 0.00 0.01 0.00 0.00 0.00 0.01 0.02 0.02 0.02 0.03 0.03 0.00 0.00 0.01 0.02 0.03 0.06 0.11 0.14 0.04 0.01 0.00 0.01 0.06 0.08 0.16 0.17 0.13 0.10 0.09 0.11
0.04 0.00 0.00 0.00 0.00 0.00 0.00 0.00 0.00 0.00 0.00 0.02 0.01 0.01 0.02 0.01 0.00 0.00 0.00 0.00 0.03 0.01 0.00 0.00 0.01 0.00 0.00 0.04 0.07 0.08 0.11 0.15 0.08 0.01 0.06 0.12 0.14 0.15 0.16 0.13 0.10 0.08 0.08 0.07
0.00 0.01 0.00 0.01 0.00 0.00 0.00 0.00 0.00 0.00 0.00 0.01 0.01 0.02 0.02 0.02 0.01 0.02 0.00 0.00 0.09 0.02 0.01 0.02 0.02 0.01 0.01 0.05 0.08 0.10 0.12 0.19 0.09 0.06 0.07 0.13 0.17 0.14 0.10 0.08 0.09 0.06 0.07 0.08
0.00 0.00 0.00 0.00 0.00 0.00 0.00 0.00 0.02 0.13 0.03 0.01 0.03 0.03 0.01 0.01 0.01 0.08 0.04 0.00 0.00 0.00 0.01 0.03 0.02 0.01 0.02 0.04 0.08 0.08 0.07 0.09 0.09 0.12 0.07 0.05 0.12 0.16 0.16 0.12 0.17 0.12 0.07 0.06
0.00 0.01 0.01 0.00 0.00 0.01 0.00 0.00 0.03 0.16 0.16 0.07 0.03 0.01 0.00 0.00 0.00 0.00 0.01 0.00 0.00 0.00 0.00 0.01 0.01 0.02 0.03 0.07 0.18 0.12 0.11 0.11 0.07 0.11 0.16 0.20 0.25 0.31 0.37 0.36 0.31 0.19 0.21 0.24
0.01 0.01 0.01 0.00 0.00 0.00 0.00 0.00 0.00 0.01 0.03 0.04 0.01 0.01 0.00 0.00 0.00 0.00 0.00 0.00 0.00 0.00 0.00 0.00 0.01 0.02 0.03 0.03 0.16 0.20 0.13 0.12 0.08 0.10 0.16 0.24 0.37 0.40 0.30 0.35 0.57 0.42 0.37 0.28
0.01 0.08 0.02 0.00 0.00 0.00 0.00 0.00 0.00 0.00 0.07 0.06 0.00 0.00 0.02 0.02 0.01 0.00 0.00 0.00 0.00 0.00 0.00 0.00 0.00 0.00 0.01 0.02 0.11 0.15 0.09 0.11 0.10 0.08 0.10 0.15 0.27 0.41 0.48 0.80 1.09 1.22 0.99 0.76
0.00 0.02 0.06 0.00 0.00 0.00 0.00 0.00 0.00 0.00 0.00 0.05 0.03 0.01 0.01 0.01 0.01 0.00 0.00 0.00 0.00 0.00 0.00 0.00 0.00 0.01 0.00 0.01 0.05 0.13 0.18 0.15 0.06 0.10 0.20 0.33 0.39 0.58 0.91 0.87 1.17 0.94 0.89 0.95
0.00 0.00 0.02 0.00 0.00 0.00 0.00 0.01 0.02 0.00 0.00 0.01 0.02 0.01 0.01 0.00 0.00 0.00 0.00 0.00 0.00 0.00 0.00 0.00 0.00 0.01 0.00 0.00 0.01 0.06 0.26 0.48 0.63 0.59 1.00 0.92 1.05 1.21 1.11 1.37 1.94 1.33 0.97 0.70
0.00 0.00 0.00 0.00 0.01 0.02 0.00 0.00 0.00 0.00 0.00 0.01 0.09 0.01 0.00 0.00 0.00 0.00 0.00 0.00 0.00 0.00 0.00 0.00 0.00 0.00 0.00 0.01 0.04 0.21 0.71 1.11 0.90 0.95 0.97 1.08 1.49 0.97 0.59 0.44 0.36 0.31 0.23 0.15
0.00 0.00 0.00 0.00 0.00 0.00 0.01 0.01 0.01 0.00 0.01 0.00 0.01 0.00 0.00 0.00 0.00 0.00 0.00 0.00 0.00 0.00 0.00 0.00 0.00 0.00 0.00 0.04 0.14 0.21 0.45 0.69 0.70 0.68 0.68 0.64 0.61 0.60 0.38 0.30 0.22 0.14 0.13 0.13
0.01 0.01 0.00 0.00 0.00 0.00 0.00 0.00 0.00 0.00 0.00 0.01 0.00 0.00 0.00 0.00 0.00 0.00 0.00 0.00 0.00 0.00 0.00 0.01 0.01 0.03 0.04 0.07 0.10 0.11 0.21 0.24 0.27 0.31 0.28 0.24 0.19 0.18 0.16 0.15 0.10 0.11 0.05 0.05
0.02 0.01 0.00 0.00 0.00 0.00 0.00 0.00 0.00 0.00 0.00 0.00 0.00 0.00 0.00 0.00 0.00 0.00 0.00 0.00 0.00 0.00 0.00 0.00 0.01 0.03 0.04 0.06 0.09 0.10 0.11 0.15 0.15 0.22 0.18 0.13 0.08 0.10 0.11 0.10 0.12 0.05 0.04 0.07
0.06 0.08 0.04 0.01 0.00 0.00 0.01 0.00 0.00 0.00 0.00 0.00 0.00 0.00 0.00 0.00 0.00 0.00 0.00 0.00 0.00 0.00 0.00 0.00 0.00 0.02 0.12 0.05 0.06 0.06 0.08 0.09 0.11 0.10 0.09 0.08 0.10 0.07 0.06 0.06 0.07 0.08 0.16 0.19
0.16 0.11 0.14 0.07 0.02 0.10 0.03 0.00 0.00 0.00 0.00 0.00 0.00 0.00 0.00 0.00 0.00 0.00 0.00 0.00 0.00 0.00 0.00 0.00 0.00 0.08 0.06 0.01 0.02 0.03 0.03 0.03 0.03 0.03 0.04 0.06 0.08 0.06 0.06 0.11 0.17 0.23 0.22 0.20
0.17 0.20 0.28 0.14 0.07 0.05 0.00 0.00 0.00 0.00 0.00 0.00 0.00 0.00 0.00 0.00 0.00 0.00 0.00 0.02 0.02 0.02 0.01 0.00 0.00 0.00 0.00 0.00 0.00 0.01 0.01 0.00 0.01 0.02 0.03 0.04 0.04 0.07 0.15 0.26 0.30 0.19 0.09 0.04
0.35 0.24 0.25 0.25 0.18 0.08 0.00 0.00 0.00 0.00 0.00 0.00 0.00 0.01 0.00 0.00 0.01 0.03 0.05 0.06 0.06 0.01 0.00 0.00 0.00 0.00 0.00 0.00 0.00 0.00 0.00 0.00 0.01 0.02 0.02 0.03 0.13 0.28 0.31 0.22 0.06 0.01 0.01 0.02
0.23 0.35 0.31 0.27 0.23 0.05 0.00 0.00 0.00 0.07 0.06 0.01 0.02 0.01 0.01 0.01 0.06 0.09 0.05 0.05 0.01 0.00 0.00 0.00 0.00 0.00 0.00 0.00 0.00 0.00 0.00 0.01 0.02 0.06 0.14 0.22 0.22 0.11 0.03 0.01 0.01 0.01 0.01 0.01
0.05 0.17 0.25 0.31 0.27 0.11 0.02 0.06 0.09 0.05 0.02 0.02 0.01 0.00 0.02 0.07 0.08 0.02 0.00 0.00 0.00 0.00 0.00 0.00 0.00 0.00 0.01 0.01 0.01 0.01 0.01 0.02 0.03 0.05 0.04 0.02 0.01 0.01 0.01 0.01 0.00 0.00 0.00 0.00
0.02 0.02 0.05 0.09 0.06 0.02 0.03 0.09 0.10 0.06 0.05 0.04 0.02 0.03 0.08 0.05 0.00 0.00 0.00 0.00 0.00 0.00 0.00 0.00 0.01 0.02 0.02 0.01 0.01 0.02 0.01 0.02 0.01 0.00 0.01 0.00 0.00 0.00 0.00 0.00 0.00 0.00 0.00 0.00
0.01 0.00 0.01 0.02 0.01 0.01 0.02 0.03 0.02 0.02 0.01 0.01 0.02 0.04 0.02 0.02 0.02 0.03 0.02 0.01 0.01 0.01 0.02 0.02 0.02 0.01 0.01 0.01 0.01 0.02 0.01 0.01 0.01 0.01 0.00 0.00 0.00 0.00 0.00 0.00 0.00 0.00 0.00 0.01
0.01 0.02 0.04 0.03 0.00 0.02 0.03 0.06 0.09 0.05 0.01 0.00 0.00 0.00 0.00 0.01 0.01 0.01 0.01 0.01 0.01 0.00 0.00 0.01 0.01 0.01 0.00 0.01 0.01 0.01 0.01 0.00 0.00 0.00 0.00 0.00 0.00 0.00 0.00 0.00 0.00 0.00 0.00 0.00
0.01 0.02 0.07 0.07 0.05 0.07 0.09 0.04 0.03 0.02 0.01 0.00 0.00 0.00 0.00 0.00 0.00 0.01 0.02 0.02 0.01 0.01 0.02 0.01 0.01 0.01 0.01 0.00 0.00 0.00 0.00 0.00 0.00 0.00 0.00 0.00 0.01 0.01 0.01 0.00 0.00 0.00 0.00 0.00

GFSCGP_prec_precacc_072.txt.gz
Total_Precipitation_Accumulation
0.02 0.00 0.00 0.00 0.00 0.00 0.00 0.00 0.00 0.00 0.01 0.00 0.00 0.00 0.00 0.04 0.15 0.07 0.03 0.01 0.01 0.01 0.00 0.02 0.05 0.06 0.08 0.18 0.41 0.63 0.99 0.95 0.41 0.19 0.09 0.12 0.13 0.23 0.27 0.20 0.16 0.15 0.08 0.13
0.04 0.01 0.01 0.00 0.00 0.00 0.00 0.00 0.00 0.00 0.00 0.00 0.00 0.00 0.00 0.00 0.02 0.00 0.00 0.01 0.00 0.01 0.00 0.01 0.04 0.10 0.29 0.44 0.44 0.32 0.14 0.12 0.03 0.04 0.06 0.08 0.11 0.15 0.20 0.15 0.13 0.23 0.16 0.12
0.01 0.01 0.00 0.00 0.00 0.00 0.00 0.00 0.00 0.00 0.00 0.00 0.00 0.00 0.00 0.00 0.00 0.00 0.01 0.03 0.01 0.01 0.01 0.04 0.08 0.13 0.11 0.05 0.02 0.06 0.08 0.13 0.04 0.02 0.02 0.02 0.08 0.14 0.11 0.18 0.18 0.17 0.16 0.21
0.01 0.00 0.00 0.00 0.00 0.00 0.00 0.00 0.00 0.00 0.00 0.00 0.00 0.00 0.01 0.00 0.00 0.00 0.01 0.02 0.02 0.02 0.03 0.03 0.00 0.00 0.01 0.02 0.03 0.06 0.11 0.14 0.04 0.01 0.00 0.02 0.06 0.09 0.16 0.17 0.13 0.10 0.10 0.12
0.04 0.00 0.00 0.00 0.00 0.00 0.00 0.00 0.00 0.00 0.00 0.02 0.01 0.01 0.02 0.01 0.00 0.00 0.00 0.00 0.03 0.01 0.00 0.00 0.01 0.00 0.00 0.04 0.07 0.08 0.11 0.15 0.08 0.01 0.06 0.12 0.14 0.15 0.16 0.13 0.10 0.08 0.08 0.07
0.00 0.01 0.00 0.01 0.00 0.00 0.00 0.00 0.00 0.00 0.00 0.01 0.01 0.02 0.02 0.02 0.01 0.02 0.00 0.00 0.09 0.02 0.01 0.02 0.02 0.01 0.01 0.05 0.08 0.10 0.12 0.19 0.09 0.06 0.07 0.13 0.17 0.14 0.10 0.08 0.09 0.06 0.07 0.08
0.00 0.00 0.00 0.00 0.00 0.00 0.00 0.00 0.02 0.13 0.03 0.01 0.03 0.03 0.01 0.01 0.01 0.08 0.04 0.00 0.00 0.00 0.01 0.03 0.02 0.01 0.02 0.04 0.08 0.08 0.07 0.09 0.09 0.12 0.07 0.05 0.12 0.16 0.16 0.12 0.17 0.12 0.07 0.06
0.00 0.01 0.01 0.00 0.00 0.01 0.00 0.00 0.03 0.16 0.16 0.07 0.03 0.01 0.00 0.00 0.00 0.00 0.01 0.00 0.00 0.00 0.00 0.01 0.01 0.02 0.03 0.07 0.18 0.12 0.11 0.11 0.07 0.11 0.16 0.20 0.25 0.31 0.37 0.36 0.31 0.19 0.21 0.24
0.01 0.01 0.01 0.00 0.00 0.00 0.00 0.00 0.00 0.01 0.03 0.04 0.01 0.01 0.00 0.00 0.00 0.00 0.00 0.00 0.00 0.00 0.00 0.00 0.01 0.02 0.03 0.03 0.16 0.20 0.13 0.12 0.08 0.10 0.16 0.24 0.37 0.40 0.30 0.35 0.57 0.42 0.37 0.28
0.01 0.08 0.02 0.00 0.00 0.00 0.00 0.00 0.00 0.00 0.07 0.06 0.00 0.00 0.02 0.02 0.01 0.00 0.00 0.00 0.00 0.00 0.00 0.00 0.00 0.00 0.01 0.02 0.11 0.16 0.10 0.11 0.10 0.08 0.10 0.15 0.27 0.41 0.48 0.80 1.09 1.22 0.99 0.77
0.00 0.02 0.06 0.00 0.00 0.00 0.00 0.00 0.00 0.00 0.00 0.05 0.03 0.01 0.01 0.01 0.01 0.00 0.00 0.00 0.00 0.00 0.00 0.00 0.00 0.01 0.00 0.01 0.05 0.13 0.23 0.20 0.07 0.10 0.20 0.33 0.39 0.58 0.91 0.87 1.17 0.94 0.90 0.96
0.00 0.00 0.02 0.00 0.00 0.00 0.00 0.01 0.02 0.00 0.00 0.01 0.02 0.01 0.01 0.00 0.00 0.00 0.00 0.00 0.00 0.00 0.00 0.00 0.00 0.01 0.00 0.00 0.01 0.07 0.29 0.53 0.68 0.59 1.00 0.92 1.05 1.21 1.11 1.37 1.94 1.33 0.97 0.72
0.00 0.00 0.00 0.00 0.01 0.02 0.00 0.00 0.00 0.00 0.00 0.01 0.09 0.01 0.00 0.00 0.00 0.00 0.00 0.00 0.00 0.00 0.00 0.00 0.00 0.00 0.00 0.01 0.04 0.21 0.72 1.13 0.95 1.00 0.98 1.08 1.49 0.97 0.59 0.44 0.36 0.32 0.25 0.19
0.00 0.00 0.00 0.00 0.00 0.00 0.01 0.01 0.01 0.00 0.01 0.00 0.01 0.00 0.00 0.00 0.00 0.00 0.00 0.00 0.00 0.00 0.00 0.00 0.00 0.00 0.00 0.04 0.14 0.21 0.45 0.69 0.71 0.72 0.70 0.65 0.62 0.60 0.38 0.30 0.25 0.26 0.24 0.22
0.02 0.01 0.00 0.00 0.00 0.00 0.00 0.00 0.00 0.00 0.00 0.01 0.00 0.00 0.00 0.00 0.00 0.00 0.00 0.00 0.00 0.00 0.00 0.01 0.01 0.03 0.04 0.07 0.10 0.11 0.21 0.24 0.27 0.32 0.29 0.25 0.21 0.18 0.16 0.16 0.12 0.13 0.07 0.06
0.02 0.01 0.00 0.00 0.00 0.00 0.00 0.00 0.00 0.00 0.00 0.00 0.00 0.00 0.00 0.00 0.00 0.00 0.00 0.00 0.00 0.00 0.00 0.00 0.01 0.03 0.04 0.06 0.09 0.10 0.11 0.15 0.15 0.22 0.18 0.14 0.14 0.16 0.13 0.12 0.14 0.08 0.07 0.10
0.07 0.08 0.04 0.02 0.00 0.00 0.01 0.00 0.00 0.00 0.00 0.00 0.00 0.00 0.00 0.00 0.00 0.00 0.00 0.00 0.00 0.00 0.00 0.00 0.00 0.02 0.12 0.05 0.06 0.06 0.08 0.09 0.11 0.10 0.09 0.08 0.13 0.11 0.12 0.09 0.11 0.17 0.23 0.26
0.18 0.13 0.14 0.07 0.02 0.11 0.04 0.00 0.00 0.00 0.00 0.00 0.00 0.00 0.00 0.00 0.00 0.00 0.00 0.00 0.00 0.00 0.00 0.00 0.00 0.08 0.06 0.01 0.02 0.03 0.03 0.03 0.03 0.03 0.04 0.07 0.09 0.09 0.08 0.13 0.19 0.27 0.29 0.27
0.18 0.20 0.29 0.14 0.07 0.05 0.00 0.00 0.00 0.00 0.00 0.00 0.00 0.00 0.00 0.00 0.00 0.00 0.00 0.02 0.02 0.02 0.01 0.00 0.00 0.00 0.00 0.00 0.00 0.01 0.01 0.00 0.01 0.02 0.03 0.04 0.05 0.08 0.16 0.28 0.33 0.22 0.13 0.08
0.36 0.25 0.26 0.25 0.18 0.08 0.00 0.00 0.00 0.00 0.00 0.00 0.00 0.01 0.00 0.00 0.01 0.03 0.05 0.06 0.06 0.01 0.00 0.00 0.00 0.00 0.00 0.00 0.00 0.00 0.00 0.00 0.01 0.02 0.03 0.03 0.13 0.28 0.32 0.23 0.07 0.02 0.02 0.04
0.26 0.37 0.32 0.28 0.24 0.05 0.00 0.00 0.00 0.07 0.07 0.01 0.02 0.01 0.01 0.01 0.06 0.09 0.05 0.05 0.01 0.00 0.00 0.00 0.00 0.00 0.00 0.00 0.00 0.00 0.00 0.01 0.02 0.06 0.14 0.22 0.22 0.11 0.04 0.01 0.02 0.02 0.03 0.03
0.06 0.18 0.26 0.32 0.29 0.11 0.02 0.06 0.10 0.06 0.03 0.02 0.02 0.00 0.02 0.07 0.08 0.02 0.00 0.00 0.00 0.00 0.00 0.00 0.00 0.00 0.01 0.01 0.01 0.01 0.01 0.02 0.03 0.05 0.05 0.03 0.02 0.02 0.02 0.02 0.02 0.04 0.05 0.05
0.02 0.02 0.05 0.10 0.06 0.02 0.03 0.09 0.11 0.09 0.10 0.07 0.03 0.04 0.09 0.05 0.00 0.00 0.00 0.00 0.00 0.00 0.00 0.00 0.01 0.02 0.02 0.01 0.01 0.02 0.01 0.02 0.01 0.01 0.01 0.01 0.02 0.03 0.02 0.03 0.04 0.05 0.04 0.03
0.01 0.00 0.01 0.02 0.01 0.01 0.02 0.03 0.02 0.02 0.02 0.01 0.02 0.04 0.03 0.02 0.02 0.03 0.02 0.01 0.01 0.01 0.02 0.02 0.02 0.01 0.01 0.01 0.01 0.02 0.02 0.02 0.02 0.01 0.00 0.00 0.01 0.02 0.02 0.03 0.03 0.02 0.02 0.02
0.01 0.02 0.04 0.03 0.00 0.02 0.03 0.06 0.09 0.05 0.02 0.00 0.01 0.01 0.01 0.01 0.01 0.01 0.01 0.01 0.01 0.00 0.00 0.01 0.01 0.01 0.00 0.01 0.02 0.03 0.03 0.01 0.00 0.00 0.00 0.00 0.01 0.02 0.01 0.02 0.02 0.01 0.01 0.00
0.01 0.02 0.07 0.07 0.05 0.07 0.09 0.04 0.03 0.02 0.02 0.01 0.01 0.01 0.00 0.01 0.00 0.01 0.02 0.02 0.01 0.01 0.02 0.01 0.01 0.01 0.01 0.00 0.00 0.00 0.00 0.00 0.00 0.00 0.00 0.01 0.02 0.02 0.01 0.01 0.01 0.01 0.00 0.00

GFSCGP_prec_precacc_075.txt.gz
Total_Precipitation_Accumulation
0.02 0.00 0.00 0.00 0.00 0.00 0.00 0.00 0.00 0.00 0.01 0.00 0.00 0.00 0.00 0.04 0.15 0.07 0.03 0.01 0.01 0.01 0.00 0.02 0.05 0.06 0.08 0.18 0.42 0.63 0.99 0.95 0.46 0.21 0.10 0.15 0.23 0.39 0.46 0.31 0.16 0.15 0.08 0.13
0.04 0.01 0.01 0.00 0.00 0.00 0.00 0.00 0.00 0.00 0.00 0.00 0.00 0.00 0.00 0.00 0.02 0.00 0.00 0.01 0.00 0.01 0.00 0.01 0.04 0.10 0.29 0.44 0.44 0.32 0.14 0.12 0.03 0.04 0.06 0.09 0.14 0.24 0.33 0.30 0.14 0.23 0.16 0.12
0.01 0.01 0.00 0.00 0.00 0.00 0.00 0.00 0.00 0.00 0.00 0.00 0.00 0.00 0.00 0.00 0.00 0.00 0.01 0.03 0.01 0.01 0.01 0.04 0.08 0.13 0.11 0.05 0.02 0.06 0.08 0.13 0.04 0.02 0.02 0.05 0.21 0.27 0.21 0.32 0.21 0.17 0.16 0.21
0.01 0.00 0.00 0.00 0.00 0.00 0.00 0.00 0.00 0.00 0.00 0.00 0.00 0.00 0.01 0.00 0.00 0.00 0.01 0.02 0.02 0.02 0.03 0.03 0.00 0.00 0.01 0.02 0.03 0.06 0.11 0.14 0.04 0.01 0.00 0.02 0.11 0.16 0.21 0.20 0.16 0.11 0.10 0.13
0.04 0.00 0.00 0.00 0.00 0.00 0.00 0.00 0.00 0.00 0.00 0.02 0.01 0.01 0.02 0.01 0.00 0.00 0.00 0.00 0.03 0.01 0.00 0.00 0.01 0.00 0.00 0.04 0.07 0.08 0.11 0.15 0.08 0.01 0.06 0.12 0.14 0.16 0.20 0.16 0.12 0.09 0.08 0.07
0.00 0.01 0.00 0.01 0.00 0.00 0.00 0.00 0.00 0.00 0.00 0.01 0.01 0.02 0.02 0.02 0.01 0.02 0.00 0.00 0.09 0.02 0.01 0.02 0.02 0.01 0.01 0.05 0.08 0.10 0.12 0.19 0.09 0.06 0.07 0.13 0.17 0.14 0.10 0.08 0.09 0.06 0.07 0.08
0.00 0.00 0.00 0.00 0.00 0.00 0.00 0.00 0.02 0.13 0.03 0.01 0.03 0.03 0.01 0.01 0.01 0.08 0.04 0.00 0.00 0.00 0.01 0.03 0.02 0.01 0.02 0.04 0.08 0.08 0.07 0.09 0.09 0.12 0.07 0.05 0.12 0.16 0.16 0.12 0.17 0.12 0.07 0.06
0.01 0.01 0.01 0.00 0.00 0.01 0.00 0.00 0.03 0.16 0.16 0.07 0.03 0.01 0.00 0.00 0.00 0.00 0.01 0.00 0.00 0.00 0.00 0.01 0.01 0.02 0.03 0.07 0.18 0.12 0.11 0.11 0.07 0.11 0.16 0.20 0.25 0.31 0.37 0.36 0.31 0.19 0.21 0.24
0.01 0.01 0.01 0.00 0.00 0.00 0.00 0.00 0.00 0.01 0.03 0.04 0.01 0.01 0.00 0.00 0.00 0.00 0.00 0.00 0.00 0.00 0.00 0.00 0.01 0.02 0.03 0.03 0.16 0.20 0.13 0.12 0.08 0.10 0.16 0.24 0.37 0.40 0.30 0.35 0.57 0.42 0.37 0.28
0.01 0.08 0.02 0.00 0.00 0.00 0.00 0.00 0.00 0.00 0.07 0.06 0.00 0.00 0.02 0.02 0.01 0.00 0.00 0.00 0.00 0.00 0.00 0.00 0.00 0.00 0.01 0.02 0.11 0.16 0.10 0.11 0.10 0.08 0.10 0.15 0.27 0.41 0.48 0.80 1.09 1.22 0.99 0.77
0.00 0.02 0.06 0.00 0.00 0.00 0.00 0.00 0.00 0.00 0.00 0.05 0.03 0.01 0.01 0.01 0.01 0.00 0.00 0.00 0.00 0.00 0.00 0.00 0.00 0.01 0.00 0.01 0.05 0.13 0.23 0.23 0.09 0.10 0.20 0.33 0.39 0.58 0.91 0.87 1.17 0.94 0.90 0.96
0.00 0.00 0.02 0.00 0.00 0.00 0.00 0.01 0.02 0.00 0.00 0.01 0.02 0.01 0.01 0.00 0.00 0.00 0.00 0.00 0.00 0.00 0.00 0.00 0.00 0.01 0.00 0.00 0.01 0.07 0.29 0.53 0.73 0.66 1.00 0.92 1.05 1.21 1.11 1.37 1.94 1.33 0.97 0.72
0.00 0.00 0.00 0.00 0.01 0.02 0.00 0.00 0.00 0.00 0.00 0.01 0.09 0.01 0.00 0.00 0.00 0.00 0.00 0.00 0.00 0.00 0.00 0.00 0.00 0.00 0.00 0.01 0.04 0.21 0.72 1.13 0.95 1.02 0.99 1.08 1.49 0.97 0.59 0.44 0.36 0.32 0.25 0.19
0.00 0.00 0.00 0.00 0.00 0.00 0.01 0.01 0.01 0.00 0.01 0.00 0.01 0.00 0.00 0.00 0.00 0.00 0.00 0.00 0.00 0.00 0.00 0.00 0.00 0.00 0.00 0.04 0.14 0.21 0.45 0.69 0.71 0.72 0.70 0.65 0.62 0.61 0.38 0.30 0.25 0.26 0.24 0.22
0.02 0.01 0.00 0.00 0.00 0.00 0.00 0.00 0.00 0.00 0.00 0.01 0.00 0.00 0.00 0.00 0.00 0.00 0.00 0.00 0.00 0.00 0.00 0.01 0.01 0.03 0.04 0.07 0.10 0.11 0.21 0.24 0.27 0.32 0.29 0.26 0.23 0.18 0.16 0.16 0.12 0.13 0.07 0.06
0.02 0.01 0.00 0.00 0.00 0.00 0.00 0.00 0.00 0.00 0.00 0.00 0.00 0.00 0.00 0.00 0.00 0.00 0.00 0.00 0.00 0.00 0.00 0.00 0.01 0.03 0.04 0.06 0.09 0.10 0.11 0.15 0.15 0.22 0.18 0.14 0.14 0.16 0.13 0.12 0.14 0.08 0.07 0.10
0.07 0.08 0.05 0.02 0.00 0.00 0.01 0.00 0.00 0.00 0.00 0.00 0.00 0.00 0.00 0.00 0.00 0.00 0.00 0.00 0.00 0.00 0.00 0.00 0.00 0.02 0.12 0.05 0.06 0.06 0.08 0.09 0.11 0.10 0.09 0.08 0.13 0.11 0.12 0.10 0.11 0.18 0.24 0.27
0.18 0.13 0.14 0.07 0.02 0.11 0.04 0.00 0.00 0.00 0.00 0.00 0.00 0.00 0.00 0.00 0.00 0.00 0.00 0.00 0.00 0.00 0.00 0.00 0.00 0.08 0.06 0.01 0.02 0.03 0.03 0.03 0.03 0.03 0.04 0.07 0.09 0.09 0.08 0.14 0.20 0.28 0.30 0.28
0.18 0.22 0.33 0.16 0.07 0.05 0.00 0.00 0.00 0.00 0.00 0.00 0.00 0.00 0.00 0.00 0.00 0.00 0.00 0.02 0.02 0.02 0.01 0.00 0.00 0.00 0.00 0.00 0.00 0.01 0.01 0.00 0.01 0.02 0.03 0.04 0.05 0.08 0.16 0.28 0.33 0.22 0.14 0.10
0.36 0.26 0.29 0.29 0.20 0.08 0.00 0.00 0.00 0.00 0.00 0.00 0.00 0.01 0.00 0.00 0.01 0.03 0.05 0.06 0.06 0.01 0.00 0.00 0.00 0.00 0.00 0.00 0.00 0.00 0.00 0.00 0.01 0.02 0.03 0.03 0.13 0.28 0.32 0.23 0.07 0.03 0.04 0.06
0.26 0.38 0.33 0.30 0.27 0.05 0.00 0.00 0.01 0.07 0.07 0.01 0.02 0.01 0.01 0.01 0.06 0.09 0.05 0.05 0.01 0.00 0.00 0.00 0.00 0.00 0.00 0.00 0.00 0.00 0.00 0.01 0.02 0.06 0.14 0.23 0.23 0.12 0.06 0.03 0.02 0.03 0.04 0.05
0.08 0.20 0.27 0.33 0.29 0.11 0.02 0.09 0.14 0.07 0.03 0.02 0.02 0.00 0.02 0.07 0.08 0.02 0.00 0.00 0.00 0.00 0.00 0.00 0.00 0.00 0.01 0.01 0.01 0.01 0.01 0.02 0.03 0.05 0.05 0.04 0.06 0.06 0.05 0.04 0.03 0.04 0.05 0.06
0.02 0.03 0.05 0.10 0.06 0.02 0.03 0.09 0.11 0.09 0.10 0.07 0.03 0.04 0.09 0.05 0.00 0.00 0.00 0.00 0.00 0.00 0.00 0.00 0.01 0.02 0.02 0.01 0.01 0.02 0.01 0.02 0.01 0.02 0.02 0.03 0.04 0.04 0.03 0.04 0.05 0.06 0.06 0.06
0.01 0.00 0.01 0.02 0.01 0.01 0.02 0.03 0.02 0.02 0.02 0.01 0.02 0.04 0.03 0.02 0.02 0.03 0.02 0.01 0.01 0.01 0.02 0.02 0.02 0.01 0.01 0.01 0.01 0.02 0.02 0.03 0.03 0.03 0.01 0.01 0.02 0.03 0.02 0.04 0.04 0.05 0.05 0.06
0.01 0.02 0.04 0.03 0.00 0.02 0.03 0.06 0.09 0.05 0.02 0.00 0.01 0.01 0.01 0.01 0.01 0.01 0.01 0.01 0.01 0.00 0.00 0.01 0.01 0.01 0.00 0.01 0.02 0.03 0.03 0.02 0.01 0.00 0.00 0.00 0.01 0.02 0.01 0.02 0.05 0.05 0.05 0.08
0.01 0.02 0.07 0.07 0.05 0.07 0.09 0.04 0.03 0.02 0.02 0.01 0.01 0.01 0.02 0.02 0.00 0.01 0.02 0.02 0.01 0.01 0.02 0.02 0.01 0.01 0.01 0.01 0.01 0.00 0.00 0.00 0.00 0.00 0.00 0.01 0.02 0.02 0.02 0.03 0.06 0.07 0.05 0.07

GFSCGP_prec_precacc_078.txt.gz
Total_Precipitation_Accumulation
0.02 0.00 0.00 0.00 0.00 0.00 0.00 0.00 0.00 0.00 0.01 0.00 0.00 0.00 0.00 0.04 0.15 0.07 0.03 0.01 0.01 0.01 0.00 0.02 0.05 0.06 0.08 0.18 0.42 0.64 0.99 0.96 0.47 0.22 0.11 0.21 0.40 0.51 0.49 0.31 0.16 0.15 0.08 0.13
0.04 0.01 0.01 0.00 0.00 0.00 0.00 0.00 0.00 0.00 0.00 0.00 0.00 0.00 0.00 0.00 0.02 0.00 0.00 0.01 0.00 0.01 0.00 0.01 0.04 0.10 0.29 0.44 0.44 0.33 0.15 0.12 0.03 0.05 0.06 0.09 0.19 0.39 0.39 0.31 0.14 0.23 0.16 0.12
0.01 0.01 0.00 0.00 0.00 0.00 0.00 0.00 0.00 0.00 0.00 0.00 0.00 0.00 0.00 0.00 0.00 0.00 0.01 0.03 0.01 0.01 0.01 0.04 0.08 0.13 0.11 0.05 0.02 0.06 0.08 0.13 0.04 0.02 0.03 0.05 0.23 0.39 0.31 0.36 0.22 0.17 0.16 0.22
0.01 0.00 0.00 0.00 0.00 0.00 0.00 0.00 0.00 0.00 0.00 0.00 0.00 0.00 0.01 0.00 0.00 0.00 0.01 0.02 0.02 0.02 0.03 0.03 0.00 0.00 0.01 0.02 0.03 0.06 0.12 0.15 0.04 0.01 0.01 0.02 0.11 0.20 0.23 0.21 0.16 0.12 0.10 0.13
0.04 0.00 0.00 0.00 0.00 0.00 0.00 0.00 0.00 0.00 0.00 0.02 0.01 0.01 0.02 0.01 0.00 0.00 0.00 0.00 0.03 0.01 0.00 0.00 0.01 0.00 0.00 0.04 0.07 0.08 0.11 0.15 0.08 0.01 0.06 0.12 0.15 0.17 0.21 0.19 0.14 0.10 0.09 0.08
0.00 0.01 0.00 0.01 0.00 0.00 0.00 0.00 0.00 0.00 0.00 0.01 0.01 0.02 0.02 0.02 0.01 0.02 0.00 0.00 0.09 0.02 0.01 0.02 0.02 0.01 0.01 0.05 0.08 0.10 0.12 0.19 0.09 0.06 0.07 0.13 0.17 0.15 0.12 0.10 0.10 0.06 0.07 0.08
0.00 0.00 0.00 0.00 0.00 0.00 0.00 0.00 0.02 0.13 0.03 0.01 0.03 0.03 0.01 0.01 0.01 0.08 0.04 0.00 0.00 0.00 0.01 0.03 0.02 0.01 0.02 0.04 0.08 0.08 0.07 0.09 0.09 0.12 0.07 0.05 0.12 0.16 0.16 0.12 0.17 0.12 0.07 0.06
0.01 0.02 0.01 0.00 0.00 0.01 0.00 0.00 0.03 0.16 0.16 0.07 0.03 0.01 0.00 0.00 0.00 0.00 0.01 0.00 0.00 0.00 0.00 0.01 0.01 0.02 0.03 0.07 0.18 0.12 0.11 0.11 0.07 0.11 0.16 0.20 0.25 0.31 0.37 0.36 0.31 0.19 0.21 0.24
0.01 0.01 0.01 0.00 0.00 0.00 0.00 0.00 0.00 0.01 0.03 0.04 0.01 0.01 0.00 0.00 0.00 0.00 0.00 0.00 0.00 0.00 0.00 0.00 0.01 0.02 0.03 0.03 0.16 0.20 0.13 0.12 0.08 0.10 0.16 0.24 0.37 0.40 0.30 0.35 0.57 0.42 0.37 0.28
0.01 0.08 0.02 0.00 0.00 0.00 0.00 0.00 0.00 0.00 0.07 0.06 0.00 0.00 0.02 0.02 0.01 0.00 0.00 0.00 0.00 0.00 0.00 0.00 0.00 0.00 0.01 0.02 0.11 0.16 0.10 0.11 0.10 0.08 0.10 0.15 0.27 0.41 0.48 0.80 1.09 1.22 0.99 0.77
0.00 0.02 0.06 0.00 0.00 0.00 0.00 0.00 0.00 0.00 0.00 0.05 0.03 0.01 0.01 0.01 0.01 0.00 0.00 0.00 0.00 0.00 0.00 0.00 0.00 0.01 0.00 0.01 0.05 0.13 0.23 0.23 0.09 0.10 0.20 0.33 0.39 0.58 0.91 0.87 1.17 0.94 0.90 0.96
0.00 0.00 0.02 0.00 0.00 0.00 0.00 0.01 0.02 0.00 0.00 0.01 0.02 0.01 0.01 0.00 0.00 0.00 0.00 0.00 0.00 0.00 0.00 0.00 0.00 0.01 0.00 0.00 0.01 0.07 0.29 0.53 0.73 0.69 1.01 0.92 1.05 1.21 1.11 1.37 1.94 1.33 0.97 0.72
0.00 0.00 0.00 0.00 0.01 0.02 0.00 0.00 0.00 0.00 0.00 0.01 0.09 0.01 0.00 0.00 0.00 0.00 0.00 0.00 0.00 0.00 0.00 0.00 0.00 0.00 0.00 0.01 0.04 0.21 0.72 1.13 0.95 1.02 1.00 1.09 1.49 0.97 0.59 0.44 0.36 0.32 0.25 0.19
0.00 0.00 0.00 0.00 0.00 0.00 0.01 0.01 0.01 0.00 0.01 0.00 0.01 0.00 0.00 0.00 0.00 0.00 0.00 0.00 0.00 0.00 0.00 0.00 0.00 0.00 0.00 0.04 0.14 0.21 0.45 0.69 0.71 0.72 0.70 0.65 0.62 0.61 0.38 0.30 0.25 0.26 0.24 0.22
0.02 0.01 0.00 0.00 0.00 0.00 0.00 0.00 0.00 0.00 0.00 0.01 0.00 0.00 0.00 0.00 0.00 0.00 0.00 0.00 0.00 0.00 0.00 0.01 0.01 0.03 0.04 0.07 0.10 0.11 0.21 0.24 0.27 0.32 0.29 0.26 0.23 0.18 0.16 0.16 0.12 0.13 0.07 0.06
0.02 0.01 0.00 0.00 0.00 0.00 0.00 0.00 0.00 0.00 0.00 0.00 0.00 0.00 0.00 0.00 0.00 0.00 0.00 0.00 0.00 0.00 0.00 0.00 0.01 0.03 0.04 0.06 0.09 0.10 0.11 0.15 0.15 0.22 0.18 0.14 0.14 0.16 0.13 0.12 0.14 0.08 0.07 0.10
0.07 0.08 0.05 0.02 0.00 0.00 0.01 0.00 0.00 0.00 0.00 0.00 0.00 0.00 0.00 0.00 0.00 0.00 0.00 0.00 0.00 0.00 0.00 0.00 0.00 0.02 0.12 0.05 0.06 0.06 0.08 0.09 0.11 0.10 0.09 0.08 0.13 0.11 0.12 0.10 0.12 0.19 0.26 0.27
0.18 0.13 0.15 0.08 0.03 0.11 0.04 0.00 0.00 0.00 0.00 0.00 0.00 0.00 0.00 0.00 0.00 0.00 0.00 0.00 0.00 0.00 0.00 0.00 0.00 0.08 0.06 0.01 0.02 0.03 0.03 0.03 0.03 0.03 0.04 0.07 0.09 0.09 0.08 0.14 0.20 0.28 0.31 0.29
0.18 0.22 0.33 0.16 0.08 0.05 0.00 0.00 0.00 0.00 0.00 0.00 0.00 0.00 0.00 0.00 0.00 0.00 0.00 0.02 0.02 0.02 0.01 0.00 0.00 0.00 0.00 0.00 0.00 0.01 0.01 0.00 0.01 0.02 0.03 0.04 0.05 0.08 0.16 0.28 0.33 0.22 0.14 0.10
0.36 0.26 0.30 0.31 0.22 0.08 0.00 0.00 0.00 0.00 0.00 0.00 0.00 0.01 0.00 0.00 0.01 0.03 0.05 0.06 0.06 0.01 0.00 0.00 0.00 0.00 0.00 0.00 0.00 0.00 0.00 0.00 0.01 0.02 0.03 0.03 0.13 0.28 0.32 0.23 0.07 0.03 0.04 0.07
0.26 0.39 0.34 0.32 0.28 0.05 0.00 0.00 0.01 0.08 0.07 0.01 0.02 0.01 0.01 0.01 0.06 0.09 0.05 0.05 0.01 0.00 0.00 0.00 0.00 0.00 0.00 0.00 0.00 0.00 0.00 0.01 0.02 0.06 0.14 0.23 0.23 0.12 0.06 0.05 0.04 0.04 0.04 0.05
0.08 0.20 0.29 0.35 0.31 0.12 0.02 0.10 0.15 0.07 0.03 0.02 0.02 0.00 0.02 0.07 0.08 0.02 0.00 0.00 0.00 0.00 0.00 0.00 0.00 0.00 0.01 0.01 0.01 0.01 0.01 0.02 0.03 0.05 0.05 0.04 0.06 0.06 0.06 0.05 0.05 0.06 0.06 0.06
0.03 0.03 0.07 0.10 0.06 0.02 0.04 0.10 0.11 0.09 0.10 0.07 0.03 0.04 0.09 0.05 0.00 0.00 0.00 0.00 0.00 0.00 0.00 0.00 0.01 0.02 0.02 0.01 0.01 0.02 0.01 0.02 0.01 0.02 0.03 0.04 0.05 0.06 0.06 0.08 0.08 0.07 0.06 0.06
0.01 0.00 0.01 0.03 0.01 0.01 0.02 0.03 0.02 0.02 0.02 0.01 0.02 0.04 0.03 0.02 0.02 0.03 0.02 0.01 0.01 0.01 0.02 0.02 0.02 0.01 0.01 0.01 0.01 0.02 0.02 0.03 0.03 0.03 0.02 0.01 0.03 0.05 0.03 0.04 0.04 0.05 0.05 0.07
0.01 0.02 0.04 0.03 0.00 0.02 0.03 0.06 0.09 0.05 0.02 0.00 0.01 0.01 0.01 0.01 0.02 0.01 0.02 0.01 0.01 0.01 0.01 0.01 0.01 0.01 0.00 0.02 0.02 0.03 0.03 0.02 0.02 0.01 0.01 0.01 0.02 0.03 0.01 0.02 0.05 0.05 0.06 0.10
0.01 0.02 0.07 0.07 0.05 0.07 0.09 0.04 0.03 0.02 0.02 0.01 0.01 0.01 0.02 0.02 0.00 0.01 0.02 0.02 0.01 0.01 0.02 0.02 0.02 0.01 0.02 0.02 0.02 0.01 0.00 0.01 0.01 0.00 0.00 0.02 0.02 0.03 0.03 0.04 0.07 0.09 0.07 0.09

GFSCGP_prec_precacc_081.txt.gz
Total_Precipitation_Accumulation
0.02 0.00 0.00 0.00 0.00 0.00 0.00 0.00 0.00 0.00 0.01 0.00 0.00 0.00 0.00 0.04 0.15 0.07 0.03 0.01 0.01 0.01 0.00 0.02 0.05 0.06 0.08 0.18 0.42 0.64 1.00 0.97 0.47 0.23 0.13 0.25 0.45 0.58 0.50 0.31 0.16 0.16 0.08 0.13
0.04 0.01 0.01 0.00 0.00 0.00 0.00 0.00 0.00 0.00 0.00 0.00 0.00 0.00 0.00 0.00 0.02 0.00 0.00 0.01 0.00 0.01 0.00 0.01 0.04 0.10 0.29 0.44 0.44 0.33 0.15 0.12 0.04 0.05 0.08 0.11 0.20 0.41 0.40 0.31 0.14 0.23 0.16 0.12
0.01 0.01 0.00 0.00 0.00 0.00 0.00 0.00 0.00 0.00 0.00 0.00 0.00 0.00 0.00 0.00 0.00 0.00 0.01 0.03 0.01 0.01 0.01 0.04 0.08 0.13 0.11 0.05 0.02 0.06 0.08 0.14 0.05 0.03 0.05 0.08 0.25 0.41 0.33 0.37 0.22 0.17 0.16 0.22
0.01 0.00 0.00 0.00 0.00 0.00 0.00 0.00 0.00 0.00 0.00 0.00 0.00 0.00 0.01 0.00 0.00 0.00 0.01 0.02 0.02 0.02 0.03 0.03 0.00 0.00 0.01 0.02 0.03 0.06 0.12 0.15 0.05 0.01 0.02 0.04 0.12 0.23 0.24 0.21 0.17 0.12 0.10 0.13
0.05 0.00 0.00 0.00 0.00 0.00 0.00 0.00 0.00 0.00 0.00 0.02 0.01 0.01 0.02 0.01 0.00 0.00 0.00 0.00 0.03 0.01 0.00 0.00 0.01 0.00 0.00 0.04 0.07 0.08 0.12 0.16 0.08 0.01 0.06 0.14 0.16 0.19 0.23 0.19 0.14 0.10 0.09 0.08
0.00 0.01 0.00 0.01 0.00 0.00 0.00 0.00 0.00 0.00 0.00 0.01 0.01 0.02 0.02 0.02 0.01 0.02 0.00 0.00 0.09 0.02 0.01 0.02 0.02 0.01 0.01 0.05 0.08 0.10 0.13 0.19 0.10 0.06 0.07 0.14 0.18 0.16 0.14 0.11 0.10 0.06 0.07 0.08
0.00 0.00 0.00 0.00 0.00 0.00 0.00 0.00 0.02 0.13 0.03 0.01 0.03 0.03 0.01 0.01 0.01 0.08 0.04 0.00 0.00 0.00 0.01 0.03 0.02 0.01 0.02 0.04 0.08 0.08 0.07 0.09 0.09 0.12 0.07 0.05 0.13 0.16 0.16 0.13 0.17 0.12 0.07 0.06
0.03 0.03 0.01 0.00 0.00 0.01 0.00 0.00 0.03 0.16 0.16 0.07 0.03 0.01 0.00 0.00 0.00 0.00 0.01 0.00 0.00 0.00 0.00 0.01 0.01 0.02 0.03 0.07 0.18 0.12 0.11 0.11 0.07 0.11 0.17 0.20 0.25 0.31 0.37 0.36 0.31 0.19 0.21 0.24
0.01 0.01 0.01 0.00 0.00 0.00 0.00 0.00 0.00 0.01 0.03 0.04 0.01 0.01 0.00 0.00 0.00 0.00 0.00 0.00 0.00 0.00 0.00 0.00 0.01 0.02 0.03 0.03 0.16 0.20 0.13 0.12 0.08 0.10 0.16 0.25 0.37 0.40 0.31 0.35 0.58 0.42 0.37 0.28
0.01 0.08 0.02 0.00 0.00 0.00 0.00 0.00 0.00 0.00 0.07 0.06 0.00 0.00 0.02 0.02 0.01 0.00 0.00 0.00 0.00 0.00 0.00 0.00 0.00 0.00 0.01 0.02 0.11 0.16 0.10 0.11 0.10 0.08 0.10 0.15 0.27 0.41 0.48 0.80 1.10 1.22 0.99 0.77
0.00 0.03 0.07 0.00 0.00 0.00 0.00 0.00 0.00 0.00 0.00 0.05 0.03 0.01 0.01 0.01 0.01 0.00 0.00 0.00 0.00 0.00 0.00 0.00 0.00 0.01 0.00 0.01 0.05 0.13 0.23 0.23 0.09 0.10 0.20 0.33 0.39 0.58 0.91 0.87 1.17 0.94 0.90 0.96
0.00 0.00 0.02 0.00 0.00 0.00 0.00 0.01 0.02 0.01 0.00 0.01 0.02 0.01 0.01 0.00 0.00 0.00 0.00 0.00 0.00 0.00 0.00 0.00 0.00 0.01 0.00 0.00 0.01 0.07 0.29 0.53 0.73 0.69 1.01 0.92 1.05 1.21 1.11 1.37 1.94 1.33 0.97 0.72
0.00 0.00 0.00 0.02 0.02 0.02 0.00 0.00 0.00 0.00 0.00 0.02 0.10 0.01 0.00 0.00 0.00 0.00 0.00 0.00 0.00 0.00 0.00 0.00 0.00 0.00 0.00 0.01 0.04 0.21 0.72 1.13 0.95 1.02 1.00 1.09 1.49 0.97 0.59 0.44 0.36 0.32 0.25 0.19
0.00 0.02 0.02 0.03 0.01 0.00 0.01 0.01 0.01 0.00 0.01 0.00 0.01 0.00 0.00 0.00 0.00 0.00 0.00 0.00 0.00 0.00 0.00 0.00 0.00 0.00 0.00 0.04 0.14 0.21 0.45 0.69 0.71 0.72 0.70 0.65 0.63 0.61 0.38 0.30 0.25 0.26 0.24 0.22
0.02 0.01 0.01 0.02 0.01 0.00 0.00 0.00 0.00 0.00 0.00 0.01 0.00 0.00 0.00 0.00 0.00 0.00 0.00 0.00 0.00 0.00 0.00 0.01 0.01 0.03 0.04 0.07 0.10 0.11 0.21 0.24 0.27 0.32 0.29 0.26 0.23 0.18 0.16 0.16 0.12 0.13 0.07 0.06
0.02 0.01 0.00 0.00 0.00 0.00 0.00 0.00 0.00 0.00 0.00 0.00 0.00 0.00 0.00 0.00 0.00 0.00 0.00 0.00 0.00 0.00 0.00 0.00 0.01 0.03 0.04 0.06 0.09 0.10 0.11 0.15 0.15 0.22 0.18 0.14 0.14 0.16 0.13 0.13 0.15 0.08 0.07 0.10
0.07 0.08 0.05 0.02 0.00 0.00 0.01 0.00 0.00 0.00 0.00 0.00 0.00 0.00 0.00 0.00 0.00 0.00 0.00 0.00 0.00 0.00 0.00 0.00 0.00 0.02 0.12 0.05 0.06 0.06 0.08 0.09 0.11 0.10 0.09 0.08 0.13 0.11 0.12 0.10 0.12 0.19 0.27 0.28
0.18 0.13 0.16 0.08 0.03 0.11 0.04 0.00 0.00 0.00 0.00 0.00 0.00 0.00 0.00 0.00 0.00 0.00 0.00 0.00 0.00 0.00 0.00 0.00 0.00 0.08 0.06 0.01 0.02 0.03 0.03 0.03 0.03 0.03 0.04 0.07 0.09 0.09 0.08 0.14 0.20 0.28 0.32 0.30
0.18 0.22 0.34 0.16 0.08 0.05 0.00 0.00 0.00 0.00 0.00 0.00 0.00 0.00 0.00 0.00 0.00 0.00 0.00 0.02 0.02 0.02 0.01 0.00 0.00 0.00 0.00 0.00 0.00 0.01 0.01 0.00 0.01 0.02 0.03 0.04 0.05 0.08 0.16 0.28 0.33 0.22 0.14 0.10
0.36 0.26 0.30 0.32 0.22 0.08 0.00 0.00 0.00 0.00 0.00 0.00 0.00 0.01 0.00 0.00 0.01 0.03 0.05 0.06 0.06 0.01 0.00 0.00 0.00 0.00 0.00 0.00 0.00 0.00 0.00 0.00 0.01 0.02 0.03 0.03 0.13 0.28 0.32 0.23 0.07 0.03 0.04 0.07
0.27 0.39 0.35 0.32 0.29 0.06 0.00 0.00 0.01 0.09 0.08 0.01 0.02 0.01 0.01 0.01 0.06 0.09 0.05 0.05 0.01 0.00 0.00 0.00 0.00 0.00 0.00 0.00 0.00 0.00 0.00 0.01 0.02 0.06 0.14 0.23 0.23 0.12 0.06 0.05 0.04 0.04 0.04 0.05
0.09 0.22 0.30 0.36 0.32 0.12 0.02 0.11 0.16 0.09 0.03 0.02 0.02 0.00 0.02 0.07 0.08 0.02 0.00 0.00 0.00 0.00 0.00 0.00 0.00 0.00 0.01 0.01 0.01 0.01 0.01 0.02 0.03 0.05 0.05 0.04 0.06 0.06 0.06 0.05 0.06 0.08 0.08 0.08
0.07 0.04 0.09 0.11 0.07 0.02 0.05 0.11 0.12 0.09 0.10 0.07 0.03 0.04 0.09 0.05 0.00 0.00 0.00 0.00 0.00 0.00 0.00 0.00 0.01 0.02 0.02 0.01 0.01 0.02 0.01 0.02 0.01 0.02 0.03 0.04 0.05 0.06 0.06 0.08 0.10 0.11 0.10 0.09
0.01 0.01 0.04 0.08 0.03 0.02 0.03 0.04 0.02 0.02 0.02 0.01 0.02 0.04 0.03 0.02 0.02 0.03 0.02 0.01 0.01 0.01 0.02 0.02 0.02 0.01 0.01 0.01 0.01 0.02 0.02 0.03 0.04 0.03 0.02 0.02 0.04 0.09 0.06 0.08 0.08 0.09 0.08 0.09
0.01 0.02 0.04 0.04 0.01 0.02 0.03 0.06 0.09 0.05 0.02 0.00 0.01 0.01 0.01 0.01 0.02 0.01 0.02 0.01 0.01 0.01 0.01 0.01 0.01 0.01 0.00 0.02 0.02 0.04 0.04 0.04 0.05 0.04 0.05 0.04 0.05 0.06 0.04 0.06 0.11 0.12 0.12 0.16
0.02 0.03 0.08 0.10 0.06 0.07 0.10 0.04 0.03 0.02 0.02 0.01 0.01 0.01 0.02 0.02 0.00 0.01 0.02 0.02 0.01 0.01 0.02 0.02 0.02 0.01 0.02 0.02 0.02 0.02 0.01 0.03 0.05 0.06 0.06 0.10 0.09 0.07 0.07 0.08 0.12 0.15 0.14 0.16

GFSCGP_prec_precacc_084.txt.gz
Total_Precipitation_Accumulation
0.02 0.00 0.00 0.00 0.00 0.00 0.00 0.00 0.00 0.00 0.01 0.00 0.00 0.00 0.00 0.04 0.15 0.07 0.03 0.01 0.01 0.01 0.00 0.02 0.05 0.06 0.08 0.18 0.42 0.64 1.00 0.97 0.47 0.23 0.13 0.26 0.46 0.59 0.52 0.35 0.22 0.22 0.17 0.17
0.04 0.03 0.01 0.00 0.00 0.00 0.00 0.00 0.00 0.00 0.00 0.00 0.00 0.00 0.00 0.00 0.02 0.00 0.00 0.01 0.00 0.01 0.00 0.01 0.04 0.10 0.29 0.44 0.44 0.33 0.15 0.13 0.04 0.06 0.08 0.11 0.20 0.41 0.40 0.33 0.15 0.25 0.17 0.14
0.04 0.02 0.00 0.00 0.00 0.00 0.00 0.00 0.00 0.00 0.00 0.00 0.00 0.00 0.00 0.00 0.00 0.00 0.01 0.03 0.01 0.01 0.01 0.04 0.08 0.13 0.11 0.05 0.02 0.06 0.08 0.14 0.05 0.03 0.05 0.09 0.27 0.42 0.33 0.37 0.22 0.18 0.17 0.22
0.04 0.00 0.00 0.01 0.01 0.00 0.00 0.00 0.00 0.00 0.00 0.00 0.00 0.00 0.01 0.00 0.00 0.00 0.01 0.02 0.02 0.02 0.03 0.03 0.00 0.00 0.01 0.02 0.03 0.06 0.12 0.15 0.05 0.02 0.02 0.04 0.13 0.23 0.24 0.21 0.17 0.12 0.10 0.13
0.08 0.00 0.02 0.02 0.00 0.00 0.00 0.00 0.00 0.00 0.00 0.02 0.01 0.01 0.02 0.01 0.00 0.00 0.00 0.00 0.03 0.01 0.00 0.00 0.01 0.00 0.00 0.04 0.07 0.08 0.12 0.16 0.08 0.01 0.07 0.14 0.16 0.19 0.23 0.19 0.14 0.10 0.09 0.08
0.01 0.01 0.03 0.02 0.00 0.00 0.01 0.00 0.00 0.00 0.00 0.01 0.01 0.02 0.02 0.02 0.01 0.02 0.00 0.00 0.09 0.02 0.01 0.02 0.02 0.01 0.01 0.05 0.08 0.10 0.13 0.19 0.10 0.07 0.08 0.14 0.18 0.16 0.15 0.11 0.10 0.06 0.07 0.08
0.01 0.00 0.00 0.00 0.00 0.00 0.00 0.00 0.03 0.14 0.03 0.01 0.03 0.03 0.01 0.01 0.01 0.08 0.04 0.00 0.00 0.00 0.01 0.03 0.02 0.01 0.02 0.04 0.08 0.08 0.07 0.10 0.09 0.13 0.07 0.06 0.13 0.16 0.16 0.13 0.17 0.12 0.07 0.06
0.06 0.04 0.02 0.00 0.00 0.01 0.00 0.00 0.04 0.17 0.16 0.07 0.03 0.01 0.00 0.00 0.00 0.00 0.01 0.00 0.00 0.00 0.00 0.01 0.01 0.02 0.03 0.07 0.18 0.12 0.11 0.11 0.07 0.11 0.17 0.21 0.26 0.31 0.37 0.36 0.31 0.19 0.21 0.24
0.02 0.02 0.01 0.00 0.00 0.01 0.01 0.00 0.00 0.04 0.04 0.05 0.01 0.01 0.00 0.00 0.00 0.00 0.00 0.00 0.00 0.00 0.00 0.00 0.01 0.02 0.03 0.03 0.16 0.20 0.13 0.12 0.08 0.11 0.16 0.25 0.38 0.40 0.31 0.35 0.58 0.42 0.37 0.28
0.01 0.08 0.02 0.00 0.00 0.00 0.00 0.01 0.04 0.04 0.08 0.08 0.00 0.01 0.02 0.02 0.01 0.00 0.00 0.00 0.00 0.00 0.00 0.00 0.00 0.00 0.01 0.02 0.11 0.16 0.10 0.11 0.10 0.08 0.10 0.15 0.27 0.41 0.48 0.80 1.10 1.22 0.99 0.77
0.00 0.03 0.08 0.01 0.00 0.00 0.00 0.01 0.04 0.03 0.01 0.10 0.06 0.02 0.01 0.01 0.01 0.00 0.00 0.00 0.00 0.00 0.00 0.00 0.00 0.01 0.00 0.01 0.05 0.13 0.23 0.23 0.09 0.10 0.20 0.33 0.39 0.58 0.92 0.88 1.17 0.94 0.90 0.96
0.00 0.00 0.02 0.01 0.00 0.00 0.00 0.01 0.02 0.08 0.07 0.04 0.07 0.03 0.01 0.00 0.00 0.00 0.00 0.00 0.00 0.00 0.00 0.00 0.00 0.01 0.00 0.00 0.01 0.07 0.29 0.53 0.73 0.69 1.01 0.92 1.05 1.21 1.11 1.38 1.94 1.33 0.98 0.72
0.00 0.00 0.00 0.06 0.03 0.02 0.00 0.00 0.01 0.01 0.03 0.11 0.21 0.04 0.00 0.00 0.00 0.00 0.00 0.00 0.00 0.00 0.00 0.00 0.00 0.00 0.00 0.01 0.04 0.21 0.72 1.13 0.95 1.02 1.00 1.09 1.49 0.97 0.59 0.44 0.37 0.33 0.25 0.19
0.00 0.02 0.03 0.09 0.19 0.04 0.01 0.01 0.01 0.00 0.05 0.02 0.04 0.03 0.01 0.00 0.00 0.00 0.00 0.00 0.00 0.00 0.00 0.00 0.00 0.00 0.00 0.04 0.14 0.21 0.45 0.69 0.71 0.72 0.70 0.65 0.63 0.61 0.38 0.30 0.25 0.26 0.24 0.22
0.02 0.01 0.01 0.03 0.09 0.03 0.03 0.07 0.04 0.01 0.01 0.03 0.01 0.01 0.00 0.00 0.00 0.00 0.00 0.00 0.00 0.00 0.00 0.01 0.01 0.03 0.04 0.07 0.10 0.11 0.21 0.24 0.27 0.32 0.29 0.26 0.23 0.18 0.16 0.16 0.12 0.13 0.07 0.06
0.02 0.01 0.00 0.00 0.00 0.00 0.00 0.01 0.01 0.02 0.01 0.01 0.00 0.00 0.00 0.00 0.00 0.00 0.00 0.00 0.00 0.00 0.00 0.00 0.01 0.03 0.04 0.06 0.09 0.10 0.11 0.15 0.15 0.22 0.18 0.14 0.14 0.16 0.13 0.13 0.15 0.08 0.07 0.10
0.07 0.08 0.05 0.02 0.00 0.00 0.01 0.00 0.00 0.00 0.00 0.00 0.00 0.00 0.00 0.00 0.00 0.00 0.00 0.00 0.00 0.00 0.00 0.00 0.00 0.02 0.12 0.05 0.06 0.06 0.08 0.09 0.11 0.10 0.09 0.08 0.13 0.11 0.12 0.10 0.12 0.19 0.29 0.28
0.18 0.13 0.16 0.08 0.03 0.12 0.04 0.00 0.00 0.00 0.00 0.00 0.00 0.01 0.00 0.00 0.00 0.00 0.00 0.00 0.00 0.00 0.00 0.00 0.00 0.08 0.06 0.01 0.02 0.03 0.03 0.03 0.03 0.03 0.04 0.07 0.09 0.09 0.08 0.14 0.20 0.28 0.32 0.31
0.18 0.22 0.34 0.16 0.08 0.05 0.00 0.00 0.00 0.00 0.00 0.00 0.00 0.01 0.00 0.00 0.00 0.01 0.00 0.02 0.02 0.02 0.01 0.00 0.00 0.00 0.00 0.00 0.00 0.01 0.01 0.00 0.01 0.02 0.03 0.04 0.05 0.08 0.16 0.28 0.33 0.22 0.14 0.10
0.36 0.26 0.31 0.33 0.22 0.08 0.00 0.00 0.00 0.00 0.00 0.00 0.00 0.01 0.00 0.00 0.01 0.04 0.05 0.06 0.06 0.01 0.00 0.00 0.00 0.00 0.00 0.00 0.00 0.00 0.00 0.00 0.01 0.02 0.03 0.03 0.13 0.28 0.32 0.23 0.07 0.03 0.04 0.07
0.27 0.41 0.36 0.33 0.30 0.06 0.00 0.00 0.01 0.10 0.09 0.01 0.02 0.01 0.01 0.01 0.06 0.09 0.05 0.05 0.01 0.00 0.00 0.00 0.00 0.00 0.00 0.00 0.00 0.00 0.00 0.01 0.02 0.06 0.14 0.23 0.23 0.12 0.06 0.05 0.04 0.04 0.04 0.05
0.10 0.24 0.31 0.37 0.34 0.13 0.02 0.11 0.20 0.14 0.04 0.02 0.02 0.00 0.02 0.07 0.08 0.02 0.00 0.00 0.00 0.00 0.00 0.00 0.00 0.00 0.01 0.01 0.01 0.01 0.01 0.02 0.03 0.05 0.05 0.05 0.08 0.07 0.06 0.06 0.06 0.08 0.08 0.08
0.10 0.04 0.10 0.11 0.07 0.03 0.06 0.12 0.14 0.09 0.10 0.07 0.03 0.04 0.09 0.05 0.00 0.00 0.00 0.00 0.00 0.00 0.00 0.00 0.01 0.02 0.02 0.01 0.01 0.02 0.01 0.02 0.01 0.02 0.03 0.05 0.09 0.10 0.10 0.13 0.12 0.12 0.12 0.11
0.06 0.01 0.10 0.14 0.08 0.13 0.17 0.09 0.03 0.02 0.02 0.01 0.02 0.04 0.03 0.02 0.02 0.03 0.02 0.01 0.01 0.01 0.02 0.02 0.02 0.01 0.01 0.01 0.01 0.02 0.02 0.03 0.04 0.03 0.02 0.03 0.08 0.13 0.10 0.11 0.10 0.11 0.12 0.16
0.04 0.05 0.05 0.07 0.05 0.18 0.26 0.17 0.12 0.05 0.02 0.00 0.01 0.01 0.01 0.01 0.02 0.01 0.02 0.01 0.01 0.01 0.01 0.01 0.01 0.01 0.00 0.02 0.02 0.04 0.04 0.04 0.05 0.06 0.07 0.08 0.08 0.08 0.07 0.10 0.17 0.18 0.21 0.32
0.05 0.07 0.13 0.16 0.09 0.16 0.21 0.05 0.03 0.02 0.02 0.01 0.01 0.01 0.02 0.02 0.00 0.01 0.02 0.02 0.01 0.01 0.02 0.02 0.02 0.01 0.02 0.02 0.02 0.02 0.01 0.03 0.07 0.10 0.11 0.17 0.16 0.17 0.17 0.18 0.23 0.29 0.28 0.30

GFSCGP_prec_precacc_087.txt.gz
Total_Precipitation_Accumulation
0.02 0.00 0.00 0.00 0.00 0.00 0.00 0.00 0.00 0.00 0.01 0.00 0.00 0.00 0.00 0.04 0.15 0.07 0.03 0.01 0.01 0.01 0.00 0.02 0.05 0.06 0.08 0.18 0.42 0.64 1.00 0.97 0.47 0.23 0.14 0.26 0.46 0.59 0.52 0.38 0.27 0.30 0.24 0.28
0.04 0.03 0.01 0.01 0.00 0.00 0.00 0.00 0.00 0.00 0.00 0.00 0.00 0.00 0.00 0.00 0.02 0.00 0.00 0.01 0.00 0.01 0.00 0.01 0.04 0.10 0.29 0.44 0.44 0.33 0.15 0.13 0.04 0.06 0.08 0.11 0.20 0.41 0.40 0.34 0.17 0.29 0.30 0.36
0.04 0.02 0.00 0.00 0.00 0.00 0.00 0.00 0.00 0.00 0.00 0.00 0.00 0.00 0.00 0.00 0.00 0.00 0.01 0.03 0.01 0.01 0.01 0.04 0.08 0.13 0.11 0.05 0.02 0.06 0.08 0.14 0.05 0.03 0.05 0.09 0.27 0.42 0.33 0.37 0.22 0.19 0.21 0.28
0.04 0.00 0.01 0.04 0.04 0.00 0.00 0.00 0.00 0.00 0.02 0.02 0.00 0.00 0.01 0.00 0.00 0.00 0.01 0.02 0.02 0.02 0.03 0.03 0.00 0.00 0.01 0.02 0.03 0.06 0.12 0.15 0.05 0.02 0.02 0.04 0.13 0.23 0.24 0.21 0.17 0.12 0.10 0.13
0.08 0.00 0.07 0.07 0.02 0.00 0.00 0.00 0.03 0.02 0.00 0.02 0.01 0.01 0.02 0.01 0.00 0.00 0.00 0.00 0.03 0.01 0.00 0.00 0.01 0.00 0.00 0.04 0.07 0.08 0.12 0.16 0.08 0.02 0.07 0.14 0.16 0.19 0.23 0.19 0.14 0.10 0.09 0.08
0.01 0.01 0.04 0.04 0.00 0.03 0.07 0.03 0.05 0.01 0.01 0.04 0.01 0.02 0.02 0.02 0.01 0.02 0.00 0.00 0.09 0.02 0.01 0.02 0.02 0.01 0.01 0.05 0.08 0.10 0.13 0.19 0.10 0.07 0.08 0.14 0.18 0.16 0.15 0.11 0.10 0.06 0.07 0.08
0.01 0.00 0.00 0.00 0.00 0.02 0.04 0.08 0.19 0.22 0.07 0.04 0.03 0.03 0.01 0.01 0.01 0.08 0.04 0.00 0.00 0.00 0.01 0.03 0.02 0.01 0.02 0.04 0.08 0.08 0.07 0.10 0.09 0.13 0.07 0.06 0.13 0.16 0.16 0.13 0.17 0.12 0.07 0.06
0.06 0.04 0.02 0.00 0.00 0.02 0.01 0.05 0.09 0.19 0.17 0.07 0.03 0.01 0.00 0.00 0.00 0.00 0.01 0.00 0.00 0.00 0.00 0.01 0.01 0.02 0.03 0.07 0.18 0.12 0.11 0.11 0.07 0.11 0.17 0.21 0.26 0.31 0.37 0.36 0.31 0.19 0.21 0.24
0.02 0.02 0.01 0.00 0.00 0.03 0.04 0.01 0.00 0.12 0.08 0.08 0.01 0.01 0.00 0.00 0.00 0.00 0.00 0.00 0.00 0.00 0.00 0.00 0.01 0.02 0.03 0.03 0.16 0.20 0.13 0.12 0.08 0.11 0.16 0.25 0.38 0.40 0.31 0.35 0.58 0.42 0.37 0.28
0.01 0.08 0.02 0.00 0.00 0.00 0.02 0.04 0.09 0.19 0.12 0.10 0.00 0.01 0.02 0.02 0.01 0.00 0.00 0.00 0.00 0.00 0.00 0.00 0.00 0.00 0.01 0.02 0.11 0.16 0.10 0.11 0.10 0.08 0.10 0.15 0.27 0.41 0.48 0.80 1.10 1.22 0.99 0.77
0.00 0.03 0.08 0.01 0.00 0.00 0.00 0.12 0.09 0.06 0.01 0.12 0.07 0.06 0.02 0.02 0.01 0.00 0.00 0.00 0.00 0.00 0.00 0.00 0.00 0.01 0.00 0.01 0.05 0.13 0.23 0.23 0.09 0.10 0.20 0.33 0.40 0.58 0.92 0.88 1.17 0.94 0.90 0.96
0.00 0.00 0.02 0.02 0.01 0.01 0.02 0.02 0.05 0.13 0.10 0.06 0.12 0.10 0.03 0.01 0.00 0.00 0.00 0.00 0.00 0.00 0.00 0.00 0.00 0.01 0.00 0.00 0.01 0.07 0.29 0.53 0.73 0.69 1.01 0.92 1.05 1.21 1.11 1.38 1.94 1.33 0.98 0.72
0.00 0.01 0.01 0.06 0.04 0.02 0.01 0.02 0.05 0.03 0.11 0.25 0.30 0.08 0.06 0.04 0.00 0.00 0.00 0.00 0.00 0.00 0.00 0.00 0.00 0.00 0.00 0.01 0.04 0.21 0.72 1.13 0.95 1.02 1.00 1.09 1.49 0.97 0.59 0.44 0.37 0.33 0.25 0.19
0.00 0.02 0.03 0.11 0.29 0.27 0.06 0.02 0.04 0.04 0.11 0.08 0.12 0.10 0.04 0.02 0.01 0.00 0.00 0.00 0.00 0.00 0.00 0.00 0.00 0.00 0.02 0.04 0.14 0.21 0.45 0.69 0.71 0.72 0.70 0.65 0.63 0.61 0.38 0.30 0.25 0.26 0.24 0.22
0.02 0.01 0.01 0.03 0.11 0.21 0.23 0.16 0.10 0.08 0.05 0.08 0.02 0.03 0.08 0.02 0.01 0.00 0.00 0.00 0.00 0.00 0.00 0.01 0.01 0.03 0.07 0.12 0.12 0.12 0.21 0.24 0.27 0.32 0.29 0.26 0.23 0.18 0.16 0.16 0.12 0.13 0.07 0.06
0.02 0.01 0.00 0.00 0.00 0.00 0.01 0.04 0.09 0.13 0.11 0.10 0.06 0.02 0.03 0.00 0.00 0.00 0.00 0.00 0.00 0.00 0.00 0.00 0.01 0.03 0.04 0.06 0.10 0.13 0.12 0.15 0.15 0.22 0.18 0.14 0.14 0.16 0.13 0.13 0.15 0.08 0.07 0.10
0.07 0.08 0.05 0.02 0.00 0.00 0.01 0.00 0.00 0.01 0.01 0.01 0.02 0.00 0.00 0.00 0.00 0.00 0.00 0.00 0.00 0.00 0.00 0.00 0.00 0.02 0.12 0.05 0.06 0.07 0.11 0.11 0.11 0.10 0.09 0.08 0.14 0.11 0.12 0.10 0.12 0.19 0.29 0.29
0.18 0.13 0.16 0.08 0.03 0.12 0.04 0.00 0.00 0.00 0.00 0.00 0.00 0.01 0.00 0.00 0.00 0.00 0.00 0.00 0.00 0.00 0.00 0.00 0.00 0.08 0.06 0.01 0.02 0.03 0.05 0.06 0.06 0.06 0.06 0.07 0.10 0.11 0.12 0.14 0.20 0.28 0.32 0.31
0.18 0.22 0.34 0.16 0.08 0.05 0.00 0.00 0.00 0.00 0.00 0.01 0.01 0.03 0.01 0.00 0.00 0.01 0.01 0.02 0.02 0.02 0.01 0.00 0.00 0.00 0.00 0.00 0.00 0.01 0.01 0.00 0.02 0.05 0.07 0.06 0.06 0.11 0.20 0.29 0.33 0.22 0.14 0.10
0.36 0.26 0.31 0.33 0.23 0.08 0.00 0.00 0.00 0.00 0.01 0.01 0.00 0.03 0.01 0.01 0.03 0.05 0.05 0.06 0.06 0.01 0.00 0.00 0.00 0.00 0.00 0.00 0.00 0.00 0.00 0.00 0.01 0.03 0.06 0.06 0.18 0.33 0.36 0.26 0.08 0.03 0.05 0.07
0.27 0.41 0.37 0.33 0.31 0.06 0.00 0.00 0.01 0.11 0.10 0.01 0.02 0.01 0.01 0.01 0.07 0.10 0.05 0.05 0.01 0.00 0.00 0.00 0.00 0.00 0.00 0.00 0.00 0.00 0.00 0.01 0.02 0.06 0.14 0.24 0.26 0.18 0.11 0.09 0.07 0.07 0.09 0.09
0.10 0.25 0.33 0.38 0.36 0.14 0.02 0.11 0.22 0.17 0.04 0.02 0.02 0.00 0.02 0.07 0.08 0.02 0.00 0.00 0.01 0.00 0.00 0.00 0.00 0.00 0.01 0.01 0.01 0.01 0.01 0.02 0.03 0.05 0.05 0.05 0.10 0.13 0.14 0.13 0.14 0.13 0.11 0.10
0.13 0.04 0.10 0.11 0.08 0.06 0.13 0.17 0.18 0.11 0.10 0.07 0.03 0.04 0.09 0.05 0.00 0.00 0.00 0.00 0.00 0.00 0.00 0.00 0.01 0.02 0.02 0.01 0.01 0.02 0.01 0.02 0.01 0.02 0.03 0.05 0.10 0.13 0.16 0.21 0.21 0.21 0.20 0.16
0.18 0.05 0.11 0.16 0.14 0.16 0.34 0.23 0.04 0.03 0.02 0.01 0.02 0.04 0.03 0.02 0.02 0.03 0.02 0.01 0.01 0.01 0.02 0.02 0.02 0.01 0.01 0.01 0.01 0.02 0.02 0.03 0.04 0.03 0.02 0.03 0.09 0.14 0.12 0.15 0.15 0.16 0.17 0.20
0.11 0.14 0.09 0.21 0.26 0.28 0.49 0.45 0.20 0.06 0.02 0.00 0.01 0.01 0.01 0.01 0.02 0.01 0.02 0.01 0.01 0.01 0.01 0.01 0.01 0.01 0.00 0.02 0.02 0.04 0.04 0.04 0.05 0.06 0.07 0.08 0.09 0.10 0.08 0.11 0.22 0.26 0.36 0.49
0.07 0.20 0.29 0.47 0.31 0.30 0.37 0.14 0.05 0.02 0.02 0.01 0.01 0.01 0.02 0.02 0.00 0.01 0.02 0.02 0.01 0.01 0.02 0.02 0.02 0.01 0.02 0.02 0.02 0.02 0.01 0.03 0.07 0.10 0.11 0.18 0.18 0.20 0.21 0.23 0.30 0.39 0.41 0.44

GFSCGP_prec_precacc_090.txt.gz
Total_Precipitation_Accumulation
0.02 0.00 0.00 0.00 0.00 0.00 0.00 0.00 0.00 0.00 0.01 0.00 0.00 0.00 0.00 0.04 0.15 0.07 0.03 0.01 0.01 0.01 0.00 0.02 0.05 0.06 0.08 0.18 0.42 0.64 1.00 0.97 0.47 0.23 0.14 0.26 0.46 0.59 0.52 0.38 0.27 0.32 0.32 0.36
0.04 0.03 0.01 0.01 0.00 0.00 0.00 0.00 0.00 0.00 0.00 0.00 0.00 0.00 0.00 0.00 0.02 0.00 0.00 0.01 0.00 0.01 0.00 0.01 0.04 0.10 0.29 0.44 0.44 0.33 0.15 0.13 0.04 0.06 0.08 0.11 0.20 0.41 0.40 0.34 0.17 0.30 0.32 0.43
0.04 0.02 0.00 0.00 0.00 0.00 0.00 0.00 0.00 0.00 0.00 0.01 0.01 0.00 0.00 0.00 0.00 0.00 0.01 0.03 0.01 0.01 0.01 0.04 0.08 0.13 0.11 0.05 0.02 0.06 0.08 0.14 0.05 0.04 0.05 0.09 0.27 0.42 0.33 0.38 0.23 0.21 0.25 0.34
0.04 0.00 0.01 0.04 0.04 0.00 0.00 0.00 0.00 0.01 0.03 0.04 0.00 0.01 0.01 0.00 0.00 0.00 0.01 0.02 0.02 0.02 0.03 0.03 0.00 0.00 0.01 0.02 0.03 0.06 0.12 0.15 0.05 0.02 0.02 0.04 0.13 0.23 0.24 0.21 0.17 0.13 0.18 0.25
0.08 0.00 0.07 0.07 0.02 0.00 0.00 0.00 0.04 0.04 0.01 0.02 0.01 0.04 0.02 0.01 0.00 0.00 0.00 0.00 0.03 0.01 0.00 0.00 0.01 0.00 0.00 0.04 0.07 0.08 0.12 0.16 0.08 0.02 0.07 0.14 0.16 0.19 0.23 0.19 0.14 0.10 0.10 0.14
0.01 0.01 0.04 0.04 0.00 0.03 0.07 0.03 0.07 0.04 0.04 0.06 0.01 0.04 0.02 0.02 0.01 0.02 0.00 0.00 0.09 0.02 0.01 0.02 0.02 0.01 0.01 0.05 0.08 0.10 0.13 0.19 0.10 0.07 0.08 0.14 0.18 0.16 0.15 0.11 0.10 0.06 0.07 0.10
0.01 0.00 0.00 0.00 0.01 0.02 0.08 0.17 0.31 0.34 0.15 0.07 0.03 0.03 0.01 0.01 0.01 0.08 0.04 0.00 0.00 0.00 0.01 0.03 0.02 0.01 0.02 0.04 0.08 0.08 0.07 0.10 0.10 0.13 0.07 0.06 0.13 0.16 0.16 0.13 0.17 0.12 0.07 0.06
0.06 0.04 0.02 0.00 0.00 0.02 0.06 0.18 0.20 0.22 0.17 0.07 0.03 0.01 0.00 0.00 0.00 0.00 0.01 0.00 0.00 0.00 0.00 0.01 0.01 0.02 0.03 0.07 0.18 0.12 0.11 0.11 0.07 0.11 0.17 0.21 0.26 0.31 0.37 0.36 0.31 0.19 0.21 0.24
0.02 0.02 0.01 0.00 0.00 0.03 0.09 0.11 0.06 0.21 0.10 0.08 0.01 0.01 0.00 0.00 0.00 0.00 0.00 0.00 0.00 0.00 0.00 0.00 0.01 0.02 0.03 0.03 0.16 0.20 0.13 0.12 0.08 0.11 0.16 0.25 0.38 0.40 0.31 0.35 0.58 0.42 0.37 0.28
0.01 0.08 0.02 0.00 0.00 0.00 0.05 0.15 0.15 0.27 0.14 0.12 0.00 0.01 0.02 0.02 0.01 0.00 0.00 0.00 0.00 0.00 0.00 0.00 0.00 0.00 0.01 0.02 0.11 0.16 0.10 0.11 0.10 0.08 0.10 0.15 0.27 0.41 0.48 0.80 1.10 1.22 0.99 0.77
0.00 0.03 0.08 0.01 0.00 0.01 0.03 0.23 0.20 0.09 0.02 0.14 0.08 0.09 0.03 0.02 0.01 0.00 0.00 0.00 0.00 0.00 0.00 0.00 0.00 0.01 0.00 0.01 0.05 0.13 0.23 0.23 0.09 0.10 0.20 0.33 0.40 0.58 0.92 0.88 1.17 0.94 0.90 0.96
0.00 0.00 0.02 0.02 0.01 0.01 0.03 0.05 0.15 0.22 0.11 0.06 0.16 0.13 0.09 0.01 0.00 0.00 0.00 0.00 0.00 0.00 0.00 0.00 0.00 0.01 0.00 0.00 0.01 0.07 0.29 0.53 0.73 0.69 1.01 0.92 1.05 1.21 1.11 1.38 1.94 1.33 0.98 0.72
0.00 0.01 0.01 0.06 0.05 0.06 0.04 0.04 0.09 0.08 0.19 0.29 0.31 0.10 0.23 0.16 0.01 0.00 0.00 0.00 0.00 0.00 0.00 0.00 0.00 0.00 0.00 0.01 0.04 0.21 0.72 1.13 0.95 1.02 1.00 1.09 1.49 0.97 0.59 0.44 0.37 0.33 0.25 0.19
0.00 0.02 0.04 0.13 0.32 0.39 0.20 0.13 0.13 0.16 0.22 0.10 0.13 0.10 0.11 0.35 0.17 0.06 0.01 0.00 0.00 0.00 0.00 0.00 0.00 0.02 0.05 0.06 0.14 0.22 0.46 0.69 0.71 0.73 0.70 0.65 0.63 0.61 0.38 0.30 0.25 0.26 0.24 0.22
0.02 0.01 0.01 0.03 0.12 0.21 0.25 0.23 0.21 0.21 0.12 0.12 0.03 0.05 0.08 0.11 0.28 0.19 0.03 0.00 0.00 0.00 0.00 0.01 0.01 0.03 0.09 0.18 0.20 0.19 0.25 0.28 0.29 0.33 0.29 0.26 0.23 0.18 0.16 0.16 0.12 0.13 0.07 0.06
0.02 0.01 0.00 0.00 0.00 0.01 0.01 0.05 0.13 0.19 0.24 0.23 0.11 0.09 0.07 0.03 0.11 0.28 0.06 0.01 0.00 0.00 0.00 0.00 0.01 0.03 0.04 0.06 0.11 0.16 0.14 0.20 0.21 0.25 0.20 0.16 0.15 0.18 0.15 0.14 0.15 0.08 0.07 0.10
0.07 0.08 0.05 0.02 0.01 0.01 0.01 0.00 0.00 0.02 0.03 0.10 0.07 0.06 0.01 0.04 0.04 0.05 0.03 0.00 0.00 0.00 0.00 0.00 0.00 0.02 0.12 0.05 0.06 0.08 0.13 0.13 0.17 0.22 0.21 0.15 0.20 0.16 0.16 0.16 0.15 0.20 0.30 0.29
0.18 0.13 0.16 0.08 0.03 0.12 0.04 0.00 0.00 0.04 0.02 0.00 0.02 0.04 0.03 0.03 0.01 0.00 0.00 0.00 0.00 0.00 0.00 0.00 0.00 0.08 0.06 0.01 0.02 0.03 0.05 0.06 0.07 0.14 0.19 0.18 0.16 0.16 0.17 0.18 0.23 0.31 0.34 0.32
0.18 0.22 0.34 0.16 0.08 0.05 0.00 0.00 0.00 0.01 0.01 0.01 0.04 0.05 0.01 0.03 0.02 0.02 0.01 0.02 0.02 0.02 0.01 0.00 0.00 0.00 0.00 0.00 0.00 0.01 0.01 0.00 0.02 0.06 0.11 0.12 0.12 0.19 0.29 0.36 0.38 0.25 0.16 0.14
0.36 0.26 0.31 0.33 0.24 0.09 0.00 0.00 0.00 0.00 0.02 0.01 0.02 0.04 0.01 0.01 0.03 0.06 0.05 0.06 0.06 0.01 0.00 0.00 0.00 0.00 0.00 0.00 0.00 0.00 0.00 0.00 0.01 0.03 0.07 0.08 0.21 0.38 0.43 0.36 0.18 0.11 0.10 0.14
0.28 0.41 0.38 0.34 0.31 0.07 0.00 0.00 0.01 0.11 0.10 0.01 0.02 0.02 0.01 0.01 0.07 0.11 0.05 0.05 0.01 0.00 0.00 0.00 0.00 0.00 0.00 0.00 0.00 0.00 0.00 0.01 0.02 0.06 0.14 0.24 0.26 0.19 0.14 0.16 0.15 0.14 0.18 0.18
0.16 0.27 0.33 0.38 0.38 0.14 0.02 0.12 0.23 0.18 0.04 0.02 0.02 0.00 0.02 0.07 0.08 0.02 0.00 0.00 0.01 0.00 0.00 0.00 0.00 0.00 0.01 0.01 0.01 0.01 0.01 0.02 0.03 0.05 0.05 0.05 0.10 0.13 0.14 0.15 0.17 0.18 0.19 0.18
0.26 0.06 0.10 0.12 0.09 0.10 0.16 0.18 0.19 0.11 0.10 0.08 0.03 0.04 0.09 0.05 0.00 0.00 0.00 0.00 0.00 0.00 0.00 0.00 0.01 0.02 0.02 0.01 0.01 0.02 0.01 0.02 0.01 0.02 0.03 0.05 0.10 0.13 0.16 0.21 0.23 0.24 0.25 0.24
0.41 0.21 0.14 0.20 0.18 0.18 0.37 0.27 0.06 0.05 0.06 0.03 0.03 0.04 0.03 0.02 0.02 0.03 0.02 0.01 0.01 0.01 0.02 0.02 0.02 0.01 0.01 0.01 0.01 0.02 0.02 0.03 0.04 0.03 0.02 0.03 0.09 0.14 0.12 0.15 0.15 0.17 0.20 0.26
0.17 0.34 0.27 0.29 0.32 0.33 0.53 0.54 0.32 0.11 0.03 0.02 0.02 0.01 0.01 0.01 0.02 0.01 0.02 0.01 0.01 0.01 0.01 0.01 0.01 0.01 0.00 0.02 0.02 0.04 0.04 0.04 0.05 0.06 0.07 0.08 0.09 0.10 0.08 0.11 0.22 0.26 0.38 0.55
0.09 0.29 0.58 0.78 0.51 0.49 0.54 0.22 0.15 0.11 0.04 0.01 0.01 0.01 0.02 0.02 0.00 0.01 0.02 0.02 0.01 0.01 0.02 0.02 0.02 0.01 0.02 0.02 0.02 0.02 0.01 0.03 0.07 0.10 0.11 0.18 0.18 0.20 0.21 0.23 0.31 0.42 0.44 0.47

GFSCGP_prec_precacc_093.txt.gz
Total_Precipitation_Accumulation
0.02 0.00 0.00 0.00 0.00 0.00 0.00 0.00 0.00 0.00 0.01 0.00 0.00 0.00 0.00 0.04 0.15 0.07 0.03 0.01 0.01 0.01 0.00 0.02 0.05 0.06 0.08 0.18 0.42 0.64 1.00 0.97 0.47 0.23 0.14 0.26 0.46 0.59 0.52 0.38 0.28 0.44 0.49 0.45
0.04 0.03 0.01 0.01 0.00 0.00 0.00 0.00 0.00 0.00 0.00 0.00 0.00 0.00 0.00 0.00 0.02 0.00 0.00 0.01 0.00 0.01 0.00 0.01 0.04 0.10 0.29 0.44 0.44 0.33 0.15 0.13 0.04 0.06 0.08 0.11 0.20 0.41 0.40 0.34 0.17 0.30 0.41 0.61
0.04 0.02 0.00 0.00 0.00 0.00 0.00 0.00 0.00 0.00 0.00 0.01 0.01 0.00 0.00 0.00 0.00 0.00 0.01 0.03 0.01 0.01 0.01 0.04 0.08 0.13 0.11 0.05 0.02 0.06 0.08 0.14 0.05 0.04 0.05 0.09 0.27 0.42 0.33 0.38 0.23 0.21 0.26 0.38
0.04 0.00 0.01 0.04 0.04 0.00 0.00 0.00 0.00 0.01 0.03 0.04 0.00 0.01 0.01 0.00 0.00 0.00 0.01 0.02 0.02 0.02 0.03 0.03 0.00 0.00 0.01 0.02 0.03 0.06 0.12 0.15 0.05 0.02 0.02 0.04 0.13 0.23 0.24 0.21 0.18 0.14 0.18 0.26
0.08 0.00 0.07 0.07 0.02 0.00 0.00 0.00 0.04 0.04 0.01 0.02 0.01 0.04 0.02 0.01 0.00 0.00 0.00 0.00 0.03 0.01 0.00 0.00 0.01 0.00 0.00 0.04 0.07 0.08 0.12 0.16 0.08 0.02 0.07 0.14 0.16 0.19 0.23 0.19 0.14 0.10 0.11 0.16
0.01 0.01 0.04 0.04 0.00 0.03 0.07 0.03 0.07 0.04 0.06 0.09 0.01 0.04 0.03 0.02 0.01 0.02 0.00 0.00 0.09 0.02 0.01 0.02 0.02 0.01 0.01 0.05 0.08 0.10 0.13 0.19 0.10 0.07 0.08 0.14 0.18 0.16 0.15 0.11 0.10 0.06 0.08 0.12
0.01 0.00 0.00 0.00 0.01 0.02 0.08 0.18 0.34 0.39 0.21 0.09 0.03 0.03 0.01 0.01 0.01 0.08 0.04 0.00 0.00 0.00 0.01 0.03 0.02 0.01 0.02 0.04 0.08 0.08 0.07 0.10 0.10 0.13 0.07 0.06 0.13 0.16 0.16 0.13 0.17 0.12 0.07 0.07
0.06 0.04 0.02 0.00 0.00 0.02 0.07 0.20 0.22 0.24 0.18 0.08 0.03 0.01 0.00 0.00 0.00 0.00 0.01 0.00 0.00 0.00 0.00 0.01 0.01 0.02 0.03 0.07 0.18 0.12 0.11 0.11 0.07 0.11 0.17 0.21 0.26 0.31 0.37 0.36 0.31 0.19 0.21 0.24
0.02 0.02 0.01 0.00 0.00 0.03 0.09 0.13 0.09 0.34 0.16 0.09 0.01 0.01 0.00 0.00 0.00 0.00 0.00 0.00 0.00 0.00 0.00 0.00 0.01 0.02 0.03 0.03 0.16 0.20 0.13 0.12 0.08 0.11 0.16 0.25 0.38 0.40 0.31 0.35 0.58 0.42 0.37 0.28
0.01 0.08 0.02 0.00 0.00 0.00 0.05 0.18 0.22 0.37 0.21 0.15 0.00 0.02 0.03 0.02 0.01 0.00 0.00 0.00 0.00 0.00 0.00 0.00 0.00 0.00 0.01 0.02 0.11 0.16 0.10 0.11 0.10 0.08 0.10 0.15 0.27 0.41 0.48 0.80 1.10 1.22 0.99 0.77
0.00 0.03 0.08 0.01 0.00 0.01 0.03 0.25 0.26 0.18 0.08 0.15 0.09 0.13 0.06 0.02 0.01 0.00 0.00 0.00 0.00 0.00 0.00 0.00 0.00 0.01 0.00 0.01 0.05 0.13 0.23 0.23 0.09 0.10 0.20 0.33 0.40 0.58 0.92 0.88 1.17 0.94 0.90 0.96
0.00 0.00 0.02 0.02 0.01 0.01 0.03 0.06 0.19 0.37 0.18 0.08 0.16 0.14 0.18 0.04 0.01 0.00 0.00 0.00 0.00 0.00 0.00 0.00 0.00 0.01 0.00 0.00 0.01 0.07 0.29 0.53 0.73 0.69 1.01 0.92 1.05 1.21 1.11 1.38 1.94 1.33 0.98 0.72
0.00 0.01 0.01 0.06 0.05 0.06 0.05 0.09 0.16 0.17 0.32 0.40 0.35 0.10 0.28 0.37 0.09 0.01 0.00 0.00 0.00 0.00 0.00 0.00 0.00 0.00 0.00 0.01 0.05 0.22 0.72 1.14 0.96 1.03 1.00 1.09 1.49 0.97 0.59 0.44 0.37 0.33 0.25 0.19
0.00 0.02 0.04 0.13 0.33 0.40 0.22 0.17 0.16 0.27 0.34 0.13 0.15 0.11 0.11 0.54 0.48 0.20 0.02 0.00 0.00 0.00 0.02 0.01 0.01 0.04 0.09 0.13 0.21 0.26 0.48 0.70 0.73 0.75 0.72 0.65 0.63 0.61 0.38 0.30 0.25 0.26 0.24 0.22
0.02 0.01 0.01 0.03 0.12 0.21 0.25 0.23 0.23 0.28 0.20 0.21 0.04 0.05 0.08 0.14 0.57 0.58 0.21 0.03 0.01 0.00 0.00 0.02 0.03 0.05 0.13 0.23 0.26 0.26 0.31 0.33 0.35 0.39 0.31 0.29 0.25 0.18 0.16 0.16 0.12 0.13 0.07 0.06
0.02 0.01 0.00 0.00 0.00 0.01 0.01 0.05 0.13 0.19 0.27 0.27 0.12 0.09 0.07 0.05 0.23 0.58 0.32 0.15 0.04 0.00 0.00 0.00 0.01 0.03 0.04 0.06 0.11 0.16 0.14 0.20 0.21 0.26 0.27 0.25 0.22 0.22 0.17 0.16 0.16 0.08 0.07 0.10
0.07 0.08 0.05 0.02 0.01 0.01 0.01 0.00 0.00 0.02 0.04 0.10 0.08 0.06 0.02 0.09 0.16 0.24 0.28 0.18 0.09 0.01 0.01 0.00 0.00 0.02 0.12 0.05 0.06 0.08 0.13 0.13 0.17 0.22 0.23 0.19 0.25 0.22 0.23 0.22 0.19 0.26 0.35 0.31
0.18 0.13 0.16 0.08 0.03 0.12 0.04 0.01 0.00 0.08 0.15 0.03 0.03 0.05 0.04 0.14 0.07 0.02 0.06 0.11 0.14 0.07 0.03 0.01 0.00 0.08 0.06 0.01 0.02 0.03 0.05 0.06 0.07 0.14 0.20 0.20 0.16 0.17 0.20 0.23 0.29 0.38 0.41 0.38
0.18 0.22 0.34 0.16 0.08 0.05 0.00 0.00 0.00 0.03 0.05 0.03 0.08 0.18 0.01 0.04 0.08 0.08 0.08 0.09 0.08 0.07 0.04 0.01 0.00 0.00 0.00 0.00 0.00 0.01 0.01 0.00 0.02 0.06 0.11 0.12 0.13 0.20 0.30 0.38 0.40 0.28 0.19 0.18
0.36 0.26 0.31 0.33 0.24 0.09 0.00 0.00 0.00 0.01 0.04 0.01 0.05 0.30 0.12 0.02 0.04 0.07 0.09 0.16 0.12 0.04 0.00 0.00 0.00 0.00 0.00 0.00 0.00 0.00 0.00 0.00 0.01 0.03 0.07 0.08 0.21 0.38 0.43 0.36 0.21 0.15 0.12 0.15
0.28 0.42 0.38 0.34 0.32 0.07 0.00 0.00 0.01 0.12 0.10 0.01 0.02 0.09 0.20 0.08 0.10 0.12 0.05 0.07 0.05 0.02 0.00 0.00 0.00 0.00 0.00 0.00 0.00 0.00 0.00 0.01 0.02 0.06 0.14 0.24 0.26 0.19 0.14 0.16 0.15 0.15 0.20 0.22
0.16 0.28 0.34 0.39 0.39 0.15 0.02 0.12 0.23 0.18 0.04 0.02 0.02 0.01 0.05 0.09 0.09 0.03 0.00 0.00 0.01 0.00 0.00 0.00 0.00 0.00 0.01 0.01 0.01 0.01 0.01 0.02 0.03 0.05 0.05 0.05 0.10 0.13 0.14 0.15 0.17 0.18 0.19 0.21
0.27 0.08 0.12 0.12 0.09 0.10 0.16 0.18 0.19 0.12 0.11 0.08 0.04 0.05 0.09 0.05 0.00 0.00 0.00 0.00 0.00 0.00 0.00 0.00 0.01 0.02 0.02 0.01 0.01 0.02 0.01 0.02 0.01 0.02 0.03 0.05 0.10 0.13 0.16 0.21 0.23 0.24 0.25 0.25
0.55 0.46 0.29 0.23 0.21 0.19 0.38 0.28 0.08 0.06 0.13 0.11 0.04 0.04 0.03 0.02 0.02 0.03 0.02 0.01 0.01 0.01 0.02 0.02 0.02 0.01 0.01 0.01 0.01 0.02 0.02 0.03 0.04 0.03 0.02 0.03 0.09 0.14 0.12 0.15 0.15 0.17 0.20 0.26
0.28 0.55 0.59 0.55 0.45 0.38 0.57 0.57 0.43 0.27 0.07 0.08 0.07 0.03 0.01 0.01 0.02 0.02 0.02 0.01 0.01 0.01 0.01 0.01 0.01 0.01 0.00 0.02 0.02 0.04 0.04 0.04 0.05 0.06 0.07 0.08 0.09 0.10 0.08 0.12 0.22 0.26 0.39 0.55
0.16 0.40 0.75 1.09 0.76 0.61 0.64 0.28 0.18 0.17 0.08 0.02 0.02 0.02 0.02 0.02 0.00 0.01 0.02 0.02 0.01 0.01 0.02 0.02 0.02 0.01 0.02 0.02 0.02 0.02 0.01 0.03 0.07 0.10 0.11 0.18 0.18 0.20 0.21 0.23 0.31 0.42 0.45 0.48

GFSCGP_prec_precacc_099.txt.gz
Total_Precipitation_Accumulation
0.02 0.00 0.00 0.00 0.00 0.00 0.00 0.00 0.00 0.00 0.01 0.00 0.00 0.00 0.00 0.04 0.15 0.07 0.03 0.01 0.01 0.01 0.00 0.02 0.05 0.06 0.08 0.18 0.42 0.64 1.00 0.97 0.47 0.23 0.14 0.26 0.46 0.59 0.52 0.38 0.30 0.51 0.55 0.52
0.04 0.03 0.01 0.01 0.00 0.00 0.00 0.00 0.00 0.00 0.00 0.00 0.00 0.00 0.00 0.00 0.02 0.00 0.00 0.01 0.00 0.01 0.00 0.01 0.04 0.10 0.29 0.44 0.44 0.33 0.15 0.13 0.04 0.06 0.08 0.11 0.20 0.41 0.40 0.34 0.17 0.31 0.55 0.78
0.04 0.02 0.00 0.00 0.00 0.00 0.00 0.00 0.00 0.00 0.00 0.01 0.01 0.00 0.00 0.00 0.00 0.00 0.01 0.03 0.01 0.01 0.01 0.04 0.08 0.13 0.11 0.05 0.02 0.06 0.08 0.14 0.05 0.04 0.05 0.09 0.27 0.42 0.34 0.38 0.23 0.21 0.27 0.56
0.04 0.00 0.01 0.04 0.04 0.00 0.00 0.00 0.00 0.01 0.03 0.04 0.00 0.01 0.01 0.00 0.00 0.00 0.01 0.02 0.02 0.02 0.03 0.03 0.00 0.00 0.01 0.02 0.03 0.06 0.12 0.15 0.05 0.02 0.03 0.04 0.13 0.23 0.24 0.21 0.18 0.14 0.18 0.27
0.08 0.00 0.07 0.07 0.02 0.00 0.00 0.00 0.04 0.04 0.01 0.02 0.01 0.04 0.02 0.01 0.00 0.00 0.00 0.00 0.03 0.01 0.00 0.00 0.01 0.00 0.00 0.04 0.07 0.08 0.12 0.16 0.08 0.02 0.07 0.14 0.16 0.19 0.23 0.19 0.14 0.10 0.11 0.16
0.01 0.01 0.04 0.04 0.00 0.03 0.07 0.03 0.07 0.04 0.06 0.09 0.01 0.04 0.03 0.02 0.01 0.02 0.00 0.00 0.09 0.02 0.01 0.02 0.02 0.01 0.01 0.05 0.08 0.10 0.13 0.19 0.10 0.07 0.08 0.14 0.18 0.16 0.15 0.11 0.10 0.07 0.09 0.13
0.01 0.00 0.00 0.00 0.01 0.02 0.08 0.18 0.34 0.39 0.22 0.09 0.03 0.03 0.01 0.01 0.01 0.08 0.04 0.00 0.00 0.00 0.01 0.03 0.02 0.01 0.02 0.04 0.08 0.08 0.07 0.10 0.10 0.13 0.07 0.06 0.13 0.16 0.16 0.13 0.17 0.13 0.08 0.08
0.06 0.04 0.02 0.00 0.00 0.02 0.07 0.20 0.22 0.26 0.20 0.08 0.03 0.01 0.00 0.00 0.00 0.00 0.01 0.00 0.00 0.00 0.00 0.01 0.01 0.02 0.03 0.07 0.18 0.12 0.11 0.11 0.07 0.12 0.17 0.21 0.26 0.31 0.37 0.36 0.31 0.20 0.21 0.24
0.02 0.02 0.01 0.00 0.00 0.03 0.09 0.13 0.09 0.39 0.19 0.13 0.01 0.01 0.00 0.00 0.00 0.00 0.00 0.00 0.00 0.00 0.00 0.00 0.01 0.02 0.03 0.03 0.16 0.20 0.13 0.12 0.08 0.11 0.16 0.25 0.38 0.40 0.31 0.35 0.58 0.42 0.37 0.28
0.01 0.08 0.02 0.00 0.00 0.00 0.05 0.19 0.30 0.46 0.27 0.16 0.00 0.02 0.03 0.02 0.01 0.00 0.00 0.00 0.00 0.00 0.00 0.00 0.00 0.00 0.01 0.02 0.11 0.16 0.10 0.11 0.10 0.08 0.10 0.15 0.27 0.41 0.48 0.80 1.10 1.22 0.99 0.77
0.00 0.03 0.08 0.01 0.00 0.01 0.03 0.25 0.27 0.25 0.16 0.25 0.13 0.15 0.16 0.05 0.03 0.00 0.00 0.00 0.00 0.00 0.00 0.00 0.00 0.01 0.00 0.01 0.05 0.13 0.24 0.23 0.09 0.11 0.21 0.33 0.40 0.58 0.92 0.88 1.17 0.94 0.90 0.96
0.00 0.00 0.02 0.02 0.01 0.01 0.03 0.06 0.21 0.44 0.23 0.14 0.22 0.16 0.19 0.08 0.02 0.01 0.00 0.00 0.01 0.02 0.03 0.00 0.00 0.01 0.00 0.00 0.01 0.08 0.31 0.54 0.75 0.72 1.04 0.92 1.05 1.21 1.11 1.38 1.94 1.33 0.98 0.72
0.00 0.01 0.01 0.08 0.07 0.07 0.05 0.09 0.21 0.28 0.36 0.42 0.41 0.12 0.29 0.40 0.14 0.03 0.00 0.00 0.02 0.07 0.09 0.03 0.00 0.00 0.00 0.01 0.06 0.24 0.77 1.19 1.00 1.08 1.01 1.09 1.49 0.97 0.59 0.44 0.37 0.33 0.25 0.19
0.00 0.02 0.04 0.14 0.34 0.40 0.22 0.17 0.17 0.30 0.41 0.17 0.17 0.11 0.11 0.54 0.52 0.29 0.08 0.06 0.08 0.13 0.17 0.11 0.05 0.09 0.13 0.17 0.25 0.32 0.55 0.78 0.79 0.81 0.80 0.68 0.63 0.61 0.38 0.30 0.25 0.26 0.24 0.22
0.02 0.01 0.01 0.03 0.12 0.21 0.25 0.23 0.24 0.30 0.21 0.27 0.04 0.05 0.09 0.14 0.58 0.63 0.30 0.20 0.26 0.27 0.13 0.13 0.16 0.20 0.26 0.33 0.37 0.38 0.44 0.48 0.49 0.53 0.41 0.34 0.27 0.20 0.16 0.16 0.12 0.13 0.07 0.06
0.02 0.01 0.00 0.00 0.00 0.01 0.01 0.05 0.13 0.19 0.27 0.27 0.13 0.10 0.07 0.07 0.26 0.60 0.39 0.37 0.29 0.13 0.02 0.01 0.03 0.07 0.11 0.14 0.20 0.21 0.19 0.24 0.24 0.30 0.32 0.31 0.25 0.25 0.18 0.16 0.17 0.08 0.07 0.10
0.07 0.08 0.05 0.02 0.01 0.01 0.01 0.00 0.00 0.02 0.04 0.11 0.10 0.06 0.02 0.14 0.22 0.30 0.36 0.40 0.33 0.31 0.11 0.02 0.00 0.02 0.12 0.08 0.12 0.13 0.16 0.15 0.19 0.25 0.27 0.23 0.29 0.26 0.25 0.23 0.20 0.28 0.36 0.31
0.18 0.13 0.16 0.08 0.03 0.12 0.04 0.01 0.00 0.08 0.15 0.05 0.05 0.05 0.05 0.20 0.18 0.14 0.25 0.52 0.42 0.34 0.45 0.26 0.08 0.10 0.06 0.02 0.07 0.17 0.21 0.17 0.15 0.19 0.23 0.21 0.18 0.20 0.23 0.26 0.31 0.41 0.43 0.39
0.18 0.22 0.34 0.16 0.08 0.05 0.00 0.00 0.00 0.03 0.05 0.04 0.12 0.25 0.23 0.30 0.43 0.47 0.63 0.66 0.65 0.45 0.31 0.32 0.21 0.12 0.03 0.01 0.01 0.04 0.11 0.07 0.10 0.12 0.13 0.12 0.13 0.20 0.31 0.39 0.42 0.32 0.24 0.22
0.36 0.26 0.31 0.33 0.24 0.09 0.00 0.00 0.00 0.01 0.04 0.01 0.11 0.44 0.44 0.37 0.34 0.38 0.51 0.83 0.62 0.32 0.18 0.13 0.10 0.07 0.03 0.01 0.01 0.00 0.00 0.00 0.01 0.03 0.07 0.08 0.21 0.38 0.43 0.36 0.21 0.16 0.13 0.17
0.28 0.42 0.38 0.34 0.33 0.07 0.00 0.00 0.01 0.12 0.10 0.01 0.05 0.20 0.59 0.70 0.84 0.78 0.62 0.60 0.30 0.21 0.09 0.02 0.01 0.01 0.00 0.01 0.01 0.01 0.00 0.01 0.02 0.06 0.14 0.24 0.26 0.19 0.14 0.16 0.15 0.15 0.20 0.22
0.16 0.28 0.34 0.39 0.40 0.15 0.02 0.12 0.23 0.18 0.04 0.03 0.03 0.03 0.12 0.40 0.39 0.27 0.39 0.36 0.20 0.04 0.00 0.00 0.00 0.00 0.01 0.01 0.01 0.01 0.02 0.02 0.03 0.05 0.05 0.05 0.10 0.13 0.14 0.15 0.17 0.18 0.19 0.21
0.29 0.10 0.14 0.13 0.12 0.13 0.16 0.18 0.19 0.12 0.12 0.10 0.07 0.13 0.25 0.25 0.24 0.29 0.16 0.04 0.00 0.00 0.00 0.00 0.01 0.02 0.02 0.01 0.01 0.02 0.01 0.02 0.01 0.02 0.03 0.05 0.10 0.13 0.16 0.21 0.23 0.24 0.25 0.25
0.56 0.46 0.37 0.42 0.49 0.31 0.43 0.32 0.10 0.09 0.18 0.19 0.13 0.09 0.10 0.08 0.08 0.10 0.06 0.01 0.01 0.01 0.02 0.02 0.02 0.01 0.01 0.01 0.01 0.02 0.02 0.03 0.04 0.03 0.02 0.03 0.09 0.14 0.12 0.15 0.15 0.17 0.20 0.26
0.28 0.57 0.73 0.84 0.70 0.56 0.68 0.69 0.54 0.38 0.16 0.14 0.17 0.14 0.10 0.08 0.08 0.07 0.06 0.04 0.02 0.01 0.01 0.01 0.01 0.01 0.00 0.02 0.02 0.04 0.04 0.04 0.05 0.06 0.07 0.08 0.09 0.10 0.08 0.12 0.24 0.27 0.41 0.56
0.18 0.44 0.81 1.24 0.99 0.84 0.83 0.47 0.34 0.29 0.25 0.14 0.06 0.04 0.02 0.02 0.01 0.01 0.02 0.02 0.01 0.01 0.02 0.02 0.02 0.01 0.02 0.02 0.03 0.02 0.01 0.03 0.07 0.10 0.11 0.18 0.18 0.20 0.21 0.23 0.31 0.44 0.47 0.48

GFSCGP_prec_precacc_102.txt.gz
Total_Precipitation_Accumulation
0.02 0.00 0.00 0.00 0.00 0.00 0.00 0.00 0.00 0.00 0.01 0.00 0.00 0.00 0.00 0.04 0.15 0.07 0.03 0.01 0.01 0.01 0.00 0.02 0.05 0.06 0.08 0.18 0.42 0.64 1.00 0.97 0.47 0.23 0.14 0.26 0.46 0.59 0.52 0.39 0.30 0.52 0.56 0.53
0.04 0.03 0.01 0.01 0.00 0.00 0.00 0.00 0.00 0.00 0.00 0.00 0.00 0.00 0.00 0.00 0.02 0.00 0.00 0.01 0.00 0.01 0.00 0.01 0.04 0.10 0.29 0.44 0.44 0.33 0.15 0.13 0.04 0.06 0.08 0.11 0.21 0.41 0.41 0.34 0.18 0.34 0.58 0.81
0.04 0.02 0.00 0.00 0.00 0.00 0.00 0.00 0.00 0.00 0.00 0.01 0.01 0.00 0.00 0.00 0.00 0.00 0.01 0.03 0.01 0.01 0.01 0.04 0.08 0.13 0.11 0.05 0.02 0.06 0.08 0.14 0.05 0.04 0.05 0.09 0.27 0.42 0.34 0.38 0.23 0.22 0.29 0.60
0.04 0.00 0.01 0.04 0.04 0.00 0.00 0.00 0.00 0.01 0.03 0.04 0.00 0.01 0.01 0.00 0.00 0.00 0.01 0.02 0.02 0.02 0.03 0.03 0.00 0.00 0.01 0.02 0.03 0.06 0.12 0.15 0.05 0.02 0.03 0.04 0.13 0.23 0.24 0.21 0.18 0.14 0.19 0.28
0.08 0.00 0.07 0.07 0.02 0.00 0.00 0.00 0.04 0.04 0.01 0.02 0.01 0.04 0.02 0.01 0.00 0.00 0.00 0.00 0.03 0.01 0.00 0.00 0.01 0.00 0.00 0.04 0.07 0.08 0.12 0.16 0.08 0.02 0.07 0.14 0.16 0.19 0.23 0.19 0.14 0.11 0.11 0.17
0.01 0.01 0.04 0.04 0.00 0.03 0.07 0.03 0.07 0.04 0.06 0.09 0.01 0.04 0.03 0.02 0.01 0.02 0.00 0.00 0.09 0.02 0.01 0.02 0.02 0.01 0.01 0.05 0.08 0.10 0.13 0.19 0.10 0.07 0.08 0.14 0.18 0.16 0.15 0.11 0.10 0.07 0.09 0.13
0.01 0.01 0.00 0.00 0.01 0.02 0.08 0.18 0.34 0.40 0.23 0.09 0.03 0.03 0.01 0.01 0.01 0.08 0.04 0.00 0.00 0.00 0.01 0.03 0.02 0.01 0.02 0.04 0.08 0.08 0.07 0.10 0.10 0.13 0.07 0.06 0.13 0.16 0.16 0.13 0.17 0.13 0.08 0.09
0.06 0.04 0.02 0.00 0.00 0.02 0.07 0.20 0.22 0.26 0.20 0.08 0.03 0.01 0.00 0.00 0.00 0.00 0.01 0.00 0.00 0.00 0.00 0.01 0.01 0.02 0.03 0.07 0.18 0.12 0.11 0.11 0.07 0.12 0.17 0.21 0.26 0.31 0.37 0.36 0.31 0.20 0.21 0.24
0.02 0.02 0.01 0.00 0.00 0.03 0.09 0.13 0.09 0.39 0.19 0.13 0.01 0.01 0.00 0.00 0.00 0.00 0.00 0.00 0.00 0.00 0.00 0.00 0.01 0.02 0.03 0.03 0.16 0.20 0.13 0.12 0.08 0.11 0.16 0.25 0.38 0.40 0.31 0.35 0.58 0.42 0.37 0.28
0.01 0.08 0.02 0.00 0.00 0.00 0.05 0.19 0.30 0.46 0.27 0.16 0.00 0.02 0.04 0.03 0.02 0.00 0.00 0.00 0.00 0.00 0.00 0.00 0.00 0.00 0.01 0.02 0.11 0.16 0.10 0.11 0.10 0.08 0.10 0.15 0.27 0.41 0.48 0.80 1.10 1.22 0.99 0.77
0.00 0.03 0.09 0.01 0.00 0.01 0.03 0.25 0.27 0.25 0.16 0.26 0.13 0.16 0.18 0.06 0.04 0.02 0.00 0.00 0.00 0.01 0.00 0.00 0.00 0.01 0.00 0.01 0.05 0.13 0.24 0.23 0.09 0.11 0.21 0.33 0.40 0.58 0.92 0.88 1.17 0.94 0.90 0.96
0.00 0.01 0.04 0.02 0.01 0.01 0.03 0.06 0.21 0.44 0.23 0.15 0.23 0.16 0.20 0.08 0.02 0.01 0.00 0.00 0.01 0.02 0.04 0.02 0.01 0.01 0.00 0.00 0.01 0.08 0.31 0.54 0.75 0.72 1.04 0.93 1.05 1.21 1.11 1.38 1.94 1.33 0.98 0.72
0.01 0.02 0.03 0.12 0.09 0.07 0.05 0.09 0.21 0.28 0.37 0.42 0.42 0.12 0.29 0.40 0.14 0.03 0.01 0.00 0.02 0.07 0.11 0.07 0.02 0.02 0.02 0.02 0.06 0.25 0.77 1.20 1.01 1.08 1.01 1.09 1.49 0.97 0.59 0.44 0.37 0.33 0.25 0.19
0.00 0.02 0.05 0.15 0.35 0.41 0.22 0.17 0.17 0.30 0.41 0.17 0.18 0.11 0.11 0.54 0.52 0.29 0.09 0.06 0.09 0.17 0.23 0.19 0.09 0.11 0.15 0.19 0.28 0.33 0.56 0.78 0.80 0.87 0.86 0.70 0.63 0.61 0.38 0.30 0.25 0.26 0.24 0.22
0.02 0.02 0.01 0.03 0.12 0.21 0.25 0.23 0.24 0.30 0.21 0.27 0.04 0.05 0.09 0.14 0.58 0.63 0.31 0.21 0.29 0.59 0.43 0.31 0.28 0.24 0.28 0.36 0.41 0.43 0.49 0.52 0.55 0.68 0.52 0.39 0.28 0.20 0.16 0.16 0.12 0.13 0.07 0.06
0.04 0.02 0.00 0.00 0.00 0.01 0.01 0.05 0.13 0.19 0.27 0.27 0.13 0.10 0.07 0.07 0.26 0.64 0.45 0.39 0.30 0.45 0.70 0.41 0.22 0.17 0.17 0.20 0.26 0.28 0.27 0.37 0.35 0.37 0.37 0.32 0.28 0.26 0.19 0.16 0.17 0.08 0.07 0.10
0.07 0.08 0.05 0.02 0.01 0.01 0.01 0.00 0.00 0.02 0.04 0.11 0.10 0.07 0.03 0.14 0.25 0.35 0.45 0.45 0.36 0.41 0.53 0.33 0.15 0.11 0.21 0.16 0.20 0.22 0.26 0.24 0.27 0.29 0.28 0.24 0.32 0.30 0.30 0.27 0.21 0.28 0.36 0.32
0.18 0.13 0.16 0.08 0.03 0.12 0.04 0.01 0.00 0.08 0.15 0.06 0.07 0.07 0.05 0.22 0.28 0.30 0.34 0.62 0.53 0.54 0.69 0.63 0.31 0.18 0.14 0.06 0.09 0.22 0.31 0.25 0.17 0.20 0.24 0.24 0.21 0.22 0.25 0.29 0.34 0.45 0.45 0.39
0.18 0.22 0.34 0.16 0.08 0.05 0.00 0.00 0.00 0.03 0.05 0.04 0.13 0.34 0.25 0.36 0.55 0.71 0.91 0.98 0.93 0.69 0.49 0.53 0.54 0.34 0.14 0.10 0.05 0.06 0.17 0.25 0.17 0.17 0.21 0.23 0.22 0.25 0.33 0.40 0.43 0.33 0.25 0.23
0.36 0.26 0.31 0.33 0.24 0.09 0.00 0.00 0.00 0.01 0.04 0.02 0.12 0.59 0.53 0.50 0.43 0.53 0.73 1.16 0.92 0.56 0.29 0.22 0.21 0.22 0.22 0.13 0.05 0.03 0.02 0.06 0.13 0.14 0.14 0.13 0.27 0.42 0.44 0.37 0.22 0.16 0.14 0.18
0.28 0.42 0.38 0.34 0.33 0.07 0.00 0.00 0.01 0.12 0.11 0.02 0.05 0.21 0.63 0.81 0.95 0.95 0.89 0.92 0.64 0.43 0.15 0.03 0.01 0.01 0.02 0.06 0.10 0.06 0.02 0.02 0.03 0.09 0.17 0.26 0.27 0.20 0.14 0.16 0.15 0.15 0.20 0.22
0.16 0.29 0.35 0.39 0.40 0.16 0.03 0.12 0.23 0.19 0.05 0.03 0.03 0.04 0.13 0.42 0.49 0.39 0.60 0.56 0.41 0.16 0.01 0.00 0.00 0.00 0.01 0.01 0.01 0.02 0.04 0.05 0.04 0.06 0.05 0.05 0.10 0.13 0.14 0.15 0.17 0.18 0.19 0.21
0.33 0.12 0.15 0.16 0.16 0.20 0.18 0.19 0.20 0.12 0.14 0.13 0.08 0.14 0.26 0.30 0.28 0.36 0.30 0.13 0.04 0.02 0.01 0.00 0.01 0.02 0.02 0.01 0.01 0.02 0.01 0.02 0.02 0.03 0.04 0.06 0.10 0.13 0.16 0.21 0.23 0.24 0.25 0.25
0.56 0.46 0.38 0.46 0.53 0.34 0.46 0.35 0.11 0.11 0.20 0.21 0.15 0.11 0.11 0.10 0.11 0.15 0.13 0.06 0.03 0.02 0.02 0.02 0.02 0.01 0.01 0.01 0.01 0.02 0.02 0.03 0.04 0.03 0.03 0.03 0.09 0.14 0.12 0.15 0.15 0.18 0.20 0.27
0.28 0.57 0.73 0.87 0.72 0.59 0.69 0.71 0.56 0.39 0.17 0.15 0.17 0.14 0.11 0.08 0.08 0.07 0.06 0.05 0.02 0.01 0.01 0.01 0.01 0.01 0.00 0.02 0.02 0.04 0.04 0.04 0.05 0.06 0.07 0.08 0.09 0.10 0.09 0.12 0.24 0.28 0.41 0.56
0.18 0.44 0.81 1.26 1.01 0.86 0.86 0.50 0.35 0.30 0.27 0.15 0.07 0.04 0.03 0.02 0.01 0.01 0.02 0.02 0.01 0.01 0.02 0.02 0.02 0.01 0.02 0.02 0.03 0.02 0.01 0.03 0.07 0.10 0.11 0.18 0.18 0.20 0.21 0.23 0.32 0.45 0.47 0.49

GFSCGP_prec_precacc_105.txt.gz
Total_Precipitation_Accumulation
0.02 0.00 0.00 0.00 0.00 0.00 0.00 0.00 0.00 0.00 0.01 0.00 0.00 0.00 0.00 0.04 0.15 0.07 0.03 0.01 0.01 0.01 0.00 0.02 0.05 0.06 0.08 0.18 0.42 0.64 1.00 0.97 0.47 0.23 0.14 0.26 0.46 0.59 0.53 0.39 0.30 0.52 0.56 0.55
0.04 0.03 0.01 0.01 0.00 0.00 0.00 0.00 0.00 0.00 0.00 0.00 0.00 0.00 0.00 0.00 0.02 0.00 0.00 0.01 0.00 0.01 0.00 0.01 0.04 0.10 0.29 0.44 0.44 0.33 0.15 0.13 0.04 0.06 0.08 0.11 0.21 0.41 0.41 0.34 0.18 0.34 0.58 0.82
0.04 0.02 0.00 0.00 0.00 0.00 0.00 0.00 0.00 0.00 0.00 0.01 0.01 0.00 0.00 0.00 0.00 0.00 0.01 0.03 0.01 0.01 0.01 0.04 0.08 0.13 0.11 0.05 0.02 0.06 0.08 0.14 0.05 0.04 0.05 0.09 0.27 0.43 0.34 0.38 0.24 0.22 0.30 0.62
0.04 0.00 0.01 0.04 0.04 0.00 0.00 0.00 0.00 0.01 0.03 0.04 0.00 0.01 0.01 0.00 0.00 0.00 0.01 0.02 0.02 0.02 0.03 0.03 0.00 0.00 0.01 0.02 0.03 0.06 0.12 0.15 0.05 0.02 0.03 0.04 0.13 0.23 0.24 0.22 0.18 0.14 0.19 0.29
0.08 0.00 0.07 0.07 0.02 0.00 0.00 0.00 0.04 0.04 0.01 0.02 0.01 0.04 0.02 0.01 0.00 0.00 0.00 0.00 0.03 0.01 0.00 0.00 0.01 0.00 0.00 0.04 0.07 0.08 0.12 0.16 0.08 0.02 0.07 0.14 0.16 0.19 0.23 0.19 0.14 0.11 0.12 0.17
0.02 0.01 0.04 0.04 0.00 0.03 0.07 0.03 0.07 0.04 0.06 0.09 0.01 0.04 0.03 0.02 0.01 0.02 0.00 0.00 0.09 0.02 0.01 0.02 0.02 0.01 0.01 0.05 0.08 0.10 0.13 0.19 0.10 0.07 0.08 0.14 0.18 0.16 0.15 0.11 0.10 0.07 0.09 0.13
0.06 0.04 0.00 0.00 0.01 0.03 0.08 0.18 0.34 0.40 0.23 0.09 0.03 0.03 0.01 0.01 0.01 0.08 0.04 0.00 0.00 0.00 0.01 0.03 0.02 0.01 0.02 0.04 0.08 0.08 0.07 0.10 0.10 0.13 0.07 0.06 0.13 0.16 0.16 0.13 0.17 0.13 0.08 0.09
0.09 0.12 0.05 0.00 0.00 0.03 0.07 0.20 0.23 0.26 0.20 0.08 0.03 0.01 0.00 0.00 0.00 0.00 0.01 0.00 0.00 0.00 0.00 0.01 0.01 0.02 0.03 0.07 0.18 0.12 0.11 0.11 0.07 0.12 0.17 0.21 0.26 0.31 0.37 0.36 0.31 0.20 0.21 0.24
0.04 0.05 0.03 0.00 0.00 0.04 0.10 0.14 0.09 0.40 0.19 0.14 0.01 0.01 0.00 0.00 0.00 0.00 0.00 0.00 0.00 0.00 0.00 0.00 0.01 0.02 0.03 0.03 0.16 0.20 0.13 0.12 0.08 0.11 0.16 0.25 0.38 0.40 0.31 0.35 0.58 0.42 0.37 0.28
0.02 0.11 0.04 0.01 0.01 0.01 0.05 0.19 0.30 0.46 0.27 0.16 0.00 0.02 0.07 0.05 0.02 0.00 0.00 0.00 0.00 0.00 0.00 0.00 0.00 0.00 0.01 0.02 0.11 0.16 0.10 0.11 0.10 0.08 0.11 0.15 0.27 0.41 0.48 0.80 1.10 1.22 0.99 0.77
0.00 0.04 0.12 0.03 0.01 0.01 0.03 0.27 0.29 0.27 0.16 0.27 0.13 0.22 0.21 0.06 0.04 0.02 0.00 0.00 0.00 0.01 0.00 0.00 0.00 0.01 0.00 0.01 0.05 0.13 0.24 0.23 0.09 0.11 0.21 0.33 0.40 0.58 0.92 0.88 1.17 0.94 0.90 0.96
0.01 0.04 0.08 0.05 0.01 0.01 0.03 0.06 0.21 0.45 0.25 0.15 0.23 0.20 0.21 0.08 0.02 0.01 0.00 0.00 0.01 0.02 0.04 0.02 0.02 0.02 0.01 0.01 0.02 0.08 0.31 0.54 0.75 0.72 1.04 0.93 1.05 1.21 1.11 1.38 1.94 1.33 0.98 0.72
0.02 0.06 0.10 0.22 0.13 0.09 0.06 0.10 0.21 0.29 0.38 0.43 0.42 0.16 0.30 0.40 0.14 0.03 0.01 0.00 0.02 0.07 0.11 0.07 0.04 0.03 0.04 0.04 0.08 0.26 0.77 1.20 1.01 1.08 1.01 1.09 1.50 0.99 0.62 0.45 0.37 0.33 0.25 0.19
0.01 0.06 0.09 0.18 0.36 0.42 0.24 0.18 0.17 0.31 0.42 0.18 0.18 0.11 0.11 0.54 0.52 0.29 0.09 0.06 0.09 0.17 0.23 0.20 0.11 0.14 0.18 0.23 0.31 0.36 0.57 0.79 0.80 0.87 0.89 0.79 0.72 0.67 0.42 0.31 0.25 0.26 0.24 0.22
0.03 0.03 0.02 0.05 0.12 0.22 0.27 0.24 0.24 0.30 0.21 0.27 0.05 0.06 0.09 0.15 0.58 0.64 0.32 0.22 0.29 0.59 0.43 0.37 0.35 0.32 0.34 0.41 0.45 0.47 0.53 0.55 0.58 0.73 0.61 0.49 0.37 0.26 0.18 0.16 0.12 0.13 0.07 0.06
0.05 0.02 0.00 0.00 0.00 0.02 0.01 0.05 0.13 0.19 0.27 0.27 0.13 0.12 0.07 0.07 0.26 0.64 0.47 0.44 0.32 0.45 0.71 0.58 0.48 0.37 0.28 0.28 0.32 0.34 0.33 0.44 0.43 0.44 0.42 0.37 0.31 0.29 0.21 0.17 0.17 0.08 0.07 0.10
0.09 0.09 0.05 0.02 0.01 0.01 0.01 0.00 0.00 0.02 0.04 0.12 0.12 0.10 0.03 0.14 0.25 0.36 0.48 0.54 0.42 0.44 0.59 0.69 0.72 0.54 0.39 0.29 0.31 0.30 0.34 0.31 0.36 0.39 0.37 0.29 0.35 0.31 0.31 0.28 0.22 0.28 0.37 0.32
0.18 0.14 0.16 0.08 0.03 0.12 0.04 0.01 0.00 0.08 0.15 0.06 0.07 0.08 0.12 0.22 0.29 0.31 0.40 0.71 0.62 0.61 0.78 0.82 0.79 0.66 0.51 0.29 0.25 0.39 0.45 0.41 0.31 0.33 0.36 0.30 0.23 0.23 0.27 0.30 0.36 0.47 0.45 0.40
0.18 0.22 0.34 0.16 0.08 0.05 0.02 0.00 0.00 0.03 0.06 0.04 0.14 0.38 0.35 0.41 0.57 0.71 0.96 1.12 1.09 0.83 0.60 0.65 0.81 0.87 0.54 0.46 0.27 0.22 0.34 0.49 0.51 0.43 0.40 0.35 0.28 0.27 0.36 0.46 0.47 0.37 0.29 0.26
0.36 0.26 0.31 0.33 0.24 0.10 0.03 0.01 0.00 0.01 0.06 0.02 0.12 0.60 0.58 0.58 0.47 0.55 0.77 1.26 1.09 0.69 0.37 0.29 0.26 0.38 0.66 0.51 0.32 0.26 0.21 0.21 0.34 0.49 0.33 0.26 0.39 0.58 0.61 0.52 0.36 0.32 0.31 0.30
0.28 0.42 0.38 0.34 0.33 0.08 0.00 0.00 0.01 0.14 0.14 0.02 0.05 0.21 0.63 0.81 0.96 0.96 0.93 1.03 0.80 0.57 0.19 0.06 0.03 0.02 0.05 0.25 0.37 0.27 0.19 0.22 0.24 0.26 0.33 0.33 0.34 0.30 0.25 0.29 0.31 0.32 0.36 0.39
0.17 0.31 0.36 0.40 0.41 0.18 0.03 0.12 0.24 0.20 0.06 0.04 0.04 0.04 0.13 0.43 0.50 0.41 0.63 0.61 0.47 0.28 0.05 0.00 0.00 0.00 0.01 0.01 0.04 0.13 0.16 0.16 0.19 0.19 0.13 0.12 0.16 0.17 0.18 0.17 0.18 0.20 0.22 0.23
0.35 0.14 0.16 0.16 0.18 0.22 0.19 0.20 0.21 0.13 0.15 0.14 0.09 0.15 0.27 0.30 0.29 0.36 0.32 0.16 0.06 0.04 0.02 0.01 0.01 0.02 0.02 0.01 0.01 0.02 0.02 0.04 0.04 0.05 0.08 0.11 0.13 0.15 0.17 0.23 0.24 0.24 0.26 0.25
0.56 0.46 0.39 0.48 0.54 0.35 0.46 0.35 0.12 0.11 0.21 0.22 0.15 0.11 0.11 0.10 0.11 0.15 0.13 0.06 0.03 0.02 0.02 0.02 0.02 0.01 0.01 0.01 0.01 0.02 0.02 0.03 0.04 0.04 0.03 0.04 0.11 0.17 0.14 0.16 0.16 0.18 0.20 0.27
0.29 0.57 0.73 0.89 0.74 0.60 0.70 0.72 0.57 0.40 0.18 0.15 0.17 0.14 0.11 0.08 0.08 0.07 0.06 0.05 0.02 0.01 0.01 0.01 0.01 0.01 0.00 0.02 0.02 0.04 0.04 0.04 0.05 0.06 0.07 0.08 0.09 0.10 0.09 0.13 0.25 0.28 0.42 0.57
0.18 0.44 0.81 1.28 1.02 0.88 0.87 0.50 0.36 0.30 0.27 0.15 0.07 0.04 0.03 0.02 0.01 0.01 0.02 0.02 0.01 0.01 0.02 0.02 0.02 0.01 0.02 0.02 0.03 0.02 0.01 0.03 0.07 0.10 0.11 0.19 0.18 0.20 0.21 0.23 0.32 0.45 0.48 0.49

GFSCGP_prec_precacc_108.txt.gz
Total_Precipitation_Accumulation
0.02 0.00 0.00 0.00 0.00 0.00 0.00 0.00 0.00 0.00 0.01 0.00 0.00 0.00 0.00 0.04 0.15 0.07 0.03 0.01 0.01 0.01 0.00 0.02 0.05 0.06 0.08 0.18 0.42 0.64 1.00 0.97 0.47 0.23 0.14 0.26 0.46 0.59 0.53 0.39 0.30 0.52 0.57 0.55
0.04 0.03 0.01 0.01 0.00 0.00 0.00 0.00 0.00 0.00 0.00 0.00 0.00 0.00 0.00 0.00 0.02 0.00 0.00 0.01 0.00 0.01 0.00 0.01 0.04 0.10 0.29 0.44 0.44 0.33 0.15 0.13 0.04 0.06 0.08 0.11 0.21 0.41 0.41 0.34 0.18 0.34 0.59 0.83
0.04 0.02 0.00 0.00 0.00 0.00 0.00 0.00 0.00 0.00 0.00 0.01 0.01 0.00 0.00 0.00 0.00 0.00 0.01 0.03 0.01 0.01 0.01 0.04 0.08 0.13 0.11 0.05 0.02 0.06 0.08 0.14 0.05 0.04 0.05 0.09 0.27 0.43 0.34 0.38 0.24 0.22 0.30 0.63
0.04 0.00 0.01 0.04 0.04 0.00 0.00 0.00 0.00 0.01 0.03 0.04 0.00 0.01 0.01 0.00 0.00 0.00 0.01 0.02 0.02 0.02 0.03 0.03 0.00 0.00 0.01 0.02 0.03 0.06 0.12 0.15 0.05 0.02 0.03 0.04 0.13 0.23 0.24 0.22 0.18 0.14 0.19 0.30
0.09 0.00 0.07 0.07 0.02 0.00 0.00 0.00 0.04 0.04 0.01 0.02 0.01 0.04 0.02 0.01 0.00 0.00 0.00 0.00 0.03 0.01 0.00 0.00 0.01 0.00 0.00 0.04 0.07 0.08 0.12 0.16 0.08 0.02 0.07 0.14 0.16 0.19 0.23 0.19 0.14 0.11 0.12 0.17
0.02 0.02 0.04 0.04 0.00 0.03 0.07 0.03 0.07 0.04 0.06 0.09 0.01 0.04 0.03 0.02 0.01 0.02 0.00 0.00 0.09 0.02 0.01 0.02 0.02 0.01 0.01 0.05 0.08 0.10 0.13 0.19 0.10 0.07 0.08 0.14 0.18 0.16 0.15 0.11 0.10 0.07 0.09 0.13
0.08 0.09 0.01 0.00 0.01 0.03 0.08 0.19 0.36 0.43 0.24 0.09 0.03 0.03 0.01 0.01 0.01 0.08 0.04 0.00 0.00 0.00 0.01 0.03 0.02 0.01 0.02 0.04 0.08 0.08 0.07 0.10 0.10 0.13 0.07 0.06 0.13 0.16 0.16 0.13 0.17 0.13 0.08 0.09
0.18 0.20 0.08 0.00 0.00 0.03 0.07 0.20 0.26 0.29 0.20 0.08 0.03 0.01 0.00 0.00 0.00 0.00 0.01 0.00 0.00 0.00 0.00 0.01 0.01 0.02 0.03 0.07 0.18 0.12 0.11 0.11 0.07 0.12 0.17 0.21 0.26 0.31 0.37 0.36 0.31 0.20 0.21 0.24
0.18 0.16 0.06 0.01 0.00 0.04 0.11 0.15 0.10 0.43 0.22 0.18 0.03 0.03 0.02 0.00 0.00 0.00 0.00 0.00 0.00 0.00 0.00 0.00 0.01 0.02 0.03 0.03 0.16 0.20 0.13 0.12 0.08 0.11 0.16 0.25 0.38 0.40 0.31 0.35 0.58 0.42 0.37 0.28
0.12 0.22 0.10 0.02 0.02 0.02 0.09 0.20 0.32 0.49 0.36 0.23 0.02 0.06 0.20 0.14 0.04 0.01 0.00 0.00 0.00 0.00 0.00 0.00 0.00 0.00 0.01 0.02 0.11 0.16 0.10 0.11 0.10 0.08 0.11 0.16 0.27 0.42 0.48 0.80 1.10 1.22 0.99 0.77
0.15 0.15 0.15 0.06 0.04 0.04 0.15 0.33 0.32 0.29 0.18 0.31 0.16 0.36 0.29 0.11 0.07 0.03 0.00 0.00 0.00 0.01 0.00 0.00 0.00 0.01 0.00 0.01 0.06 0.15 0.24 0.23 0.09 0.11 0.23 0.34 0.40 0.59 0.92 0.88 1.17 0.94 0.90 0.96
0.02 0.09 0.10 0.08 0.01 0.01 0.05 0.09 0.23 0.48 0.27 0.16 0.29 0.55 0.31 0.13 0.04 0.01 0.00 0.00 0.01 0.02 0.04 0.02 0.02 0.02 0.01 0.01 0.05 0.13 0.32 0.56 0.76 0.74 1.07 0.93 1.06 1.22 1.12 1.39 1.94 1.33 0.98 0.72
0.03 0.10 0.15 0.29 0.22 0.12 0.09 0.10 0.23 0.32 0.42 0.44 0.44 0.29 0.38 0.41 0.14 0.03 0.01 0.00 0.02 0.07 0.11 0.07 0.04 0.03 0.04 0.05 0.11 0.29 0.81 1.21 1.01 1.09 1.03 1.10 1.52 1.03 0.65 0.49 0.38 0.33 0.26 0.19
0.02 0.08 0.13 0.31 0.40 0.43 0.28 0.24 0.20 0.31 0.44 0.20 0.20 0.21 0.19 0.54 0.52 0.29 0.09 0.06 0.09 0.17 0.23 0.20 0.11 0.14 0.20 0.25 0.34 0.42 0.63 0.83 0.82 0.88 0.90 0.81 0.75 0.69 0.47 0.38 0.25 0.28 0.25 0.22
0.06 0.14 0.16 0.14 0.15 0.23 0.33 0.30 0.27 0.33 0.23 0.28 0.07 0.09 0.09 0.15 0.58 0.64 0.33 0.23 0.30 0.59 0.43 0.37 0.35 0.32 0.37 0.45 0.50 0.53 0.59 0.61 0.62 0.78 0.67 0.52 0.41 0.29 0.24 0.22 0.15 0.16 0.07 0.06
0.05 0.04 0.02 0.16 0.08 0.04 0.05 0.07 0.13 0.19 0.27 0.30 0.18 0.21 0.08 0.07 0.26 0.64 0.47 0.45 0.32 0.45 0.71 0.58 0.48 0.38 0.37 0.37 0.41 0.42 0.41 0.50 0.50 0.52 0.50 0.46 0.39 0.34 0.27 0.21 0.20 0.09 0.07 0.11
0.10 0.09 0.05 0.02 0.01 0.01 0.02 0.00 0.01 0.03 0.04 0.12 0.13 0.12 0.04 0.15 0.25 0.37 0.49 0.55 0.45 0.46 0.61 0.71 0.76 0.68 0.68 0.58 0.53 0.42 0.43 0.40 0.44 0.47 0.46 0.39 0.44 0.37 0.36 0.31 0.23 0.29 0.37 0.33
0.19 0.14 0.16 0.09 0.03 0.16 0.07 0.01 0.00 0.09 0.15 0.06 0.08 0.09 0.14 0.25 0.30 0.32 0.42 0.74 0.65 0.65 0.82 0.87 0.87 0.85 0.85 0.70 0.60 0.61 0.58 0.51 0.41 0.44 0.46 0.41 0.33 0.32 0.33 0.33 0.38 0.48 0.46 0.41
0.18 0.22 0.34 0.16 0.08 0.07 0.04 0.00 0.00 0.06 0.08 0.04 0.14 0.39 0.36 0.44 0.58 0.72 0.97 1.14 1.14 0.88 0.65 0.69 0.87 0.97 0.72 0.72 0.55 0.54 0.51 0.64 0.66 0.59 0.59 0.55 0.46 0.43 0.49 0.53 0.50 0.39 0.32 0.27
0.36 0.26 0.31 0.33 0.25 0.16 0.10 0.01 0.00 0.01 0.09 0.02 0.12 0.60 0.58 0.58 0.49 0.56 0.78 1.29 1.14 0.73 0.39 0.29 0.27 0.40 0.73 0.71 0.55 0.53 0.54 0.45 0.55 0.72 0.64 0.75 0.86 0.93 0.94 0.81 0.56 0.44 0.43 0.45
0.29 0.42 0.39 0.34 0.36 0.09 0.01 0.00 0.01 0.17 0.21 0.03 0.05 0.21 0.63 0.82 0.98 0.99 0.95 1.07 0.84 0.61 0.19 0.06 0.03 0.02 0.05 0.29 0.48 0.42 0.41 0.51 0.48 0.50 0.75 0.77 0.79 0.74 0.64 0.73 0.64 0.60 0.70 0.72
0.17 0.36 0.37 0.42 0.44 0.20 0.03 0.12 0.25 0.23 0.08 0.05 0.04 0.04 0.13 0.43 0.51 0.42 0.65 0.63 0.48 0.29 0.06 0.00 0.00 0.00 0.01 0.01 0.05 0.18 0.26 0.29 0.33 0.38 0.35 0.41 0.47 0.47 0.48 0.43 0.41 0.38 0.39 0.41
0.36 0.14 0.16 0.17 0.19 0.23 0.19 0.20 0.22 0.13 0.16 0.15 0.10 0.15 0.27 0.31 0.29 0.37 0.32 0.16 0.06 0.04 0.02 0.01 0.01 0.02 0.02 0.01 0.01 0.02 0.04 0.09 0.12 0.14 0.18 0.24 0.29 0.38 0.39 0.37 0.33 0.31 0.29 0.28
0.57 0.47 0.39 0.50 0.56 0.35 0.46 0.35 0.12 0.11 0.21 0.22 0.16 0.11 0.11 0.10 0.11 0.15 0.13 0.06 0.03 0.02 0.02 0.02 0.02 0.01 0.01 0.01 0.01 0.02 0.02 0.03 0.05 0.06 0.06 0.08 0.15 0.21 0.20 0.26 0.28 0.29 0.27 0.31
0.29 0.57 0.73 0.90 0.75 0.61 0.70 0.72 0.57 0.40 0.18 0.15 0.17 0.14 0.11 0.08 0.08 0.07 0.06 0.05 0.02 0.01 0.01 0.01 0.01 0.01 0.00 0.02 0.02 0.04 0.04 0.04 0.05 0.06 0.08 0.09 0.09 0.11 0.10 0.15 0.27 0.32 0.47 0.62
0.18 0.44 0.82 1.31 1.03 0.90 0.87 0.50 0.36 0.30 0.27 0.15 0.07 0.04 0.03 0.02 0.01 0.01 0.02 0.02 0.01 0.01 0.02 0.02 0.02 0.01 0.02 0.02 0.03 0.02 0.02 0.03 0.07 0.10 0.12 0.19 0.19 0.20 0.21 0.23 0.32 0.46 0.49 0.50

GFSCGP_prec_precacc_111.txt.gz
Total_Precipitation_Accumulation
0.02 0.00 0.00 0.00 0.00 0.00 0.00 0.00 0.00 0.00 0.01 0.00 0.00 0.00 0.00 0.04 0.15 0.07 0.03 0.01 0.01 0.01 0.00 0.02 0.05 0.06 0.08 0.18 0.42 0.64 1.00 0.97 0.47 0.23 0.14 0.26 0.46 0.59 0.53 0.39 0.30 0.52 0.57 0.55
0.04 0.03 0.01 0.01 0.00 0.00 0.00 0.00 0.00 0.00 0.00 0.00 0.01 0.00 0.00 0.00 0.02 0.00 0.00 0.01 0.00 0.01 0.00 0.01 0.04 0.10 0.29 0.44 0.44 0.33 0.15 0.13 0.04 0.06 0.08 0.11 0.21 0.41 0.41 0.34 0.18 0.34 0.59 0.83
0.04 0.02 0.00 0.00 0.00 0.00 0.00 0.00 0.00 0.00 0.00 0.01 0.02 0.00 0.00 0.00 0.00 0.00 0.01 0.03 0.01 0.01 0.01 0.04 0.08 0.13 0.11 0.05 0.02 0.06 0.08 0.14 0.05 0.04 0.05 0.09 0.27 0.43 0.34 0.38 0.24 0.22 0.30 0.63
0.05 0.00 0.01 0.04 0.04 0.00 0.00 0.00 0.00 0.01 0.03 0.08 0.01 0.02 0.01 0.00 0.00 0.00 0.01 0.02 0.02 0.02 0.03 0.03 0.00 0.00 0.01 0.02 0.03 0.06 0.12 0.15 0.05 0.02 0.03 0.04 0.13 0.23 0.24 0.22 0.18 0.14 0.19 0.30
0.11 0.00 0.07 0.08 0.03 0.01 0.00 0.00 0.04 0.04 0.03 0.03 0.01 0.05 0.02 0.01 0.00 0.00 0.00 0.00 0.03 0.01 0.00 0.00 0.01 0.00 0.00 0.04 0.07 0.08 0.13 0.19 0.09 0.02 0.07 0.14 0.16 0.19 0.23 0.19 0.14 0.11 0.12 0.17
0.02 0.02 0.05 0.04 0.00 0.03 0.07 0.04 0.08 0.05 0.07 0.11 0.01 0.04 0.03 0.02 0.01 0.02 0.00 0.00 0.09 0.02 0.01 0.02 0.02 0.01 0.01 0.05 0.08 0.10 0.13 0.22 0.16 0.08 0.08 0.14 0.18 0.16 0.15 0.11 0.10 0.07 0.09 0.13
0.08 0.09 0.01 0.01 0.01 0.03 0.08 0.19 0.37 0.44 0.25 0.10 0.03 0.03 0.01 0.02 0.01 0.08 0.04 0.00 0.00 0.00 0.01 0.03 0.02 0.01 0.02 0.04 0.08 0.08 0.07 0.10 0.12 0.14 0.07 0.06 0.13 0.16 0.16 0.13 0.17 0.13 0.08 0.09
0.18 0.21 0.10 0.00 0.01 0.03 0.07 0.20 0.27 0.30 0.21 0.08 0.03 0.01 0.00 0.00 0.00 0.02 0.05 0.01 0.00 0.00 0.00 0.01 0.01 0.02 0.03 0.07 0.18 0.12 0.11 0.11 0.07 0.13 0.17 0.21 0.26 0.32 0.38 0.36 0.31 0.20 0.21 0.24
0.23 0.21 0.07 0.01 0.02 0.04 0.11 0.15 0.10 0.44 0.23 0.19 0.03 0.08 0.05 0.02 0.02 0.05 0.05 0.02 0.00 0.00 0.00 0.00 0.01 0.02 0.03 0.03 0.16 0.20 0.13 0.12 0.08 0.11 0.16 0.26 0.42 0.44 0.31 0.35 0.58 0.42 0.37 0.28
0.17 0.47 0.18 0.05 0.04 0.02 0.09 0.20 0.35 0.58 0.43 0.35 0.04 0.15 0.37 0.44 0.34 0.14 0.04 0.00 0.00 0.00 0.00 0.00 0.00 0.00 0.01 0.02 0.11 0.16 0.10 0.11 0.10 0.08 0.11 0.19 0.32 0.43 0.51 0.81 1.10 1.22 0.99 0.77
0.17 0.43 0.30 0.10 0.07 0.04 0.16 0.35 0.35 0.31 0.26 0.50 0.29 0.71 0.67 0.71 0.66 0.40 0.02 0.00 0.00 0.01 0.00 0.00 0.00 0.01 0.00 0.01 0.06 0.16 0.25 0.25 0.10 0.12 0.27 0.41 0.44 0.63 0.99 0.91 1.18 0.94 0.90 0.96
0.07 0.50 0.21 0.10 0.06 0.05 0.15 0.15 0.26 0.54 0.33 0.28 0.51 1.10 1.10 0.52 0.32 0.06 0.01 0.00 0.01 0.02 0.04 0.02 0.02 0.02 0.01 0.01 0.06 0.15 0.36 0.60 0.83 0.81 1.17 1.04 1.17 1.38 1.25 1.42 1.95 1.34 1.00 0.76
0.09 0.22 0.20 0.32 0.27 0.14 0.13 0.14 0.26 0.35 0.46 0.56 0.62 0.86 0.84 0.43 0.15 0.03 0.01 0.00 0.02 0.07 0.11 0.07 0.04 0.03 0.04 0.05 0.11 0.29 0.84 1.25 1.03 1.14 1.15 1.23 1.67 1.22 0.81 0.55 0.39 0.39 0.33 0.23
0.06 0.12 0.16 0.39 0.49 0.45 0.30 0.27 0.28 0.42 0.48 0.33 0.39 0.51 0.28 0.55 0.52 0.29 0.09 0.06 0.09 0.17 0.23 0.20 0.11 0.14 0.20 0.25 0.35 0.44 0.65 0.86 0.86 0.90 0.93 0.86 0.84 0.85 0.62 0.44 0.29 0.35 0.33 0.27
0.07 0.16 0.26 0.21 0.18 0.30 0.51 0.43 0.46 0.43 0.25 0.38 0.28 0.14 0.11 0.15 0.59 0.64 0.33 0.23 0.31 0.60 0.43 0.37 0.35 0.32 0.37 0.45 0.52 0.56 0.62 0.64 0.66 0.82 0.70 0.55 0.46 0.43 0.40 0.27 0.18 0.21 0.13 0.10
0.06 0.13 0.20 0.54 0.24 0.07 0.17 0.14 0.14 0.20 0.30 0.41 0.27 0.27 0.12 0.08 0.26 0.64 0.47 0.45 0.34 0.46 0.72 0.59 0.48 0.38 0.37 0.37 0.43 0.47 0.45 0.54 0.54 0.55 0.54 0.53 0.48 0.54 0.49 0.31 0.27 0.12 0.09 0.12
0.10 0.10 0.08 0.16 0.06 0.01 0.09 0.01 0.01 0.03 0.05 0.13 0.15 0.15 0.05 0.15 0.25 0.37 0.49 0.56 0.47 0.48 0.63 0.74 0.78 0.69 0.69 0.59 0.58 0.55 0.56 0.49 0.49 0.51 0.51 0.45 0.54 0.50 0.54 0.42 0.31 0.33 0.39 0.33
0.19 0.14 0.16 0.09 0.04 0.29 0.31 0.03 0.00 0.09 0.15 0.06 0.08 0.09 0.14 0.26 0.31 0.32 0.44 0.76 0.68 0.67 0.86 0.90 0.89 0.86 0.85 0.72 0.68 0.77 0.79 0.71 0.53 0.50 0.51 0.46 0.44 0.52 0.54 0.47 0.46 0.54 0.50 0.42
0.18 0.22 0.34 0.17 0.11 0.14 0.05 0.00 0.00 0.07 0.09 0.04 0.14 0.39 0.37 0.45 0.59 0.73 0.98 1.17 1.17 0.91 0.67 0.70 0.88 0.98 0.72 0.74 0.68 0.72 0.74 0.87 0.85 0.75 0.69 0.64 0.59 0.62 0.74 0.74 0.64 0.49 0.42 0.34
0.36 0.26 0.32 0.34 0.26 0.22 0.12 0.01 0.00 0.01 0.10 0.03 0.12 0.60 0.59 0.59 0.50 0.58 0.80 1.31 1.17 0.76 0.39 0.29 0.27 0.40 0.73 0.71 0.56 0.58 0.66 0.60 0.77 0.89 0.82 0.96 1.05 1.20 1.16 1.03 0.85 0.70 0.64 0.65
0.29 0.42 0.39 0.35 0.38 0.10 0.01 0.00 0.01 0.18 0.24 0.04 0.06 0.22 0.64 0.83 0.99 1.01 0.97 1.08 0.85 0.61 0.19 0.06 0.03 0.02 0.05 0.29 0.48 0.43 0.45 0.61 0.64 0.65 0.89 0.93 1.10 1.15 1.02 1.07 1.09 1.09 1.09 1.08
0.17 0.39 0.37 0.42 0.45 0.21 0.03 0.12 0.27 0.26 0.09 0.07 0.05 0.05 0.13 0.44 0.52 0.42 0.66 0.64 0.48 0.29 0.06 0.00 0.00 0.00 0.01 0.01 0.05 0.18 0.26 0.32 0.43 0.50 0.46 0.57 0.65 0.65 0.80 0.79 0.80 0.84 0.83 0.84
0.37 0.14 0.16 0.17 0.20 0.25 0.20 0.21 0.23 0.14 0.17 0.15 0.10 0.15 0.27 0.31 0.29 0.37 0.32 0.16 0.06 0.04 0.02 0.01 0.01 0.02 0.02 0.01 0.01 0.02 0.04 0.09 0.12 0.17 0.24 0.30 0.36 0.49 0.53 0.60 0.65 0.58 0.53 0.51
0.57 0.47 0.39 0.51 0.57 0.36 0.47 0.35 0.12 0.11 0.21 0.22 0.16 0.11 0.11 0.10 0.11 0.15 0.13 0.06 0.03 0.02 0.02 0.02 0.02 0.01 0.01 0.01 0.01 0.02 0.02 0.03 0.05 0.06 0.08 0.10 0.18 0.26 0.27 0.34 0.40 0.48 0.51 0.53
0.29 0.57 0.74 0.91 0.76 0.61 0.70 0.72 0.57 0.40 0.18 0.15 0.17 0.14 0.11 0.08 0.08 0.07 0.06 0.05 0.02 0.01 0.01 0.01 0.01 0.01 0.00 0.02 0.02 0.04 0.04 0.04 0.05 0.06 0.08 0.09 0.09 0.11 0.12 0.17 0.31 0.37 0.56 0.71
0.18 0.44 0.83 1.32 1.03 0.90 0.88 0.50 0.36 0.30 0.27 0.15 0.07 0.04 0.03 0.02 0.01 0.01 0.02 0.02 0.01 0.01 0.02 0.02 0.02 0.01 0.02 0.02 0.03 0.03 0.02 0.03 0.07 0.10 0.12 0.20 0.20 0.21 0.21 0.23 0.33 0.46 0.50 0.51

GFSCGP_prec_precacc_114.txt.gz
Total_Precipitation_Accumulation
0.02 0.00 0.01 0.00 0.00 0.00 0.00 0.00 0.00 0.00 0.01 0.00 0.00 0.00 0.00 0.04 0.15 0.07 0.03 0.01 0.01 0.01 0.00 0.02 0.05 0.06 0.08 0.18 0.42 0.64 1.00 0.97 0.47 0.24 0.15 0.26 0.46 0.59 0.53 0.39 0.30 0.52 0.57 0.55
0.04 0.03 0.01 0.01 0.00 0.00 0.00 0.00 0.00 0.00 0.00 0.00 0.01 0.00 0.00 0.00 0.02 0.00 0.00 0.01 0.00 0.01 0.00 0.01 0.04 0.10 0.29 0.44 0.44 0.33 0.15 0.13 0.04 0.06 0.09 0.16 0.22 0.41 0.41 0.34 0.18 0.34 0.59 0.83
0.05 0.02 0.00 0.00 0.00 0.01 0.00 0.00 0.00 0.00 0.00 0.01 0.03 0.01 0.00 0.00 0.00 0.00 0.01 0.03 0.01 0.01 0.01 0.04 0.08 0.13 0.11 0.05 0.02 0.06 0.08 0.14 0.05 0.04 0.11 0.17 0.33 0.46 0.35 0.38 0.24 0.22 0.30 0.63
0.06 0.00 0.01 0.04 0.04 0.01 0.00 0.00 0.00 0.01 0.03 0.08 0.04 0.04 0.01 0.00 0.00 0.00 0.01 0.02 0.02 0.02 0.03 0.03 0.00 0.00 0.01 0.02 0.03 0.06 0.12 0.15 0.05 0.02 0.03 0.05 0.13 0.23 0.24 0.22 0.18 0.14 0.19 0.30
0.12 0.01 0.07 0.08 0.03 0.02 0.01 0.00 0.04 0.05 0.05 0.04 0.03 0.09 0.02 0.01 0.00 0.00 0.00 0.00 0.03 0.01 0.00 0.00 0.01 0.00 0.00 0.04 0.07 0.08 0.15 0.28 0.20 0.10 0.11 0.16 0.17 0.19 0.23 0.19 0.14 0.11 0.12 0.17
0.02 0.02 0.05 0.04 0.01 0.04 0.08 0.04 0.10 0.09 0.11 0.14 0.01 0.04 0.03 0.02 0.02 0.02 0.00 0.00 0.09 0.02 0.01 0.02 0.02 0.01 0.01 0.05 0.08 0.10 0.13 0.24 0.26 0.19 0.22 0.26 0.25 0.17 0.15 0.11 0.10 0.07 0.10 0.13
0.08 0.09 0.01 0.01 0.01 0.04 0.10 0.23 0.39 0.47 0.29 0.11 0.03 0.03 0.02 0.08 0.08 0.09 0.04 0.00 0.00 0.00 0.01 0.03 0.02 0.01 0.02 0.04 0.08 0.08 0.07 0.10 0.12 0.16 0.10 0.08 0.15 0.19 0.17 0.13 0.17 0.13 0.10 0.09
0.18 0.21 0.10 0.00 0.01 0.03 0.08 0.22 0.27 0.31 0.21 0.08 0.03 0.01 0.02 0.05 0.16 0.09 0.08 0.02 0.00 0.00 0.00 0.01 0.01 0.02 0.03 0.07 0.18 0.12 0.11 0.11 0.07 0.13 0.17 0.21 0.27 0.35 0.38 0.36 0.31 0.20 0.22 0.26
0.23 0.21 0.07 0.01 0.03 0.11 0.13 0.15 0.10 0.46 0.27 0.21 0.03 0.09 0.09 0.11 0.09 0.13 0.09 0.04 0.01 0.00 0.00 0.00 0.01 0.02 0.03 0.03 0.16 0.20 0.13 0.12 0.08 0.11 0.16 0.26 0.42 0.45 0.33 0.36 0.58 0.43 0.38 0.28
0.17 0.47 0.19 0.05 0.07 0.07 0.10 0.20 0.36 0.59 0.45 0.37 0.05 0.17 0.44 0.55 0.67 0.21 0.05 0.02 0.01 0.00 0.00 0.00 0.00 0.00 0.01 0.02 0.11 0.16 0.10 0.11 0.10 0.08 0.11 0.20 0.32 0.45 0.55 0.82 1.10 1.23 1.00 0.77
0.17 0.44 0.39 0.15 0.13 0.10 0.17 0.35 0.36 0.32 0.28 0.57 0.52 0.93 1.18 1.28 1.27 1.04 0.18 0.07 0.02 0.01 0.00 0.00 0.00 0.01 0.00 0.01 0.06 0.16 0.25 0.25 0.10 0.13 0.29 0.44 0.46 0.68 1.06 0.95 1.19 0.96 0.92 0.98
0.07 0.67 0.54 0.19 0.10 0.07 0.17 0.16 0.26 0.56 0.42 0.38 0.90 1.44 1.65 1.24 0.82 0.43 0.27 0.12 0.05 0.03 0.04 0.02 0.02 0.02 0.01 0.01 0.06 0.15 0.36 0.60 0.83 0.82 1.22 1.10 1.25 1.49 1.34 1.52 2.00 1.36 1.02 0.78
0.14 0.50 0.31 0.37 0.47 0.23 0.15 0.14 0.29 0.42 0.63 0.81 1.06 1.21 1.34 0.69 0.31 0.14 0.07 0.04 0.04 0.07 0.11 0.07 0.04 0.03 0.04 0.05 0.11 0.29 0.84 1.25 1.04 1.14 1.18 1.31 1.75 1.35 0.98 0.72 0.49 0.45 0.40 0.28
0.10 0.14 0.16 0.42 0.58 0.51 0.32 0.30 0.31 0.47 0.67 0.57 0.73 0.79 0.47 0.62 0.54 0.31 0.11 0.06 0.10 0.17 0.23 0.20 0.11 0.14 0.20 0.25 0.35 0.44 0.65 0.86 0.86 0.90 0.93 0.90 0.91 0.97 0.79 0.64 0.43 0.47 0.42 0.31
0.07 0.16 0.31 0.24 0.31 0.37 0.75 0.68 0.72 0.65 0.45 0.52 0.52 0.25 0.18 0.17 0.60 0.65 0.34 0.23 0.31 0.60 0.43 0.37 0.35 0.32 0.37 0.45 0.52 0.56 0.63 0.66 0.67 0.84 0.72 0.57 0.48 0.49 0.52 0.44 0.33 0.31 0.22 0.16
0.06 0.15 0.39 0.91 0.52 0.16 0.35 0.26 0.28 0.34 0.45 0.53 0.31 0.31 0.18 0.11 0.27 0.64 0.48 0.46 0.34 0.47 0.73 0.59 0.48 0.38 0.37 0.37 0.43 0.47 0.46 0.56 0.56 0.58 0.56 0.56 0.50 0.56 0.58 0.44 0.45 0.27 0.19 0.17
0.10 0.11 0.13 0.29 0.30 0.07 0.24 0.14 0.04 0.07 0.10 0.16 0.18 0.21 0.10 0.16 0.26 0.39 0.51 0.57 0.47 0.49 0.64 0.74 0.78 0.70 0.70 0.60 0.58 0.55 0.57 0.52 0.54 0.54 0.52 0.46 0.57 0.59 0.64 0.58 0.48 0.50 0.51 0.39
0.19 0.14 0.16 0.15 0.07 0.37 0.54 0.09 0.01 0.10 0.17 0.08 0.10 0.13 0.17 0.28 0.33 0.33 0.45 0.78 0.69 0.69 0.86 0.90 0.89 0.86 0.86 0.73 0.68 0.77 0.80 0.79 0.68 0.62 0.57 0.50 0.50 0.62 0.76 0.71 0.69 0.75 0.66 0.48
0.19 0.22 0.34 0.22 0.16 0.25 0.08 0.01 0.01 0.09 0.11 0.06 0.16 0.41 0.39 0.47 0.59 0.73 0.99 1.18 1.19 0.92 0.67 0.70 0.88 0.98 0.72 0.74 0.68 0.73 0.74 0.91 0.97 0.94 0.86 0.80 0.68 0.76 0.88 1.00 0.94 0.80 0.70 0.56
0.36 0.27 0.32 0.34 0.28 0.25 0.12 0.01 0.00 0.02 0.12 0.05 0.13 0.62 0.60 0.60 0.50 0.59 0.81 1.31 1.17 0.76 0.39 0.29 0.27 0.40 0.73 0.71 0.56 0.58 0.66 0.61 0.83 1.07 1.08 1.16 1.27 1.37 1.41 1.28 1.19 1.12 0.94 0.88
0.29 0.42 0.40 0.36 0.38 0.11 0.01 0.00 0.01 0.19 0.28 0.07 0.06 0.22 0.64 0.83 1.00 1.02 0.97 1.08 0.85 0.61 0.19 0.06 0.03 0.02 0.05 0.29 0.48 0.43 0.45 0.62 0.65 0.71 1.02 1.08 1.23 1.30 1.20 1.32 1.33 1.48 1.63 1.52
0.18 0.39 0.37 0.42 0.45 0.21 0.03 0.13 0.29 0.29 0.12 0.08 0.06 0.05 0.14 0.44 0.52 0.42 0.66 0.64 0.48 0.29 0.06 0.00 0.00 0.00 0.01 0.01 0.05 0.18 0.27 0.33 0.43 0.50 0.46 0.58 0.67 0.69 0.89 0.91 1.00 1.09 1.08 1.14
0.37 0.14 0.16 0.18 0.21 0.27 0.21 0.23 0.26 0.14 0.17 0.15 0.10 0.15 0.27 0.31 0.29 0.37 0.32 0.16 0.06 0.04 0.02 0.01 0.01 0.02 0.02 0.01 0.01 0.03 0.05 0.09 0.13 0.17 0.24 0.30 0.37 0.50 0.55 0.62 0.71 0.68 0.70 0.67
0.57 0.47 0.40 0.52 0.60 0.37 0.47 0.36 0.13 0.11 0.21 0.22 0.16 0.11 0.11 0.10 0.11 0.15 0.13 0.06 0.03 0.02 0.02 0.02 0.02 0.01 0.01 0.01 0.01 0.03 0.03 0.04 0.05 0.07 0.08 0.10 0.18 0.26 0.27 0.35 0.42 0.51 0.57 0.62
0.29 0.57 0.74 0.92 0.77 0.61 0.71 0.72 0.57 0.40 0.18 0.15 0.17 0.14 0.11 0.08 0.08 0.07 0.06 0.05 0.02 0.01 0.01 0.01 0.01 0.01 0.00 0.02 0.02 0.04 0.05 0.04 0.06 0.06 0.09 0.10 0.09 0.11 0.12 0.18 0.32 0.39 0.59 0.74
0.18 0.44 0.83 1.32 1.04 0.90 0.89 0.50 0.36 0.30 0.27 0.15 0.07 0.04 0.03 0.02 0.01 0.01 0.02 0.02 0.01 0.01 0.02 0.02 0.02 0.01 0.02 0.02 0.03 0.03 0.02 0.03 0.07 0.10 0.12 0.20 0.21 0.21 0.21 0.24 0.33 0.47 0.51 0.52

GFSCGP_prec_precacc_117.txt.gz
Total_Precipitation_Accumulation
0.02 0.00 0.01 0.00 0.00 0.00 0.00 0.00 0.00 0.00 0.01 0.00 0.00 0.00 0.00 0.04 0.15 0.07 0.03 0.01 0.01 0.01 0.00 0.02 0.05 0.06 0.08 0.18 0.42 0.64 1.00 0.97 0.47 0.24 0.15 0.27 0.47 0.59 0.53 0.39 0.30 0.52 0.57 0.55
0.04 0.03 0.01 0.01 0.00 0.00 0.00 0.01 0.00 0.00 0.00 0.00 0.01 0.00 0.00 0.00 0.02 0.00 0.00 0.01 0.00 0.01 0.00 0.01 0.04 0.10 0.29 0.44 0.44 0.33 0.15 0.13 0.04 0.06 0.10 0.16 0.24 0.44 0.47 0.38 0.18 0.34 0.59 0.83
0.05 0.02 0.00 0.00 0.00 0.01 0.00 0.00 0.00 0.00 0.00 0.01 0.03 0.01 0.00 0.00 0.00 0.00 0.01 0.03 0.01 0.01 0.01 0.04 0.08 0.13 0.11 0.05 0.02 0.06 0.08 0.14 0.05 0.04 0.12 0.18 0.37 0.56 0.48 0.43 0.24 0.22 0.30 0.63
0.06 0.00 0.01 0.04 0.04 0.01 0.00 0.00 0.01 0.01 0.03 0.08 0.06 0.05 0.01 0.00 0.00 0.00 0.01 0.02 0.02 0.02 0.03 0.03 0.00 0.00 0.01 0.02 0.03 0.06 0.12 0.15 0.06 0.05 0.04 0.07 0.14 0.23 0.24 0.22 0.18 0.14 0.19 0.30
0.12 0.01 0.07 0.08 0.03 0.02 0.01 0.01 0.05 0.05 0.05 0.04 0.04 0.10 0.02 0.01 0.01 0.01 0.00 0.00 0.03 0.01 0.00 0.00 0.01 0.00 0.00 0.04 0.07 0.08 0.15 0.28 0.21 0.12 0.14 0.20 0.24 0.24 0.24 0.19 0.14 0.11 0.13 0.17
0.02 0.02 0.05 0.04 0.01 0.04 0.08 0.05 0.11 0.10 0.12 0.14 0.01 0.05 0.05 0.10 0.08 0.05 0.01 0.00 0.09 0.02 0.01 0.02 0.02 0.01 0.01 0.05 0.08 0.10 0.13 0.24 0.27 0.22 0.26 0.31 0.33 0.27 0.24 0.16 0.13 0.09 0.14 0.16
0.08 0.09 0.01 0.01 0.01 0.04 0.10 0.23 0.42 0.48 0.32 0.11 0.04 0.05 0.07 0.13 0.13 0.11 0.05 0.01 0.00 0.00 0.01 0.03 0.02 0.01 0.02 0.04 0.08 0.08 0.07 0.10 0.13 0.17 0.13 0.10 0.18 0.22 0.20 0.18 0.23 0.18 0.13 0.11
0.18 0.21 0.10 0.00 0.01 0.03 0.08 0.22 0.29 0.31 0.22 0.09 0.05 0.04 0.18 0.11 0.44 0.14 0.09 0.02 0.00 0.00 0.00 0.01 0.01 0.02 0.03 0.07 0.18 0.12 0.11 0.11 0.07 0.13 0.18 0.21 0.28 0.36 0.40 0.37 0.32 0.21 0.23 0.27
0.23 0.21 0.07 0.01 0.04 0.12 0.16 0.16 0.10 0.46 0.30 0.24 0.04 0.18 0.29 0.26 0.43 0.75 0.26 0.08 0.04 0.02 0.01 0.00 0.01 0.02 0.03 0.03 0.16 0.20 0.13 0.12 0.08 0.11 0.16 0.26 0.42 0.46 0.35 0.38 0.60 0.45 0.40 0.30
0.18 0.48 0.19 0.05 0.07 0.07 0.13 0.24 0.38 0.59 0.46 0.41 0.09 0.21 0.51 0.64 0.91 0.52 0.34 0.22 0.08 0.04 0.01 0.00 0.00 0.00 0.01 0.02 0.11 0.16 0.10 0.11 0.11 0.09 0.11 0.20 0.32 0.45 0.56 0.86 1.11 1.24 1.03 0.82
0.18 0.45 0.41 0.15 0.15 0.14 0.20 0.36 0.36 0.33 0.30 0.60 0.66 0.99 1.27 1.39 1.45 1.21 0.41 0.18 0.06 0.02 0.01 0.00 0.00 0.01 0.00 0.01 0.06 0.16 0.25 0.25 0.12 0.14 0.30 0.44 0.46 0.69 1.07 0.98 1.23 1.00 0.99 1.06
0.09 0.75 0.62 0.25 0.12 0.17 0.23 0.18 0.26 0.56 0.43 0.39 1.06 1.57 1.80 1.41 1.01 0.57 0.51 0.37 0.18 0.07 0.04 0.02 0.02 0.02 0.01 0.01 0.06 0.15 0.36 0.62 0.84 0.83 1.23 1.11 1.27 1.51 1.37 1.56 2.04 1.42 1.09 0.87
0.15 0.59 0.33 0.42 0.56 0.29 0.17 0.17 0.30 0.42 0.69 1.11 1.32 1.36 1.56 0.89 0.49 0.28 0.18 0.21 0.20 0.11 0.12 0.07 0.04 0.03 0.04 0.05 0.11 0.29 0.84 1.25 1.04 1.14 1.19 1.33 1.77 1.37 1.02 0.78 0.56 0.52 0.48 0.41
0.11 0.16 0.24 0.47 0.67 0.63 0.38 0.31 0.33 0.52 0.79 0.76 0.86 0.93 0.64 0.73 0.61 0.38 0.19 0.12 0.15 0.18 0.23 0.20 0.11 0.14 0.20 0.25 0.35 0.44 0.65 0.86 0.86 0.90 0.93 0.91 0.94 1.02 0.84 0.73 0.54 0.58 0.55 0.46
0.08 0.25 0.48 0.44 0.52 0.43 0.80 0.76 0.94 0.74 0.53 0.62 0.67 0.34 0.30 0.24 0.63 0.70 0.39 0.29 0.32 0.60 0.43 0.37 0.35 0.32 0.37 0.45 0.52 0.56 0.63 0.66 0.68 0.84 0.72 0.57 0.49 0.51 0.57 0.54 0.43 0.40 0.34 0.29
0.06 0.21 0.55 1.20 0.70 0.20 0.56 0.65 0.56 0.47 0.54 0.61 0.34 0.35 0.25 0.16 0.31 0.67 0.51 0.49 0.35 0.47 0.73 0.59 0.48 0.38 0.37 0.37 0.43 0.47 0.46 0.56 0.57 0.59 0.57 0.56 0.51 0.57 0.59 0.47 0.48 0.32 0.28 0.32
0.10 0.11 0.17 0.39 0.38 0.10 0.35 0.38 0.16 0.14 0.16 0.20 0.19 0.25 0.17 0.19 0.28 0.41 0.53 0.58 0.48 0.49 0.64 0.74 0.78 0.70 0.70 0.60 0.58 0.55 0.57 0.52 0.54 0.55 0.53 0.47 0.57 0.60 0.65 0.62 0.59 0.62 0.67 0.64
0.19 0.14 0.16 0.17 0.09 0.41 0.72 0.19 0.04 0.11 0.21 0.12 0.14 0.18 0.21 0.29 0.36 0.36 0.47 0.79 0.70 0.69 0.86 0.90 0.89 0.86 0.86 0.73 0.68 0.77 0.80 0.79 0.68 0.63 0.59 0.52 0.51 0.64 0.78 0.75 0.75 0.94 0.93 0.76
0.19 0.22 0.36 0.25 0.18 0.31 0.15 0.03 0.02 0.09 0.14 0.10 0.19 0.45 0.42 0.50 0.60 0.74 1.00 1.19 1.19 0.92 0.67 0.70 0.88 0.98 0.72 0.74 0.68 0.73 0.74 0.91 0.97 0.94 0.90 0.86 0.72 0.79 0.91 1.08 1.12 0.96 0.90 0.90
0.36 0.27 0.33 0.38 0.30 0.26 0.14 0.01 0.00 0.02 0.14 0.07 0.16 0.63 0.61 0.61 0.51 0.60 0.81 1.31 1.17 0.76 0.39 0.29 0.27 0.40 0.73 0.71 0.56 0.58 0.66 0.61 0.83 1.07 1.10 1.21 1.33 1.47 1.57 1.50 1.38 1.46 1.44 1.31
0.29 0.42 0.40 0.36 0.38 0.11 0.01 0.02 0.03 0.20 0.31 0.10 0.07 0.22 0.64 0.83 1.00 1.03 0.97 1.08 0.85 0.61 0.19 0.06 0.03 0.02 0.05 0.29 0.48 0.43 0.45 0.62 0.66 0.71 1.02 1.09 1.27 1.37 1.31 1.48 1.57 1.71 1.93 2.02
0.18 0.39 0.38 0.42 0.45 0.22 0.03 0.13 0.29 0.31 0.13 0.09 0.07 0.05 0.14 0.44 0.52 0.42 0.66 0.64 0.48 0.29 0.06 0.00 0.00 0.00 0.01 0.01 0.05 0.18 0.28 0.34 0.43 0.50 0.46 0.58 0.67 0.70 0.91 0.94 1.03 1.14 1.18 1.31
0.37 0.14 0.17 0.18 0.22 0.29 0.22 0.25 0.26 0.14 0.17 0.15 0.10 0.15 0.27 0.31 0.29 0.37 0.32 0.16 0.06 0.04 0.02 0.01 0.01 0.02 0.02 0.01 0.01 0.03 0.06 0.10 0.13 0.17 0.24 0.30 0.37 0.50 0.55 0.63 0.71 0.69 0.72 0.72
0.57 0.47 0.40 0.52 0.62 0.38 0.48 0.36 0.13 0.11 0.21 0.22 0.16 0.11 0.11 0.10 0.11 0.15 0.13 0.06 0.03 0.02 0.02 0.02 0.02 0.01 0.01 0.01 0.01 0.03 0.03 0.04 0.05 0.07 0.08 0.10 0.18 0.26 0.27 0.35 0.42 0.51 0.57 0.63
0.29 0.57 0.74 0.93 0.78 0.62 0.72 0.72 0.57 0.40 0.18 0.15 0.17 0.14 0.11 0.08 0.08 0.07 0.06 0.05 0.02 0.01 0.01 0.01 0.01 0.01 0.00 0.02 0.02 0.04 0.05 0.04 0.06 0.06 0.09 0.10 0.09 0.11 0.12 0.18 0.33 0.40 0.61 0.75
0.18 0.44 0.83 1.32 1.04 0.91 0.89 0.50 0.36 0.30 0.27 0.15 0.07 0.04 0.03 0.02 0.01 0.01 0.02 0.02 0.01 0.01 0.02 0.02 0.02 0.01 0.02 0.02 0.03 0.03 0.02 0.04 0.07 0.10 0.12 0.20 0.21 0.21 0.21 0.24 0.33 0.47 0.52 0.53

GFSCGP_prec_precacc_120.txt.gz
Total_Precipitation_Accumulation
0.02 0.00 0.01 0.00 0.00 0.00 0.00 0.00 0.00 0.00 0.01 0.00 0.00 0.00 0.00 0.04 0.15 0.07 0.03 0.01 0.01 0.01 0.00 0.02 0.05 0.06 0.08 0.18 0.42 0.64 1.00 0.97 0.47 0.24 0.15 0.27 0.47 0.60 0.53 0.39 0.30 0.52 0.57 0.55
0.04 0.03 0.01 0.01 0.00 0.00 0.00 0.01 0.00 0.00 0.00 0.00 0.01 0.00 0.00 0.00 0.02 0.00 0.00 0.01 0.00 0.01 0.00 0.01 0.04 0.10 0.29 0.44 0.44 0.33 0.15 0.13 0.04 0.06 0.10 0.16 0.24 0.44 0.47 0.38 0.18 0.34 0.59 0.83
0.05 0.02 0.00 0.00 0.00 0.01 0.00 0.00 0.00 0.00 0.00 0.01 0.03 0.01 0.00 0.00 0.00 0.00 0.01 0.03 0.01 0.01 0.01 0.04 0.08 0.13 0.11 0.05 0.02 0.06 0.08 0.14 0.05 0.04 0.12 0.19 0.38 0.57 0.49 0.45 0.25 0.22 0.30 0.63
0.06 0.00 0.01 0.04 0.04 0.01 0.00 0.00 0.01 0.01 0.03 0.08 0.06 0.07 0.01 0.00 0.00 0.00 0.01 0.02 0.02 0.02 0.03 0.03 0.00 0.00 0.01 0.02 0.03 0.06 0.12 0.15 0.06 0.05 0.04 0.07 0.15 0.24 0.24 0.23 0.19 0.16 0.20 0.30
0.12 0.01 0.07 0.08 0.03 0.02 0.01 0.01 0.05 0.05 0.06 0.05 0.04 0.11 0.02 0.01 0.05 0.02 0.00 0.00 0.03 0.01 0.00 0.00 0.01 0.00 0.00 0.04 0.07 0.08 0.15 0.28 0.21 0.12 0.14 0.20 0.24 0.25 0.27 0.21 0.15 0.13 0.19 0.24
0.02 0.02 0.05 0.04 0.01 0.04 0.08 0.05 0.11 0.10 0.13 0.15 0.01 0.05 0.08 0.37 0.19 0.12 0.02 0.00 0.09 0.02 0.01 0.02 0.02 0.01 0.01 0.05 0.08 0.10 0.13 0.24 0.27 0.23 0.27 0.32 0.35 0.30 0.24 0.16 0.14 0.14 0.28 0.25
0.08 0.09 0.01 0.01 0.01 0.04 0.10 0.23 0.42 0.48 0.32 0.11 0.04 0.06 0.17 0.34 0.23 0.21 0.12 0.02 0.01 0.00 0.01 0.03 0.02 0.01 0.02 0.04 0.08 0.08 0.07 0.10 0.13 0.18 0.14 0.11 0.20 0.23 0.20 0.18 0.25 0.28 0.29 0.22
0.18 0.21 0.10 0.00 0.01 0.03 0.08 0.22 0.29 0.33 0.23 0.12 0.08 0.11 0.45 0.30 0.54 0.26 0.20 0.05 0.02 0.01 0.00 0.01 0.01 0.02 0.03 0.07 0.18 0.12 0.11 0.11 0.07 0.13 0.18 0.22 0.30 0.37 0.41 0.37 0.34 0.24 0.34 0.35
0.23 0.21 0.07 0.01 0.04 0.12 0.16 0.16 0.10 0.46 0.30 0.28 0.16 0.48 0.40 0.34 0.57 1.24 0.51 0.13 0.08 0.03 0.01 0.00 0.01 0.02 0.03 0.03 0.16 0.20 0.13 0.12 0.08 0.11 0.16 0.26 0.43 0.47 0.35 0.40 0.65 0.46 0.42 0.33
0.19 0.50 0.20 0.06 0.07 0.07 0.13 0.25 0.40 0.60 0.47 0.46 0.21 0.37 0.66 0.77 1.05 0.78 0.83 0.60 0.17 0.15 0.06 0.02 0.01 0.00 0.01 0.02 0.11 0.16 0.10 0.11 0.11 0.09 0.11 0.20 0.32 0.45 0.56 0.87 1.12 1.26 1.09 0.89
0.22 0.51 0.41 0.16 0.15 0.15 0.21 0.36 0.37 0.34 0.32 0.70 0.80 1.08 1.32 1.45 1.58 1.47 0.67 0.53 0.42 0.15 0.12 0.05 0.01 0.01 0.00 0.01 0.06 0.16 0.25 0.25 0.12 0.14 0.30 0.44 0.46 0.69 1.07 0.98 1.25 1.06 1.05 1.11
0.10 0.79 0.66 0.26 0.12 0.18 0.25 0.19 0.26 0.56 0.44 0.41 1.08 1.62 1.89 1.48 1.09 0.68 0.64 0.49 0.41 0.28 0.21 0.11 0.05 0.02 0.01 0.01 0.06 0.15 0.36 0.62 0.84 0.84 1.24 1.12 1.27 1.51 1.38 1.57 2.06 1.45 1.11 0.91
0.18 0.68 0.37 0.42 0.57 0.30 0.18 0.20 0.31 0.42 0.69 1.12 1.36 1.44 1.68 0.99 0.60 0.37 0.30 0.32 0.30 0.23 0.21 0.12 0.05 0.03 0.04 0.05 0.11 0.29 0.84 1.25 1.04 1.15 1.20 1.34 1.79 1.39 1.03 0.80 0.58 0.56 0.51 0.44
0.17 0.25 0.35 0.55 0.75 0.66 0.39 0.32 0.34 0.52 0.80 0.78 0.97 1.05 0.73 0.81 0.70 0.45 0.28 0.24 0.28 0.32 0.29 0.22 0.12 0.14 0.20 0.25 0.35 0.44 0.65 0.86 0.86 0.90 0.93 0.91 0.94 1.03 0.86 0.75 0.56 0.61 0.58 0.50
0.08 0.31 0.57 0.48 0.62 0.48 0.88 0.90 0.98 0.75 0.58 0.67 0.80 0.45 0.41 0.33 0.72 0.76 0.45 0.37 0.36 0.62 0.47 0.38 0.35 0.33 0.37 0.45 0.52 0.56 0.63 0.66 0.68 0.84 0.72 0.57 0.49 0.52 0.58 0.58 0.48 0.47 0.41 0.38
0.07 0.23 0.61 1.25 0.81 0.27 0.67 0.89 0.76 0.53 0.62 0.66 0.38 0.39 0.32 0.22 0.37 0.72 0.56 0.52 0.36 0.47 0.73 0.59 0.49 0.38 0.37 0.37 0.43 0.47 0.46 0.56 0.57 0.59 0.57 0.56 0.51 0.57 0.59 0.47 0.49 0.34 0.30 0.36
0.10 0.11 0.17 0.43 0.39 0.11 0.41 0.63 0.35 0.23 0.20 0.21 0.19 0.27 0.20 0.22 0.32 0.46 0.57 0.62 0.49 0.49 0.64 0.75 0.79 0.71 0.71 0.60 0.58 0.56 0.57 0.52 0.54 0.55 0.53 0.47 0.57 0.60 0.65 0.62 0.59 0.62 0.68 0.66
0.19 0.15 0.17 0.22 0.11 0.44 0.80 0.28 0.12 0.15 0.26 0.14 0.14 0.19 0.23 0.31 0.39 0.39 0.50 0.82 0.72 0.69 0.86 0.90 0.90 0.87 0.86 0.73 0.68 0.77 0.80 0.79 0.68 0.63 0.60 0.52 0.52 0.64 0.78 0.75 0.76 0.94 0.94 0.81
0.19 0.23 0.38 0.26 0.19 0.34 0.19 0.04 0.03 0.10 0.16 0.13 0.21 0.47 0.43 0.51 0.61 0.75 1.00 1.19 1.20 0.92 0.67 0.70 0.88 0.98 0.73 0.74 0.68 0.73 0.74 0.91 0.97 0.94 0.90 0.86 0.73 0.79 0.92 1.09 1.13 0.97 0.92 0.96
0.36 0.28 0.35 0.38 0.30 0.28 0.16 0.01 0.00 0.02 0.15 0.08 0.16 0.63 0.62 0.62 0.52 0.61 0.82 1.31 1.17 0.76 0.39 0.29 0.27 0.40 0.73 0.71 0.56 0.58 0.66 0.62 0.83 1.07 1.10 1.21 1.33 1.47 1.57 1.51 1.39 1.47 1.45 1.34
0.29 0.44 0.43 0.37 0.38 0.12 0.02 0.04 0.03 0.21 0.31 0.10 0.07 0.22 0.64 0.83 1.01 1.03 0.97 1.08 0.85 0.61 0.19 0.06 0.03 0.02 0.05 0.29 0.48 0.44 0.45 0.63 0.66 0.71 1.02 1.09 1.27 1.37 1.31 1.49 1.58 1.72 1.96 2.08
0.18 0.39 0.38 0.44 0.45 0.22 0.04 0.14 0.30 0.31 0.14 0.09 0.07 0.05 0.14 0.44 0.52 0.42 0.66 0.64 0.48 0.29 0.06 0.00 0.00 0.00 0.01 0.01 0.05 0.18 0.29 0.34 0.43 0.50 0.46 0.58 0.67 0.71 0.91 0.94 1.03 1.15 1.21 1.35
0.37 0.14 0.17 0.19 0.22 0.30 0.23 0.25 0.27 0.14 0.18 0.16 0.10 0.15 0.27 0.31 0.29 0.37 0.32 0.16 0.06 0.04 0.02 0.01 0.01 0.02 0.02 0.01 0.02 0.03 0.07 0.10 0.13 0.18 0.24 0.30 0.37 0.50 0.55 0.63 0.71 0.69 0.72 0.72
0.58 0.47 0.40 0.53 0.63 0.39 0.48 0.36 0.13 0.11 0.21 0.22 0.16 0.11 0.11 0.10 0.11 0.15 0.13 0.06 0.03 0.02 0.02 0.02 0.02 0.01 0.01 0.01 0.01 0.03 0.03 0.04 0.05 0.07 0.08 0.10 0.18 0.26 0.27 0.35 0.42 0.52 0.58 0.63
0.29 0.57 0.74 0.93 0.80 0.63 0.72 0.72 0.57 0.40 0.18 0.15 0.17 0.14 0.11 0.08 0.08 0.07 0.06 0.05 0.02 0.01 0.01 0.01 0.01 0.01 0.00 0.02 0.02 0.04 0.05 0.05 0.06 0.06 0.09 0.10 0.09 0.11 0.12 0.18 0.33 0.41 0.63 0.78
0.18 0.44 0.83 1.32 1.04 0.91 0.90 0.50 0.36 0.30 0.27 0.15 0.07 0.04 0.03 0.02 0.01 0.01 0.02 0.02 0.01 0.01 0.02 0.02 0.02 0.01 0.02 0.02 0.03 0.03 0.02 0.04 0.07 0.11 0.12 0.21 0.22 0.21 0.21 0.24 0.33 0.47 0.53 0.53

GFSCGP_prec_precacc_126.txt.gz
Total_Precipitation_Accumulation
0.02 0.00 0.01 0.00 0.00 0.00 0.00 0.00 0.00 0.00 0.01 0.00 0.00 0.00 0.00 0.04 0.15 0.07 0.03 0.01 0.01 0.01 0.00 0.02 0.05 0.06 0.08 0.18 0.42 0.64 1.00 0.97 0.47 0.24 0.15 0.28 0.47 0.61 0.54 0.39 0.30 0.52 0.57 0.55
0.04 0.03 0.01 0.01 0.00 0.00 0.00 0.01 0.00 0.00 0.00 0.00 0.01 0.00 0.00 0.00 0.02 0.00 0.00 0.01 0.00 0.01 0.00 0.01 0.04 0.10 0.29 0.44 0.44 0.33 0.15 0.13 0.05 0.06 0.10 0.17 0.25 0.45 0.49 0.39 0.19 0.35 0.59 0.83
0.05 0.02 0.00 0.00 0.00 0.01 0.00 0.00 0.00 0.00 0.00 0.01 0.03 0.01 0.00 0.00 0.00 0.00 0.01 0.03 0.01 0.01 0.01 0.04 0.08 0.13 0.11 0.05 0.02 0.06 0.08 0.14 0.06 0.04 0.13 0.24 0.39 0.57 0.49 0.45 0.25 0.23 0.31 0.63
0.06 0.00 0.01 0.04 0.04 0.01 0.00 0.00 0.01 0.01 0.03 0.08 0.06 0.08 0.01 0.00 0.00 0.00 0.01 0.02 0.03 0.02 0.03 0.03 0.00 0.00 0.01 0.02 0.03 0.06 0.13 0.16 0.07 0.09 0.12 0.10 0.15 0.24 0.24 0.23 0.21 0.19 0.25 0.32
0.12 0.01 0.07 0.08 0.03 0.02 0.01 0.01 0.05 0.05 0.06 0.05 0.04 0.11 0.02 0.02 0.09 0.06 0.03 0.02 0.05 0.02 0.01 0.01 0.01 0.00 0.00 0.04 0.07 0.08 0.15 0.28 0.21 0.17 0.37 0.34 0.27 0.26 0.27 0.21 0.15 0.16 0.24 0.34
0.02 0.02 0.05 0.04 0.01 0.04 0.08 0.05 0.11 0.10 0.13 0.15 0.01 0.06 0.09 0.52 0.51 0.34 0.17 0.10 0.16 0.06 0.06 0.05 0.04 0.02 0.02 0.07 0.09 0.10 0.13 0.24 0.27 0.23 0.30 0.53 0.48 0.31 0.25 0.16 0.14 0.15 0.32 0.34
0.08 0.09 0.01 0.01 0.01 0.04 0.10 0.23 0.42 0.48 0.32 0.11 0.05 0.07 0.23 0.46 0.44 0.42 0.32 0.20 0.16 0.11 0.10 0.10 0.07 0.04 0.05 0.08 0.13 0.11 0.09 0.11 0.13 0.18 0.15 0.12 0.22 0.24 0.21 0.20 0.27 0.31 0.37 0.24
0.18 0.21 0.10 0.00 0.01 0.03 0.08 0.22 0.29 0.33 0.23 0.12 0.09 0.21 0.65 0.57 0.79 0.54 0.78 0.44 0.31 0.22 0.13 0.10 0.09 0.07 0.05 0.09 0.23 0.14 0.14 0.14 0.10 0.15 0.21 0.24 0.33 0.40 0.44 0.40 0.39 0.31 0.43 0.40
0.24 0.21 0.07 0.01 0.04 0.12 0.16 0.16 0.10 0.46 0.30 0.29 0.27 0.76 0.63 0.48 0.78 1.53 0.88 0.49 0.60 0.51 0.24 0.12 0.11 0.11 0.10 0.09 0.20 0.24 0.17 0.16 0.12 0.15 0.20 0.30 0.47 0.51 0.39 0.44 0.70 0.51 0.47 0.44
0.20 0.53 0.20 0.06 0.07 0.07 0.14 0.25 0.41 0.61 0.49 0.52 0.36 0.54 0.79 0.83 1.15 0.99 1.19 1.21 0.60 0.63 0.42 0.18 0.10 0.07 0.04 0.07 0.15 0.19 0.16 0.16 0.15 0.12 0.12 0.21 0.33 0.45 0.57 0.89 1.15 1.29 1.14 0.97
0.23 0.56 0.42 0.16 0.15 0.15 0.22 0.36 0.38 0.36 0.36 0.77 0.87 1.17 1.43 1.56 1.73 1.72 1.07 1.11 1.22 0.66 0.86 0.51 0.24 0.15 0.06 0.02 0.09 0.18 0.28 0.28 0.13 0.15 0.31 0.44 0.46 0.69 1.07 0.98 1.25 1.07 1.07 1.20
0.11 0.84 0.68 0.26 0.12 0.18 0.27 0.21 0.27 0.58 0.45 0.43 1.13 1.70 1.99 1.61 1.24 0.82 0.80 0.73 0.72 0.79 0.78 0.89 0.64 0.43 0.12 0.03 0.07 0.16 0.37 0.64 0.86 0.85 1.25 1.13 1.28 1.51 1.38 1.57 2.07 1.46 1.12 0.92
0.23 0.73 0.38 0.42 0.57 0.30 0.20 0.24 0.37 0.47 0.73 1.15 1.41 1.53 1.78 1.09 0.70 0.49 0.42 0.45 0.46 0.41 0.53 0.63 0.48 0.52 0.49 0.22 0.17 0.32 0.86 1.27 1.11 1.20 1.21 1.35 1.80 1.39 1.04 0.81 0.59 0.57 0.53 0.47
0.24 0.29 0.38 0.60 0.82 0.72 0.42 0.33 0.35 0.58 0.86 0.82 1.05 1.14 0.80 0.89 0.78 0.55 0.39 0.38 0.43 0.47 0.42 0.41 0.48 0.52 0.60 0.59 0.53 0.53 0.69 0.91 0.89 0.92 0.94 0.91 0.94 1.04 0.86 0.76 0.57 0.63 0.61 0.54
0.10 0.37 0.71 0.55 0.66 0.54 0.96 0.99 1.02 0.78 0.65 0.76 0.89 0.53 0.52 0.44 0.83 0.88 0.59 0.54 0.44 0.65 0.49 0.40 0.38 0.41 0.58 0.65 0.64 0.63 0.65 0.67 0.68 0.84 0.72 0.57 0.49 0.52 0.58 0.58 0.49 0.48 0.44 0.41
0.07 0.24 0.68 1.30 0.84 0.34 0.79 0.99 0.84 0.56 0.67 0.71 0.46 0.48 0.42 0.32 0.50 0.87 0.71 0.67 0.46 0.49 0.74 0.60 0.49 0.39 0.38 0.38 0.44 0.47 0.46 0.56 0.57 0.59 0.57 0.56 0.51 0.57 0.59 0.47 0.49 0.34 0.31 0.38
0.10 0.13 0.21 0.49 0.43 0.15 0.48 0.81 0.47 0.27 0.24 0.24 0.23 0.32 0.28 0.32 0.42 0.59 0.69 0.72 0.55 0.52 0.65 0.76 0.81 0.73 0.72 0.61 0.59 0.56 0.57 0.52 0.54 0.55 0.53 0.47 0.57 0.60 0.65 0.62 0.59 0.62 0.68 0.66
0.19 0.17 0.20 0.26 0.19 0.51 0.87 0.38 0.22 0.21 0.30 0.16 0.16 0.22 0.28 0.37 0.45 0.45 0.53 0.83 0.73 0.70 0.87 0.91 0.91 0.88 0.87 0.73 0.69 0.77 0.80 0.79 0.68 0.63 0.60 0.52 0.52 0.64 0.78 0.75 0.76 0.94 0.94 0.81
0.19 0.25 0.46 0.30 0.21 0.38 0.24 0.06 0.07 0.15 0.19 0.15 0.23 0.49 0.45 0.55 0.63 0.75 1.00 1.20 1.20 0.93 0.67 0.71 0.89 0.99 0.73 0.75 0.68 0.73 0.75 0.91 0.97 0.94 0.90 0.86 0.73 0.79 0.92 1.09 1.13 0.98 0.92 0.97
0.36 0.30 0.46 0.38 0.31 0.29 0.17 0.02 0.00 0.02 0.16 0.08 0.17 0.64 0.62 0.64 0.53 0.62 0.82 1.32 1.18 0.76 0.39 0.29 0.27 0.40 0.73 0.72 0.56 0.58 0.67 0.62 0.83 1.07 1.10 1.22 1.33 1.47 1.57 1.51 1.40 1.47 1.45 1.35
0.29 0.46 0.52 0.40 0.39 0.12 0.02 0.04 0.03 0.23 0.33 0.10 0.07 0.22 0.64 0.84 1.01 1.04 0.97 1.08 0.85 0.61 0.19 0.06 0.03 0.02 0.05 0.29 0.48 0.44 0.45 0.64 0.67 0.72 1.02 1.09 1.27 1.37 1.32 1.49 1.58 1.73 1.97 2.08
0.18 0.40 0.41 0.49 0.47 0.23 0.05 0.15 0.30 0.32 0.15 0.09 0.07 0.05 0.14 0.44 0.52 0.42 0.66 0.64 0.48 0.29 0.06 0.00 0.00 0.00 0.01 0.01 0.05 0.19 0.29 0.35 0.43 0.50 0.46 0.58 0.67 0.71 0.92 0.95 1.03 1.15 1.21 1.35
0.37 0.14 0.17 0.21 0.23 0.30 0.24 0.26 0.27 0.14 0.18 0.16 0.10 0.15 0.27 0.31 0.29 0.37 0.32 0.16 0.06 0.04 0.02 0.01 0.01 0.02 0.02 0.01 0.02 0.04 0.07 0.10 0.13 0.18 0.24 0.30 0.37 0.50 0.55 0.63 0.71 0.69 0.72 0.72
0.58 0.47 0.40 0.53 0.64 0.39 0.48 0.36 0.13 0.11 0.21 0.22 0.16 0.11 0.11 0.10 0.11 0.15 0.13 0.06 0.03 0.02 0.02 0.02 0.02 0.01 0.01 0.01 0.01 0.04 0.03 0.04 0.05 0.07 0.08 0.10 0.18 0.26 0.27 0.35 0.42 0.52 0.59 0.64
0.30 0.57 0.74 0.94 0.81 0.63 0.72 0.72 0.57 0.40 0.18 0.15 0.17 0.14 0.11 0.08 0.08 0.07 0.06 0.05 0.02 0.01 0.01 0.01 0.01 0.01 0.00 0.02 0.02 0.04 0.05 0.05 0.06 0.06 0.09 0.10 0.09 0.11 0.12 0.18 0.34 0.41 0.65 0.79
0.18 0.44 0.83 1.32 1.04 0.91 0.90 0.50 0.36 0.30 0.27 0.15 0.07 0.04 0.03 0.02 0.01 0.01 0.02 0.02 0.01 0.01 0.02 0.02 0.02 0.01 0.02 0.02 0.03 0.03 0.02 0.04 0.07 0.11 0.13 0.21 0.22 0.21 0.21 0.24 0.33 0.47 0.53 0.53

GFSCGP_prec_precacc_129.txt.gz
Total_Precipitation_Accumulation
0.02 0.00 0.01 0.00 0.00 0.00 0.00 0.00 0.00 0.00 0.01 0.00 0.00 0.00 0.00 0.04 0.15 0.07 0.03 0.01 0.01 0.01 0.00 0.02 0.05 0.06 0.08 0.18 0.42 0.64 1.00 0.97 0.47 0.25 0.18 0.29 0.47 0.61 0.54 0.39 0.30 0.52 0.57 0.55
0.04 0.03 0.01 0.01 0.00 0.00 0.00 0.01 0.00 0.00 0.00 0.00 0.01 0.00 0.00 0.00 0.02 0.00 0.00 0.01 0.00 0.01 0.00 0.01 0.04 0.10 0.29 0.44 0.44 0.33 0.15 0.13 0.05 0.06 0.10 0.18 0.25 0.45 0.49 0.39 0.19 0.35 0.59 0.83
0.05 0.02 0.00 0.00 0.00 0.01 0.00 0.00 0.00 0.00 0.00 0.01 0.03 0.01 0.00 0.00 0.00 0.00 0.01 0.03 0.01 0.01 0.01 0.04 0.08 0.13 0.11 0.05 0.02 0.06 0.08 0.14 0.07 0.05 0.15 0.25 0.40 0.57 0.49 0.45 0.25 0.23 0.31 0.63
0.06 0.00 0.01 0.04 0.04 0.01 0.00 0.00 0.01 0.01 0.03 0.08 0.06 0.08 0.01 0.00 0.00 0.00 0.01 0.02 0.03 0.03 0.04 0.03 0.01 0.00 0.01 0.02 0.03 0.06 0.13 0.16 0.10 0.20 0.33 0.22 0.18 0.24 0.24 0.23 0.21 0.19 0.25 0.32
0.12 0.01 0.07 0.08 0.03 0.02 0.01 0.01 0.05 0.05 0.06 0.05 0.04 0.11 0.02 0.02 0.09 0.06 0.03 0.02 0.05 0.03 0.02 0.02 0.02 0.01 0.00 0.04 0.08 0.08 0.15 0.28 0.21 0.21 0.55 0.62 0.50 0.35 0.31 0.23 0.17 0.17 0.24 0.34
0.02 0.02 0.05 0.04 0.01 0.04 0.08 0.05 0.11 0.10 0.13 0.15 0.01 0.06 0.09 0.52 0.52 0.34 0.18 0.11 0.16 0.07 0.06 0.06 0.06 0.04 0.04 0.09 0.12 0.11 0.13 0.24 0.27 0.24 0.38 0.69 1.03 1.23 1.07 0.77 0.32 0.17 0.35 0.37
0.08 0.09 0.01 0.01 0.01 0.04 0.10 0.23 0.42 0.48 0.32 0.11 0.05 0.07 0.24 0.47 0.44 0.43 0.33 0.21 0.17 0.12 0.11 0.12 0.09 0.08 0.08 0.12 0.20 0.20 0.13 0.12 0.14 0.19 0.19 0.22 0.39 0.58 0.91 1.33 1.31 0.51 0.39 0.25
0.18 0.21 0.10 0.00 0.01 0.03 0.08 0.22 0.29 0.33 0.23 0.12 0.09 0.22 0.66 0.57 0.79 0.54 0.78 0.45 0.32 0.24 0.15 0.12 0.13 0.12 0.10 0.15 0.31 0.29 0.26 0.23 0.12 0.16 0.24 0.33 0.40 0.47 0.55 0.58 0.70 0.43 0.46 0.41
0.24 0.21 0.07 0.01 0.04 0.12 0.16 0.16 0.10 0.46 0.30 0.29 0.28 0.77 0.64 0.48 0.78 1.53 0.89 0.51 0.64 0.60 0.34 0.18 0.17 0.21 0.21 0.17 0.30 0.40 0.32 0.27 0.21 0.20 0.22 0.33 0.52 0.53 0.42 0.47 0.75 0.55 0.48 0.45
0.20 0.53 0.20 0.06 0.07 0.07 0.14 0.25 0.43 0.63 0.50 0.53 0.37 0.55 0.80 0.83 1.15 1.00 1.21 1.25 0.67 0.74 0.60 0.32 0.24 0.24 0.21 0.20 0.24 0.32 0.29 0.26 0.22 0.20 0.20 0.28 0.38 0.48 0.60 0.91 1.18 1.32 1.16 0.98
0.23 0.56 0.42 0.16 0.15 0.16 0.23 0.37 0.38 0.37 0.37 0.78 0.88 1.21 1.44 1.57 1.73 1.72 1.08 1.15 1.30 0.78 1.05 0.77 0.45 0.35 0.30 0.21 0.16 0.27 0.35 0.35 0.20 0.20 0.34 0.47 0.49 0.72 1.09 0.99 1.25 1.07 1.07 1.20
0.11 0.84 0.68 0.26 0.12 0.18 0.27 0.23 0.29 0.61 0.48 0.48 1.18 1.73 2.00 1.61 1.25 0.83 0.81 0.75 0.76 0.87 0.92 1.15 0.87 0.68 0.55 0.16 0.12 0.21 0.42 0.68 0.90 0.92 1.28 1.16 1.28 1.52 1.38 1.57 2.07 1.46 1.12 0.92
0.23 0.74 0.38 0.43 0.58 0.30 0.20 0.25 0.39 0.51 0.78 1.19 1.44 1.57 1.79 1.09 0.70 0.49 0.43 0.47 0.50 0.47 0.63 0.82 0.70 0.73 0.81 0.38 0.26 0.35 0.88 1.28 1.12 1.21 1.22 1.36 1.82 1.41 1.05 0.82 0.59 0.57 0.53 0.47
0.25 0.30 0.38 0.60 0.82 0.72 0.42 0.33 0.35 0.60 0.96 0.93 1.07 1.15 0.81 0.90 0.78 0.56 0.40 0.40 0.47 0.53 0.46 0.46 0.55 0.64 0.88 0.87 0.74 0.67 0.75 0.93 0.93 1.05 0.99 0.94 0.96 1.06 0.89 0.78 0.59 0.63 0.62 0.55
0.10 0.37 0.71 0.55 0.66 0.54 0.97 1.00 1.03 0.78 0.67 0.79 0.91 0.53 0.52 0.45 0.83 0.89 0.61 0.57 0.49 0.68 0.51 0.40 0.38 0.42 0.63 0.78 0.80 0.83 0.79 0.74 0.76 0.92 0.80 0.58 0.49 0.52 0.59 0.59 0.50 0.49 0.45 0.42
0.07 0.25 0.69 1.32 0.84 0.34 0.79 1.00 0.86 0.57 0.68 0.72 0.46 0.48 0.43 0.33 0.50 0.88 0.74 0.70 0.49 0.51 0.74 0.60 0.50 0.39 0.38 0.39 0.46 0.49 0.49 0.57 0.58 0.60 0.57 0.57 0.51 0.57 0.59 0.47 0.49 0.34 0.31 0.39
0.10 0.14 0.21 0.53 0.44 0.16 0.50 0.82 0.48 0.28 0.24 0.24 0.24 0.33 0.29 0.33 0.43 0.60 0.71 0.73 0.56 0.52 0.65 0.76 0.81 0.73 0.73 0.62 0.59 0.56 0.57 0.52 0.54 0.55 0.53 0.47 0.57 0.60 0.65 0.62 0.59 0.62 0.68 0.66
0.19 0.18 0.20 0.30 0.21 0.56 0.88 0.38 0.23 0.21 0.30 0.16 0.16 0.23 0.29 0.37 0.46 0.45 0.53 0.83 0.73 0.70 0.87 0.91 0.91 0.88 0.88 0.74 0.69 0.77 0.80 0.79 0.68 0.63 0.60 0.52 0.52 0.64 0.78 0.75 0.76 0.94 0.94 0.81
0.19 0.25 0.47 0.33 0.26 0.40 0.25 0.07 0.07 0.17 0.20 0.15 0.23 0.49 0.46 0.55 0.63 0.75 1.00 1.20 1.21 0.93 0.67 0.71 0.89 0.99 0.73 0.75 0.68 0.73 0.75 0.91 0.97 0.95 0.90 0.86 0.73 0.79 0.92 1.09 1.14 0.98 0.92 0.97
0.36 0.30 0.46 0.40 0.34 0.31 0.17 0.02 0.00 0.03 0.18 0.08 0.17 0.64 0.63 0.64 0.55 0.62 0.82 1.32 1.18 0.76 0.39 0.29 0.27 0.40 0.73 0.72 0.56 0.58 0.67 0.62 0.83 1.08 1.10 1.22 1.34 1.48 1.58 1.52 1.40 1.47 1.45 1.35
0.29 0.46 0.53 0.42 0.43 0.14 0.02 0.04 0.03 0.26 0.37 0.10 0.07 0.22 0.64 0.84 1.01 1.04 0.98 1.09 0.85 0.61 0.19 0.06 0.03 0.02 0.05 0.29 0.48 0.44 0.45 0.64 0.67 0.72 1.02 1.09 1.27 1.38 1.32 1.49 1.59 1.73 1.97 2.09
0.18 0.40 0.42 0.50 0.49 0.25 0.05 0.15 0.31 0.33 0.15 0.09 0.07 0.05 0.14 0.44 0.52 0.42 0.66 0.64 0.48 0.29 0.06 0.00 0.00 0.00 0.01 0.01 0.05 0.19 0.29 0.35 0.43 0.50 0.46 0.58 0.67 0.71 0.92 0.95 1.03 1.16 1.21 1.35
0.37 0.15 0.18 0.22 0.25 0.31 0.24 0.26 0.27 0.14 0.18 0.16 0.10 0.15 0.27 0.31 0.29 0.37 0.32 0.16 0.06 0.04 0.02 0.01 0.01 0.02 0.02 0.01 0.02 0.04 0.07 0.10 0.13 0.18 0.24 0.30 0.37 0.50 0.55 0.63 0.71 0.69 0.72 0.72
0.58 0.47 0.40 0.53 0.64 0.39 0.48 0.36 0.13 0.11 0.21 0.22 0.16 0.11 0.11 0.10 0.11 0.15 0.13 0.06 0.03 0.02 0.02 0.02 0.02 0.01 0.01 0.01 0.01 0.04 0.03 0.04 0.05 0.07 0.08 0.10 0.18 0.26 0.27 0.35 0.42 0.52 0.59 0.64
0.30 0.57 0.74 0.94 0.81 0.63 0.72 0.73 0.57 0.40 0.18 0.15 0.17 0.14 0.11 0.08 0.08 0.07 0.06 0.05 0.02 0.01 0.01 0.01 0.01 0.01 0.00 0.02 0.02 0.04 0.05 0.05 0.06 0.06 0.09 0.10 0.09 0.11 0.12 0.18 0.34 0.41 0.65 0.79
0.18 0.44 0.83 1.32 1.04 0.91 0.90 0.50 0.36 0.30 0.27 0.15 0.07 0.04 0.03 0.02 0.01 0.01 0.02 0.02 0.01 0.01 0.02 0.02 0.02 0.01 0.02 0.02 0.03 0.03 0.02 0.04 0.07 0.11 0.13 0.21 0.22 0.21 0.21 0.24 0.33 0.47 0.53 0.53

GFSCGP_prec_precacc_132.txt.gz
Total_Precipitation_Accumulation
0.02 0.00 0.01 0.00 0.00 0.00 0.00 0.00 0.00 0.00 0.01 0.00 0.00 0.00 0.00 0.04 0.15 0.07 0.03 0.01 0.01 0.01 0.00 0.02 0.05 0.06 0.08 0.18 0.42 0.64 1.00 0.97 0.47 0.28 0.29 0.43 0.60 0.69 0.62 0.39 0.30 0.52 0.57 0.55
0.04 0.03 0.01 0.01 0.00 0.00 0.00 0.01 0.00 0.00 0.00 0.00 0.01 0.00 0.00 0.00 0.02 0.00 0.00 0.01 0.00 0.01 0.00 0.01 0.04 0.10 0.29 0.44 0.44 0.33 0.15 0.13 0.05 0.06 0.14 0.30 0.41 0.57 0.52 0.41 0.19 0.35 0.59 0.83
0.05 0.02 0.00 0.00 0.00 0.01 0.00 0.00 0.00 0.00 0.00 0.01 0.03 0.01 0.00 0.00 0.00 0.00 0.01 0.03 0.01 0.01 0.01 0.04 0.08 0.13 0.11 0.05 0.02 0.06 0.08 0.14 0.07 0.05 0.20 0.38 0.55 0.75 0.63 0.54 0.25 0.23 0.31 0.63
0.06 0.00 0.01 0.04 0.04 0.01 0.00 0.00 0.01 0.01 0.03 0.08 0.06 0.08 0.01 0.00 0.00 0.00 0.01 0.02 0.03 0.03 0.04 0.03 0.01 0.00 0.01 0.03 0.03 0.06 0.13 0.16 0.10 0.20 0.36 0.35 0.37 0.47 0.34 0.27 0.22 0.19 0.25 0.32
0.12 0.01 0.07 0.08 0.03 0.02 0.01 0.01 0.05 0.05 0.06 0.05 0.04 0.11 0.02 0.02 0.09 0.06 0.03 0.02 0.05 0.03 0.02 0.02 0.02 0.01 0.00 0.05 0.08 0.08 0.15 0.28 0.21 0.21 0.55 0.68 0.65 0.44 0.36 0.29 0.20 0.17 0.24 0.34
0.02 0.02 0.05 0.04 0.01 0.04 0.08 0.05 0.11 0.10 0.13 0.15 0.01 0.06 0.09 0.52 0.52 0.34 0.18 0.11 0.16 0.07 0.06 0.06 0.06 0.04 0.04 0.09 0.12 0.11 0.14 0.24 0.27 0.24 0.39 0.72 1.14 1.49 1.62 1.22 0.67 0.35 0.46 0.44
0.08 0.09 0.01 0.01 0.01 0.04 0.10 0.23 0.42 0.48 0.32 0.11 0.05 0.07 0.24 0.47 0.44 0.43 0.33 0.21 0.17 0.12 0.12 0.12 0.10 0.08 0.09 0.13 0.21 0.22 0.15 0.14 0.15 0.20 0.20 0.25 0.49 0.83 1.30 1.89 2.57 2.01 1.47 1.09
0.18 0.21 0.10 0.00 0.01 0.03 0.08 0.22 0.29 0.33 0.23 0.12 0.09 0.22 0.66 0.57 0.79 0.54 0.79 0.45 0.32 0.24 0.16 0.13 0.14 0.14 0.14 0.19 0.34 0.32 0.31 0.30 0.18 0.20 0.28 0.37 0.45 0.58 0.90 0.93 1.28 1.54 1.76 1.48
0.24 0.21 0.07 0.01 0.04 0.12 0.16 0.16 0.10 0.46 0.30 0.29 0.29 0.77 0.64 0.48 0.78 1.53 0.89 0.51 0.64 0.60 0.35 0.19 0.19 0.26 0.34 0.28 0.35 0.48 0.45 0.51 0.38 0.31 0.28 0.41 0.58 0.59 0.53 0.66 1.10 1.15 1.02 0.83
0.20 0.53 0.20 0.06 0.07 0.07 0.14 0.25 0.43 0.64 0.51 0.53 0.38 0.57 0.81 0.83 1.16 1.00 1.21 1.25 0.67 0.75 0.61 0.33 0.26 0.32 0.31 0.39 0.35 0.46 0.54 0.65 0.48 0.45 0.34 0.36 0.51 0.57 0.67 0.97 1.26 1.52 1.60 1.43
0.23 0.56 0.42 0.16 0.15 0.16 0.23 0.37 0.39 0.37 0.38 0.79 0.89 1.23 1.44 1.57 1.74 1.72 1.08 1.15 1.30 0.79 1.06 0.80 0.49 0.45 0.55 0.70 0.35 0.48 0.73 1.12 0.60 0.43 0.51 0.54 0.54 0.81 1.15 1.09 1.33 1.17 1.17 1.31
0.11 0.84 0.68 0.26 0.12 0.18 0.27 0.23 0.31 0.64 0.50 0.51 1.25 1.79 2.00 1.61 1.25 0.83 0.81 0.75 0.77 0.88 0.94 1.21 0.95 0.77 0.77 0.38 0.36 0.43 0.63 0.88 1.32 1.01 1.33 1.18 1.29 1.55 1.45 1.63 2.14 1.49 1.15 0.95
0.23 0.74 0.39 0.45 0.61 0.31 0.20 0.25 0.40 0.53 0.80 1.21 1.49 1.60 1.79 1.09 0.70 0.49 0.43 0.48 0.51 0.48 0.65 0.88 0.81 0.84 0.98 0.57 0.58 0.64 1.14 1.41 1.23 1.27 1.32 1.45 1.83 1.41 1.06 0.83 0.62 0.60 0.55 0.48
0.25 0.30 0.38 0.66 0.85 0.72 0.42 0.33 0.35 0.60 0.97 0.96 1.12 1.17 0.82 0.90 0.78 0.56 0.40 0.40 0.48 0.55 0.48 0.48 0.60 0.72 1.06 1.11 0.91 0.91 1.07 1.24 1.06 1.08 1.00 1.00 1.00 1.08 0.90 0.78 0.59 0.64 0.62 0.55
0.10 0.37 0.71 0.55 0.66 0.54 0.97 1.00 1.03 0.78 0.68 0.81 0.92 0.53 0.52 0.45 0.83 0.89 0.61 0.57 0.49 0.69 0.51 0.41 0.38 0.42 0.66 0.87 0.89 0.93 0.88 0.87 0.91 1.07 0.91 0.64 0.52 0.54 0.60 0.60 0.51 0.49 0.46 0.45
0.08 0.26 0.69 1.32 0.84 0.34 0.79 1.00 0.86 0.58 0.68 0.72 0.46 0.48 0.43 0.33 0.50 0.89 0.74 0.70 0.49 0.51 0.74 0.60 0.50 0.39 0.39 0.40 0.48 0.54 0.54 0.59 0.60 0.62 0.61 0.61 0.53 0.58 0.59 0.47 0.49 0.35 0.31 0.39
0.11 0.16 0.22 0.54 0.44 0.17 0.51 0.82 0.48 0.28 0.24 0.25 0.24 0.33 0.29 0.33 0.43 0.60 0.71 0.73 0.56 0.52 0.65 0.76 0.81 0.73 0.73 0.62 0.59 0.56 0.57 0.53 0.55 0.55 0.54 0.47 0.57 0.60 0.65 0.62 0.59 0.63 0.69 0.66
0.20 0.19 0.22 0.33 0.22 0.59 0.89 0.38 0.23 0.21 0.30 0.16 0.16 0.23 0.29 0.37 0.46 0.45 0.53 0.84 0.73 0.70 0.87 0.91 0.91 0.88 0.88 0.74 0.69 0.77 0.80 0.79 0.68 0.63 0.60 0.53 0.52 0.64 0.78 0.75 0.76 0.95 0.94 0.81
0.19 0.26 0.48 0.36 0.30 0.42 0.25 0.07 0.07 0.17 0.20 0.15 0.23 0.49 0.46 0.55 0.63 0.75 1.00 1.20 1.21 0.93 0.67 0.71 0.89 0.99 0.73 0.75 0.68 0.73 0.75 0.91 0.97 0.95 0.90 0.86 0.73 0.79 0.92 1.09 1.14 0.98 0.92 0.97
0.36 0.31 0.47 0.42 0.38 0.37 0.18 0.02 0.00 0.03 0.18 0.08 0.17 0.64 0.63 0.64 0.56 0.62 0.82 1.32 1.18 0.76 0.39 0.29 0.27 0.40 0.73 0.72 0.56 0.58 0.67 0.62 0.83 1.08 1.11 1.22 1.34 1.48 1.58 1.52 1.40 1.47 1.46 1.35
0.29 0.47 0.54 0.43 0.46 0.17 0.02 0.04 0.03 0.26 0.38 0.10 0.07 0.22 0.64 0.84 1.02 1.04 0.98 1.09 0.85 0.61 0.19 0.06 0.03 0.02 0.05 0.29 0.48 0.44 0.45 0.64 0.67 0.72 1.02 1.09 1.27 1.38 1.32 1.49 1.59 1.73 1.97 2.09
0.18 0.41 0.43 0.50 0.51 0.29 0.05 0.16 0.32 0.33 0.15 0.09 0.07 0.05 0.14 0.44 0.52 0.42 0.66 0.64 0.48 0.29 0.06 0.00 0.00 0.00 0.01 0.01 0.05 0.19 0.29 0.35 0.43 0.50 0.46 0.58 0.67 0.71 0.92 0.95 1.03 1.16 1.21 1.35
0.37 0.15 0.19 0.22 0.26 0.31 0.24 0.27 0.27 0.14 0.18 0.16 0.10 0.15 0.27 0.31 0.29 0.37 0.32 0.16 0.06 0.04 0.02 0.01 0.01 0.02 0.02 0.01 0.02 0.04 0.07 0.10 0.13 0.18 0.24 0.30 0.37 0.50 0.55 0.63 0.71 0.69 0.72 0.72
0.58 0.47 0.40 0.53 0.64 0.39 0.48 0.36 0.13 0.11 0.21 0.22 0.16 0.11 0.11 0.10 0.11 0.15 0.13 0.06 0.03 0.02 0.02 0.02 0.02 0.01 0.01 0.01 0.01 0.04 0.03 0.04 0.05 0.07 0.08 0.10 0.18 0.26 0.27 0.35 0.42 0.52 0.60 0.64
0.30 0.57 0.74 0.94 0.81 0.63 0.72 0.73 0.57 0.40 0.18 0.15 0.17 0.14 0.11 0.08 0.08 0.07 0.06 0.05 0.02 0.01 0.01 0.01 0.01 0.01 0.00 0.02 0.02 0.04 0.05 0.05 0.06 0.06 0.09 0.10 0.09 0.11 0.12 0.18 0.34 0.41 0.65 0.79
0.18 0.44 0.83 1.32 1.04 0.91 0.90 0.50 0.36 0.31 0.27 0.15 0.07 0.04 0.03 0.02 0.01 0.01 0.02 0.02 0.01 0.01 0.02 0.02 0.02 0.01 0.02 0.02 0.03 0.03 0.02 0.04 0.07 0.11 0.13 0.21 0.22 0.21 0.21 0.24 0.33 0.47 0.53 0.53

GFSCGP_prec_precacc_135.txt.gz
Total_Precipitation_Accumulation
0.02 0.00 0.01 0.00 0.00 0.00 0.00 0.00 0.00 0.00 0.01 0.00 0.00 0.00 0.00 0.04 0.15 0.07 0.03 0.01 0.01 0.01 0.00 0.02 0.05 0.06 0.08 0.18 0.42 0.64 1.00 0.97 0.47 0.28 0.29 0.43 0.62 0.75 0.70 0.59 0.55 0.74 0.64 0.55
0.04 0.03 0.01 0.01 0.00 0.00 0.00 0.01 0.00 0.00 0.00 0.00 0.01 0.00 0.00 0.00 0.02 0.00 0.00 0.01 0.00 0.01 0.00 0.01 0.04 0.10 0.29 0.44 0.44 0.33 0.15 0.13 0.05 0.06 0.14 0.30 0.42 0.62 0.57 0.47 0.39 0.62 0.74 0.86
0.05 0.02 0.00 0.00 0.00 0.01 0.00 0.00 0.00 0.00 0.00 0.01 0.03 0.01 0.00 0.00 0.00 0.00 0.01 0.03 0.01 0.01 0.01 0.04 0.08 0.13 0.11 0.05 0.02 0.06 0.08 0.14 0.07 0.05 0.20 0.38 0.55 0.75 0.68 0.63 0.33 0.28 0.44 0.66
0.06 0.00 0.01 0.04 0.04 0.01 0.00 0.00 0.01 0.01 0.03 0.08 0.06 0.08 0.01 0.00 0.00 0.00 0.01 0.02 0.03 0.03 0.04 0.03 0.01 0.00 0.01 0.03 0.03 0.06 0.13 0.16 0.10 0.20 0.36 0.35 0.37 0.47 0.34 0.28 0.27 0.26 0.42 0.42
0.12 0.01 0.07 0.08 0.03 0.02 0.01 0.01 0.05 0.05 0.06 0.05 0.04 0.11 0.02 0.02 0.09 0.06 0.03 0.02 0.05 0.03 0.02 0.02 0.02 0.01 0.00 0.05 0.08 0.08 0.15 0.28 0.21 0.21 0.55 0.68 0.65 0.45 0.37 0.35 0.41 0.41 0.43 0.57
0.02 0.02 0.05 0.04 0.01 0.04 0.08 0.05 0.11 0.10 0.13 0.15 0.01 0.06 0.09 0.52 0.52 0.34 0.18 0.11 0.16 0.07 0.06 0.06 0.06 0.04 0.04 0.09 0.12 0.11 0.14 0.24 0.27 0.24 0.39 0.74 1.15 1.49 1.64 1.32 0.90 0.66 0.76 0.79
0.08 0.09 0.01 0.01 0.01 0.04 0.10 0.23 0.42 0.48 0.32 0.11 0.05 0.07 0.24 0.47 0.44 0.43 0.33 0.21 0.17 0.12 0.12 0.12 0.10 0.08 0.09 0.13 0.21 0.22 0.15 0.15 0.15 0.21 0.21 0.28 0.51 0.84 1.32 1.96 2.73 2.66 2.18 1.89
0.18 0.21 0.10 0.00 0.01 0.03 0.08 0.22 0.29 0.33 0.23 0.12 0.09 0.22 0.66 0.57 0.79 0.54 0.79 0.45 0.32 0.24 0.16 0.13 0.14 0.14 0.14 0.20 0.35 0.33 0.31 0.31 0.19 0.22 0.30 0.43 0.50 0.62 0.93 1.06 1.39 2.14 2.83 2.54
0.24 0.21 0.07 0.01 0.04 0.12 0.16 0.16 0.10 0.46 0.30 0.29 0.29 0.77 0.64 0.48 0.78 1.53 0.89 0.51 0.64 0.60 0.35 0.20 0.19 0.26 0.35 0.30 0.38 0.50 0.48 0.60 0.48 0.36 0.35 0.49 0.68 0.67 0.58 0.73 1.36 1.44 1.35 1.49
0.20 0.53 0.20 0.06 0.07 0.07 0.14 0.25 0.43 0.64 0.51 0.53 0.38 0.58 0.82 0.83 1.16 1.00 1.21 1.25 0.67 0.75 0.61 0.34 0.27 0.33 0.33 0.44 0.38 0.52 0.73 1.02 0.75 0.64 0.53 0.57 0.68 0.71 0.76 0.99 1.35 1.79 2.05 1.89
0.23 0.56 0.42 0.16 0.15 0.16 0.23 0.37 0.39 0.38 0.38 0.79 0.89 1.23 1.44 1.57 1.74 1.72 1.09 1.15 1.30 0.79 1.07 0.81 0.50 0.46 0.59 0.77 0.40 0.55 1.00 1.73 1.35 0.92 0.82 0.99 0.78 1.11 1.27 1.11 1.35 1.28 1.38 1.68
0.11 0.84 0.68 0.26 0.12 0.18 0.27 0.23 0.31 0.67 0.51 0.52 1.26 1.81 2.01 1.61 1.25 0.83 0.81 0.75 0.77 0.88 0.95 1.21 0.96 0.78 0.78 0.43 0.49 0.55 0.78 1.07 2.12 1.86 1.88 1.58 1.48 1.68 1.57 1.69 2.17 1.54 1.24 1.05
0.23 0.74 0.39 0.45 0.61 0.31 0.20 0.25 0.40 0.54 0.81 1.22 1.50 1.61 1.80 1.09 0.70 0.49 0.43 0.48 0.51 0.48 0.65 0.89 0.81 0.85 1.01 0.61 0.71 0.85 1.40 1.66 1.49 1.63 1.79 1.68 1.93 1.43 1.07 0.94 0.74 0.64 0.63 0.55
0.25 0.31 0.39 0.71 0.89 0.73 0.42 0.33 0.35 0.60 0.98 0.97 1.12 1.17 0.82 0.90 0.78 0.56 0.40 0.40 0.48 0.55 0.49 0.49 0.60 0.72 1.07 1.15 0.95 1.04 1.34 1.53 1.28 1.30 1.18 1.33 1.17 1.09 0.90 0.78 0.66 0.71 0.64 0.62
0.11 0.38 0.71 0.55 0.66 0.54 0.97 1.00 1.03 0.78 0.68 0.82 0.93 0.53 0.52 0.45 0.83 0.89 0.61 0.57 0.49 0.69 0.51 0.41 0.38 0.42 0.66 0.87 0.90 0.94 0.89 0.97 1.10 1.26 1.08 0.76 0.60 0.56 0.61 0.60 0.51 0.49 0.46 0.45
0.08 0.26 0.69 1.32 0.84 0.34 0.79 1.00 0.86 0.58 0.68 0.72 0.46 0.48 0.43 0.33 0.50 0.89 0.74 0.70 0.49 0.51 0.74 0.60 0.50 0.39 0.39 0.40 0.48 0.55 0.55 0.60 0.61 0.63 0.66 0.70 0.56 0.60 0.60 0.47 0.49 0.35 0.31 0.39
0.11 0.16 0.22 0.54 0.44 0.18 0.52 0.82 0.48 0.28 0.24 0.25 0.24 0.33 0.29 0.33 0.43 0.60 0.71 0.73 0.56 0.52 0.65 0.76 0.81 0.73 0.73 0.62 0.59 0.56 0.58 0.54 0.56 0.56 0.54 0.47 0.58 0.61 0.67 0.62 0.59 0.63 0.69 0.66
0.21 0.20 0.24 0.35 0.23 0.61 0.89 0.38 0.23 0.21 0.30 0.16 0.16 0.23 0.29 0.37 0.46 0.45 0.53 0.84 0.73 0.70 0.87 0.91 0.91 0.88 0.88 0.74 0.69 0.77 0.80 0.79 0.68 0.63 0.60 0.53 0.52 0.64 0.78 0.75 0.76 0.95 0.94 0.81
0.21 0.30 0.50 0.37 0.32 0.43 0.25 0.07 0.07 0.17 0.20 0.15 0.23 0.49 0.46 0.55 0.63 0.75 1.00 1.20 1.21 0.93 0.67 0.71 0.89 0.99 0.73 0.75 0.68 0.73 0.75 0.91 0.97 0.95 0.90 0.86 0.73 0.79 0.92 1.09 1.14 0.98 0.92 0.97
0.36 0.31 0.47 0.42 0.41 0.40 0.19 0.02 0.00 0.03 0.18 0.08 0.17 0.64 0.63 0.64 0.56 0.62 0.82 1.32 1.18 0.76 0.39 0.29 0.27 0.40 0.73 0.72 0.56 0.58 0.67 0.62 0.83 1.08 1.11 1.22 1.34 1.48 1.58 1.52 1.40 1.47 1.46 1.35
0.29 0.47 0.54 0.43 0.47 0.19 0.02 0.04 0.03 0.26 0.38 0.10 0.07 0.22 0.64 0.84 1.02 1.04 0.98 1.09 0.85 0.61 0.19 0.06 0.03 0.02 0.05 0.29 0.48 0.44 0.45 0.64 0.67 0.72 1.02 1.09 1.27 1.38 1.32 1.49 1.59 1.73 1.97 2.09
0.18 0.41 0.43 0.51 0.52 0.31 0.05 0.16 0.32 0.33 0.15 0.09 0.07 0.05 0.14 0.44 0.52 0.42 0.66 0.64 0.48 0.29 0.06 0.00 0.00 0.00 0.01 0.01 0.05 0.19 0.29 0.35 0.43 0.50 0.46 0.58 0.67 0.71 0.92 0.95 1.03 1.16 1.21 1.35
0.37 0.15 0.20 0.22 0.26 0.31 0.24 0.27 0.27 0.14 0.18 0.16 0.10 0.15 0.27 0.31 0.29 0.37 0.32 0.16 0.06 0.04 0.02 0.01 0.01 0.02 0.02 0.01 0.02 0.04 0.07 0.10 0.13 0.18 0.24 0.30 0.37 0.50 0.55 0.63 0.71 0.69 0.72 0.72
0.58 0.47 0.40 0.53 0.64 0.39 0.48 0.36 0.13 0.11 0.21 0.22 0.16 0.11 0.11 0.10 0.11 0.15 0.13 0.06 0.03 0.02 0.02 0.02 0.02 0.01 0.01 0.01 0.01 0.04 0.03 0.04 0.05 0.07 0.08 0.10 0.18 0.26 0.27 0.35 0.42 0.52 0.60 0.64
0.30 0.57 0.74 0.94 0.81 0.63 0.72 0.73 0.57 0.40 0.18 0.15 0.17 0.14 0.11 0.08 0.08 0.07 0.06 0.05 0.02 0.01 0.01 0.01 0.01 0.01 0.00 0.02 0.02 0.04 0.05 0.05 0.06 0.06 0.09 0.10 0.09 0.11 0.12 0.18 0.34 0.41 0.65 0.79
0.18 0.44 0.83 1.32 1.04 0.91 0.90 0.50 0.36 0.31 0.27 0.15 0.07 0.04 0.03 0.02 0.01 0.01 0.02 0.02 0.01 0.01 0.02 0.02 0.02 0.01 0.02 0.02 0.03 0.03 0.02 0.04 0.07 0.11 0.13 0.21 0.22 0.21 0.21 0.24 0.33 0.47 0.53 0.53

GFSCGP_prec_precacc_138.txt.gz
Total_Precipitation_Accumulation
0.02 0.00 0.01 0.00 0.00 0.00 0.00 0.00 0.00 0.00 0.01 0.00 0.00 0.00 0.00 0.04 0.15 0.07 0.03 0.01 0.01 0.01 0.00 0.02 0.05 0.06 0.08 0.18 0.42 0.64 1.00 0.97 0.47 0.28 0.29 0.43 0.62 0.75 0.70 0.59 0.62 1.00 1.14 1.09
0.04 0.03 0.01 0.01 0.00 0.00 0.00 0.01 0.00 0.00 0.00 0.00 0.01 0.00 0.00 0.00 0.02 0.00 0.00 0.01 0.00 0.01 0.00 0.01 0.04 0.10 0.29 0.44 0.44 0.33 0.15 0.13 0.05 0.06 0.14 0.30 0.42 0.62 0.57 0.47 0.40 0.69 0.88 1.23
0.05 0.02 0.00 0.00 0.00 0.01 0.00 0.00 0.00 0.00 0.00 0.01 0.03 0.01 0.00 0.00 0.00 0.00 0.01 0.03 0.01 0.01 0.01 0.04 0.08 0.13 0.11 0.05 0.02 0.06 0.08 0.14 0.07 0.05 0.20 0.38 0.55 0.75 0.68 0.63 0.33 0.29 0.50 0.83
0.06 0.00 0.01 0.04 0.04 0.01 0.00 0.00 0.01 0.01 0.03 0.08 0.06 0.08 0.01 0.00 0.00 0.00 0.01 0.02 0.03 0.03 0.04 0.03 0.01 0.00 0.01 0.03 0.03 0.06 0.13 0.16 0.10 0.20 0.36 0.35 0.37 0.47 0.34 0.28 0.28 0.26 0.45 0.57
0.12 0.01 0.07 0.08 0.03 0.02 0.01 0.01 0.05 0.05 0.06 0.05 0.04 0.11 0.02 0.02 0.09 0.06 0.03 0.02 0.05 0.03 0.02 0.02 0.02 0.01 0.00 0.05 0.08 0.08 0.15 0.28 0.21 0.21 0.55 0.68 0.65 0.45 0.38 0.35 0.41 0.41 0.44 0.61
0.02 0.02 0.05 0.04 0.01 0.04 0.08 0.05 0.11 0.10 0.13 0.15 0.01 0.06 0.09 0.52 0.52 0.34 0.18 0.11 0.16 0.07 0.06 0.06 0.06 0.04 0.04 0.09 0.12 0.11 0.14 0.24 0.27 0.24 0.39 0.74 1.15 1.50 1.65 1.32 0.90 0.66 0.77 0.82
0.08 0.09 0.01 0.01 0.01 0.04 0.10 0.23 0.42 0.48 0.32 0.11 0.05 0.07 0.24 0.47 0.44 0.43 0.33 0.21 0.17 0.12 0.12 0.12 0.10 0.08 0.09 0.13 0.21 0.22 0.15 0.15 0.15 0.21 0.21 0.28 0.51 0.84 1.33 1.97 2.74 2.67 2.19 1.92
0.18 0.21 0.10 0.00 0.01 0.03 0.08 0.22 0.29 0.33 0.23 0.12 0.09 0.22 0.66 0.57 0.79 0.54 0.79 0.45 0.32 0.24 0.16 0.13 0.14 0.14 0.14 0.20 0.35 0.34 0.33 0.32 0.19 0.22 0.31 0.43 0.51 0.63 0.94 1.08 1.40 2.17 2.88 2.58
0.24 0.21 0.07 0.01 0.04 0.12 0.16 0.16 0.10 0.46 0.30 0.29 0.29 0.77 0.64 0.48 0.78 1.53 0.89 0.51 0.64 0.60 0.35 0.20 0.19 0.26 0.35 0.30 0.39 0.55 0.52 0.62 0.50 0.39 0.38 0.50 0.69 0.69 0.61 0.77 1.39 1.47 1.38 1.55
0.20 0.53 0.20 0.06 0.07 0.07 0.14 0.25 0.43 0.64 0.51 0.54 0.38 0.58 0.82 0.83 1.16 1.00 1.21 1.25 0.67 0.75 0.61 0.34 0.27 0.33 0.34 0.45 0.41 0.56 0.76 1.06 0.78 0.69 0.61 0.63 0.73 0.74 0.85 1.08 1.45 1.84 2.09 1.93
0.23 0.56 0.42 0.16 0.15 0.16 0.24 0.37 0.39 0.38 0.38 0.79 0.89 1.23 1.44 1.57 1.74 1.72 1.09 1.15 1.31 0.80 1.07 0.81 0.50 0.46 0.60 0.78 0.42 0.58 1.03 1.77 1.45 1.03 1.00 1.16 0.95 1.33 1.50 1.30 1.50 1.38 1.45 1.74
0.11 0.84 0.68 0.26 0.12 0.18 0.27 0.23 0.31 0.67 0.51 0.52 1.27 1.82 2.01 1.61 1.25 0.83 0.81 0.75 0.77 0.88 0.95 1.22 0.96 0.78 0.78 0.43 0.51 0.58 0.83 1.15 2.35 2.22 2.29 2.00 2.15 2.56 1.94 1.90 2.28 1.58 1.32 1.21
0.24 0.75 0.39 0.45 0.61 0.31 0.22 0.26 0.40 0.54 0.82 1.23 1.51 1.62 1.80 1.09 0.70 0.49 0.43 0.48 0.51 0.48 0.65 0.89 0.81 0.85 1.01 0.61 0.71 0.88 1.48 1.72 1.66 2.01 2.35 2.25 2.42 1.91 1.66 1.11 0.79 0.64 0.65 0.68
0.26 0.31 0.39 0.72 0.90 0.73 0.43 0.33 0.35 0.60 0.98 0.97 1.12 1.17 0.82 0.90 0.78 0.56 0.40 0.40 0.48 0.55 0.49 0.49 0.60 0.72 1.07 1.15 0.95 1.05 1.36 1.57 1.37 1.51 1.42 1.91 1.84 1.26 1.00 0.94 0.70 0.74 0.65 0.63
0.11 0.39 0.73 0.57 0.67 0.56 1.00 1.01 1.03 0.78 0.68 0.82 0.93 0.53 0.52 0.45 0.83 0.89 0.61 0.57 0.49 0.69 0.51 0.41 0.38 0.42 0.66 0.87 0.90 0.94 0.89 0.97 1.11 1.28 1.10 0.80 0.79 0.69 0.65 0.61 0.51 0.50 0.46 0.45
0.08 0.27 0.70 1.36 0.85 0.34 0.80 1.01 0.86 0.58 0.68 0.72 0.46 0.49 0.43 0.33 0.50 0.89 0.74 0.70 0.49 0.51 0.74 0.60 0.50 0.39 0.39 0.40 0.48 0.55 0.55 0.60 0.61 0.64 0.67 0.72 0.59 0.62 0.61 0.48 0.49 0.35 0.31 0.39
0.12 0.16 0.23 0.54 0.44 0.18 0.52 0.82 0.48 0.28 0.24 0.25 0.24 0.33 0.29 0.33 0.43 0.60 0.71 0.73 0.56 0.52 0.65 0.76 0.81 0.73 0.73 0.62 0.59 0.56 0.58 0.54 0.56 0.56 0.54 0.48 0.59 0.62 0.67 0.62 0.59 0.63 0.69 0.66
0.22 0.20 0.25 0.35 0.24 0.63 0.89 0.38 0.23 0.21 0.30 0.16 0.16 0.23 0.29 0.37 0.46 0.45 0.53 0.84 0.73 0.70 0.87 0.91 0.91 0.88 0.88 0.74 0.69 0.77 0.80 0.79 0.68 0.63 0.60 0.53 0.52 0.64 0.79 0.75 0.76 0.95 0.95 0.81
0.23 0.32 0.52 0.40 0.33 0.44 0.25 0.07 0.07 0.17 0.20 0.15 0.23 0.49 0.46 0.55 0.63 0.75 1.00 1.20 1.21 0.93 0.67 0.71 0.89 0.99 0.73 0.75 0.68 0.73 0.75 0.91 0.97 0.95 0.90 0.86 0.73 0.79 0.92 1.09 1.14 0.98 0.92 0.97
0.40 0.34 0.50 0.43 0.43 0.41 0.19 0.02 0.00 0.03 0.18 0.08 0.17 0.64 0.63 0.64 0.56 0.62 0.82 1.32 1.18 0.76 0.39 0.29 0.27 0.40 0.73 0.72 0.56 0.58 0.67 0.62 0.83 1.08 1.11 1.22 1.34 1.48 1.58 1.52 1.40 1.47 1.46 1.35
0.32 0.49 0.55 0.43 0.47 0.19 0.02 0.04 0.03 0.26 0.38 0.10 0.07 0.22 0.64 0.84 1.02 1.04 0.98 1.09 0.85 0.61 0.19 0.06 0.03 0.02 0.05 0.29 0.48 0.44 0.45 0.64 0.67 0.72 1.02 1.09 1.27 1.38 1.32 1.49 1.59 1.73 1.97 2.09
0.19 0.41 0.43 0.51 0.52 0.31 0.05 0.16 0.32 0.33 0.15 0.09 0.07 0.05 0.14 0.44 0.52 0.42 0.66 0.64 0.48 0.29 0.06 0.00 0.00 0.00 0.01 0.01 0.05 0.19 0.29 0.35 0.43 0.50 0.46 0.58 0.67 0.71 0.92 0.95 1.03 1.16 1.21 1.35
0.37 0.15 0.20 0.22 0.26 0.31 0.24 0.27 0.27 0.14 0.18 0.16 0.10 0.15 0.27 0.31 0.29 0.37 0.32 0.16 0.06 0.04 0.02 0.01 0.01 0.02 0.02 0.01 0.02 0.04 0.07 0.10 0.13 0.18 0.24 0.30 0.37 0.50 0.55 0.63 0.71 0.69 0.72 0.72
0.58 0.47 0.40 0.53 0.64 0.39 0.48 0.36 0.13 0.11 0.21 0.22 0.16 0.11 0.11 0.10 0.11 0.15 0.13 0.06 0.03 0.02 0.02 0.02 0.02 0.01 0.01 0.01 0.01 0.04 0.03 0.04 0.05 0.07 0.08 0.10 0.18 0.26 0.27 0.35 0.42 0.52 0.60 0.64
0.30 0.57 0.74 0.94 0.81 0.63 0.72 0.73 0.57 0.40 0.18 0.15 0.17 0.14 0.11 0.08 0.08 0.07 0.06 0.05 0.03 0.01 0.01 0.01 0.01 0.01 0.00 0.02 0.02 0.04 0.05 0.05 0.06 0.06 0.09 0.10 0.09 0.11 0.12 0.18 0.34 0.41 0.66 0.80
0.18 0.44 0.83 1.32 1.04 0.91 0.90 0.50 0.36 0.31 0.27 0.15 0.07 0.04 0.03 0.02 0.01 0.01 0.02 0.02 0.01 0.01 0.02 0.02 0.02 0.01 0.02 0.02 0.03 0.03 0.02 0.04 0.07 0.11 0.13 0.21 0.22 0.21 0.21 0.24 0.33 0.47 0.53 0.53

GFSCGP_prec_precacc_144.txt.gz
Total_Precipitation_Accumulation
0.02 0.00 0.01 0.00 0.00 0.00 0.00 0.00 0.00 0.00 0.01 0.00 0.00 0.00 0.00 0.04 0.15 0.07 0.03 0.01 0.01 0.01 0.00 0.02 0.05 0.06 0.08 0.18 0.42 0.64 1.00 0.97 0.47 0.28 0.29 0.43 0.62 0.75 0.70 0.59 0.62 1.00 1.15 1.19
0.04 0.03 0.01 0.01 0.00 0.00 0.00 0.01 0.00 0.00 0.00 0.00 0.01 0.00 0.00 0.00 0.02 0.00 0.00 0.01 0.00 0.01 0.00 0.01 0.04 0.10 0.29 0.44 0.44 0.33 0.15 0.13 0.05 0.06 0.14 0.30 0.42 0.62 0.57 0.47 0.40 0.69 0.88 1.26
0.05 0.02 0.00 0.00 0.00 0.01 0.00 0.00 0.00 0.00 0.00 0.01 0.03 0.01 0.00 0.00 0.00 0.00 0.01 0.03 0.01 0.01 0.01 0.04 0.08 0.13 0.11 0.05 0.02 0.06 0.08 0.14 0.07 0.05 0.20 0.38 0.55 0.75 0.68 0.63 0.33 0.29 0.50 0.83
0.06 0.00 0.01 0.04 0.04 0.01 0.00 0.00 0.01 0.01 0.03 0.08 0.06 0.08 0.01 0.00 0.00 0.00 0.01 0.02 0.03 0.03 0.04 0.03 0.01 0.00 0.01 0.03 0.03 0.06 0.13 0.16 0.10 0.20 0.36 0.35 0.37 0.48 0.35 0.29 0.28 0.26 0.45 0.57
0.12 0.01 0.07 0.08 0.03 0.02 0.01 0.01 0.05 0.05 0.06 0.05 0.04 0.11 0.02 0.02 0.09 0.06 0.03 0.02 0.05 0.03 0.02 0.02 0.02 0.01 0.00 0.05 0.08 0.08 0.15 0.28 0.21 0.21 0.55 0.68 0.66 0.46 0.39 0.36 0.42 0.41 0.44 0.61
0.02 0.02 0.05 0.04 0.01 0.04 0.08 0.05 0.11 0.10 0.13 0.15 0.01 0.06 0.09 0.52 0.52 0.34 0.18 0.11 0.16 0.07 0.06 0.06 0.06 0.04 0.04 0.09 0.12 0.11 0.14 0.24 0.27 0.24 0.39 0.75 1.16 1.51 1.66 1.34 0.92 0.68 0.78 0.83
0.08 0.09 0.01 0.01 0.01 0.04 0.10 0.23 0.42 0.48 0.32 0.11 0.05 0.07 0.24 0.47 0.44 0.43 0.33 0.21 0.17 0.12 0.12 0.12 0.10 0.08 0.09 0.13 0.21 0.22 0.15 0.15 0.15 0.21 0.21 0.28 0.52 0.85 1.33 1.99 2.77 2.69 2.21 1.94
0.18 0.21 0.10 0.00 0.01 0.03 0.08 0.22 0.29 0.33 0.23 0.12 0.09 0.22 0.66 0.57 0.79 0.54 0.79 0.45 0.32 0.24 0.16 0.13 0.14 0.14 0.14 0.20 0.35 0.34 0.33 0.32 0.20 0.22 0.31 0.44 0.52 0.64 0.96 1.09 1.41 2.19 2.92 2.63
0.24 0.21 0.07 0.01 0.04 0.12 0.16 0.16 0.10 0.47 0.31 0.30 0.29 0.77 0.64 0.48 0.78 1.53 0.89 0.51 0.64 0.60 0.35 0.20 0.19 0.26 0.35 0.30 0.39 0.56 0.54 0.63 0.51 0.41 0.39 0.52 0.72 0.71 0.63 0.78 1.40 1.49 1.44 1.62
0.20 0.53 0.20 0.06 0.07 0.07 0.14 0.25 0.43 0.66 0.53 0.54 0.38 0.58 0.82 0.83 1.16 1.00 1.21 1.25 0.67 0.75 0.61 0.34 0.27 0.33 0.34 0.45 0.41 0.56 0.77 1.09 0.82 0.72 0.64 0.69 0.80 0.79 0.91 1.12 1.48 1.89 2.18 2.03
0.23 0.56 0.42 0.16 0.15 0.16 0.24 0.38 0.39 0.39 0.38 0.79 0.89 1.23 1.44 1.57 1.74 1.72 1.09 1.15 1.31 0.80 1.07 0.81 0.50 0.46 0.60 0.78 0.42 0.58 1.04 1.80 1.49 1.10 1.10 1.25 1.05 1.41 1.57 1.39 1.64 1.56 1.65 1.98
0.11 0.84 0.68 0.26 0.12 0.18 0.27 0.23 0.32 0.74 0.53 0.53 1.27 1.82 2.01 1.61 1.25 0.83 0.81 0.75 0.77 0.88 0.95 1.22 0.96 0.78 0.78 0.43 0.51 0.58 0.84 1.19 2.42 2.37 2.50 2.20 2.39 2.82 2.19 2.28 2.67 2.09 1.81 1.55
0.24 0.75 0.39 0.45 0.61 0.31 0.23 0.27 0.42 0.58 0.89 1.28 1.53 1.62 1.80 1.09 0.70 0.49 0.43 0.48 0.51 0.48 0.65 0.89 0.81 0.85 1.01 0.61 0.71 0.88 1.48 1.72 1.66 2.06 2.50 2.40 2.71 2.55 2.50 2.09 1.75 1.44 1.31 1.21
0.27 0.32 0.39 0.72 0.90 0.74 0.43 0.35 0.40 0.70 1.15 1.05 1.14 1.17 0.82 0.90 0.78 0.56 0.40 0.40 0.48 0.55 0.49 0.49 0.60 0.72 1.07 1.15 0.95 1.05 1.36 1.57 1.37 1.51 1.43 2.05 2.03 1.42 1.41 1.82 1.43 1.29 1.14 1.21
0.14 0.40 0.73 0.57 0.68 0.58 1.03 1.03 1.05 0.83 0.74 0.91 0.96 0.54 0.52 0.45 0.83 0.89 0.61 0.57 0.49 0.69 0.51 0.41 0.38 0.42 0.66 0.87 0.90 0.94 0.89 0.97 1.11 1.28 1.10 0.81 0.87 0.81 0.68 0.68 0.76 0.73 0.61 0.71
0.12 0.30 0.74 1.39 0.87 0.39 0.87 1.04 0.89 0.61 0.70 0.74 0.47 0.49 0.43 0.33 0.50 0.89 0.74 0.70 0.49 0.51 0.74 0.60 0.50 0.39 0.39 0.40 0.48 0.55 0.55 0.60 0.61 0.64 0.67 0.72 0.60 0.65 0.66 0.51 0.53 0.37 0.32 0.41
0.19 0.24 0.31 0.61 0.45 0.25 0.60 0.82 0.48 0.28 0.24 0.25 0.24 0.33 0.29 0.33 0.43 0.60 0.71 0.73 0.56 0.52 0.65 0.76 0.81 0.73 0.73 0.62 0.59 0.56 0.58 0.54 0.56 0.56 0.54 0.48 0.59 0.62 0.68 0.63 0.60 0.65 0.71 0.66
0.24 0.28 0.40 0.45 0.27 0.67 0.90 0.38 0.23 0.21 0.30 0.16 0.16 0.23 0.29 0.37 0.46 0.45 0.53 0.84 0.73 0.70 0.87 0.91 0.91 0.88 0.88 0.74 0.69 0.77 0.80 0.79 0.68 0.63 0.60 0.53 0.52 0.64 0.79 0.75 0.76 0.95 0.95 0.81
0.24 0.39 0.66 0.49 0.38 0.44 0.25 0.07 0.07 0.17 0.20 0.15 0.23 0.49 0.46 0.55 0.63 0.75 1.00 1.20 1.21 0.93 0.67 0.71 0.89 0.99 0.73 0.75 0.68 0.73 0.75 0.91 0.97 0.95 0.90 0.86 0.73 0.79 0.92 1.09 1.14 0.98 0.92 0.97
0.44 0.40 0.61 0.51 0.47 0.42 0.19 0.02 0.00 0.03 0.18 0.08 0.17 0.64 0.63 0.64 0.56 0.62 0.82 1.32 1.18 0.76 0.39 0.29 0.27 0.40 0.73 0.72 0.56 0.58 0.67 0.62 0.83 1.08 1.11 1.22 1.34 1.48 1.58 1.52 1.40 1.47 1.46 1.35
0.39 0.69 0.76 0.52 0.54 0.20 0.02 0.04 0.03 0.26 0.38 0.10 0.07 0.22 0.64 0.84 1.02 1.04 0.98 1.09 0.85 0.61 0.19 0.06 0.03 0.02 0.05 0.29 0.48 0.44 0.45 0.64 0.67 0.72 1.02 1.09 1.27 1.38 1.32 1.49 1.59 1.73 1.97 2.09
0.21 0.47 0.52 0.62 0.61 0.32 0.05 0.16 0.32 0.33 0.15 0.09 0.07 0.05 0.14 0.44 0.52 0.42 0.66 0.64 0.48 0.29 0.06 0.00 0.00 0.00 0.01 0.01 0.05 0.19 0.29 0.35 0.43 0.50 0.46 0.58 0.67 0.71 0.92 0.95 1.03 1.16 1.21 1.35
0.38 0.15 0.20 0.23 0.27 0.31 0.24 0.27 0.27 0.14 0.18 0.16 0.10 0.15 0.27 0.31 0.29 0.37 0.32 0.16 0.06 0.04 0.02 0.01 0.01 0.02 0.02 0.01 0.02 0.04 0.07 0.10 0.13 0.18 0.24 0.30 0.37 0.50 0.55 0.63 0.71 0.69 0.72 0.72
0.58 0.47 0.40 0.53 0.64 0.39 0.48 0.36 0.13 0.11 0.21 0.22 0.16 0.11 0.11 0.10 0.11 0.15 0.13 0.07 0.04 0.03 0.02 0.02 0.02 0.01 0.01 0.01 0.01 0.04 0.03 0.04 0.05 0.07 0.08 0.10 0.18 0.26 0.27 0.35 0.42 0.52 0.60 0.64
0.31 0.58 0.74 0.94 0.81 0.63 0.72 0.73 0.57 0.40 0.18 0.15 0.17 0.14 0.11 0.08 0.08 0.08 0.07 0.06 0.04 0.01 0.01 0.01 0.02 0.02 0.00 0.02 0.02 0.04 0.05 0.05 0.06 0.06 0.09 0.10 0.09 0.11 0.12 0.18 0.34 0.42 0.68 0.81
0.18 0.44 0.83 1.32 1.04 0.91 0.90 0.50 0.36 0.31 0.27 0.15 0.07 0.04 0.03 0.02 0.01 0.02 0.04 0.04 0.02 0.03 0.03 0.02 0.02 0.01 0.02 0.02 0.03 0.03 0.02 0.04 0.07 0.11 0.13 0.21 0.22 0.21 0.21 0.24 0.33 0.47 0.53 0.54

GFSCGP_prec_precacc_147.txt.gz
Total_Precipitation_Accumulation
0.02 0.00 0.01 0.00 0.00 0.00 0.00 0.00 0.00 0.00 0.01 0.00 0.00 0.00 0.00 0.04 0.15 0.07 0.03 0.01 0.01 0.01 0.00 0.02 0.05 0.06 0.08 0.18 0.42 0.64 1.00 0.97 0.47 0.28 0.29 0.43 0.62 0.75 0.70 0.59 0.62 1.00 1.15 1.19
0.04 0.03 0.01 0.01 0.00 0.00 0.00 0.01 0.00 0.00 0.00 0.00 0.01 0.00 0.00 0.00 0.02 0.00 0.00 0.01 0.00 0.01 0.00 0.01 0.04 0.10 0.29 0.44 0.44 0.33 0.15 0.13 0.05 0.06 0.14 0.30 0.42 0.62 0.57 0.47 0.40 0.69 0.88 1.26
0.05 0.02 0.00 0.00 0.00 0.01 0.00 0.00 0.00 0.00 0.00 0.01 0.03 0.01 0.00 0.00 0.00 0.00 0.01 0.03 0.01 0.01 0.01 0.04 0.08 0.13 0.11 0.05 0.02 0.06 0.08 0.14 0.07 0.05 0.20 0.38 0.56 0.76 0.68 0.64 0.34 0.29 0.50 0.83
0.06 0.00 0.01 0.04 0.04 0.01 0.00 0.00 0.01 0.01 0.03 0.08 0.06 0.08 0.01 0.00 0.00 0.00 0.01 0.02 0.03 0.03 0.04 0.03 0.01 0.00 0.01 0.03 0.03 0.06 0.13 0.16 0.10 0.20 0.36 0.35 0.38 0.49 0.36 0.29 0.29 0.26 0.45 0.57
0.12 0.01 0.07 0.08 0.03 0.02 0.01 0.01 0.05 0.05 0.06 0.05 0.04 0.11 0.02 0.02 0.09 0.06 0.03 0.02 0.05 0.03 0.02 0.02 0.02 0.01 0.00 0.05 0.08 0.08 0.15 0.28 0.21 0.21 0.55 0.69 0.66 0.47 0.40 0.37 0.43 0.42 0.45 0.62
0.02 0.02 0.05 0.04 0.01 0.04 0.08 0.05 0.11 0.10 0.13 0.15 0.01 0.06 0.09 0.52 0.52 0.34 0.18 0.11 0.16 0.07 0.06 0.06 0.06 0.04 0.04 0.09 0.12 0.11 0.14 0.24 0.27 0.24 0.39 0.75 1.16 1.51 1.66 1.34 0.93 0.68 0.79 0.84
0.08 0.09 0.01 0.01 0.01 0.04 0.10 0.23 0.42 0.48 0.32 0.11 0.05 0.07 0.24 0.47 0.44 0.43 0.33 0.21 0.17 0.12 0.12 0.12 0.10 0.08 0.09 0.13 0.21 0.22 0.15 0.15 0.15 0.21 0.21 0.29 0.53 0.86 1.34 2.00 2.77 2.69 2.21 1.94
0.18 0.21 0.10 0.00 0.01 0.03 0.08 0.22 0.29 0.33 0.23 0.12 0.09 0.22 0.66 0.57 0.79 0.54 0.79 0.45 0.32 0.24 0.16 0.13 0.14 0.14 0.14 0.20 0.35 0.34 0.33 0.32 0.20 0.22 0.31 0.45 0.53 0.65 0.97 1.10 1.42 2.19 2.93 2.63
0.24 0.21 0.07 0.01 0.04 0.12 0.16 0.16 0.10 0.48 0.32 0.32 0.29 0.77 0.64 0.48 0.78 1.53 0.89 0.51 0.64 0.60 0.35 0.20 0.19 0.26 0.35 0.30 0.39 0.56 0.54 0.63 0.51 0.41 0.39 0.52 0.72 0.72 0.64 0.79 1.41 1.49 1.44 1.62
0.20 0.53 0.20 0.06 0.07 0.07 0.14 0.25 0.43 0.67 0.56 0.56 0.38 0.58 0.82 0.83 1.16 1.00 1.21 1.25 0.67 0.75 0.61 0.34 0.27 0.33 0.34 0.45 0.41 0.56 0.77 1.09 0.82 0.72 0.64 0.69 0.80 0.79 0.92 1.13 1.49 1.90 2.19 2.03
0.23 0.56 0.42 0.16 0.15 0.16 0.24 0.38 0.39 0.40 0.40 0.82 0.90 1.23 1.44 1.57 1.74 1.72 1.09 1.15 1.31 0.80 1.07 0.81 0.50 0.46 0.60 0.78 0.42 0.58 1.04 1.80 1.49 1.10 1.10 1.26 1.05 1.41 1.58 1.41 1.66 1.59 1.68 2.00
0.11 0.84 0.68 0.26 0.12 0.18 0.27 0.23 0.33 0.76 0.56 0.56 1.29 1.83 2.01 1.61 1.25 0.83 0.81 0.75 0.77 0.88 0.95 1.22 0.96 0.78 0.78 0.43 0.51 0.58 0.84 1.19 2.42 2.37 2.50 2.20 2.39 2.82 2.21 2.34 2.73 2.16 1.89 1.62
0.24 0.75 0.39 0.45 0.61 0.31 0.23 0.27 0.45 0.60 0.92 1.33 1.63 1.65 1.80 1.09 0.70 0.49 0.43 0.48 0.51 0.48 0.65 0.89 0.81 0.85 1.01 0.61 0.71 0.88 1.48 1.72 1.66 2.06 2.50 2.40 2.71 2.55 2.50 2.11 1.78 1.50 1.43 1.42
0.28 0.32 0.39 0.72 0.90 0.74 0.43 0.35 0.43 0.75 1.22 1.09 1.17 1.18 0.82 0.90 0.78 0.56 0.40 0.40 0.48 0.55 0.49 0.49 0.60 0.72 1.07 1.15 0.95 1.05 1.36 1.57 1.37 1.51 1.43 2.05 2.03 1.42 1.41 1.82 1.43 1.32 1.23 1.42
0.15 0.41 0.73 0.57 0.68 0.58 1.03 1.03 1.05 0.83 0.75 0.94 0.96 0.55 0.52 0.45 0.84 0.89 0.61 0.57 0.49 0.69 0.51 0.41 0.38 0.42 0.66 0.87 0.90 0.94 0.89 0.97 1.11 1.28 1.10 0.81 0.87 0.81 0.68 0.68 0.76 0.73 0.61 0.77
0.14 0.31 0.74 1.39 0.87 0.39 0.87 1.05 0.89 0.61 0.70 0.74 0.47 0.49 0.43 0.33 0.50 0.89 0.74 0.70 0.49 0.51 0.74 0.60 0.50 0.39 0.39 0.40 0.48 0.55 0.55 0.60 0.61 0.64 0.67 0.72 0.60 0.65 0.66 0.51 0.53 0.37 0.32 0.41
0.20 0.26 0.33 0.62 0.45 0.25 0.61 0.82 0.48 0.28 0.24 0.25 0.24 0.33 0.29 0.33 0.43 0.60 0.71 0.73 0.56 0.52 0.65 0.76 0.81 0.73 0.73 0.62 0.59 0.56 0.58 0.54 0.56 0.56 0.54 0.48 0.59 0.62 0.68 0.63 0.60 0.65 0.71 0.66
0.25 0.30 0.46 0.50 0.31 0.70 0.90 0.38 0.23 0.21 0.30 0.16 0.16 0.23 0.29 0.37 0.46 0.45 0.53 0.84 0.73 0.70 0.87 0.91 0.91 0.88 0.88 0.74 0.69 0.77 0.80 0.79 0.68 0.63 0.60 0.53 0.52 0.64 0.79 0.75 0.76 0.95 0.95 0.81
0.25 0.40 0.69 0.54 0.42 0.45 0.25 0.07 0.07 0.17 0.20 0.15 0.23 0.49 0.46 0.55 0.63 0.75 1.00 1.20 1.21 0.93 0.67 0.71 0.89 0.99 0.73 0.75 0.68 0.73 0.75 0.91 0.97 0.95 0.90 0.86 0.73 0.79 0.92 1.09 1.14 0.98 0.92 0.97
0.44 0.41 0.64 0.58 0.52 0.43 0.19 0.02 0.00 0.03 0.18 0.08 0.17 0.64 0.63 0.64 0.56 0.62 0.82 1.32 1.18 0.76 0.39 0.29 0.27 0.40 0.73 0.72 0.56 0.58 0.67 0.62 0.83 1.08 1.11 1.22 1.34 1.48 1.58 1.52 1.40 1.47 1.46 1.35
0.40 0.72 0.81 0.56 0.60 0.21 0.02 0.04 0.03 0.26 0.38 0.10 0.07 0.22 0.64 0.84 1.02 1.04 0.98 1.09 0.85 0.61 0.19 0.06 0.03 0.02 0.05 0.29 0.48 0.44 0.45 0.64 0.67 0.72 1.02 1.09 1.27 1.38 1.32 1.49 1.59 1.73 1.97 2.09
0.21 0.50 0.56 0.64 0.65 0.33 0.05 0.16 0.32 0.33 0.15 0.09 0.07 0.05 0.14 0.44 0.52 0.42 0.66 0.64 0.48 0.29 0.06 0.00 0.00 0.00 0.01 0.01 0.05 0.19 0.29 0.35 0.43 0.50 0.46 0.58 0.67 0.71 0.92 0.95 1.03 1.16 1.21 1.35
0.38 0.15 0.20 0.23 0.27 0.31 0.24 0.27 0.27 0.14 0.18 0.16 0.10 0.15 0.27 0.31 0.29 0.37 0.32 0.16 0.06 0.04 0.02 0.01 0.01 0.02 0.02 0.01 0.02 0.04 0.07 0.10 0.13 0.18 0.24 0.30 0.37 0.50 0.55 0.63 0.71 0.69 0.72 0.72
0.58 0.47 0.40 0.53 0.64 0.39 0.48 0.36 0.13 0.11 0.21 0.22 0.16 0.11 0.11 0.10 0.11 0.15 0.13 0.07 0.04 0.03 0.02 0.02 0.02 0.01 0.01 0.01 0.01 0.04 0.03 0.04 0.05 0.07 0.08 0.10 0.18 0.26 0.27 0.35 0.42 0.52 0.60 0.64
0.31 0.58 0.74 0.94 0.81 0.63 0.72 0.73 0.57 0.40 0.18 0.15 0.17 0.14 0.11 0.08 0.08 0.08 0.07 0.06 0.04 0.01 0.01 0.01 0.02 0.02 0.00 0.02 0.02 0.04 0.05 0.05 0.06 0.06 0.09 0.10 0.09 0.11 0.12 0.18 0.34 0.42 0.68 0.81
0.18 0.44 0.83 1.32 1.04 0.91 0.90 0.50 0.36 0.31 0.27 0.15 0.07 0.04 0.03 0.02 0.01 0.02 0.04 0.04 0.02 0.03 0.03 0.02 0.02 0.01 0.02 0.02 0.03 0.03 0.02 0.04 0.07 0.11 0.13 0.21 0.22 0.21 0.21 0.24 0.33 0.47 0.53 0.54

GFSCGP_prec_precacc_150.txt.gz
Total_Precipitation_Accumulation
0.02 0.00 0.01 0.00 0.00 0.00 0.00 0.00 0.00 0.00 0.01 0.00 0.00 0.00 0.00 0.04 0.15 0.07 0.03 0.01 0.01 0.01 0.00 0.02 0.05 0.06 0.08 0.18 0.42 0.64 1.00 0.97 0.47 0.28 0.29 0.43 0.62 0.75 0.70 0.59 0.62 1.00 1.15 1.19
0.04 0.03 0.01 0.01 0.00 0.00 0.00 0.01 0.00 0.00 0.00 0.00 0.01 0.00 0.00 0.00 0.02 0.00 0.00 0.01 0.00 0.01 0.00 0.01 0.04 0.10 0.29 0.44 0.44 0.33 0.15 0.13 0.05 0.06 0.14 0.30 0.42 0.62 0.57 0.47 0.40 0.69 0.88 1.26
0.05 0.02 0.00 0.00 0.00 0.01 0.00 0.00 0.00 0.00 0.00 0.01 0.03 0.01 0.00 0.00 0.00 0.00 0.01 0.03 0.01 0.01 0.01 0.04 0.08 0.13 0.11 0.05 0.02 0.06 0.08 0.14 0.07 0.05 0.20 0.38 0.56 0.76 0.68 0.64 0.34 0.29 0.50 0.84
0.06 0.00 0.01 0.04 0.04 0.01 0.00 0.00 0.01 0.01 0.03 0.08 0.06 0.08 0.01 0.00 0.00 0.00 0.01 0.02 0.03 0.03 0.04 0.03 0.01 0.00 0.01 0.03 0.03 0.06 0.13 0.16 0.10 0.20 0.36 0.35 0.38 0.49 0.36 0.29 0.29 0.26 0.45 0.58
0.12 0.01 0.07 0.08 0.03 0.02 0.01 0.01 0.05 0.05 0.06 0.05 0.04 0.11 0.02 0.02 0.09 0.06 0.03 0.02 0.05 0.03 0.02 0.02 0.02 0.01 0.00 0.05 0.08 0.08 0.15 0.28 0.21 0.21 0.55 0.69 0.66 0.47 0.40 0.37 0.43 0.42 0.45 0.62
0.02 0.02 0.05 0.04 0.01 0.04 0.08 0.05 0.11 0.10 0.13 0.15 0.01 0.06 0.09 0.52 0.52 0.34 0.18 0.11 0.16 0.07 0.06 0.06 0.06 0.04 0.04 0.09 0.12 0.11 0.14 0.24 0.27 0.24 0.39 0.75 1.17 1.51 1.66 1.35 0.93 0.68 0.79 0.84
0.08 0.09 0.01 0.01 0.01 0.04 0.10 0.23 0.42 0.48 0.32 0.11 0.05 0.07 0.24 0.47 0.44 0.43 0.33 0.21 0.17 0.12 0.12 0.12 0.10 0.08 0.09 0.13 0.21 0.22 0.15 0.15 0.15 0.21 0.21 0.29 0.53 0.86 1.35 2.00 2.78 2.69 2.21 1.94
0.18 0.21 0.10 0.00 0.01 0.03 0.08 0.22 0.29 0.34 0.24 0.12 0.09 0.22 0.66 0.57 0.79 0.54 0.79 0.45 0.32 0.24 0.16 0.13 0.14 0.14 0.14 0.20 0.35 0.34 0.33 0.32 0.20 0.22 0.31 0.45 0.53 0.65 0.97 1.10 1.43 2.21 2.94 2.64
0.24 0.21 0.07 0.01 0.04 0.12 0.16 0.16 0.10 0.48 0.33 0.34 0.29 0.77 0.64 0.48 0.78 1.53 0.89 0.51 0.64 0.60 0.35 0.20 0.19 0.26 0.35 0.30 0.39 0.56 0.54 0.63 0.51 0.41 0.39 0.52 0.72 0.72 0.65 0.80 1.42 1.51 1.45 1.64
0.20 0.53 0.20 0.06 0.07 0.07 0.14 0.25 0.44 0.70 0.59 0.60 0.38 0.58 0.82 0.83 1.16 1.00 1.21 1.25 0.67 0.75 0.61 0.34 0.27 0.33 0.34 0.45 0.41 0.56 0.77 1.09 0.82 0.72 0.64 0.69 0.80 0.79 0.92 1.13 1.50 1.91 2.20 2.04
0.23 0.56 0.42 0.16 0.15 0.16 0.24 0.38 0.40 0.44 0.43 0.87 0.92 1.23 1.45 1.57 1.74 1.72 1.09 1.15 1.31 0.80 1.07 0.81 0.50 0.46 0.60 0.78 0.42 0.58 1.04 1.80 1.49 1.10 1.10 1.26 1.05 1.42 1.58 1.41 1.66 1.60 1.69 2.02
0.11 0.84 0.68 0.26 0.12 0.18 0.27 0.23 0.34 0.80 0.61 0.62 1.36 1.84 2.01 1.61 1.25 0.83 0.81 0.75 0.77 0.88 0.95 1.22 0.96 0.78 0.78 0.43 0.51 0.58 0.84 1.19 2.42 2.37 2.50 2.20 2.39 2.83 2.21 2.35 2.73 2.17 1.93 1.66
0.24 0.75 0.39 0.45 0.61 0.32 0.23 0.28 0.46 0.63 0.95 1.36 1.68 1.67 1.80 1.09 0.70 0.49 0.43 0.48 0.51 0.48 0.65 0.89 0.81 0.85 1.01 0.61 0.71 0.88 1.48 1.72 1.66 2.06 2.50 2.40 2.71 2.55 2.50 2.11 1.79 1.51 1.44 1.43
0.28 0.32 0.39 0.72 0.90 0.75 0.43 0.35 0.44 0.78 1.26 1.12 1.20 1.19 0.83 0.90 0.78 0.56 0.40 0.40 0.48 0.55 0.49 0.49 0.60 0.72 1.07 1.15 0.95 1.05 1.36 1.57 1.37 1.51 1.43 2.05 2.03 1.42 1.41 1.82 1.43 1.32 1.23 1.45
0.16 0.41 0.73 0.57 0.68 0.59 1.03 1.03 1.05 0.84 0.75 0.95 0.97 0.55 0.52 0.45 0.84 0.89 0.61 0.57 0.49 0.69 0.51 0.41 0.38 0.42 0.66 0.87 0.90 0.94 0.89 0.97 1.11 1.28 1.10 0.81 0.87 0.81 0.68 0.68 0.76 0.73 0.61 0.77
0.16 0.33 0.75 1.40 0.88 0.40 0.88 1.05 0.89 0.61 0.70 0.74 0.47 0.49 0.43 0.33 0.50 0.89 0.74 0.70 0.49 0.51 0.74 0.60 0.50 0.39 0.39 0.40 0.48 0.55 0.55 0.60 0.61 0.64 0.67 0.72 0.60 0.65 0.66 0.51 0.53 0.37 0.32 0.41
0.20 0.26 0.34 0.62 0.46 0.26 0.61 0.82 0.48 0.28 0.24 0.25 0.24 0.33 0.29 0.33 0.43 0.60 0.71 0.73 0.56 0.52 0.65 0.76 0.81 0.73 0.73 0.62 0.59 0.56 0.58 0.54 0.56 0.56 0.54 0.48 0.59 0.62 0.68 0.63 0.60 0.65 0.71 0.66
0.26 0.31 0.47 0.52 0.35 0.74 0.90 0.38 0.23 0.21 0.30 0.16 0.16 0.23 0.29 0.37 0.46 0.45 0.53 0.84 0.73 0.70 0.87 0.91 0.91 0.88 0.88 0.74 0.69 0.77 0.80 0.79 0.68 0.63 0.60 0.53 0.52 0.64 0.79 0.75 0.76 0.95 0.95 0.81
0.26 0.42 0.73 0.58 0.44 0.46 0.25 0.07 0.07 0.17 0.20 0.15 0.23 0.49 0.46 0.55 0.63 0.75 1.00 1.20 1.21 0.93 0.67 0.71 0.89 0.99 0.73 0.75 0.68 0.73 0.75 0.91 0.97 0.95 0.90 0.86 0.73 0.79 0.92 1.09 1.14 0.98 0.92 0.97
0.46 0.44 0.68 0.62 0.56 0.43 0.19 0.02 0.00 0.03 0.18 0.08 0.17 0.64 0.63 0.64 0.56 0.62 0.82 1.32 1.18 0.76 0.39 0.29 0.27 0.40 0.73 0.72 0.56 0.58 0.67 0.62 0.83 1.08 1.11 1.22 1.34 1.48 1.58 1.52 1.40 1.47 1.46 1.35
0.41 0.75 0.85 0.59 0.66 0.23 0.02 0.04 0.03 0.26 0.38 0.10 0.07 0.22 0.64 0.84 1.02 1.04 0.98 1.09 0.85 0.61 0.19 0.06 0.03 0.02 0.05 0.29 0.48 0.44 0.45 0.64 0.67 0.72 1.02 1.09 1.27 1.38 1.32 1.49 1.59 1.73 1.97 2.09
0.22 0.53 0.59 0.68 0.71 0.35 0.05 0.16 0.32 0.33 0.15 0.09 0.07 0.05 0.14 0.44 0.52 0.42 0.66 0.64 0.48 0.29 0.06 0.00 0.00 0.00 0.01 0.01 0.05 0.19 0.29 0.35 0.43 0.50 0.46 0.58 0.67 0.71 0.92 0.95 1.03 1.16 1.21 1.35
0.39 0.16 0.22 0.25 0.28 0.31 0.24 0.27 0.27 0.14 0.18 0.16 0.10 0.15 0.27 0.31 0.29 0.37 0.32 0.16 0.06 0.04 0.02 0.01 0.01 0.02 0.02 0.01 0.02 0.04 0.07 0.10 0.13 0.18 0.24 0.30 0.37 0.50 0.55 0.63 0.71 0.69 0.72 0.72
0.59 0.47 0.40 0.54 0.64 0.39 0.48 0.36 0.13 0.11 0.21 0.22 0.16 0.11 0.11 0.10 0.11 0.15 0.13 0.07 0.04 0.03 0.02 0.02 0.02 0.01 0.01 0.01 0.01 0.04 0.03 0.04 0.05 0.07 0.08 0.10 0.18 0.26 0.27 0.35 0.42 0.52 0.60 0.64
0.32 0.58 0.74 0.95 0.81 0.63 0.72 0.73 0.57 0.40 0.18 0.15 0.17 0.14 0.11 0.08 0.08 0.08 0.07 0.06 0.04 0.01 0.01 0.01 0.02 0.02 0.00 0.02 0.02 0.04 0.05 0.05 0.06 0.06 0.09 0.10 0.09 0.11 0.12 0.18 0.34 0.42 0.68 0.81
0.18 0.44 0.84 1.35 1.04 0.91 0.90 0.50 0.36 0.31 0.27 0.15 0.07 0.04 0.03 0.02 0.01 0.02 0.04 0.04 0.02 0.03 0.03 0.02 0.02 0.01 0.02 0.02 0.03 0.03 0.02 0.04 0.07 0.11 0.13 0.21 0.22 0.21 0.21 0.24 0.33 0.47 0.53 0.54

GFSCGP_prec_precacc_153.txt.gz
Total_Precipitation_Accumulation
0.02 0.00 0.01 0.00 0.00 0.00 0.00 0.00 0.00 0.00 0.01 0.00 0.00 0.00 0.00 0.04 0.15 0.07 0.03 0.01 0.01 0.01 0.00 0.02 0.05 0.06 0.08 0.18 0.42 0.64 1.00 0.97 0.47 0.28 0.29 0.43 0.62 0.75 0.70 0.59 0.62 1.00 1.15 1.19
0.04 0.03 0.01 0.01 0.00 0.00 0.00 0.01 0.00 0.00 0.00 0.00 0.01 0.00 0.00 0.00 0.02 0.00 0.00 0.01 0.00 0.01 0.00 0.01 0.04 0.10 0.29 0.44 0.44 0.33 0.15 0.13 0.05 0.06 0.14 0.30 0.42 0.62 0.57 0.47 0.40 0.69 0.88 1.26
0.05 0.02 0.00 0.00 0.00 0.01 0.00 0.00 0.00 0.00 0.00 0.01 0.03 0.01 0.00 0.00 0.00 0.00 0.01 0.03 0.01 0.01 0.01 0.04 0.08 0.13 0.11 0.05 0.02 0.06 0.08 0.14 0.07 0.05 0.20 0.38 0.56 0.76 0.68 0.64 0.34 0.29 0.50 0.84
0.06 0.00 0.01 0.04 0.04 0.01 0.00 0.00 0.01 0.01 0.03 0.08 0.06 0.08 0.01 0.00 0.00 0.00 0.01 0.02 0.03 0.03 0.04 0.03 0.01 0.00 0.01 0.03 0.03 0.06 0.13 0.16 0.10 0.20 0.36 0.35 0.38 0.49 0.36 0.29 0.29 0.26 0.45 0.58
0.12 0.01 0.07 0.08 0.03 0.02 0.01 0.01 0.05 0.05 0.06 0.05 0.04 0.11 0.02 0.02 0.09 0.06 0.03 0.02 0.05 0.03 0.02 0.02 0.02 0.01 0.00 0.05 0.08 0.08 0.15 0.28 0.21 0.21 0.55 0.69 0.66 0.47 0.40 0.37 0.43 0.42 0.45 0.62
0.02 0.02 0.05 0.04 0.01 0.04 0.08 0.05 0.11 0.10 0.13 0.15 0.01 0.06 0.09 0.52 0.52 0.34 0.18 0.11 0.16 0.07 0.06 0.06 0.06 0.04 0.04 0.09 0.12 0.11 0.14 0.24 0.27 0.24 0.39 0.75 1.17 1.51 1.66 1.35 0.93 0.68 0.79 0.84
0.08 0.09 0.01 0.01 0.01 0.04 0.10 0.23 0.42 0.48 0.32 0.11 0.05 0.07 0.24 0.47 0.44 0.43 0.33 0.21 0.17 0.12 0.12 0.12 0.10 0.08 0.09 0.13 0.21 0.22 0.15 0.15 0.15 0.21 0.21 0.29 0.53 0.86 1.35 2.00 2.78 2.70 2.22 1.95
0.18 0.21 0.10 0.00 0.01 0.03 0.08 0.22 0.29 0.34 0.24 0.12 0.09 0.22 0.66 0.57 0.79 0.54 0.79 0.45 0.32 0.24 0.16 0.13 0.14 0.14 0.14 0.20 0.35 0.34 0.33 0.32 0.20 0.22 0.31 0.45 0.53 0.65 0.97 1.10 1.43 2.21 2.95 2.65
0.24 0.21 0.07 0.01 0.04 0.12 0.16 0.16 0.10 0.48 0.33 0.34 0.29 0.77 0.64 0.48 0.78 1.53 0.89 0.51 0.64 0.60 0.35 0.20 0.19 0.26 0.35 0.30 0.39 0.56 0.54 0.63 0.51 0.41 0.39 0.52 0.72 0.72 0.65 0.80 1.42 1.52 1.46 1.65
0.20 0.53 0.20 0.06 0.07 0.07 0.14 0.25 0.44 0.72 0.62 0.61 0.39 0.58 0.84 0.85 1.16 1.00 1.21 1.25 0.67 0.75 0.61 0.34 0.27 0.33 0.34 0.45 0.41 0.56 0.77 1.09 0.82 0.72 0.64 0.69 0.80 0.79 0.92 1.13 1.50 1.91 2.20 2.04
0.23 0.56 0.42 0.16 0.15 0.16 0.24 0.39 0.41 0.46 0.47 0.91 0.94 1.25 1.48 1.58 1.74 1.72 1.09 1.15 1.31 0.80 1.07 0.81 0.50 0.46 0.60 0.78 0.42 0.58 1.04 1.80 1.49 1.10 1.10 1.26 1.05 1.42 1.58 1.41 1.67 1.60 1.70 2.02
0.11 0.84 0.68 0.26 0.12 0.18 0.27 0.23 0.35 0.86 0.65 0.68 1.44 1.89 2.01 1.61 1.25 0.83 0.81 0.75 0.77 0.88 0.95 1.22 0.96 0.78 0.78 0.43 0.51 0.58 0.84 1.19 2.42 2.37 2.50 2.20 2.39 2.83 2.21 2.35 2.73 2.17 1.93 1.67
0.24 0.75 0.39 0.45 0.61 0.32 0.23 0.28 0.47 0.66 1.00 1.41 1.74 1.70 1.81 1.09 0.70 0.49 0.43 0.48 0.51 0.48 0.65 0.89 0.81 0.85 1.01 0.61 0.71 0.88 1.48 1.72 1.66 2.06 2.50 2.40 2.71 2.55 2.50 2.11 1.79 1.51 1.44 1.44
0.28 0.32 0.39 0.72 0.91 0.77 0.46 0.36 0.45 0.83 1.35 1.18 1.24 1.21 0.85 0.90 0.79 0.56 0.40 0.40 0.48 0.55 0.49 0.49 0.60 0.72 1.07 1.15 0.95 1.05 1.36 1.57 1.37 1.51 1.43 2.05 2.03 1.42 1.41 1.82 1.43 1.32 1.23 1.45
0.16 0.41 0.73 0.57 0.68 0.59 1.03 1.03 1.05 0.84 0.76 0.97 0.98 0.56 0.52 0.45 0.84 0.90 0.61 0.57 0.49 0.69 0.51 0.41 0.38 0.42 0.66 0.87 0.90 0.94 0.89 0.97 1.11 1.28 1.10 0.81 0.87 0.81 0.68 0.68 0.76 0.73 0.61 0.77
0.16 0.33 0.76 1.40 0.88 0.40 0.88 1.05 0.89 0.61 0.70 0.74 0.47 0.49 0.43 0.33 0.50 0.89 0.74 0.70 0.49 0.51 0.74 0.60 0.50 0.39 0.39 0.40 0.48 0.55 0.55 0.60 0.61 0.64 0.67 0.72 0.60 0.65 0.66 0.51 0.53 0.37 0.32 0.41
0.20 0.26 0.34 0.63 0.46 0.27 0.62 0.82 0.48 0.28 0.24 0.25 0.25 0.33 0.29 0.33 0.43 0.60 0.71 0.73 0.56 0.52 0.65 0.76 0.81 0.73 0.73 0.62 0.59 0.56 0.58 0.54 0.56 0.56 0.54 0.48 0.59 0.62 0.68 0.63 0.60 0.65 0.71 0.66
0.26 0.31 0.48 0.52 0.36 0.76 0.90 0.38 0.23 0.21 0.30 0.16 0.16 0.23 0.29 0.37 0.46 0.45 0.53 0.84 0.73 0.70 0.87 0.91 0.91 0.88 0.88 0.74 0.69 0.77 0.80 0.79 0.68 0.63 0.60 0.53 0.52 0.64 0.79 0.75 0.76 0.95 0.95 0.81
0.26 0.43 0.75 0.59 0.45 0.46 0.25 0.07 0.07 0.17 0.20 0.15 0.23 0.49 0.46 0.55 0.63 0.75 1.00 1.20 1.21 0.93 0.67 0.71 0.89 0.99 0.73 0.75 0.68 0.73 0.75 0.91 0.97 0.95 0.90 0.86 0.73 0.79 0.92 1.09 1.14 0.98 0.92 0.97
0.46 0.46 0.72 0.64 0.60 0.46 0.20 0.02 0.00 0.03 0.19 0.08 0.17 0.64 0.63 0.64 0.56 0.63 0.82 1.32 1.18 0.76 0.39 0.29 0.27 0.40 0.73 0.72 0.56 0.58 0.67 0.62 0.83 1.08 1.11 1.22 1.34 1.48 1.58 1.52 1.40 1.47 1.46 1.35
0.41 0.78 0.89 0.61 0.68 0.24 0.02 0.04 0.03 0.27 0.41 0.10 0.07 0.22 0.64 0.84 1.02 1.04 0.98 1.09 0.85 0.61 0.19 0.06 0.03 0.02 0.05 0.29 0.48 0.44 0.45 0.64 0.67 0.72 1.02 1.09 1.27 1.38 1.32 1.49 1.59 1.73 1.97 2.09
0.23 0.55 0.61 0.69 0.73 0.37 0.05 0.16 0.32 0.34 0.15 0.09 0.07 0.05 0.14 0.44 0.52 0.42 0.66 0.64 0.48 0.29 0.06 0.00 0.00 0.00 0.01 0.01 0.05 0.19 0.29 0.35 0.43 0.50 0.46 0.58 0.67 0.71 0.92 0.95 1.03 1.16 1.21 1.35
0.42 0.17 0.26 0.28 0.32 0.34 0.24 0.27 0.27 0.14 0.18 0.16 0.10 0.15 0.27 0.31 0.29 0.37 0.32 0.16 0.06 0.04 0.02 0.01 0.01 0.02 0.02 0.01 0.02 0.04 0.07 0.10 0.13 0.18 0.24 0.30 0.37 0.50 0.55 0.63 0.71 0.69 0.72 0.72
0.60 0.47 0.43 0.56 0.65 0.39 0.48 0.36 0.13 0.11 0.21 0.22 0.16 0.11 0.11 0.10 0.11 0.15 0.13 0.07 0.04 0.03 0.02 0.02 0.02 0.01 0.01 0.01 0.01 0.04 0.03 0.04 0.05 0.07 0.08 0.10 0.18 0.26 0.27 0.35 0.42 0.52 0.60 0.64
0.35 0.61 0.78 0.96 0.82 0.64 0.73 0.73 0.57 0.40 0.18 0.15 0.17 0.14 0.11 0.08 0.08 0.08 0.07 0.06 0.04 0.01 0.01 0.01 0.02 0.02 0.00 0.02 0.02 0.04 0.05 0.05 0.06 0.06 0.09 0.10 0.09 0.11 0.12 0.18 0.34 0.42 0.68 0.81
0.18 0.45 0.87 1.38 1.07 0.93 0.92 0.50 0.36 0.31 0.27 0.15 0.07 0.04 0.03 0.02 0.01 0.02 0.04 0.04 0.02 0.03 0.03 0.02 0.02 0.01 0.02 0.02 0.03 0.03 0.02 0.04 0.07 0.11 0.13 0.21 0.22 0.21 0.21 0.24 0.33 0.47 0.53 0.54

GFSCGP_prec_precacc_156.txt.gz
Total_Precipitation_Accumulation
0.02 0.00 0.01 0.00 0.00 0.00 0.00 0.00 0.00 0.00 0.01 0.00 0.00 0.00 0.00 0.04 0.15 0.07 0.03 0.01 0.01 0.01 0.00 0.02 0.05 0.06 0.08 0.18 0.42 0.64 1.00 0.97 0.47 0.28 0.29 0.43 0.62 0.75 0.70 0.59 0.62 1.00 1.15 1.19
0.04 0.03 0.01 0.01 0.00 0.00 0.00 0.01 0.00 0.00 0.00 0.00 0.01 0.00 0.00 0.00 0.02 0.00 0.00 0.01 0.00 0.01 0.00 0.01 0.04 0.10 0.29 0.44 0.44 0.33 0.15 0.13 0.05 0.06 0.14 0.30 0.42 0.62 0.57 0.47 0.40 0.69 0.88 1.26
0.05 0.02 0.00 0.00 0.00 0.01 0.00 0.00 0.00 0.00 0.00 0.01 0.03 0.01 0.00 0.00 0.00 0.00 0.01 0.03 0.01 0.01 0.01 0.04 0.08 0.13 0.11 0.05 0.02 0.06 0.08 0.14 0.07 0.05 0.20 0.38 0.56 0.76 0.68 0.64 0.34 0.29 0.50 0.84
0.06 0.00 0.01 0.04 0.04 0.01 0.00 0.00 0.01 0.01 0.03 0.08 0.06 0.08 0.01 0.00 0.00 0.00 0.01 0.02 0.03 0.03 0.04 0.03 0.01 0.00 0.01 0.03 0.03 0.06 0.13 0.16 0.10 0.20 0.36 0.35 0.38 0.49 0.36 0.29 0.29 0.26 0.45 0.58
0.12 0.01 0.07 0.08 0.03 0.02 0.01 0.01 0.05 0.05 0.06 0.05 0.04 0.11 0.02 0.02 0.09 0.06 0.03 0.02 0.05 0.03 0.02 0.02 0.02 0.01 0.00 0.05 0.08 0.08 0.15 0.28 0.21 0.21 0.55 0.69 0.66 0.47 0.40 0.37 0.43 0.42 0.45 0.62
0.02 0.02 0.05 0.04 0.01 0.04 0.08 0.05 0.11 0.10 0.13 0.15 0.01 0.06 0.09 0.52 0.52 0.34 0.18 0.11 0.16 0.07 0.06 0.06 0.06 0.04 0.04 0.09 0.12 0.11 0.14 0.24 0.27 0.24 0.39 0.75 1.17 1.51 1.66 1.35 0.93 0.68 0.79 0.84
0.08 0.09 0.01 0.01 0.01 0.04 0.10 0.23 0.42 0.48 0.32 0.11 0.05 0.07 0.24 0.47 0.44 0.43 0.33 0.21 0.17 0.12 0.12 0.12 0.10 0.08 0.09 0.13 0.21 0.22 0.15 0.15 0.15 0.21 0.21 0.29 0.53 0.86 1.35 2.00 2.78 2.70 2.22 1.95
0.18 0.21 0.10 0.00 0.01 0.03 0.08 0.22 0.29 0.34 0.24 0.12 0.09 0.22 0.66 0.57 0.79 0.54 0.79 0.45 0.32 0.24 0.16 0.13 0.14 0.14 0.14 0.20 0.35 0.34 0.33 0.32 0.20 0.22 0.31 0.45 0.53 0.65 0.97 1.10 1.44 2.22 2.95 2.66
0.24 0.21 0.07 0.01 0.04 0.12 0.16 0.16 0.10 0.48 0.33 0.34 0.29 0.77 0.65 0.48 0.78 1.53 0.89 0.51 0.64 0.60 0.35 0.20 0.19 0.26 0.35 0.30 0.39 0.56 0.54 0.63 0.51 0.41 0.39 0.52 0.72 0.72 0.65 0.80 1.42 1.52 1.46 1.65
0.20 0.53 0.20 0.06 0.07 0.07 0.14 0.25 0.44 0.72 0.63 0.62 0.39 0.58 0.87 0.88 1.18 1.01 1.21 1.25 0.67 0.75 0.61 0.34 0.27 0.33 0.34 0.45 0.41 0.56 0.77 1.09 0.82 0.72 0.64 0.69 0.80 0.79 0.92 1.13 1.50 1.92 2.20 2.05
0.23 0.56 0.42 0.16 0.15 0.16 0.24 0.39 0.41 0.47 0.47 0.93 0.96 1.26 1.50 1.59 1.74 1.72 1.09 1.15 1.31 0.80 1.07 0.81 0.50 0.46 0.60 0.78 0.42 0.58 1.04 1.80 1.49 1.10 1.10 1.26 1.05 1.42 1.58 1.41 1.67 1.60 1.70 2.02
0.11 0.84 0.68 0.26 0.12 0.18 0.27 0.23 0.35 0.89 0.67 0.70 1.50 1.96 2.02 1.62 1.25 0.83 0.81 0.75 0.77 0.88 0.95 1.22 0.96 0.78 0.78 0.43 0.51 0.58 0.84 1.19 2.42 2.37 2.50 2.20 2.39 2.83 2.21 2.35 2.73 2.17 1.93 1.67
0.24 0.75 0.39 0.45 0.61 0.32 0.23 0.28 0.47 0.66 1.02 1.43 1.80 1.73 1.81 1.09 0.70 0.50 0.44 0.48 0.51 0.48 0.65 0.89 0.81 0.85 1.01 0.61 0.71 0.88 1.48 1.72 1.66 2.06 2.50 2.40 2.71 2.55 2.50 2.11 1.79 1.51 1.44 1.44
0.28 0.32 0.39 0.72 0.91 0.77 0.46 0.36 0.45 0.87 1.40 1.23 1.29 1.25 0.86 0.90 0.79 0.58 0.43 0.40 0.48 0.55 0.49 0.49 0.60 0.72 1.08 1.15 0.95 1.05 1.36 1.57 1.37 1.51 1.43 2.05 2.03 1.42 1.41 1.82 1.43 1.32 1.23 1.45
0.16 0.41 0.73 0.57 0.68 0.59 1.03 1.03 1.05 0.84 0.77 1.00 1.00 0.57 0.52 0.45 0.84 0.90 0.62 0.58 0.49 0.69 0.51 0.41 0.38 0.43 0.67 0.87 0.90 0.94 0.89 0.97 1.11 1.28 1.10 0.81 0.87 0.81 0.68 0.68 0.76 0.73 0.61 0.77
0.16 0.34 0.76 1.40 0.88 0.40 0.88 1.05 0.89 0.61 0.70 0.74 0.47 0.49 0.43 0.33 0.50 0.89 0.75 0.70 0.49 0.51 0.74 0.60 0.50 0.39 0.39 0.40 0.48 0.55 0.55 0.60 0.61 0.64 0.67 0.72 0.60 0.65 0.66 0.51 0.53 0.37 0.32 0.41
0.20 0.27 0.35 0.63 0.46 0.27 0.62 0.82 0.48 0.28 0.24 0.25 0.25 0.33 0.29 0.33 0.44 0.61 0.71 0.73 0.56 0.52 0.65 0.76 0.81 0.73 0.73 0.62 0.59 0.56 0.58 0.54 0.56 0.56 0.54 0.48 0.59 0.62 0.68 0.63 0.60 0.65 0.71 0.66
0.26 0.31 0.49 0.54 0.36 0.77 0.90 0.38 0.23 0.21 0.30 0.17 0.16 0.23 0.29 0.39 0.48 0.45 0.53 0.84 0.73 0.70 0.87 0.91 0.91 0.88 0.88 0.74 0.69 0.77 0.80 0.79 0.68 0.63 0.60 0.53 0.52 0.64 0.79 0.75 0.76 0.95 0.95 0.81
0.26 0.44 0.77 0.62 0.47 0.47 0.25 0.07 0.08 0.18 0.22 0.15 0.23 0.49 0.46 0.56 0.63 0.75 1.00 1.20 1.21 0.93 0.67 0.71 0.89 0.99 0.73 0.75 0.68 0.73 0.75 0.91 0.97 0.95 0.90 0.86 0.73 0.79 0.92 1.09 1.14 0.98 0.92 0.97
0.46 0.47 0.75 0.66 0.62 0.47 0.21 0.07 0.01 0.03 0.20 0.08 0.17 0.64 0.63 0.64 0.56 0.63 0.82 1.32 1.18 0.76 0.39 0.29 0.27 0.40 0.73 0.72 0.56 0.58 0.67 0.62 0.83 1.08 1.11 1.22 1.34 1.48 1.58 1.52 1.40 1.47 1.46 1.35
0.42 0.80 0.93 0.63 0.71 0.24 0.02 0.06 0.05 0.28 0.43 0.10 0.07 0.22 0.64 0.84 1.02 1.04 0.98 1.09 0.85 0.61 0.19 0.06 0.03 0.02 0.05 0.29 0.48 0.44 0.45 0.64 0.67 0.72 1.02 1.09 1.27 1.38 1.32 1.49 1.59 1.73 1.97 2.09
0.28 0.57 0.62 0.71 0.76 0.38 0.05 0.17 0.35 0.36 0.15 0.09 0.07 0.05 0.14 0.44 0.52 0.42 0.66 0.64 0.48 0.29 0.06 0.00 0.00 0.00 0.01 0.01 0.05 0.19 0.29 0.35 0.43 0.50 0.46 0.58 0.67 0.71 0.92 0.95 1.03 1.16 1.21 1.35
0.46 0.17 0.26 0.30 0.35 0.38 0.26 0.28 0.27 0.14 0.18 0.16 0.10 0.15 0.27 0.31 0.29 0.37 0.32 0.16 0.06 0.04 0.02 0.01 0.01 0.02 0.02 0.01 0.02 0.04 0.07 0.10 0.13 0.18 0.24 0.30 0.37 0.50 0.55 0.63 0.71 0.69 0.72 0.72
0.62 0.48 0.47 0.61 0.67 0.46 0.53 0.36 0.13 0.11 0.21 0.22 0.16 0.11 0.11 0.10 0.11 0.15 0.13 0.07 0.04 0.03 0.02 0.02 0.02 0.01 0.01 0.01 0.01 0.04 0.03 0.04 0.05 0.07 0.08 0.10 0.18 0.26 0.27 0.35 0.42 0.52 0.60 0.64
0.40 0.67 0.86 1.01 0.84 0.65 0.74 0.73 0.57 0.40 0.18 0.15 0.17 0.14 0.11 0.08 0.08 0.08 0.07 0.06 0.04 0.01 0.01 0.01 0.02 0.02 0.00 0.02 0.02 0.04 0.05 0.05 0.06 0.06 0.09 0.10 0.09 0.11 0.12 0.18 0.34 0.42 0.68 0.81
0.18 0.48 0.92 1.43 1.10 0.94 0.93 0.51 0.36 0.31 0.27 0.15 0.07 0.04 0.03 0.02 0.01 0.02 0.04 0.04 0.02 0.03 0.03 0.02 0.02 0.01 0.02 0.02 0.03 0.03 0.02 0.04 0.07 0.11 0.13 0.21 0.22 0.21 0.21 0.24 0.33 0.47 0.53 0.54